<?xml version="1.0" encoding="UTF-8" standalone="no" ?>
<gpx xmlns="http://www.topografix.com/GPX/1/1" xmlns:xsi="http://www.w3.org/2001/XMLSchema-instance" xsi:schemaLocation="http://www.topografix.com/GPX/1/1 http://www.topografix.com/GPX/1/1/gpx.xsd" version="1.1" creator="VisuGPX - https://www.visugpx.com">
  <metadata>
    <name>Pornichet 16/06/2022</name>
    <desc><![CDATA[Sortie jeudi 16 juin 2022]]></desc>
  </metadata>
  <trk>
    <name><![CDATA[Pornichet Cyclisme]]></name>
    <trkseg>
      <trkpt lat="47.26361" lon="-2.31559">
        <ele>8</ele>
        <time>2022-06-16T06:48:03.000Z</time>
      </trkpt>
      <trkpt lat="47.26361" lon="-2.31575">
        <ele>8</ele>
        <time>2022-06-16T06:48:06.000Z</time>
      </trkpt>
      <trkpt lat="47.26361" lon="-2.3158">
        <ele>0.40000000596046</ele>
        <time>2022-06-16T06:48:07.000Z</time>
      </trkpt>
      <trkpt lat="47.26361" lon="-2.31586">
        <ele>1</ele>
        <time>2022-06-16T06:48:08.000Z</time>
      </trkpt>
      <trkpt lat="47.26362" lon="-2.31592">
        <ele>1.6000000238419</ele>
        <time>2022-06-16T06:48:09.000Z</time>
      </trkpt>
      <trkpt lat="47.26361" lon="-2.31628">
        <ele>1.6000000238419</ele>
        <time>2022-06-16T06:48:15.000Z</time>
      </trkpt>
      <trkpt lat="47.26361" lon="-2.31663">
        <ele>1.6000000238419</ele>
        <time>2022-06-16T06:48:21.000Z</time>
      </trkpt>
      <trkpt lat="47.26357" lon="-2.31665">
        <ele>1.6000000238419</ele>
        <time>2022-06-16T06:48:22.000Z</time>
      </trkpt>
      <trkpt lat="47.26353" lon="-2.31667">
        <ele>1.6000000238419</ele>
        <time>2022-06-16T06:48:23.000Z</time>
      </trkpt>
      <trkpt lat="47.2634" lon="-2.31675">
        <ele>1.6000000238419</ele>
        <time>2022-06-16T06:48:26.000Z</time>
      </trkpt>
      <trkpt lat="47.26331" lon="-2.31681">
        <ele>0.80000001192093</ele>
        <time>2022-06-16T06:48:28.000Z</time>
      </trkpt>
      <trkpt lat="47.26326" lon="-2.31684">
        <ele>-0.60000002384186</ele>
        <time>2022-06-16T06:48:29.000Z</time>
      </trkpt>
      <trkpt lat="47.26322" lon="-2.31687">
        <ele>-1.3999999761581</ele>
        <time>2022-06-16T06:48:30.000Z</time>
      </trkpt>
      <trkpt lat="47.26318" lon="-2.31691">
        <ele>-2</ele>
        <time>2022-06-16T06:48:31.000Z</time>
      </trkpt>
      <trkpt lat="47.263" lon="-2.31702">
        <ele>-2</ele>
        <time>2022-06-16T06:48:35.000Z</time>
      </trkpt>
      <trkpt lat="47.2628" lon="-2.31713">
        <ele>-2.5999999046326</ele>
        <time>2022-06-16T06:48:39.000Z</time>
      </trkpt>
      <trkpt lat="47.26275" lon="-2.31715">
        <ele>-3</ele>
        <time>2022-06-16T06:48:40.000Z</time>
      </trkpt>
      <trkpt lat="47.26271" lon="-2.31718">
        <ele>-3.4000000953674</ele>
        <time>2022-06-16T06:48:41.000Z</time>
      </trkpt>
      <trkpt lat="47.26267" lon="-2.31721">
        <ele>-3.7999999523163</ele>
        <time>2022-06-16T06:48:42.000Z</time>
      </trkpt>
      <trkpt lat="47.26263" lon="-2.31726">
        <ele>-4.1999998092651</ele>
        <time>2022-06-16T06:48:43.000Z</time>
      </trkpt>
      <trkpt lat="47.26259" lon="-2.31734">
        <ele>-4.1999998092651</ele>
        <time>2022-06-16T06:48:45.000Z</time>
      </trkpt>
      <trkpt lat="47.26259" lon="-2.31734">
        <ele>-4.1999998092651</ele>
        <time>2022-06-16T06:48:46.000Z</time>
      </trkpt>
      <trkpt lat="47.26259" lon="-2.31734">
        <ele>-4.1999998092651</ele>
        <time>2022-06-16T06:48:48.000Z</time>
      </trkpt>
      <trkpt lat="47.26267" lon="-2.31734">
        <ele>-4.1999998092651</ele>
        <time>2022-06-16T06:49:35.000Z</time>
      </trkpt>
      <trkpt lat="47.2627" lon="-2.31744">
        <ele>-4.1999998092651</ele>
        <time>2022-06-16T06:49:38.000Z</time>
      </trkpt>
      <trkpt lat="47.26276" lon="-2.31774">
        <ele>-4.1999998092651</ele>
        <time>2022-06-16T06:49:44.000Z</time>
      </trkpt>
      <trkpt lat="47.26276" lon="-2.31806">
        <ele>-4.1999998092651</ele>
        <time>2022-06-16T06:49:50.000Z</time>
      </trkpt>
      <trkpt lat="47.26274" lon="-2.3184">
        <ele>-4.1999998092651</ele>
        <time>2022-06-16T06:49:55.000Z</time>
      </trkpt>
      <trkpt lat="47.26273" lon="-2.31846">
        <ele>-4.1999998092651</ele>
        <time>2022-06-16T06:49:56.000Z</time>
      </trkpt>
      <trkpt lat="47.2627" lon="-2.31868">
        <ele>-4.5999999046326</ele>
        <time>2022-06-16T06:50:00.000Z</time>
      </trkpt>
      <trkpt lat="47.26267" lon="-2.31873">
        <ele>-5.1999998092651</ele>
        <time>2022-06-16T06:50:01.000Z</time>
      </trkpt>
      <trkpt lat="47.26265" lon="-2.31877">
        <ele>-5.5999999046326</ele>
        <time>2022-06-16T06:50:02.000Z</time>
      </trkpt>
      <trkpt lat="47.26263" lon="-2.31879">
        <ele>-6</ele>
        <time>2022-06-16T06:50:03.000Z</time>
      </trkpt>
      <trkpt lat="47.26261" lon="-2.31883">
        <ele>-6.4000000953674</ele>
        <time>2022-06-16T06:50:04.000Z</time>
      </trkpt>
      <trkpt lat="47.26257" lon="-2.3189">
        <ele>-6.4000000953674</ele>
        <time>2022-06-16T06:50:06.000Z</time>
      </trkpt>
      <trkpt lat="47.2625" lon="-2.31908">
        <ele>-6.4000000953674</ele>
        <time>2022-06-16T06:50:09.000Z</time>
      </trkpt>
      <trkpt lat="47.26245" lon="-2.31919">
        <ele>-6.4000000953674</ele>
        <time>2022-06-16T06:50:11.000Z</time>
      </trkpt>
      <trkpt lat="47.26239" lon="-2.31935">
        <ele>-6.4000000953674</ele>
        <time>2022-06-16T06:50:14.000Z</time>
      </trkpt>
      <trkpt lat="47.26233" lon="-2.31949">
        <ele>-6.4000000953674</ele>
        <time>2022-06-16T06:50:17.000Z</time>
      </trkpt>
      <trkpt lat="47.26226" lon="-2.31955">
        <ele>-6.4000000953674</ele>
        <time>2022-06-16T06:50:19.000Z</time>
      </trkpt>
      <trkpt lat="47.26223" lon="-2.31957">
        <ele>-6.4000000953674</ele>
        <time>2022-06-16T06:50:20.000Z</time>
      </trkpt>
      <trkpt lat="47.26211" lon="-2.31967">
        <ele>-6.4000000953674</ele>
        <time>2022-06-16T06:50:24.000Z</time>
      </trkpt>
      <trkpt lat="47.26192" lon="-2.31991">
        <ele>-6.4000000953674</ele>
        <time>2022-06-16T06:50:31.000Z</time>
      </trkpt>
      <trkpt lat="47.26184" lon="-2.32004">
        <ele>-6.4000000953674</ele>
        <time>2022-06-16T06:50:36.000Z</time>
      </trkpt>
      <trkpt lat="47.26183" lon="-2.32005">
        <ele>-6.4000000953674</ele>
        <time>2022-06-16T06:50:37.000Z</time>
      </trkpt>
      <trkpt lat="47.26172" lon="-2.32015">
        <ele>-6.4000000953674</ele>
        <time>2022-06-16T06:50:41.000Z</time>
      </trkpt>
      <trkpt lat="47.26157" lon="-2.32033">
        <ele>-6.4000000953674</ele>
        <time>2022-06-16T06:50:45.000Z</time>
      </trkpt>
      <trkpt lat="47.26153" lon="-2.32044">
        <ele>-6.4000000953674</ele>
        <time>2022-06-16T06:50:47.000Z</time>
      </trkpt>
      <trkpt lat="47.26145" lon="-2.32078">
        <ele>-6.4000000953674</ele>
        <time>2022-06-16T06:50:52.000Z</time>
      </trkpt>
      <trkpt lat="47.26134" lon="-2.32122">
        <ele>-6.4000000953674</ele>
        <time>2022-06-16T06:50:59.000Z</time>
      </trkpt>
      <trkpt lat="47.26116" lon="-2.32184">
        <ele>-6.4000000953674</ele>
        <time>2022-06-16T06:51:09.000Z</time>
      </trkpt>
      <trkpt lat="47.26112" lon="-2.32196">
        <ele>-6.4000000953674</ele>
        <time>2022-06-16T06:51:11.000Z</time>
      </trkpt>
      <trkpt lat="47.26106" lon="-2.32208">
        <ele>-6.4000000953674</ele>
        <time>2022-06-16T06:51:13.000Z</time>
      </trkpt>
      <trkpt lat="47.26098" lon="-2.32223">
        <ele>-6.4000000953674</ele>
        <time>2022-06-16T06:51:16.000Z</time>
      </trkpt>
      <trkpt lat="47.26071" lon="-2.32257">
        <ele>-6.4000000953674</ele>
        <time>2022-06-16T06:51:23.000Z</time>
      </trkpt>
      <trkpt lat="47.26068" lon="-2.32261">
        <ele>-6.4000000953674</ele>
        <time>2022-06-16T06:51:24.000Z</time>
      </trkpt>
      <trkpt lat="47.26049" lon="-2.32279">
        <ele>-6.4000000953674</ele>
        <time>2022-06-16T06:51:29.000Z</time>
      </trkpt>
      <trkpt lat="47.26011" lon="-2.32324">
        <ele>-6.8000001907349</ele>
        <time>2022-06-16T06:51:39.000Z</time>
      </trkpt>
      <trkpt lat="47.26007" lon="-2.3233">
        <ele>-7.1999998092651</ele>
        <time>2022-06-16T06:51:40.000Z</time>
      </trkpt>
      <trkpt lat="47.26003" lon="-2.32335">
        <ele>-7.5999999046326</ele>
        <time>2022-06-16T06:51:41.000Z</time>
      </trkpt>
      <trkpt lat="47.26" lon="-2.3234">
        <ele>-8</ele>
        <time>2022-06-16T06:51:42.000Z</time>
      </trkpt>
      <trkpt lat="47.25995" lon="-2.32346">
        <ele>-8.3999996185303</ele>
        <time>2022-06-16T06:51:43.000Z</time>
      </trkpt>
      <trkpt lat="47.25974" lon="-2.32369">
        <ele>-8.3999996185303</ele>
        <time>2022-06-16T06:51:48.000Z</time>
      </trkpt>
      <trkpt lat="47.25933" lon="-2.32421">
        <ele>-8.3999996185303</ele>
        <time>2022-06-16T06:51:59.000Z</time>
      </trkpt>
      <trkpt lat="47.25909" lon="-2.32451">
        <ele>-8.3999996185303</ele>
        <time>2022-06-16T06:52:06.000Z</time>
      </trkpt>
      <trkpt lat="47.25906" lon="-2.32456">
        <ele>-8.3999996185303</ele>
        <time>2022-06-16T06:52:07.000Z</time>
      </trkpt>
      <trkpt lat="47.25904" lon="-2.32468">
        <ele>-8.3999996185303</ele>
        <time>2022-06-16T06:52:10.000Z</time>
      </trkpt>
      <trkpt lat="47.25907" lon="-2.3247">
        <ele>-8.3999996185303</ele>
        <time>2022-06-16T06:52:11.000Z</time>
      </trkpt>
      <trkpt lat="47.25916" lon="-2.32475">
        <ele>-8.3999996185303</ele>
        <time>2022-06-16T06:52:14.000Z</time>
      </trkpt>
      <trkpt lat="47.25919" lon="-2.32479">
        <ele>-8.3999996185303</ele>
        <time>2022-06-16T06:52:15.000Z</time>
      </trkpt>
      <trkpt lat="47.25927" lon="-2.32496">
        <ele>-8.3999996185303</ele>
        <time>2022-06-16T06:52:18.000Z</time>
      </trkpt>
      <trkpt lat="47.25931" lon="-2.32509">
        <ele>-8.3999996185303</ele>
        <time>2022-06-16T06:52:20.000Z</time>
      </trkpt>
      <trkpt lat="47.25945" lon="-2.32555">
        <ele>-8.3999996185303</ele>
        <time>2022-06-16T06:52:27.000Z</time>
      </trkpt>
      <trkpt lat="47.25947" lon="-2.32562">
        <ele>-8.3999996185303</ele>
        <time>2022-06-16T06:52:28.000Z</time>
      </trkpt>
      <trkpt lat="47.25959" lon="-2.32615">
        <ele>-8.3999996185303</ele>
        <time>2022-06-16T06:52:36.000Z</time>
      </trkpt>
      <trkpt lat="47.25962" lon="-2.32635">
        <ele>-8.3999996185303</ele>
        <time>2022-06-16T06:52:39.000Z</time>
      </trkpt>
      <trkpt lat="47.25962" lon="-2.32648">
        <ele>-8.3999996185303</ele>
        <time>2022-06-16T06:52:41.000Z</time>
      </trkpt>
      <trkpt lat="47.2597" lon="-2.32656">
        <ele>-8.3999996185303</ele>
        <time>2022-06-16T06:52:44.000Z</time>
      </trkpt>
      <trkpt lat="47.25973" lon="-2.32655">
        <ele>-8.3999996185303</ele>
        <time>2022-06-16T06:52:45.000Z</time>
      </trkpt>
      <trkpt lat="47.25982" lon="-2.32655">
        <ele>-8.3999996185303</ele>
        <time>2022-06-16T06:52:47.000Z</time>
      </trkpt>
      <trkpt lat="47.2599" lon="-2.32656">
        <ele>-8.3999996185303</ele>
        <time>2022-06-16T06:52:49.000Z</time>
      </trkpt>
      <trkpt lat="47.25994" lon="-2.32655">
        <ele>-8.3999996185303</ele>
        <time>2022-06-16T06:52:50.000Z</time>
      </trkpt>
      <trkpt lat="47.26023" lon="-2.3265">
        <ele>-8.3999996185303</ele>
        <time>2022-06-16T06:52:57.000Z</time>
      </trkpt>
      <trkpt lat="47.26065" lon="-2.32644">
        <ele>-8.3999996185303</ele>
        <time>2022-06-16T06:53:07.000Z</time>
      </trkpt>
      <trkpt lat="47.2609" lon="-2.3264">
        <ele>-8.3999996185303</ele>
        <time>2022-06-16T06:53:13.000Z</time>
      </trkpt>
      <trkpt lat="47.26103" lon="-2.32638">
        <ele>-8.3999996185303</ele>
        <time>2022-06-16T06:53:16.000Z</time>
      </trkpt>
      <trkpt lat="47.26132" lon="-2.32637">
        <ele>-8.3999996185303</ele>
        <time>2022-06-16T06:53:23.000Z</time>
      </trkpt>
      <trkpt lat="47.26157" lon="-2.32645">
        <ele>-8.3999996185303</ele>
        <time>2022-06-16T06:53:29.000Z</time>
      </trkpt>
      <trkpt lat="47.26177" lon="-2.32657">
        <ele>-8.3999996185303</ele>
        <time>2022-06-16T06:53:34.000Z</time>
      </trkpt>
      <trkpt lat="47.26185" lon="-2.32663">
        <ele>-8.3999996185303</ele>
        <time>2022-06-16T06:53:36.000Z</time>
      </trkpt>
      <trkpt lat="47.26212" lon="-2.32692">
        <ele>-8.3999996185303</ele>
        <time>2022-06-16T06:53:43.000Z</time>
      </trkpt>
      <trkpt lat="47.26238" lon="-2.32728">
        <ele>-8.3999996185303</ele>
        <time>2022-06-16T06:53:50.000Z</time>
      </trkpt>
      <trkpt lat="47.26246" lon="-2.3274">
        <ele>-8.8000001907349</ele>
        <time>2022-06-16T06:53:52.000Z</time>
      </trkpt>
      <trkpt lat="47.2625" lon="-2.32746">
        <ele>-9.1999998092651</ele>
        <time>2022-06-16T06:53:53.000Z</time>
      </trkpt>
      <trkpt lat="47.26253" lon="-2.32751">
        <ele>-9.6000003814697</ele>
        <time>2022-06-16T06:53:54.000Z</time>
      </trkpt>
      <trkpt lat="47.26257" lon="-2.32757">
        <ele>-10</ele>
        <time>2022-06-16T06:53:55.000Z</time>
      </trkpt>
      <trkpt lat="47.26261" lon="-2.32763">
        <ele>-10.39999961853</ele>
        <time>2022-06-16T06:53:56.000Z</time>
      </trkpt>
      <trkpt lat="47.26271" lon="-2.32781">
        <ele>-10.39999961853</ele>
        <time>2022-06-16T06:53:59.000Z</time>
      </trkpt>
      <trkpt lat="47.26285" lon="-2.32816">
        <ele>-10.39999961853</ele>
        <time>2022-06-16T06:54:04.000Z</time>
      </trkpt>
      <trkpt lat="47.26286" lon="-2.32823">
        <ele>-10.39999961853</ele>
        <time>2022-06-16T06:54:05.000Z</time>
      </trkpt>
      <trkpt lat="47.2629" lon="-2.32845">
        <ele>-11</ele>
        <time>2022-06-16T06:54:08.000Z</time>
      </trkpt>
      <trkpt lat="47.26293" lon="-2.32852">
        <ele>-11.39999961853</ele>
        <time>2022-06-16T06:54:09.000Z</time>
      </trkpt>
      <trkpt lat="47.26296" lon="-2.32857">
        <ele>-11.800000190735</ele>
        <time>2022-06-16T06:54:10.000Z</time>
      </trkpt>
      <trkpt lat="47.26301" lon="-2.3286">
        <ele>-12.199999809265</ele>
        <time>2022-06-16T06:54:11.000Z</time>
      </trkpt>
      <trkpt lat="47.26306" lon="-2.32862">
        <ele>-12.60000038147</ele>
        <time>2022-06-16T06:54:12.000Z</time>
      </trkpt>
      <trkpt lat="47.26311" lon="-2.32864">
        <ele>-12.60000038147</ele>
        <time>2022-06-16T06:54:13.000Z</time>
      </trkpt>
      <trkpt lat="47.26315" lon="-2.32868">
        <ele>-12.60000038147</ele>
        <time>2022-06-16T06:54:14.000Z</time>
      </trkpt>
      <trkpt lat="47.26322" lon="-2.32879">
        <ele>-12.60000038147</ele>
        <time>2022-06-16T06:54:16.000Z</time>
      </trkpt>
      <trkpt lat="47.26326" lon="-2.32893">
        <ele>-12.60000038147</ele>
        <time>2022-06-16T06:54:18.000Z</time>
      </trkpt>
      <trkpt lat="47.26332" lon="-2.32914">
        <ele>-12.60000038147</ele>
        <time>2022-06-16T06:54:21.000Z</time>
      </trkpt>
      <trkpt lat="47.26351" lon="-2.32967">
        <ele>-12.60000038147</ele>
        <time>2022-06-16T06:54:29.000Z</time>
      </trkpt>
      <trkpt lat="47.26354" lon="-2.32973">
        <ele>-12.60000038147</ele>
        <time>2022-06-16T06:54:30.000Z</time>
      </trkpt>
      <trkpt lat="47.26364" lon="-2.32988">
        <ele>-12.60000038147</ele>
        <time>2022-06-16T06:54:33.000Z</time>
      </trkpt>
      <trkpt lat="47.26368" lon="-2.33015">
        <ele>-12.60000038147</ele>
        <time>2022-06-16T06:54:37.000Z</time>
      </trkpt>
      <trkpt lat="47.26368" lon="-2.33022">
        <ele>-12.60000038147</ele>
        <time>2022-06-16T06:54:38.000Z</time>
      </trkpt>
      <trkpt lat="47.26371" lon="-2.3309">
        <ele>-12.60000038147</ele>
        <time>2022-06-16T06:54:47.000Z</time>
      </trkpt>
      <trkpt lat="47.26372" lon="-2.33112">
        <ele>-12.60000038147</ele>
        <time>2022-06-16T06:54:50.000Z</time>
      </trkpt>
      <trkpt lat="47.26375" lon="-2.33141">
        <ele>-12.60000038147</ele>
        <time>2022-06-16T06:54:54.000Z</time>
      </trkpt>
      <trkpt lat="47.26377" lon="-2.33207">
        <ele>-12.60000038147</ele>
        <time>2022-06-16T06:55:03.000Z</time>
      </trkpt>
      <trkpt lat="47.2638" lon="-2.33235">
        <ele>-12.60000038147</ele>
        <time>2022-06-16T06:55:07.000Z</time>
      </trkpt>
      <trkpt lat="47.26385" lon="-2.33256">
        <ele>-12.60000038147</ele>
        <time>2022-06-16T06:55:10.000Z</time>
      </trkpt>
      <trkpt lat="47.26398" lon="-2.33265">
        <ele>-12.60000038147</ele>
        <time>2022-06-16T06:55:13.000Z</time>
      </trkpt>
      <trkpt lat="47.26408" lon="-2.33266">
        <ele>-12.60000038147</ele>
        <time>2022-06-16T06:55:15.000Z</time>
      </trkpt>
      <trkpt lat="47.26427" lon="-2.33269">
        <ele>-12.60000038147</ele>
        <time>2022-06-16T06:55:19.000Z</time>
      </trkpt>
      <trkpt lat="47.26469" lon="-2.33274">
        <ele>-12.60000038147</ele>
        <time>2022-06-16T06:55:28.000Z</time>
      </trkpt>
      <trkpt lat="47.26487" lon="-2.33277">
        <ele>-13</ele>
        <time>2022-06-16T06:55:32.000Z</time>
      </trkpt>
      <trkpt lat="47.26491" lon="-2.33278">
        <ele>-13.39999961853</ele>
        <time>2022-06-16T06:55:33.000Z</time>
      </trkpt>
      <trkpt lat="47.26494" lon="-2.33278">
        <ele>-13.800000190735</ele>
        <time>2022-06-16T06:55:34.000Z</time>
      </trkpt>
      <trkpt lat="47.26498" lon="-2.33279">
        <ele>-14.199999809265</ele>
        <time>2022-06-16T06:55:35.000Z</time>
      </trkpt>
      <trkpt lat="47.26501" lon="-2.3328">
        <ele>-14.60000038147</ele>
        <time>2022-06-16T06:55:36.000Z</time>
      </trkpt>
      <trkpt lat="47.26509" lon="-2.33287">
        <ele>-14.60000038147</ele>
        <time>2022-06-16T06:55:39.000Z</time>
      </trkpt>
      <trkpt lat="47.26521" lon="-2.33301">
        <ele>-14.60000038147</ele>
        <time>2022-06-16T06:55:43.000Z</time>
      </trkpt>
      <trkpt lat="47.26524" lon="-2.33306">
        <ele>-14.60000038147</ele>
        <time>2022-06-16T06:55:44.000Z</time>
      </trkpt>
      <trkpt lat="47.26527" lon="-2.33327">
        <ele>-14.60000038147</ele>
        <time>2022-06-16T06:55:47.000Z</time>
      </trkpt>
      <trkpt lat="47.26529" lon="-2.33358">
        <ele>-14.60000038147</ele>
        <time>2022-06-16T06:55:51.000Z</time>
      </trkpt>
      <trkpt lat="47.26533" lon="-2.33374">
        <ele>-14.60000038147</ele>
        <time>2022-06-16T06:55:53.000Z</time>
      </trkpt>
      <trkpt lat="47.26539" lon="-2.33396">
        <ele>-14.60000038147</ele>
        <time>2022-06-16T06:55:56.000Z</time>
      </trkpt>
      <trkpt lat="47.26541" lon="-2.33403">
        <ele>-14.60000038147</ele>
        <time>2022-06-16T06:55:57.000Z</time>
      </trkpt>
      <trkpt lat="47.26551" lon="-2.33457">
        <ele>-14.60000038147</ele>
        <time>2022-06-16T06:56:04.000Z</time>
      </trkpt>
      <trkpt lat="47.26557" lon="-2.33494">
        <ele>-14.60000038147</ele>
        <time>2022-06-16T06:56:09.000Z</time>
      </trkpt>
      <trkpt lat="47.26561" lon="-2.33507">
        <ele>-14.60000038147</ele>
        <time>2022-06-16T06:56:11.000Z</time>
      </trkpt>
      <trkpt lat="47.26563" lon="-2.33513">
        <ele>-14.60000038147</ele>
        <time>2022-06-16T06:56:12.000Z</time>
      </trkpt>
      <trkpt lat="47.26568" lon="-2.3354">
        <ele>-14.60000038147</ele>
        <time>2022-06-16T06:56:16.000Z</time>
      </trkpt>
      <trkpt lat="47.26573" lon="-2.3358">
        <ele>-14.60000038147</ele>
        <time>2022-06-16T06:56:22.000Z</time>
      </trkpt>
      <trkpt lat="47.26578" lon="-2.33612">
        <ele>-14.60000038147</ele>
        <time>2022-06-16T06:56:27.000Z</time>
      </trkpt>
      <trkpt lat="47.26581" lon="-2.33624">
        <ele>-14.60000038147</ele>
        <time>2022-06-16T06:56:29.000Z</time>
      </trkpt>
      <trkpt lat="47.26586" lon="-2.33659">
        <ele>-14.60000038147</ele>
        <time>2022-06-16T06:56:35.000Z</time>
      </trkpt>
      <trkpt lat="47.26596" lon="-2.33681">
        <ele>-14.60000038147</ele>
        <time>2022-06-16T06:56:40.000Z</time>
      </trkpt>
      <trkpt lat="47.26605" lon="-2.33699">
        <ele>-14.199999809265</ele>
        <time>2022-06-16T06:56:45.000Z</time>
      </trkpt>
      <trkpt lat="47.26607" lon="-2.33703">
        <ele>-13.800000190735</ele>
        <time>2022-06-16T06:56:46.000Z</time>
      </trkpt>
      <trkpt lat="47.2661" lon="-2.33707">
        <ele>-13.39999961853</ele>
        <time>2022-06-16T06:56:47.000Z</time>
      </trkpt>
      <trkpt lat="47.26613" lon="-2.33711">
        <ele>-13</ele>
        <time>2022-06-16T06:56:48.000Z</time>
      </trkpt>
      <trkpt lat="47.26616" lon="-2.33715">
        <ele>-12.60000038147</ele>
        <time>2022-06-16T06:56:49.000Z</time>
      </trkpt>
      <trkpt lat="47.26619" lon="-2.3372">
        <ele>-12.60000038147</ele>
        <time>2022-06-16T06:56:50.000Z</time>
      </trkpt>
      <trkpt lat="47.26639" lon="-2.33756">
        <ele>-12.60000038147</ele>
        <time>2022-06-16T06:56:57.000Z</time>
      </trkpt>
      <trkpt lat="47.26663" lon="-2.33793">
        <ele>-12.60000038147</ele>
        <time>2022-06-16T06:57:04.000Z</time>
      </trkpt>
      <trkpt lat="47.26685" lon="-2.3383">
        <ele>-12.60000038147</ele>
        <time>2022-06-16T06:57:11.000Z</time>
      </trkpt>
      <trkpt lat="47.26692" lon="-2.33841">
        <ele>-12.60000038147</ele>
        <time>2022-06-16T06:57:13.000Z</time>
      </trkpt>
      <trkpt lat="47.26707" lon="-2.33863">
        <ele>-12.60000038147</ele>
        <time>2022-06-16T06:57:17.000Z</time>
      </trkpt>
      <trkpt lat="47.2671" lon="-2.33868">
        <ele>-12.60000038147</ele>
        <time>2022-06-16T06:57:18.000Z</time>
      </trkpt>
      <trkpt lat="47.26724" lon="-2.33892">
        <ele>-12.60000038147</ele>
        <time>2022-06-16T06:57:22.000Z</time>
      </trkpt>
      <trkpt lat="47.26728" lon="-2.33897">
        <ele>-12.60000038147</ele>
        <time>2022-06-16T06:57:23.000Z</time>
      </trkpt>
      <trkpt lat="47.26755" lon="-2.33936">
        <ele>-12.60000038147</ele>
        <time>2022-06-16T06:57:30.000Z</time>
      </trkpt>
      <trkpt lat="47.26762" lon="-2.33948">
        <ele>-12.60000038147</ele>
        <time>2022-06-16T06:57:32.000Z</time>
      </trkpt>
      <trkpt lat="47.26777" lon="-2.33969">
        <ele>-12.60000038147</ele>
        <time>2022-06-16T06:57:36.000Z</time>
      </trkpt>
      <trkpt lat="47.26806" lon="-2.34015">
        <ele>-12.60000038147</ele>
        <time>2022-06-16T06:57:44.000Z</time>
      </trkpt>
      <trkpt lat="47.26826" lon="-2.3405">
        <ele>-12.60000038147</ele>
        <time>2022-06-16T06:57:50.000Z</time>
      </trkpt>
      <trkpt lat="47.26854" lon="-2.34094">
        <ele>-12.60000038147</ele>
        <time>2022-06-16T06:57:58.000Z</time>
      </trkpt>
      <trkpt lat="47.26878" lon="-2.34136">
        <ele>-12.60000038147</ele>
        <time>2022-06-16T06:58:05.000Z</time>
      </trkpt>
      <trkpt lat="47.26908" lon="-2.34183">
        <ele>-12.60000038147</ele>
        <time>2022-06-16T06:58:13.000Z</time>
      </trkpt>
      <trkpt lat="47.26943" lon="-2.34234">
        <ele>-12.60000038147</ele>
        <time>2022-06-16T06:58:22.000Z</time>
      </trkpt>
      <trkpt lat="47.26966" lon="-2.34269">
        <ele>-12.60000038147</ele>
        <time>2022-06-16T06:58:28.000Z</time>
      </trkpt>
      <trkpt lat="47.26987" lon="-2.34303">
        <ele>-12.60000038147</ele>
        <time>2022-06-16T06:58:34.000Z</time>
      </trkpt>
      <trkpt lat="47.26992" lon="-2.34313">
        <ele>-12.60000038147</ele>
        <time>2022-06-16T06:58:36.000Z</time>
      </trkpt>
      <trkpt lat="47.27006" lon="-2.34318">
        <ele>-12.60000038147</ele>
        <time>2022-06-16T06:58:40.000Z</time>
      </trkpt>
      <trkpt lat="47.2701" lon="-2.34319">
        <ele>-12.60000038147</ele>
        <time>2022-06-16T06:58:41.000Z</time>
      </trkpt>
      <trkpt lat="47.2702" lon="-2.3432">
        <ele>-12.60000038147</ele>
        <time>2022-06-16T06:58:43.000Z</time>
      </trkpt>
      <trkpt lat="47.27025" lon="-2.3432">
        <ele>-12.60000038147</ele>
        <time>2022-06-16T06:58:44.000Z</time>
      </trkpt>
      <trkpt lat="47.27038" lon="-2.34329">
        <ele>-12.60000038147</ele>
        <time>2022-06-16T06:58:47.000Z</time>
      </trkpt>
      <trkpt lat="47.27044" lon="-2.3435">
        <ele>-12.60000038147</ele>
        <time>2022-06-16T06:58:50.000Z</time>
      </trkpt>
      <trkpt lat="47.27059" lon="-2.34417">
        <ele>-12.60000038147</ele>
        <time>2022-06-16T06:58:59.000Z</time>
      </trkpt>
      <trkpt lat="47.27072" lon="-2.34475">
        <ele>-12.60000038147</ele>
        <time>2022-06-16T06:59:07.000Z</time>
      </trkpt>
      <trkpt lat="47.27082" lon="-2.34518">
        <ele>-12.60000038147</ele>
        <time>2022-06-16T06:59:13.000Z</time>
      </trkpt>
      <trkpt lat="47.27097" lon="-2.34582">
        <ele>-12.60000038147</ele>
        <time>2022-06-16T06:59:22.000Z</time>
      </trkpt>
      <trkpt lat="47.27109" lon="-2.34638">
        <ele>-12.60000038147</ele>
        <time>2022-06-16T06:59:29.000Z</time>
      </trkpt>
      <trkpt lat="47.27123" lon="-2.34703">
        <ele>-12.60000038147</ele>
        <time>2022-06-16T06:59:37.000Z</time>
      </trkpt>
      <trkpt lat="47.27138" lon="-2.34764">
        <ele>-12.60000038147</ele>
        <time>2022-06-16T06:59:45.000Z</time>
      </trkpt>
      <trkpt lat="47.27147" lon="-2.34809">
        <ele>-12.60000038147</ele>
        <time>2022-06-16T06:59:51.000Z</time>
      </trkpt>
      <trkpt lat="47.27163" lon="-2.34875">
        <ele>-12.60000038147</ele>
        <time>2022-06-16T07:00:00.000Z</time>
      </trkpt>
      <trkpt lat="47.27179" lon="-2.34928">
        <ele>-12.60000038147</ele>
        <time>2022-06-16T07:00:08.000Z</time>
      </trkpt>
      <trkpt lat="47.27194" lon="-2.34974">
        <ele>-12.60000038147</ele>
        <time>2022-06-16T07:00:15.000Z</time>
      </trkpt>
      <trkpt lat="47.27209" lon="-2.35018">
        <ele>-12.60000038147</ele>
        <time>2022-06-16T07:00:22.000Z</time>
      </trkpt>
      <trkpt lat="47.27229" lon="-2.35071">
        <ele>-12.60000038147</ele>
        <time>2022-06-16T07:00:30.000Z</time>
      </trkpt>
      <trkpt lat="47.27251" lon="-2.35118">
        <ele>-12.60000038147</ele>
        <time>2022-06-16T07:00:38.000Z</time>
      </trkpt>
      <trkpt lat="47.27263" lon="-2.35121">
        <ele>-12.60000038147</ele>
        <time>2022-06-16T07:00:41.000Z</time>
      </trkpt>
      <trkpt lat="47.27271" lon="-2.35117">
        <ele>-12.60000038147</ele>
        <time>2022-06-16T07:00:43.000Z</time>
      </trkpt>
      <trkpt lat="47.27285" lon="-2.35109">
        <ele>-12.60000038147</ele>
        <time>2022-06-16T07:00:47.000Z</time>
      </trkpt>
      <trkpt lat="47.2729" lon="-2.35106">
        <ele>-12.199999809265</ele>
        <time>2022-06-16T07:00:49.000Z</time>
      </trkpt>
      <trkpt lat="47.27293" lon="-2.35105">
        <ele>-11.800000190735</ele>
        <time>2022-06-16T07:00:50.000Z</time>
      </trkpt>
      <trkpt lat="47.27295" lon="-2.35105">
        <ele>-11.39999961853</ele>
        <time>2022-06-16T07:00:51.000Z</time>
      </trkpt>
      <trkpt lat="47.27297" lon="-2.35105">
        <ele>-10.60000038147</ele>
        <time>2022-06-16T07:00:52.000Z</time>
      </trkpt>
      <trkpt lat="47.273" lon="-2.35107">
        <ele>-10.60000038147</ele>
        <time>2022-06-16T07:00:56.000Z</time>
      </trkpt>
      <trkpt lat="47.27302" lon="-2.35107">
        <ele>-10.60000038147</ele>
        <time>2022-06-16T07:00:58.000Z</time>
      </trkpt>
      <trkpt lat="47.27308" lon="-2.35097">
        <ele>-10.60000038147</ele>
        <time>2022-06-16T07:01:02.000Z</time>
      </trkpt>
      <trkpt lat="47.2732" lon="-2.35089">
        <ele>-10.60000038147</ele>
        <time>2022-06-16T07:01:06.000Z</time>
      </trkpt>
      <trkpt lat="47.27335" lon="-2.35083">
        <ele>-10.199999809265</ele>
        <time>2022-06-16T07:01:10.000Z</time>
      </trkpt>
      <trkpt lat="47.27339" lon="-2.35082">
        <ele>-9.8000001907349</ele>
        <time>2022-06-16T07:01:11.000Z</time>
      </trkpt>
      <trkpt lat="47.27343" lon="-2.35081">
        <ele>-9.3999996185303</ele>
        <time>2022-06-16T07:01:12.000Z</time>
      </trkpt>
      <trkpt lat="47.27347" lon="-2.35079">
        <ele>-8.8000001907349</ele>
        <time>2022-06-16T07:01:13.000Z</time>
      </trkpt>
      <trkpt lat="47.27351" lon="-2.35078">
        <ele>-8.3999996185303</ele>
        <time>2022-06-16T07:01:14.000Z</time>
      </trkpt>
      <trkpt lat="47.27361" lon="-2.35074">
        <ele>-8</ele>
        <time>2022-06-16T07:01:17.000Z</time>
      </trkpt>
      <trkpt lat="47.27364" lon="-2.35072">
        <ele>-7.5999999046326</ele>
        <time>2022-06-16T07:01:18.000Z</time>
      </trkpt>
      <trkpt lat="47.27368" lon="-2.35071">
        <ele>-7.1999998092651</ele>
        <time>2022-06-16T07:01:19.000Z</time>
      </trkpt>
      <trkpt lat="47.27371" lon="-2.35069">
        <ele>-6.8000001907349</ele>
        <time>2022-06-16T07:01:20.000Z</time>
      </trkpt>
      <trkpt lat="47.27374" lon="-2.35067">
        <ele>-6.1999998092651</ele>
        <time>2022-06-16T07:01:21.000Z</time>
      </trkpt>
      <trkpt lat="47.27381" lon="-2.3506">
        <ele>-6.1999998092651</ele>
        <time>2022-06-16T07:01:24.000Z</time>
      </trkpt>
      <trkpt lat="47.27395" lon="-2.35058">
        <ele>-6.1999998092651</ele>
        <time>2022-06-16T07:01:29.000Z</time>
      </trkpt>
      <trkpt lat="47.27403" lon="-2.35073">
        <ele>-6.1999998092651</ele>
        <time>2022-06-16T07:01:33.000Z</time>
      </trkpt>
      <trkpt lat="47.27411" lon="-2.35104">
        <ele>-6.1999998092651</ele>
        <time>2022-06-16T07:01:39.000Z</time>
      </trkpt>
      <trkpt lat="47.2742" lon="-2.35136">
        <ele>-6.1999998092651</ele>
        <time>2022-06-16T07:01:45.000Z</time>
      </trkpt>
      <trkpt lat="47.2743" lon="-2.35173">
        <ele>-6.1999998092651</ele>
        <time>2022-06-16T07:01:52.000Z</time>
      </trkpt>
      <trkpt lat="47.27432" lon="-2.35174">
        <ele>-6.1999998092651</ele>
        <time>2022-06-16T07:01:53.000Z</time>
      </trkpt>
      <trkpt lat="47.27443" lon="-2.35168">
        <ele>-6.1999998092651</ele>
        <time>2022-06-16T07:01:56.000Z</time>
      </trkpt>
      <trkpt lat="47.27461" lon="-2.35157">
        <ele>-5.8000001907349</ele>
        <time>2022-06-16T07:02:01.000Z</time>
      </trkpt>
      <trkpt lat="47.27465" lon="-2.35155">
        <ele>-5.4000000953674</ele>
        <time>2022-06-16T07:02:02.000Z</time>
      </trkpt>
      <trkpt lat="47.27468" lon="-2.35153">
        <ele>-5</ele>
        <time>2022-06-16T07:02:03.000Z</time>
      </trkpt>
      <trkpt lat="47.27471" lon="-2.35151">
        <ele>-4.5999999046326</ele>
        <time>2022-06-16T07:02:04.000Z</time>
      </trkpt>
      <trkpt lat="47.27474" lon="-2.35149">
        <ele>-4.1999998092651</ele>
        <time>2022-06-16T07:02:05.000Z</time>
      </trkpt>
      <trkpt lat="47.27489" lon="-2.35142">
        <ele>-4.1999998092651</ele>
        <time>2022-06-16T07:02:09.000Z</time>
      </trkpt>
      <trkpt lat="47.27501" lon="-2.3513">
        <ele>-4.1999998092651</ele>
        <time>2022-06-16T07:02:13.000Z</time>
      </trkpt>
      <trkpt lat="47.27505" lon="-2.35128">
        <ele>-4.1999998092651</ele>
        <time>2022-06-16T07:02:14.000Z</time>
      </trkpt>
      <trkpt lat="47.27513" lon="-2.35129">
        <ele>-4.1999998092651</ele>
        <time>2022-06-16T07:02:16.000Z</time>
      </trkpt>
      <trkpt lat="47.27517" lon="-2.3513">
        <ele>-3.7999999523163</ele>
        <time>2022-06-16T07:02:17.000Z</time>
      </trkpt>
      <trkpt lat="47.2752" lon="-2.35131">
        <ele>-3.4000000953674</ele>
        <time>2022-06-16T07:02:18.000Z</time>
      </trkpt>
      <trkpt lat="47.27524" lon="-2.35133">
        <ele>-3</ele>
        <time>2022-06-16T07:02:19.000Z</time>
      </trkpt>
      <trkpt lat="47.27528" lon="-2.35134">
        <ele>-2.5999999046326</ele>
        <time>2022-06-16T07:02:20.000Z</time>
      </trkpt>
      <trkpt lat="47.27532" lon="-2.35135">
        <ele>-2.2000000476837</ele>
        <time>2022-06-16T07:02:21.000Z</time>
      </trkpt>
      <trkpt lat="47.27536" lon="-2.35136">
        <ele>-2.2000000476837</ele>
        <time>2022-06-16T07:02:22.000Z</time>
      </trkpt>
      <trkpt lat="47.2754" lon="-2.35136">
        <ele>-2.2000000476837</ele>
        <time>2022-06-16T07:02:23.000Z</time>
      </trkpt>
      <trkpt lat="47.27557" lon="-2.35133">
        <ele>-2.2000000476837</ele>
        <time>2022-06-16T07:02:27.000Z</time>
      </trkpt>
      <trkpt lat="47.27562" lon="-2.35132">
        <ele>-2.2000000476837</ele>
        <time>2022-06-16T07:02:28.000Z</time>
      </trkpt>
      <trkpt lat="47.27588" lon="-2.3513">
        <ele>-2.2000000476837</ele>
        <time>2022-06-16T07:02:34.000Z</time>
      </trkpt>
      <trkpt lat="47.27598" lon="-2.3513">
        <ele>-2.2000000476837</ele>
        <time>2022-06-16T07:02:36.000Z</time>
      </trkpt>
      <trkpt lat="47.27606" lon="-2.35135">
        <ele>-2.2000000476837</ele>
        <time>2022-06-16T07:02:38.000Z</time>
      </trkpt>
      <trkpt lat="47.27614" lon="-2.35161">
        <ele>-2.2000000476837</ele>
        <time>2022-06-16T07:02:42.000Z</time>
      </trkpt>
      <trkpt lat="47.27624" lon="-2.35173">
        <ele>-2.2000000476837</ele>
        <time>2022-06-16T07:02:45.000Z</time>
      </trkpt>
      <trkpt lat="47.27643" lon="-2.35172">
        <ele>-2.2000000476837</ele>
        <time>2022-06-16T07:02:49.000Z</time>
      </trkpt>
      <trkpt lat="47.27648" lon="-2.35171">
        <ele>-2.5999999046326</ele>
        <time>2022-06-16T07:02:50.000Z</time>
      </trkpt>
      <trkpt lat="47.27653" lon="-2.3517">
        <ele>-3</ele>
        <time>2022-06-16T07:02:51.000Z</time>
      </trkpt>
      <trkpt lat="47.27658" lon="-2.3517">
        <ele>-3.4000000953674</ele>
        <time>2022-06-16T07:02:52.000Z</time>
      </trkpt>
      <trkpt lat="47.27663" lon="-2.3517">
        <ele>-4</ele>
        <time>2022-06-16T07:02:53.000Z</time>
      </trkpt>
      <trkpt lat="47.27667" lon="-2.35173">
        <ele>-4.4000000953674</ele>
        <time>2022-06-16T07:02:54.000Z</time>
      </trkpt>
      <trkpt lat="47.2767" lon="-2.35179">
        <ele>-4.4000000953674</ele>
        <time>2022-06-16T07:02:55.000Z</time>
      </trkpt>
      <trkpt lat="47.27673" lon="-2.35202">
        <ele>-4.8000001907349</ele>
        <time>2022-06-16T07:02:58.000Z</time>
      </trkpt>
      <trkpt lat="47.27674" lon="-2.3521">
        <ele>-5.1999998092651</ele>
        <time>2022-06-16T07:02:59.000Z</time>
      </trkpt>
      <trkpt lat="47.27675" lon="-2.35216">
        <ele>-5.5999999046326</ele>
        <time>2022-06-16T07:03:00.000Z</time>
      </trkpt>
      <trkpt lat="47.27678" lon="-2.3522">
        <ele>-6</ele>
        <time>2022-06-16T07:03:01.000Z</time>
      </trkpt>
      <trkpt lat="47.27681" lon="-2.35221">
        <ele>-6.4000000953674</ele>
        <time>2022-06-16T07:03:02.000Z</time>
      </trkpt>
      <trkpt lat="47.27689" lon="-2.35219">
        <ele>-6.4000000953674</ele>
        <time>2022-06-16T07:03:04.000Z</time>
      </trkpt>
      <trkpt lat="47.27699" lon="-2.35215">
        <ele>-6.4000000953674</ele>
        <time>2022-06-16T07:03:06.000Z</time>
      </trkpt>
      <trkpt lat="47.27721" lon="-2.35209">
        <ele>-6.8000001907349</ele>
        <time>2022-06-16T07:03:10.000Z</time>
      </trkpt>
      <trkpt lat="47.27726" lon="-2.35207">
        <ele>-7.1999998092651</ele>
        <time>2022-06-16T07:03:11.000Z</time>
      </trkpt>
      <trkpt lat="47.27731" lon="-2.35205">
        <ele>-7.5999999046326</ele>
        <time>2022-06-16T07:03:12.000Z</time>
      </trkpt>
      <trkpt lat="47.27736" lon="-2.35204">
        <ele>-8</ele>
        <time>2022-06-16T07:03:13.000Z</time>
      </trkpt>
      <trkpt lat="47.27741" lon="-2.35202">
        <ele>-8.6000003814697</ele>
        <time>2022-06-16T07:03:14.000Z</time>
      </trkpt>
      <trkpt lat="47.27762" lon="-2.35198">
        <ele>-8.6000003814697</ele>
        <time>2022-06-16T07:03:18.000Z</time>
      </trkpt>
      <trkpt lat="47.27768" lon="-2.35202">
        <ele>-8.6000003814697</ele>
        <time>2022-06-16T07:03:20.000Z</time>
      </trkpt>
      <trkpt lat="47.2777" lon="-2.35206">
        <ele>-9.3999996185303</ele>
        <time>2022-06-16T07:03:21.000Z</time>
      </trkpt>
      <trkpt lat="47.27772" lon="-2.35212">
        <ele>-9.8000001907349</ele>
        <time>2022-06-16T07:03:22.000Z</time>
      </trkpt>
      <trkpt lat="47.27773" lon="-2.35218">
        <ele>-10.199999809265</ele>
        <time>2022-06-16T07:03:23.000Z</time>
      </trkpt>
      <trkpt lat="47.27774" lon="-2.35224">
        <ele>-10.60000038147</ele>
        <time>2022-06-16T07:03:24.000Z</time>
      </trkpt>
      <trkpt lat="47.27783" lon="-2.35266">
        <ele>-10.60000038147</ele>
        <time>2022-06-16T07:03:30.000Z</time>
      </trkpt>
      <trkpt lat="47.27794" lon="-2.35318">
        <ele>-10.60000038147</ele>
        <time>2022-06-16T07:03:37.000Z</time>
      </trkpt>
      <trkpt lat="47.27799" lon="-2.3534">
        <ele>-10.60000038147</ele>
        <time>2022-06-16T07:03:40.000Z</time>
      </trkpt>
      <trkpt lat="47.27804" lon="-2.35354">
        <ele>-10.60000038147</ele>
        <time>2022-06-16T07:03:42.000Z</time>
      </trkpt>
      <trkpt lat="47.27808" lon="-2.35359">
        <ele>-10.60000038147</ele>
        <time>2022-06-16T07:03:43.000Z</time>
      </trkpt>
      <trkpt lat="47.2782" lon="-2.35363">
        <ele>-10.60000038147</ele>
        <time>2022-06-16T07:03:46.000Z</time>
      </trkpt>
      <trkpt lat="47.2783" lon="-2.35362">
        <ele>-10.60000038147</ele>
        <time>2022-06-16T07:03:48.000Z</time>
      </trkpt>
      <trkpt lat="47.27845" lon="-2.3536">
        <ele>-10.60000038147</ele>
        <time>2022-06-16T07:03:51.000Z</time>
      </trkpt>
      <trkpt lat="47.2785" lon="-2.3536">
        <ele>-10.60000038147</ele>
        <time>2022-06-16T07:03:52.000Z</time>
      </trkpt>
      <trkpt lat="47.27868" lon="-2.35361">
        <ele>-10.60000038147</ele>
        <time>2022-06-16T07:03:56.000Z</time>
      </trkpt>
      <trkpt lat="47.27875" lon="-2.35366">
        <ele>-10.60000038147</ele>
        <time>2022-06-16T07:03:58.000Z</time>
      </trkpt>
      <trkpt lat="47.27882" lon="-2.35374">
        <ele>-10.60000038147</ele>
        <time>2022-06-16T07:04:00.000Z</time>
      </trkpt>
      <trkpt lat="47.27894" lon="-2.3539">
        <ele>-10.60000038147</ele>
        <time>2022-06-16T07:04:04.000Z</time>
      </trkpt>
      <trkpt lat="47.27925" lon="-2.35431">
        <ele>-10.60000038147</ele>
        <time>2022-06-16T07:04:13.000Z</time>
      </trkpt>
      <trkpt lat="47.27951" lon="-2.35459">
        <ele>-10.60000038147</ele>
        <time>2022-06-16T07:04:20.000Z</time>
      </trkpt>
      <trkpt lat="47.27956" lon="-2.35461">
        <ele>-10.60000038147</ele>
        <time>2022-06-16T07:04:21.000Z</time>
      </trkpt>
      <trkpt lat="47.27974" lon="-2.35472">
        <ele>-10.60000038147</ele>
        <time>2022-06-16T07:04:25.000Z</time>
      </trkpt>
      <trkpt lat="47.27984" lon="-2.35489">
        <ele>-10.60000038147</ele>
        <time>2022-06-16T07:04:28.000Z</time>
      </trkpt>
      <trkpt lat="47.27991" lon="-2.35501">
        <ele>-10.60000038147</ele>
        <time>2022-06-16T07:04:30.000Z</time>
      </trkpt>
      <trkpt lat="47.28003" lon="-2.35533">
        <ele>-10.60000038147</ele>
        <time>2022-06-16T07:04:36.000Z</time>
      </trkpt>
      <trkpt lat="47.28009" lon="-2.35551">
        <ele>-10.199999809265</ele>
        <time>2022-06-16T07:04:40.000Z</time>
      </trkpt>
      <trkpt lat="47.2801" lon="-2.35555">
        <ele>-9.8000001907349</ele>
        <time>2022-06-16T07:04:41.000Z</time>
      </trkpt>
      <trkpt lat="47.28012" lon="-2.3556">
        <ele>-9.3999996185303</ele>
        <time>2022-06-16T07:04:42.000Z</time>
      </trkpt>
      <trkpt lat="47.28013" lon="-2.35563">
        <ele>-9</ele>
        <time>2022-06-16T07:04:43.000Z</time>
      </trkpt>
      <trkpt lat="47.28015" lon="-2.35565">
        <ele>-8.6000003814697</ele>
        <time>2022-06-16T07:04:44.000Z</time>
      </trkpt>
      <trkpt lat="47.28018" lon="-2.35566">
        <ele>-8.6000003814697</ele>
        <time>2022-06-16T07:04:45.000Z</time>
      </trkpt>
      <trkpt lat="47.28035" lon="-2.35571">
        <ele>-8.6000003814697</ele>
        <time>2022-06-16T07:04:50.000Z</time>
      </trkpt>
      <trkpt lat="47.28055" lon="-2.35581">
        <ele>-8.6000003814697</ele>
        <time>2022-06-16T07:04:57.000Z</time>
      </trkpt>
      <trkpt lat="47.28063" lon="-2.35584">
        <ele>-7.8000001907349</ele>
        <time>2022-06-16T07:05:00.000Z</time>
      </trkpt>
      <trkpt lat="47.28066" lon="-2.35586">
        <ele>-7.4000000953674</ele>
        <time>2022-06-16T07:05:01.000Z</time>
      </trkpt>
      <trkpt lat="47.28068" lon="-2.35589">
        <ele>-6.8000001907349</ele>
        <time>2022-06-16T07:05:02.000Z</time>
      </trkpt>
      <trkpt lat="47.2807" lon="-2.35593">
        <ele>-6.4000000953674</ele>
        <time>2022-06-16T07:05:03.000Z</time>
      </trkpt>
      <trkpt lat="47.28075" lon="-2.35604">
        <ele>-6.4000000953674</ele>
        <time>2022-06-16T07:05:06.000Z</time>
      </trkpt>
      <trkpt lat="47.28081" lon="-2.35613">
        <ele>-6.4000000953674</ele>
        <time>2022-06-16T07:05:09.000Z</time>
      </trkpt>
      <trkpt lat="47.28085" lon="-2.35622">
        <ele>-6.4000000953674</ele>
        <time>2022-06-16T07:05:14.000Z</time>
      </trkpt>
      <trkpt lat="47.28082" lon="-2.35615">
        <ele>-10.60000038147</ele>
        <time>2022-06-16T07:13:59.000Z</time>
      </trkpt>
      <trkpt lat="47.28079" lon="-2.35615">
        <ele>-10.60000038147</ele>
        <time>2022-06-16T07:14:01.000Z</time>
      </trkpt>
      <trkpt lat="47.28077" lon="-2.35625">
        <ele>-10.60000038147</ele>
        <time>2022-06-16T07:14:04.000Z</time>
      </trkpt>
      <trkpt lat="47.28079" lon="-2.35632">
        <ele>-10.60000038147</ele>
        <time>2022-06-16T07:14:06.000Z</time>
      </trkpt>
      <trkpt lat="47.2808" lon="-2.3564">
        <ele>-10.60000038147</ele>
        <time>2022-06-16T07:14:09.000Z</time>
      </trkpt>
      <trkpt lat="47.28082" lon="-2.35643">
        <ele>-10.199999809265</ele>
        <time>2022-06-16T07:14:11.000Z</time>
      </trkpt>
      <trkpt lat="47.28082" lon="-2.35645">
        <ele>-9.6000003814697</ele>
        <time>2022-06-16T07:14:12.000Z</time>
      </trkpt>
      <trkpt lat="47.28083" lon="-2.35648">
        <ele>-9.1999998092651</ele>
        <time>2022-06-16T07:14:13.000Z</time>
      </trkpt>
      <trkpt lat="47.28084" lon="-2.3565">
        <ele>-8.8000001907349</ele>
        <time>2022-06-16T07:14:14.000Z</time>
      </trkpt>
      <trkpt lat="47.28085" lon="-2.35653">
        <ele>-8.3999996185303</ele>
        <time>2022-06-16T07:14:15.000Z</time>
      </trkpt>
      <trkpt lat="47.28087" lon="-2.3566">
        <ele>-8.3999996185303</ele>
        <time>2022-06-16T07:14:17.000Z</time>
      </trkpt>
      <trkpt lat="47.28089" lon="-2.35669">
        <ele>-8</ele>
        <time>2022-06-16T07:14:19.000Z</time>
      </trkpt>
      <trkpt lat="47.28089" lon="-2.35673">
        <ele>-7.5999999046326</ele>
        <time>2022-06-16T07:14:20.000Z</time>
      </trkpt>
      <trkpt lat="47.2809" lon="-2.35678">
        <ele>-7.1999998092651</ele>
        <time>2022-06-16T07:14:21.000Z</time>
      </trkpt>
      <trkpt lat="47.28091" lon="-2.35681">
        <ele>-6.8000001907349</ele>
        <time>2022-06-16T07:14:22.000Z</time>
      </trkpt>
      <trkpt lat="47.28092" lon="-2.35684">
        <ele>-6.4000000953674</ele>
        <time>2022-06-16T07:14:23.000Z</time>
      </trkpt>
      <trkpt lat="47.28096" lon="-2.35696">
        <ele>-6.4000000953674</ele>
        <time>2022-06-16T07:14:28.000Z</time>
      </trkpt>
      <trkpt lat="47.28095" lon="-2.3572">
        <ele>-6.4000000953674</ele>
        <time>2022-06-16T07:14:34.000Z</time>
      </trkpt>
      <trkpt lat="47.28087" lon="-2.35756">
        <ele>-6.4000000953674</ele>
        <time>2022-06-16T07:14:39.000Z</time>
      </trkpt>
      <trkpt lat="47.28081" lon="-2.358">
        <ele>-6.8000001907349</ele>
        <time>2022-06-16T07:14:45.000Z</time>
      </trkpt>
      <trkpt lat="47.28082" lon="-2.35804">
        <ele>-7.1999998092651</ele>
        <time>2022-06-16T07:14:46.000Z</time>
      </trkpt>
      <trkpt lat="47.28084" lon="-2.35806">
        <ele>-7.5999999046326</ele>
        <time>2022-06-16T07:14:47.000Z</time>
      </trkpt>
      <trkpt lat="47.28087" lon="-2.35804">
        <ele>-8</ele>
        <time>2022-06-16T07:14:48.000Z</time>
      </trkpt>
      <trkpt lat="47.2809" lon="-2.35802">
        <ele>-8.3999996185303</ele>
        <time>2022-06-16T07:14:49.000Z</time>
      </trkpt>
      <trkpt lat="47.28093" lon="-2.358">
        <ele>-8.8000001907349</ele>
        <time>2022-06-16T07:14:50.000Z</time>
      </trkpt>
      <trkpt lat="47.28096" lon="-2.35797">
        <ele>-9.6000003814697</ele>
        <time>2022-06-16T07:14:51.000Z</time>
      </trkpt>
      <trkpt lat="47.28098" lon="-2.35794">
        <ele>-10</ele>
        <time>2022-06-16T07:14:52.000Z</time>
      </trkpt>
      <trkpt lat="47.28101" lon="-2.3579">
        <ele>-10.39999961853</ele>
        <time>2022-06-16T07:14:53.000Z</time>
      </trkpt>
      <trkpt lat="47.28108" lon="-2.3576">
        <ele>-10.39999961853</ele>
        <time>2022-06-16T07:14:58.000Z</time>
      </trkpt>
      <trkpt lat="47.28121" lon="-2.35747">
        <ele>-10.39999961853</ele>
        <time>2022-06-16T07:15:03.000Z</time>
      </trkpt>
      <trkpt lat="47.28134" lon="-2.35747">
        <ele>-10.39999961853</ele>
        <time>2022-06-16T07:15:09.000Z</time>
      </trkpt>
      <trkpt lat="47.28143" lon="-2.35754">
        <ele>-10.39999961853</ele>
        <time>2022-06-16T07:15:15.000Z</time>
      </trkpt>
      <trkpt lat="47.28152" lon="-2.35767">
        <ele>-10.39999961853</ele>
        <time>2022-06-16T07:15:24.000Z</time>
      </trkpt>
      <trkpt lat="47.28155" lon="-2.35772">
        <ele>-10</ele>
        <time>2022-06-16T07:15:26.000Z</time>
      </trkpt>
      <trkpt lat="47.28156" lon="-2.35773">
        <ele>-9.6000003814697</ele>
        <time>2022-06-16T07:15:27.000Z</time>
      </trkpt>
      <trkpt lat="47.28157" lon="-2.35775">
        <ele>-9</ele>
        <time>2022-06-16T07:15:28.000Z</time>
      </trkpt>
      <trkpt lat="47.28158" lon="-2.35777">
        <ele>-8.6000003814697</ele>
        <time>2022-06-16T07:15:29.000Z</time>
      </trkpt>
      <trkpt lat="47.28159" lon="-2.35779">
        <ele>-8.1999998092651</ele>
        <time>2022-06-16T07:15:30.000Z</time>
      </trkpt>
      <trkpt lat="47.2816" lon="-2.3578">
        <ele>-8.1999998092651</ele>
        <time>2022-06-16T07:15:31.000Z</time>
      </trkpt>
      <trkpt lat="47.28166" lon="-2.35793">
        <ele>-8.1999998092651</ele>
        <time>2022-06-16T07:15:37.000Z</time>
      </trkpt>
      <trkpt lat="47.28177" lon="-2.35825">
        <ele>-8.1999998092651</ele>
        <time>2022-06-16T07:15:44.000Z</time>
      </trkpt>
      <trkpt lat="47.28192" lon="-2.35851">
        <ele>-8.1999998092651</ele>
        <time>2022-06-16T07:15:49.000Z</time>
      </trkpt>
      <trkpt lat="47.28201" lon="-2.35875">
        <ele>-8.1999998092651</ele>
        <time>2022-06-16T07:15:54.000Z</time>
      </trkpt>
      <trkpt lat="47.28214" lon="-2.35894">
        <ele>-8.1999998092651</ele>
        <time>2022-06-16T07:16:00.000Z</time>
      </trkpt>
      <trkpt lat="47.28233" lon="-2.35897">
        <ele>-8.1999998092651</ele>
        <time>2022-06-16T07:16:07.000Z</time>
      </trkpt>
      <trkpt lat="47.28238" lon="-2.359">
        <ele>-8.1999998092651</ele>
        <time>2022-06-16T07:16:08.000Z</time>
      </trkpt>
      <trkpt lat="47.28248" lon="-2.3591">
        <ele>-8.1999998092651</ele>
        <time>2022-06-16T07:16:11.000Z</time>
      </trkpt>
      <trkpt lat="47.28252" lon="-2.35918">
        <ele>-8.1999998092651</ele>
        <time>2022-06-16T07:16:13.000Z</time>
      </trkpt>
      <trkpt lat="47.28262" lon="-2.35936">
        <ele>-8.1999998092651</ele>
        <time>2022-06-16T07:16:17.000Z</time>
      </trkpt>
      <trkpt lat="47.28277" lon="-2.35971">
        <ele>-8.1999998092651</ele>
        <time>2022-06-16T07:16:22.000Z</time>
      </trkpt>
      <trkpt lat="47.28281" lon="-2.35972">
        <ele>-8.1999998092651</ele>
        <time>2022-06-16T07:16:23.000Z</time>
      </trkpt>
      <trkpt lat="47.28289" lon="-2.35971">
        <ele>-8.1999998092651</ele>
        <time>2022-06-16T07:16:25.000Z</time>
      </trkpt>
      <trkpt lat="47.28297" lon="-2.35961">
        <ele>-8.1999998092651</ele>
        <time>2022-06-16T07:16:28.000Z</time>
      </trkpt>
      <trkpt lat="47.28301" lon="-2.35954">
        <ele>-8.1999998092651</ele>
        <time>2022-06-16T07:16:30.000Z</time>
      </trkpt>
      <trkpt lat="47.28317" lon="-2.35928">
        <ele>-8.1999998092651</ele>
        <time>2022-06-16T07:16:38.000Z</time>
      </trkpt>
      <trkpt lat="47.28324" lon="-2.35923">
        <ele>-7.8000001907349</ele>
        <time>2022-06-16T07:16:41.000Z</time>
      </trkpt>
      <trkpt lat="47.28327" lon="-2.35921">
        <ele>-7.1999998092651</ele>
        <time>2022-06-16T07:16:42.000Z</time>
      </trkpt>
      <trkpt lat="47.28328" lon="-2.35918">
        <ele>-6.8000001907349</ele>
        <time>2022-06-16T07:16:43.000Z</time>
      </trkpt>
      <trkpt lat="47.2833" lon="-2.35916">
        <ele>-6.4000000953674</ele>
        <time>2022-06-16T07:16:44.000Z</time>
      </trkpt>
      <trkpt lat="47.28333" lon="-2.35915">
        <ele>-6</ele>
        <time>2022-06-16T07:16:45.000Z</time>
      </trkpt>
      <trkpt lat="47.28353" lon="-2.35911">
        <ele>-6</ele>
        <time>2022-06-16T07:16:51.000Z</time>
      </trkpt>
      <trkpt lat="47.28364" lon="-2.35929">
        <ele>-6</ele>
        <time>2022-06-16T07:16:57.000Z</time>
      </trkpt>
      <trkpt lat="47.28372" lon="-2.35954">
        <ele>-5.5999999046326</ele>
        <time>2022-06-16T07:17:03.000Z</time>
      </trkpt>
      <trkpt lat="47.28372" lon="-2.35958">
        <ele>-5.1999998092651</ele>
        <time>2022-06-16T07:17:04.000Z</time>
      </trkpt>
      <trkpt lat="47.28372" lon="-2.35962">
        <ele>-4.8000001907349</ele>
        <time>2022-06-16T07:17:05.000Z</time>
      </trkpt>
      <trkpt lat="47.28373" lon="-2.35965">
        <ele>-4.4000000953674</ele>
        <time>2022-06-16T07:17:06.000Z</time>
      </trkpt>
      <trkpt lat="47.28374" lon="-2.35969">
        <ele>-4</ele>
        <time>2022-06-16T07:17:07.000Z</time>
      </trkpt>
      <trkpt lat="47.28374" lon="-2.35975">
        <ele>-4</ele>
        <time>2022-06-16T07:17:11.000Z</time>
      </trkpt>
      <trkpt lat="47.28374" lon="-2.3598">
        <ele>-3.5999999046326</ele>
        <time>2022-06-16T07:17:13.000Z</time>
      </trkpt>
      <trkpt lat="47.28374" lon="-2.35981">
        <ele>-3.2000000476837</ele>
        <time>2022-06-16T07:17:14.000Z</time>
      </trkpt>
      <trkpt lat="47.28374" lon="-2.35982">
        <ele>-2.7999999523163</ele>
        <time>2022-06-16T07:17:15.000Z</time>
      </trkpt>
      <trkpt lat="47.28373" lon="-2.35985">
        <ele>-2.4000000953674</ele>
        <time>2022-06-16T07:17:16.000Z</time>
      </trkpt>
      <trkpt lat="47.28372" lon="-2.35985">
        <ele>-2</ele>
        <time>2022-06-16T07:17:17.000Z</time>
      </trkpt>
      <trkpt lat="47.2837" lon="-2.35989">
        <ele>-1.6000000238419</ele>
        <time>2022-06-16T07:17:19.000Z</time>
      </trkpt>
      <trkpt lat="47.2837" lon="-2.35992">
        <ele>-0.80000001192093</ele>
        <time>2022-06-16T07:17:20.000Z</time>
      </trkpt>
      <trkpt lat="47.2837" lon="-2.35993">
        <ele>-0.40000000596046</ele>
        <time>2022-06-16T07:17:21.000Z</time>
      </trkpt>
      <trkpt lat="47.28369" lon="-2.35994">
        <ele>34.2</ele>
        <time>2022-06-16T07:17:22.000Z</time>
      </trkpt>
      <trkpt lat="47.28369" lon="-2.35996">
        <ele>34.6</ele>
        <time>2022-06-16T07:17:24.000Z</time>
      </trkpt>
      <trkpt lat="47.28387" lon="-2.36043">
        <ele>6.4000000953674</ele>
        <time>2022-06-16T07:18:40.000Z</time>
      </trkpt>
      <trkpt lat="47.2839" lon="-2.36057">
        <ele>6.4000000953674</ele>
        <time>2022-06-16T07:18:44.000Z</time>
      </trkpt>
      <trkpt lat="47.28391" lon="-2.3606">
        <ele>6.4000000953674</ele>
        <time>2022-06-16T07:18:45.000Z</time>
      </trkpt>
      <trkpt lat="47.28391" lon="-2.36084">
        <ele>6.4000000953674</ele>
        <time>2022-06-16T07:18:50.000Z</time>
      </trkpt>
      <trkpt lat="47.2839" lon="-2.36088">
        <ele>6.4000000953674</ele>
        <time>2022-06-16T07:18:51.000Z</time>
      </trkpt>
      <trkpt lat="47.28388" lon="-2.36106">
        <ele>6.4000000953674</ele>
        <time>2022-06-16T07:18:57.000Z</time>
      </trkpt>
      <trkpt lat="47.28388" lon="-2.36107">
        <ele>6.4000000953674</ele>
        <time>2022-06-16T07:18:58.000Z</time>
      </trkpt>
      <trkpt lat="47.28387" lon="-2.36114">
        <ele>6.4000000953674</ele>
        <time>2022-06-16T07:19:06.000Z</time>
      </trkpt>
      <trkpt lat="47.28387" lon="-2.36118">
        <ele>6.4000000953674</ele>
        <time>2022-06-16T07:19:07.000Z</time>
      </trkpt>
      <trkpt lat="47.28386" lon="-2.36122">
        <ele>6</ele>
        <time>2022-06-16T07:19:08.000Z</time>
      </trkpt>
      <trkpt lat="47.28384" lon="-2.36126">
        <ele>5.5999999046326</ele>
        <time>2022-06-16T07:19:09.000Z</time>
      </trkpt>
      <trkpt lat="47.28382" lon="-2.36129">
        <ele>5</ele>
        <time>2022-06-16T07:19:10.000Z</time>
      </trkpt>
      <trkpt lat="47.28381" lon="-2.3613">
        <ele>4.5999999046326</ele>
        <time>2022-06-16T07:19:11.000Z</time>
      </trkpt>
      <trkpt lat="47.2838" lon="-2.36132">
        <ele>4.1999998092651</ele>
        <time>2022-06-16T07:19:12.000Z</time>
      </trkpt>
      <trkpt lat="47.28379" lon="-2.36134">
        <ele>4.1999998092651</ele>
        <time>2022-06-16T07:19:13.000Z</time>
      </trkpt>
      <trkpt lat="47.28372" lon="-2.3614">
        <ele>3.7999999523163</ele>
        <time>2022-06-16T07:19:17.000Z</time>
      </trkpt>
      <trkpt lat="47.28369" lon="-2.36144">
        <ele>3.2000000476837</ele>
        <time>2022-06-16T07:19:18.000Z</time>
      </trkpt>
      <trkpt lat="47.28366" lon="-2.36148">
        <ele>2.7999999523163</ele>
        <time>2022-06-16T07:19:19.000Z</time>
      </trkpt>
      <trkpt lat="47.28362" lon="-2.36155">
        <ele>2</ele>
        <time>2022-06-16T07:19:20.000Z</time>
      </trkpt>
      <trkpt lat="47.28357" lon="-2.36163">
        <ele>1.3999999761581</ele>
        <time>2022-06-16T07:19:21.000Z</time>
      </trkpt>
      <trkpt lat="47.28353" lon="-2.3617">
        <ele>0.40000000596046</ele>
        <time>2022-06-16T07:19:22.000Z</time>
      </trkpt>
      <trkpt lat="47.28347" lon="-2.36177">
        <ele>-1.6000000238419</ele>
        <time>2022-06-16T07:19:23.000Z</time>
      </trkpt>
      <trkpt lat="47.28338" lon="-2.36182">
        <ele>-2.5999999046326</ele>
        <time>2022-06-16T07:19:24.000Z</time>
      </trkpt>
      <trkpt lat="47.28333" lon="-2.36189">
        <ele>-3.5999999046326</ele>
        <time>2022-06-16T07:19:25.000Z</time>
      </trkpt>
      <trkpt lat="47.28328" lon="-2.36195">
        <ele>-4.5999999046326</ele>
        <time>2022-06-16T07:19:26.000Z</time>
      </trkpt>
      <trkpt lat="47.28323" lon="-2.36199">
        <ele>-5.1999998092651</ele>
        <time>2022-06-16T07:19:27.000Z</time>
      </trkpt>
      <trkpt lat="47.28319" lon="-2.36203">
        <ele>-5.8000001907349</ele>
        <time>2022-06-16T07:19:28.000Z</time>
      </trkpt>
      <trkpt lat="47.28314" lon="-2.36207">
        <ele>-6.4000000953674</ele>
        <time>2022-06-16T07:19:29.000Z</time>
      </trkpt>
      <trkpt lat="47.2831" lon="-2.36209">
        <ele>-7</ele>
        <time>2022-06-16T07:19:30.000Z</time>
      </trkpt>
      <trkpt lat="47.28306" lon="-2.36212">
        <ele>-7.8000001907349</ele>
        <time>2022-06-16T07:19:31.000Z</time>
      </trkpt>
      <trkpt lat="47.28302" lon="-2.36215">
        <ele>-8.1999998092651</ele>
        <time>2022-06-16T07:19:32.000Z</time>
      </trkpt>
      <trkpt lat="47.28299" lon="-2.36218">
        <ele>-8.8000001907349</ele>
        <time>2022-06-16T07:19:33.000Z</time>
      </trkpt>
      <trkpt lat="47.28295" lon="-2.3622">
        <ele>-9.3999996185303</ele>
        <time>2022-06-16T07:19:34.000Z</time>
      </trkpt>
      <trkpt lat="47.28293" lon="-2.36222">
        <ele>-9.8000001907349</ele>
        <time>2022-06-16T07:19:35.000Z</time>
      </trkpt>
      <trkpt lat="47.28291" lon="-2.36223">
        <ele>-10.39999961853</ele>
        <time>2022-06-16T07:19:36.000Z</time>
      </trkpt>
      <trkpt lat="47.2829" lon="-2.36221">
        <ele>-10.39999961853</ele>
        <time>2022-06-16T07:19:37.000Z</time>
      </trkpt>
      <trkpt lat="47.28283" lon="-2.36225">
        <ele>-10.39999961853</ele>
        <time>2022-06-16T07:19:42.000Z</time>
      </trkpt>
      <trkpt lat="47.28289" lon="-2.36237">
        <ele>-10.39999961853</ele>
        <time>2022-06-16T07:19:46.000Z</time>
      </trkpt>
      <trkpt lat="47.28291" lon="-2.36239">
        <ele>-10.800000190735</ele>
        <time>2022-06-16T07:19:47.000Z</time>
      </trkpt>
      <trkpt lat="47.28294" lon="-2.3624">
        <ele>-11.60000038147</ele>
        <time>2022-06-16T07:19:48.000Z</time>
      </trkpt>
      <trkpt lat="47.283" lon="-2.3624">
        <ele>-12</ele>
        <time>2022-06-16T07:19:49.000Z</time>
      </trkpt>
      <trkpt lat="47.28304" lon="-2.36239">
        <ele>-12.39999961853</ele>
        <time>2022-06-16T07:19:50.000Z</time>
      </trkpt>
      <trkpt lat="47.28312" lon="-2.36242">
        <ele>-12.39999961853</ele>
        <time>2022-06-16T07:19:52.000Z</time>
      </trkpt>
      <trkpt lat="47.28325" lon="-2.36246">
        <ele>-12.39999961853</ele>
        <time>2022-06-16T07:19:55.000Z</time>
      </trkpt>
      <trkpt lat="47.28345" lon="-2.36255">
        <ele>-12.39999961853</ele>
        <time>2022-06-16T07:20:01.000Z</time>
      </trkpt>
      <trkpt lat="47.28353" lon="-2.36258">
        <ele>-12</ele>
        <time>2022-06-16T07:20:04.000Z</time>
      </trkpt>
      <trkpt lat="47.28355" lon="-2.3626">
        <ele>-11.60000038147</ele>
        <time>2022-06-16T07:20:05.000Z</time>
      </trkpt>
      <trkpt lat="47.28357" lon="-2.36262">
        <ele>-11.199999809265</ele>
        <time>2022-06-16T07:20:06.000Z</time>
      </trkpt>
      <trkpt lat="47.28358" lon="-2.36265">
        <ele>-10.800000190735</ele>
        <time>2022-06-16T07:20:07.000Z</time>
      </trkpt>
      <trkpt lat="47.28359" lon="-2.36269">
        <ele>-10.199999809265</ele>
        <time>2022-06-16T07:20:08.000Z</time>
      </trkpt>
      <trkpt lat="47.2836" lon="-2.36278">
        <ele>-10.199999809265</ele>
        <time>2022-06-16T07:20:11.000Z</time>
      </trkpt>
      <trkpt lat="47.2836" lon="-2.36285">
        <ele>-10.199999809265</ele>
        <time>2022-06-16T07:20:13.000Z</time>
      </trkpt>
      <trkpt lat="47.28364" lon="-2.36295">
        <ele>-10.199999809265</ele>
        <time>2022-06-16T07:20:17.000Z</time>
      </trkpt>
      <trkpt lat="47.28365" lon="-2.36297">
        <ele>-10.199999809265</ele>
        <time>2022-06-16T07:20:18.000Z</time>
      </trkpt>
      <trkpt lat="47.28368" lon="-2.36305">
        <ele>-9.8000001907349</ele>
        <time>2022-06-16T07:20:22.000Z</time>
      </trkpt>
      <trkpt lat="47.28371" lon="-2.36308">
        <ele>-9.3999996185303</ele>
        <time>2022-06-16T07:20:23.000Z</time>
      </trkpt>
      <trkpt lat="47.28372" lon="-2.36311">
        <ele>-9</ele>
        <time>2022-06-16T07:20:24.000Z</time>
      </trkpt>
      <trkpt lat="47.28373" lon="-2.36314">
        <ele>-8.6000003814697</ele>
        <time>2022-06-16T07:20:25.000Z</time>
      </trkpt>
      <trkpt lat="47.28376" lon="-2.36317">
        <ele>-8.1999998092651</ele>
        <time>2022-06-16T07:20:26.000Z</time>
      </trkpt>
      <trkpt lat="47.28389" lon="-2.36337">
        <ele>-8.1999998092651</ele>
        <time>2022-06-16T07:20:33.000Z</time>
      </trkpt>
      <trkpt lat="47.28408" lon="-2.36358">
        <ele>-8.1999998092651</ele>
        <time>2022-06-16T07:20:39.000Z</time>
      </trkpt>
      <trkpt lat="47.28415" lon="-2.36365">
        <ele>-7.8000001907349</ele>
        <time>2022-06-16T07:20:41.000Z</time>
      </trkpt>
      <trkpt lat="47.28419" lon="-2.36368">
        <ele>-7.4000000953674</ele>
        <time>2022-06-16T07:20:42.000Z</time>
      </trkpt>
      <trkpt lat="47.28424" lon="-2.36372">
        <ele>-7</ele>
        <time>2022-06-16T07:20:43.000Z</time>
      </trkpt>
      <trkpt lat="47.28427" lon="-2.36376">
        <ele>-6.5999999046326</ele>
        <time>2022-06-16T07:20:44.000Z</time>
      </trkpt>
      <trkpt lat="47.2843" lon="-2.3638">
        <ele>-6.1999998092651</ele>
        <time>2022-06-16T07:20:45.000Z</time>
      </trkpt>
      <trkpt lat="47.28434" lon="-2.36383">
        <ele>-6.1999998092651</ele>
        <time>2022-06-16T07:20:46.000Z</time>
      </trkpt>
      <trkpt lat="47.2845" lon="-2.36395">
        <ele>-5.8000001907349</ele>
        <time>2022-06-16T07:20:52.000Z</time>
      </trkpt>
      <trkpt lat="47.28452" lon="-2.36392">
        <ele>-5.4000000953674</ele>
        <time>2022-06-16T07:20:53.000Z</time>
      </trkpt>
      <trkpt lat="47.28453" lon="-2.36389">
        <ele>-5</ele>
        <time>2022-06-16T07:20:54.000Z</time>
      </trkpt>
      <trkpt lat="47.28455" lon="-2.36385">
        <ele>-4.5999999046326</ele>
        <time>2022-06-16T07:20:55.000Z</time>
      </trkpt>
      <trkpt lat="47.28456" lon="-2.36381">
        <ele>-4.1999998092651</ele>
        <time>2022-06-16T07:20:56.000Z</time>
      </trkpt>
      <trkpt lat="47.28461" lon="-2.36358">
        <ele>-4.1999998092651</ele>
        <time>2022-06-16T07:21:01.000Z</time>
      </trkpt>
      <trkpt lat="47.28467" lon="-2.36318">
        <ele>-4.1999998092651</ele>
        <time>2022-06-16T07:21:09.000Z</time>
      </trkpt>
      <trkpt lat="47.28472" lon="-2.36318">
        <ele>-4.1999998092651</ele>
        <time>2022-06-16T07:21:11.000Z</time>
      </trkpt>
      <trkpt lat="47.28477" lon="-2.36319">
        <ele>-4.1999998092651</ele>
        <time>2022-06-16T07:21:13.000Z</time>
      </trkpt>
      <trkpt lat="47.28487" lon="-2.3632">
        <ele>-4.1999998092651</ele>
        <time>2022-06-16T07:21:17.000Z</time>
      </trkpt>
      <trkpt lat="47.28489" lon="-2.36321">
        <ele>-4.1999998092651</ele>
        <time>2022-06-16T07:21:18.000Z</time>
      </trkpt>
      <trkpt lat="47.28492" lon="-2.36323">
        <ele>-4.1999998092651</ele>
        <time>2022-06-16T07:21:19.000Z</time>
      </trkpt>
      <trkpt lat="47.28503" lon="-2.36325">
        <ele>-4.1999998092651</ele>
        <time>2022-06-16T07:21:24.000Z</time>
      </trkpt>
      <trkpt lat="47.28508" lon="-2.36325">
        <ele>-3.4000000953674</ele>
        <time>2022-06-16T07:21:26.000Z</time>
      </trkpt>
      <trkpt lat="47.2851" lon="-2.36324">
        <ele>-3</ele>
        <time>2022-06-16T07:21:27.000Z</time>
      </trkpt>
      <trkpt lat="47.28512" lon="-2.36322">
        <ele>-2.5999999046326</ele>
        <time>2022-06-16T07:21:28.000Z</time>
      </trkpt>
      <trkpt lat="47.28514" lon="-2.3632">
        <ele>-2.2000000476837</ele>
        <time>2022-06-16T07:21:29.000Z</time>
      </trkpt>
      <trkpt lat="47.28515" lon="-2.36318">
        <ele>-2.2000000476837</ele>
        <time>2022-06-16T07:21:30.000Z</time>
      </trkpt>
      <trkpt lat="47.28519" lon="-2.36313">
        <ele>-2.2000000476837</ele>
        <time>2022-06-16T07:21:32.000Z</time>
      </trkpt>
      <trkpt lat="47.28523" lon="-2.3629">
        <ele>-2.2000000476837</ele>
        <time>2022-06-16T07:21:37.000Z</time>
      </trkpt>
      <trkpt lat="47.28527" lon="-2.36281">
        <ele>-1.7999999523163</ele>
        <time>2022-06-16T07:21:40.000Z</time>
      </trkpt>
      <trkpt lat="47.28527" lon="-2.36278">
        <ele>-1.2000000476837</ele>
        <time>2022-06-16T07:21:41.000Z</time>
      </trkpt>
      <trkpt lat="47.28527" lon="-2.36272">
        <ele>-0.80000001192093</ele>
        <time>2022-06-16T07:21:42.000Z</time>
      </trkpt>
      <trkpt lat="47.28526" lon="-2.36269">
        <ele>-0.40000000596046</ele>
        <time>2022-06-16T07:21:43.000Z</time>
      </trkpt>
      <trkpt lat="47.28525" lon="-2.36263">
        <ele>35.8</ele>
        <time>2022-06-16T07:21:44.000Z</time>
      </trkpt>
      <trkpt lat="47.28519" lon="-2.36246">
        <ele>35.4</ele>
        <time>2022-06-16T07:21:48.000Z</time>
      </trkpt>
      <trkpt lat="47.28509" lon="-2.36227">
        <ele>-0.40000000596046</ele>
        <time>2022-06-16T07:21:52.000Z</time>
      </trkpt>
      <trkpt lat="47.28507" lon="-2.36221">
        <ele>-0.80000001192093</ele>
        <time>2022-06-16T07:21:53.000Z</time>
      </trkpt>
      <trkpt lat="47.28505" lon="-2.36216">
        <ele>-1.2000000476837</ele>
        <time>2022-06-16T07:21:54.000Z</time>
      </trkpt>
      <trkpt lat="47.28503" lon="-2.36213">
        <ele>-1.6000000238419</ele>
        <time>2022-06-16T07:21:55.000Z</time>
      </trkpt>
      <trkpt lat="47.28502" lon="-2.36208">
        <ele>-2</ele>
        <time>2022-06-16T07:21:56.000Z</time>
      </trkpt>
      <trkpt lat="47.28494" lon="-2.3618">
        <ele>-2</ele>
        <time>2022-06-16T07:22:01.000Z</time>
      </trkpt>
      <trkpt lat="47.28496" lon="-2.36159">
        <ele>-2</ele>
        <time>2022-06-16T07:22:06.000Z</time>
      </trkpt>
      <trkpt lat="47.28498" lon="-2.36156">
        <ele>-2</ele>
        <time>2022-06-16T07:22:07.000Z</time>
      </trkpt>
      <trkpt lat="47.28508" lon="-2.36153">
        <ele>-2</ele>
        <time>2022-06-16T07:22:10.000Z</time>
      </trkpt>
      <trkpt lat="47.28511" lon="-2.36154">
        <ele>-1.6000000238419</ele>
        <time>2022-06-16T07:22:11.000Z</time>
      </trkpt>
      <trkpt lat="47.28513" lon="-2.36155">
        <ele>-1.2000000476837</ele>
        <time>2022-06-16T07:22:12.000Z</time>
      </trkpt>
      <trkpt lat="47.28515" lon="-2.36156">
        <ele>-0.80000001192093</ele>
        <time>2022-06-16T07:22:13.000Z</time>
      </trkpt>
      <trkpt lat="47.28518" lon="-2.36158">
        <ele>-0.20000000298023</ele>
        <time>2022-06-16T07:22:14.000Z</time>
      </trkpt>
      <trkpt lat="47.2852" lon="-2.36159">
        <ele>0.20000000298023</ele>
        <time>2022-06-16T07:22:15.000Z</time>
      </trkpt>
      <trkpt lat="47.28527" lon="-2.36161">
        <ele>0.60000002384186</ele>
        <time>2022-06-16T07:22:18.000Z</time>
      </trkpt>
      <trkpt lat="47.2853" lon="-2.36161">
        <ele>1</ele>
        <time>2022-06-16T07:22:19.000Z</time>
      </trkpt>
      <trkpt lat="47.28534" lon="-2.36161">
        <ele>1.6000000238419</ele>
        <time>2022-06-16T07:22:20.000Z</time>
      </trkpt>
      <trkpt lat="47.28537" lon="-2.36162">
        <ele>2</ele>
        <time>2022-06-16T07:22:21.000Z</time>
      </trkpt>
      <trkpt lat="47.28539" lon="-2.36163">
        <ele>2.4000000953674</ele>
        <time>2022-06-16T07:22:22.000Z</time>
      </trkpt>
      <trkpt lat="47.28544" lon="-2.36166">
        <ele>3</ele>
        <time>2022-06-16T07:22:25.000Z</time>
      </trkpt>
      <trkpt lat="47.28546" lon="-2.36167">
        <ele>3.4000000953674</ele>
        <time>2022-06-16T07:22:26.000Z</time>
      </trkpt>
      <trkpt lat="47.28546" lon="-2.36169">
        <ele>3.7999999523163</ele>
        <time>2022-06-16T07:22:27.000Z</time>
      </trkpt>
      <trkpt lat="47.28547" lon="-2.36169">
        <ele>4.1999998092651</ele>
        <time>2022-06-16T07:22:28.000Z</time>
      </trkpt>
      <trkpt lat="47.28548" lon="-2.36172">
        <ele>4.5999999046326</ele>
        <time>2022-06-16T07:22:29.000Z</time>
      </trkpt>
      <trkpt lat="47.28548" lon="-2.36175">
        <ele>4.5999999046326</ele>
        <time>2022-06-16T07:22:30.000Z</time>
      </trkpt>
      <trkpt lat="47.2855" lon="-2.36186">
        <ele>4.5999999046326</ele>
        <time>2022-06-16T07:22:33.000Z</time>
      </trkpt>
      <trkpt lat="47.28551" lon="-2.36217">
        <ele>4.5999999046326</ele>
        <time>2022-06-16T07:22:39.000Z</time>
      </trkpt>
      <trkpt lat="47.28553" lon="-2.3625">
        <ele>4.5999999046326</ele>
        <time>2022-06-16T07:22:45.000Z</time>
      </trkpt>
      <trkpt lat="47.28555" lon="-2.36286">
        <ele>4.5999999046326</ele>
        <time>2022-06-16T07:22:52.000Z</time>
      </trkpt>
      <trkpt lat="47.2855" lon="-2.36316">
        <ele>4.5999999046326</ele>
        <time>2022-06-16T07:22:58.000Z</time>
      </trkpt>
      <trkpt lat="47.28545" lon="-2.36343">
        <ele>4.5999999046326</ele>
        <time>2022-06-16T07:23:04.000Z</time>
      </trkpt>
      <trkpt lat="47.28547" lon="-2.3636">
        <ele>4.5999999046326</ele>
        <time>2022-06-16T07:23:10.000Z</time>
      </trkpt>
      <trkpt lat="47.28551" lon="-2.36359">
        <ele>5</ele>
        <time>2022-06-16T07:23:13.000Z</time>
      </trkpt>
      <trkpt lat="47.28553" lon="-2.36358">
        <ele>5.5999999046326</ele>
        <time>2022-06-16T07:23:14.000Z</time>
      </trkpt>
      <trkpt lat="47.28555" lon="-2.36357">
        <ele>6</ele>
        <time>2022-06-16T07:23:15.000Z</time>
      </trkpt>
      <trkpt lat="47.28557" lon="-2.36356">
        <ele>6.4000000953674</ele>
        <time>2022-06-16T07:23:16.000Z</time>
      </trkpt>
      <trkpt lat="47.28559" lon="-2.36355">
        <ele>6.8000001907349</ele>
        <time>2022-06-16T07:23:17.000Z</time>
      </trkpt>
      <trkpt lat="47.28567" lon="-2.3635">
        <ele>6.8000001907349</ele>
        <time>2022-06-16T07:23:20.000Z</time>
      </trkpt>
      <trkpt lat="47.2857" lon="-2.36347">
        <ele>6.8000001907349</ele>
        <time>2022-06-16T07:23:21.000Z</time>
      </trkpt>
      <trkpt lat="47.28581" lon="-2.36335">
        <ele>6.8000001907349</ele>
        <time>2022-06-16T07:23:24.000Z</time>
      </trkpt>
      <trkpt lat="47.28584" lon="-2.3633">
        <ele>6.4000000953674</ele>
        <time>2022-06-16T07:23:25.000Z</time>
      </trkpt>
      <trkpt lat="47.28588" lon="-2.36325">
        <ele>5.8000001907349</ele>
        <time>2022-06-16T07:23:26.000Z</time>
      </trkpt>
      <trkpt lat="47.28592" lon="-2.3632">
        <ele>5.4000000953674</ele>
        <time>2022-06-16T07:23:27.000Z</time>
      </trkpt>
      <trkpt lat="47.28596" lon="-2.36315">
        <ele>5</ele>
        <time>2022-06-16T07:23:28.000Z</time>
      </trkpt>
      <trkpt lat="47.286" lon="-2.3631">
        <ele>4.5999999046326</ele>
        <time>2022-06-16T07:23:29.000Z</time>
      </trkpt>
      <trkpt lat="47.28607" lon="-2.36301">
        <ele>4.5999999046326</ele>
        <time>2022-06-16T07:23:31.000Z</time>
      </trkpt>
      <trkpt lat="47.28611" lon="-2.36297">
        <ele>4.1999998092651</ele>
        <time>2022-06-16T07:23:32.000Z</time>
      </trkpt>
      <trkpt lat="47.28615" lon="-2.36293">
        <ele>3.5999999046326</ele>
        <time>2022-06-16T07:23:33.000Z</time>
      </trkpt>
      <trkpt lat="47.28619" lon="-2.36289">
        <ele>3.2000000476837</ele>
        <time>2022-06-16T07:23:34.000Z</time>
      </trkpt>
      <trkpt lat="47.28626" lon="-2.36284">
        <ele>2.7999999523163</ele>
        <time>2022-06-16T07:23:35.000Z</time>
      </trkpt>
      <trkpt lat="47.2863" lon="-2.36281">
        <ele>2.4000000953674</ele>
        <time>2022-06-16T07:23:36.000Z</time>
      </trkpt>
      <trkpt lat="47.28638" lon="-2.36279">
        <ele>2.4000000953674</ele>
        <time>2022-06-16T07:23:38.000Z</time>
      </trkpt>
      <trkpt lat="47.28659" lon="-2.36285">
        <ele>2.4000000953674</ele>
        <time>2022-06-16T07:23:43.000Z</time>
      </trkpt>
      <trkpt lat="47.28681" lon="-2.36283">
        <ele>2.4000000953674</ele>
        <time>2022-06-16T07:23:49.000Z</time>
      </trkpt>
      <trkpt lat="47.28703" lon="-2.36272">
        <ele>2.4000000953674</ele>
        <time>2022-06-16T07:23:54.000Z</time>
      </trkpt>
      <trkpt lat="47.2871" lon="-2.36263">
        <ele>2</ele>
        <time>2022-06-16T07:23:56.000Z</time>
      </trkpt>
      <trkpt lat="47.28715" lon="-2.36257">
        <ele>1.6000000238419</ele>
        <time>2022-06-16T07:23:57.000Z</time>
      </trkpt>
      <trkpt lat="47.28721" lon="-2.3625">
        <ele>1.2000000476837</ele>
        <time>2022-06-16T07:23:58.000Z</time>
      </trkpt>
      <trkpt lat="47.28725" lon="-2.36244">
        <ele>0.80000001192093</ele>
        <time>2022-06-16T07:23:59.000Z</time>
      </trkpt>
      <trkpt lat="47.2873" lon="-2.36239">
        <ele>0.40000000596046</ele>
        <time>2022-06-16T07:24:00.000Z</time>
      </trkpt>
      <trkpt lat="47.28754" lon="-2.36216">
        <ele>0.40000000596046</ele>
        <time>2022-06-16T07:24:06.000Z</time>
      </trkpt>
      <trkpt lat="47.28757" lon="-2.36213">
        <ele>-0.20000000298023</ele>
        <time>2022-06-16T07:24:07.000Z</time>
      </trkpt>
      <trkpt lat="47.28762" lon="-2.36209">
        <ele>-0.60000002384186</ele>
        <time>2022-06-16T07:24:08.000Z</time>
      </trkpt>
      <trkpt lat="47.28768" lon="-2.36205">
        <ele>-1</ele>
        <time>2022-06-16T07:24:09.000Z</time>
      </trkpt>
      <trkpt lat="47.28774" lon="-2.36201">
        <ele>-1.3999999761581</ele>
        <time>2022-06-16T07:24:10.000Z</time>
      </trkpt>
      <trkpt lat="47.28779" lon="-2.36198">
        <ele>-2</ele>
        <time>2022-06-16T07:24:11.000Z</time>
      </trkpt>
      <trkpt lat="47.28818" lon="-2.36171">
        <ele>-2</ele>
        <time>2022-06-16T07:24:17.000Z</time>
      </trkpt>
      <trkpt lat="47.28844" lon="-2.36136">
        <ele>-2</ele>
        <time>2022-06-16T07:24:22.000Z</time>
      </trkpt>
      <trkpt lat="47.28884" lon="-2.36095">
        <ele>-2</ele>
        <time>2022-06-16T07:24:29.000Z</time>
      </trkpt>
      <trkpt lat="47.28918" lon="-2.36063">
        <ele>-2</ele>
        <time>2022-06-16T07:24:35.000Z</time>
      </trkpt>
      <trkpt lat="47.28943" lon="-2.36048">
        <ele>-2</ele>
        <time>2022-06-16T07:24:40.000Z</time>
      </trkpt>
      <trkpt lat="47.28977" lon="-2.36021">
        <ele>-2</ele>
        <time>2022-06-16T07:24:48.000Z</time>
      </trkpt>
      <trkpt lat="47.29004" lon="-2.3599">
        <ele>-2</ele>
        <time>2022-06-16T07:24:55.000Z</time>
      </trkpt>
      <trkpt lat="47.29041" lon="-2.35948">
        <ele>-2</ele>
        <time>2022-06-16T07:25:04.000Z</time>
      </trkpt>
      <trkpt lat="47.2907" lon="-2.35917">
        <ele>-2</ele>
        <time>2022-06-16T07:25:11.000Z</time>
      </trkpt>
      <trkpt lat="47.29105" lon="-2.35875">
        <ele>-2</ele>
        <time>2022-06-16T07:25:20.000Z</time>
      </trkpt>
      <trkpt lat="47.29146" lon="-2.35831">
        <ele>-2</ele>
        <time>2022-06-16T07:25:30.000Z</time>
      </trkpt>
      <trkpt lat="47.29177" lon="-2.35808">
        <ele>-2</ele>
        <time>2022-06-16T07:25:37.000Z</time>
      </trkpt>
      <trkpt lat="47.29215" lon="-2.3578">
        <ele>-2</ele>
        <time>2022-06-16T07:25:45.000Z</time>
      </trkpt>
      <trkpt lat="47.29241" lon="-2.3575">
        <ele>-2</ele>
        <time>2022-06-16T07:25:52.000Z</time>
      </trkpt>
      <trkpt lat="47.29246" lon="-2.35741">
        <ele>-2</ele>
        <time>2022-06-16T07:25:54.000Z</time>
      </trkpt>
      <trkpt lat="47.2925" lon="-2.35726">
        <ele>-2</ele>
        <time>2022-06-16T07:25:57.000Z</time>
      </trkpt>
      <trkpt lat="47.29241" lon="-2.35712">
        <ele>-2</ele>
        <time>2022-06-16T07:26:00.000Z</time>
      </trkpt>
      <trkpt lat="47.29238" lon="-2.35708">
        <ele>-2</ele>
        <time>2022-06-16T07:26:01.000Z</time>
      </trkpt>
      <trkpt lat="47.29229" lon="-2.35697">
        <ele>-2</ele>
        <time>2022-06-16T07:26:04.000Z</time>
      </trkpt>
      <trkpt lat="47.29228" lon="-2.35693">
        <ele>-2</ele>
        <time>2022-06-16T07:26:05.000Z</time>
      </trkpt>
      <trkpt lat="47.29237" lon="-2.35675">
        <ele>-2</ele>
        <time>2022-06-16T07:26:09.000Z</time>
      </trkpt>
      <trkpt lat="47.29245" lon="-2.35669">
        <ele>-2</ele>
        <time>2022-06-16T07:26:11.000Z</time>
      </trkpt>
      <trkpt lat="47.29259" lon="-2.35662">
        <ele>-2</ele>
        <time>2022-06-16T07:26:14.000Z</time>
      </trkpt>
      <trkpt lat="47.29288" lon="-2.35649">
        <ele>-2.4000000953674</ele>
        <time>2022-06-16T07:26:20.000Z</time>
      </trkpt>
      <trkpt lat="47.29293" lon="-2.35647">
        <ele>-2.7999999523163</ele>
        <time>2022-06-16T07:26:21.000Z</time>
      </trkpt>
      <trkpt lat="47.29298" lon="-2.35645">
        <ele>-3.2000000476837</ele>
        <time>2022-06-16T07:26:22.000Z</time>
      </trkpt>
      <trkpt lat="47.29303" lon="-2.35643">
        <ele>-4</ele>
        <time>2022-06-16T07:26:23.000Z</time>
      </trkpt>
      <trkpt lat="47.29345" lon="-2.35632">
        <ele>-4</ele>
        <time>2022-06-16T07:26:31.000Z</time>
      </trkpt>
      <trkpt lat="47.29377" lon="-2.35623">
        <ele>-4</ele>
        <time>2022-06-16T07:26:37.000Z</time>
      </trkpt>
      <trkpt lat="47.29417" lon="-2.35612">
        <ele>-4</ele>
        <time>2022-06-16T07:26:45.000Z</time>
      </trkpt>
      <trkpt lat="47.29455" lon="-2.35604">
        <ele>-4</ele>
        <time>2022-06-16T07:26:52.000Z</time>
      </trkpt>
      <trkpt lat="47.29467" lon="-2.35604">
        <ele>-4</ele>
        <time>2022-06-16T07:26:54.000Z</time>
      </trkpt>
      <trkpt lat="47.29483" lon="-2.35608">
        <ele>-4</ele>
        <time>2022-06-16T07:26:57.000Z</time>
      </trkpt>
      <trkpt lat="47.29513" lon="-2.3562">
        <ele>-4</ele>
        <time>2022-06-16T07:27:03.000Z</time>
      </trkpt>
      <trkpt lat="47.29533" lon="-2.35623">
        <ele>-4</ele>
        <time>2022-06-16T07:27:07.000Z</time>
      </trkpt>
      <trkpt lat="47.29543" lon="-2.35619">
        <ele>-4</ele>
        <time>2022-06-16T07:27:09.000Z</time>
      </trkpt>
      <trkpt lat="47.29552" lon="-2.35614">
        <ele>-4</ele>
        <time>2022-06-16T07:27:11.000Z</time>
      </trkpt>
      <trkpt lat="47.29567" lon="-2.35612">
        <ele>-4</ele>
        <time>2022-06-16T07:27:14.000Z</time>
      </trkpt>
      <trkpt lat="47.29579" lon="-2.35625">
        <ele>-4</ele>
        <time>2022-06-16T07:27:17.000Z</time>
      </trkpt>
      <trkpt lat="47.29582" lon="-2.35631">
        <ele>-4</ele>
        <time>2022-06-16T07:27:18.000Z</time>
      </trkpt>
      <trkpt lat="47.29599" lon="-2.35681">
        <ele>-4</ele>
        <time>2022-06-16T07:27:25.000Z</time>
      </trkpt>
      <trkpt lat="47.29615" lon="-2.35721">
        <ele>-4</ele>
        <time>2022-06-16T07:27:31.000Z</time>
      </trkpt>
      <trkpt lat="47.29627" lon="-2.35763">
        <ele>-4</ele>
        <time>2022-06-16T07:27:37.000Z</time>
      </trkpt>
      <trkpt lat="47.29634" lon="-2.3579">
        <ele>-4</ele>
        <time>2022-06-16T07:27:41.000Z</time>
      </trkpt>
      <trkpt lat="47.29639" lon="-2.35801">
        <ele>-4</ele>
        <time>2022-06-16T07:27:43.000Z</time>
      </trkpt>
      <trkpt lat="47.29656" lon="-2.35828">
        <ele>-4</ele>
        <time>2022-06-16T07:27:48.000Z</time>
      </trkpt>
      <trkpt lat="47.29661" lon="-2.35832">
        <ele>-4</ele>
        <time>2022-06-16T07:27:49.000Z</time>
      </trkpt>
      <trkpt lat="47.29682" lon="-2.35839">
        <ele>-4</ele>
        <time>2022-06-16T07:27:53.000Z</time>
      </trkpt>
      <trkpt lat="47.29705" lon="-2.35832">
        <ele>-4</ele>
        <time>2022-06-16T07:27:57.000Z</time>
      </trkpt>
      <trkpt lat="47.29738" lon="-2.35815">
        <ele>-4</ele>
        <time>2022-06-16T07:28:03.000Z</time>
      </trkpt>
      <trkpt lat="47.29752" lon="-2.35807">
        <ele>-3.5999999046326</ele>
        <time>2022-06-16T07:28:06.000Z</time>
      </trkpt>
      <trkpt lat="47.29757" lon="-2.35804">
        <ele>-3.2000000476837</ele>
        <time>2022-06-16T07:28:07.000Z</time>
      </trkpt>
      <trkpt lat="47.29762" lon="-2.35803">
        <ele>-2.7999999523163</ele>
        <time>2022-06-16T07:28:08.000Z</time>
      </trkpt>
      <trkpt lat="47.29767" lon="-2.35801">
        <ele>-2.4000000953674</ele>
        <time>2022-06-16T07:28:09.000Z</time>
      </trkpt>
      <trkpt lat="47.29772" lon="-2.358">
        <ele>-2</ele>
        <time>2022-06-16T07:28:10.000Z</time>
      </trkpt>
      <trkpt lat="47.29812" lon="-2.35786">
        <ele>-2</ele>
        <time>2022-06-16T07:28:18.000Z</time>
      </trkpt>
      <trkpt lat="47.29847" lon="-2.35774">
        <ele>-2</ele>
        <time>2022-06-16T07:28:24.000Z</time>
      </trkpt>
      <trkpt lat="47.29886" lon="-2.35758">
        <ele>-2</ele>
        <time>2022-06-16T07:28:30.000Z</time>
      </trkpt>
      <trkpt lat="47.29922" lon="-2.35735">
        <ele>-2</ele>
        <time>2022-06-16T07:28:36.000Z</time>
      </trkpt>
      <trkpt lat="47.29959" lon="-2.35705">
        <ele>-2</ele>
        <time>2022-06-16T07:28:43.000Z</time>
      </trkpt>
      <trkpt lat="47.29998" lon="-2.35683">
        <ele>-2</ele>
        <time>2022-06-16T07:28:50.000Z</time>
      </trkpt>
      <trkpt lat="47.30039" lon="-2.35658">
        <ele>-2</ele>
        <time>2022-06-16T07:28:58.000Z</time>
      </trkpt>
      <trkpt lat="47.30086" lon="-2.35628">
        <ele>-2</ele>
        <time>2022-06-16T07:29:07.000Z</time>
      </trkpt>
      <trkpt lat="47.30121" lon="-2.35605">
        <ele>-2</ele>
        <time>2022-06-16T07:29:14.000Z</time>
      </trkpt>
      <trkpt lat="47.30129" lon="-2.35597">
        <ele>-2</ele>
        <time>2022-06-16T07:29:16.000Z</time>
      </trkpt>
      <trkpt lat="47.30133" lon="-2.35598">
        <ele>-2</ele>
        <time>2022-06-16T07:29:17.000Z</time>
      </trkpt>
      <trkpt lat="47.30138" lon="-2.35607">
        <ele>-2</ele>
        <time>2022-06-16T07:29:19.000Z</time>
      </trkpt>
      <trkpt lat="47.30136" lon="-2.35628">
        <ele>-2</ele>
        <time>2022-06-16T07:29:22.000Z</time>
      </trkpt>
      <trkpt lat="47.30135" lon="-2.35635">
        <ele>-2</ele>
        <time>2022-06-16T07:29:23.000Z</time>
      </trkpt>
      <trkpt lat="47.30134" lon="-2.3565">
        <ele>-2</ele>
        <time>2022-06-16T07:29:25.000Z</time>
      </trkpt>
      <trkpt lat="47.30135" lon="-2.35672">
        <ele>-2</ele>
        <time>2022-06-16T07:29:28.000Z</time>
      </trkpt>
      <trkpt lat="47.3014" lon="-2.35737">
        <ele>-2</ele>
        <time>2022-06-16T07:29:36.000Z</time>
      </trkpt>
      <trkpt lat="47.30142" lon="-2.35797">
        <ele>-2</ele>
        <time>2022-06-16T07:29:42.000Z</time>
      </trkpt>
      <trkpt lat="47.30141" lon="-2.35831">
        <ele>-2</ele>
        <time>2022-06-16T07:29:45.000Z</time>
      </trkpt>
      <trkpt lat="47.30138" lon="-2.35854">
        <ele>-2</ele>
        <time>2022-06-16T07:29:47.000Z</time>
      </trkpt>
      <trkpt lat="47.30136" lon="-2.35866">
        <ele>-2.4000000953674</ele>
        <time>2022-06-16T07:29:48.000Z</time>
      </trkpt>
      <trkpt lat="47.30133" lon="-2.35878">
        <ele>-2.7999999523163</ele>
        <time>2022-06-16T07:29:49.000Z</time>
      </trkpt>
      <trkpt lat="47.30131" lon="-2.3589">
        <ele>-3.2000000476837</ele>
        <time>2022-06-16T07:29:50.000Z</time>
      </trkpt>
      <trkpt lat="47.30129" lon="-2.35902">
        <ele>-3.7999999523163</ele>
        <time>2022-06-16T07:29:51.000Z</time>
      </trkpt>
      <trkpt lat="47.30126" lon="-2.35914">
        <ele>-4.1999998092651</ele>
        <time>2022-06-16T07:29:52.000Z</time>
      </trkpt>
      <trkpt lat="47.30121" lon="-2.35937">
        <ele>-4.5999999046326</ele>
        <time>2022-06-16T07:29:54.000Z</time>
      </trkpt>
      <trkpt lat="47.30118" lon="-2.35948">
        <ele>-5</ele>
        <time>2022-06-16T07:29:55.000Z</time>
      </trkpt>
      <trkpt lat="47.30116" lon="-2.3596">
        <ele>-5.4000000953674</ele>
        <time>2022-06-16T07:29:56.000Z</time>
      </trkpt>
      <trkpt lat="47.30114" lon="-2.35971">
        <ele>-5.8000001907349</ele>
        <time>2022-06-16T07:29:57.000Z</time>
      </trkpt>
      <trkpt lat="47.30111" lon="-2.35982">
        <ele>-6.1999998092651</ele>
        <time>2022-06-16T07:29:58.000Z</time>
      </trkpt>
      <trkpt lat="47.30104" lon="-2.3604">
        <ele>-6.1999998092651</ele>
        <time>2022-06-16T07:30:03.000Z</time>
      </trkpt>
      <trkpt lat="47.30095" lon="-2.36114">
        <ele>-6.1999998092651</ele>
        <time>2022-06-16T07:30:10.000Z</time>
      </trkpt>
      <trkpt lat="47.3009" lon="-2.36175">
        <ele>-6.1999998092651</ele>
        <time>2022-06-16T07:30:17.000Z</time>
      </trkpt>
      <trkpt lat="47.3009" lon="-2.36235">
        <ele>-6.1999998092651</ele>
        <time>2022-06-16T07:30:24.000Z</time>
      </trkpt>
      <trkpt lat="47.30097" lon="-2.36306">
        <ele>-6.1999998092651</ele>
        <time>2022-06-16T07:30:33.000Z</time>
      </trkpt>
      <trkpt lat="47.30101" lon="-2.36353">
        <ele>-5.8000001907349</ele>
        <time>2022-06-16T07:30:39.000Z</time>
      </trkpt>
      <trkpt lat="47.30101" lon="-2.36361">
        <ele>-5.4000000953674</ele>
        <time>2022-06-16T07:30:40.000Z</time>
      </trkpt>
      <trkpt lat="47.30102" lon="-2.36369">
        <ele>-5</ele>
        <time>2022-06-16T07:30:41.000Z</time>
      </trkpt>
      <trkpt lat="47.30103" lon="-2.36377">
        <ele>-4.5999999046326</ele>
        <time>2022-06-16T07:30:42.000Z</time>
      </trkpt>
      <trkpt lat="47.30104" lon="-2.36385">
        <ele>-4.1999998092651</ele>
        <time>2022-06-16T07:30:43.000Z</time>
      </trkpt>
      <trkpt lat="47.30112" lon="-2.3646">
        <ele>-4.1999998092651</ele>
        <time>2022-06-16T07:30:52.000Z</time>
      </trkpt>
      <trkpt lat="47.30122" lon="-2.36524">
        <ele>-4.1999998092651</ele>
        <time>2022-06-16T07:31:00.000Z</time>
      </trkpt>
      <trkpt lat="47.30124" lon="-2.3654">
        <ele>-3.7999999523163</ele>
        <time>2022-06-16T07:31:02.000Z</time>
      </trkpt>
      <trkpt lat="47.30125" lon="-2.36548">
        <ele>-3.4000000953674</ele>
        <time>2022-06-16T07:31:03.000Z</time>
      </trkpt>
      <trkpt lat="47.30126" lon="-2.36556">
        <ele>-2.7999999523163</ele>
        <time>2022-06-16T07:31:04.000Z</time>
      </trkpt>
      <trkpt lat="47.30127" lon="-2.36564">
        <ele>-2.4000000953674</ele>
        <time>2022-06-16T07:31:05.000Z</time>
      </trkpt>
      <trkpt lat="47.30128" lon="-2.36572">
        <ele>-2</ele>
        <time>2022-06-16T07:31:06.000Z</time>
      </trkpt>
      <trkpt lat="47.30131" lon="-2.36587">
        <ele>-2</ele>
        <time>2022-06-16T07:31:08.000Z</time>
      </trkpt>
      <trkpt lat="47.30146" lon="-2.36638">
        <ele>-2</ele>
        <time>2022-06-16T07:31:15.000Z</time>
      </trkpt>
      <trkpt lat="47.30157" lon="-2.36661">
        <ele>-1.6000000238419</ele>
        <time>2022-06-16T07:31:19.000Z</time>
      </trkpt>
      <trkpt lat="47.3016" lon="-2.36667">
        <ele>-1.2000000476837</ele>
        <time>2022-06-16T07:31:20.000Z</time>
      </trkpt>
      <trkpt lat="47.30162" lon="-2.36672">
        <ele>-0.80000001192093</ele>
        <time>2022-06-16T07:31:21.000Z</time>
      </trkpt>
      <trkpt lat="47.30165" lon="-2.36677">
        <ele>-0.40000000596046</ele>
        <time>2022-06-16T07:31:22.000Z</time>
      </trkpt>
      <trkpt lat="47.30168" lon="-2.36681">
        <ele>42</ele>
        <time>2022-06-16T07:31:23.000Z</time>
      </trkpt>
      <trkpt lat="47.30178" lon="-2.36682">
        <ele>42.2</ele>
        <time>2022-06-16T07:31:26.000Z</time>
      </trkpt>
      <trkpt lat="47.30181" lon="-2.3668">
        <ele>42.3</ele>
        <time>2022-06-16T07:31:27.000Z</time>
      </trkpt>
      <trkpt lat="47.30199" lon="-2.36672">
        <ele>42.2</ele>
        <time>2022-06-16T07:31:32.000Z</time>
      </trkpt>
      <trkpt lat="47.30232" lon="-2.36667">
        <ele>42.4</ele>
        <time>2022-06-16T07:31:39.000Z</time>
      </trkpt>
      <trkpt lat="47.30241" lon="-2.36666">
        <ele>0.40000000596046</ele>
        <time>2022-06-16T07:31:41.000Z</time>
      </trkpt>
      <trkpt lat="47.30246" lon="-2.36665">
        <ele>0.80000001192093</ele>
        <time>2022-06-16T07:31:42.000Z</time>
      </trkpt>
      <trkpt lat="47.3025" lon="-2.36665">
        <ele>1.6000000238419</ele>
        <time>2022-06-16T07:31:43.000Z</time>
      </trkpt>
      <trkpt lat="47.30256" lon="-2.36664">
        <ele>2</ele>
        <time>2022-06-16T07:31:44.000Z</time>
      </trkpt>
      <trkpt lat="47.30266" lon="-2.36661">
        <ele>2</ele>
        <time>2022-06-16T07:31:46.000Z</time>
      </trkpt>
      <trkpt lat="47.303" lon="-2.36647">
        <ele>2</ele>
        <time>2022-06-16T07:31:53.000Z</time>
      </trkpt>
      <trkpt lat="47.30326" lon="-2.36647">
        <ele>2</ele>
        <time>2022-06-16T07:31:58.000Z</time>
      </trkpt>
      <trkpt lat="47.30332" lon="-2.36649">
        <ele>2</ele>
        <time>2022-06-16T07:31:59.000Z</time>
      </trkpt>
      <trkpt lat="47.30363" lon="-2.36653">
        <ele>2</ele>
        <time>2022-06-16T07:32:05.000Z</time>
      </trkpt>
      <trkpt lat="47.30369" lon="-2.36654">
        <ele>2</ele>
        <time>2022-06-16T07:32:06.000Z</time>
      </trkpt>
      <trkpt lat="47.30389" lon="-2.36656">
        <ele>2.4000000953674</ele>
        <time>2022-06-16T07:32:10.000Z</time>
      </trkpt>
      <trkpt lat="47.30394" lon="-2.36656">
        <ele>2.7999999523163</ele>
        <time>2022-06-16T07:32:11.000Z</time>
      </trkpt>
      <trkpt lat="47.30399" lon="-2.36656">
        <ele>3.2000000476837</ele>
        <time>2022-06-16T07:32:12.000Z</time>
      </trkpt>
      <trkpt lat="47.30404" lon="-2.36655">
        <ele>3.5999999046326</ele>
        <time>2022-06-16T07:32:13.000Z</time>
      </trkpt>
      <trkpt lat="47.30409" lon="-2.36654">
        <ele>4</ele>
        <time>2022-06-16T07:32:14.000Z</time>
      </trkpt>
      <trkpt lat="47.30424" lon="-2.36649">
        <ele>4</ele>
        <time>2022-06-16T07:32:17.000Z</time>
      </trkpt>
      <trkpt lat="47.30428" lon="-2.36647">
        <ele>4</ele>
        <time>2022-06-16T07:32:18.000Z</time>
      </trkpt>
      <trkpt lat="47.30441" lon="-2.36635">
        <ele>4</ele>
        <time>2022-06-16T07:32:21.000Z</time>
      </trkpt>
      <trkpt lat="47.3045" lon="-2.36627">
        <ele>4</ele>
        <time>2022-06-16T07:32:23.000Z</time>
      </trkpt>
      <trkpt lat="47.30483" lon="-2.36604">
        <ele>4</ele>
        <time>2022-06-16T07:32:30.000Z</time>
      </trkpt>
      <trkpt lat="47.30487" lon="-2.36603">
        <ele>4</ele>
        <time>2022-06-16T07:32:31.000Z</time>
      </trkpt>
      <trkpt lat="47.30506" lon="-2.36598">
        <ele>4</ele>
        <time>2022-06-16T07:32:35.000Z</time>
      </trkpt>
      <trkpt lat="47.30534" lon="-2.36586">
        <ele>4</ele>
        <time>2022-06-16T07:32:41.000Z</time>
      </trkpt>
      <trkpt lat="47.30561" lon="-2.36564">
        <ele>4</ele>
        <time>2022-06-16T07:32:47.000Z</time>
      </trkpt>
      <trkpt lat="47.3057" lon="-2.36558">
        <ele>4</ele>
        <time>2022-06-16T07:32:49.000Z</time>
      </trkpt>
      <trkpt lat="47.30583" lon="-2.3655">
        <ele>4</ele>
        <time>2022-06-16T07:32:52.000Z</time>
      </trkpt>
      <trkpt lat="47.30611" lon="-2.36544">
        <ele>4</ele>
        <time>2022-06-16T07:32:58.000Z</time>
      </trkpt>
      <trkpt lat="47.30616" lon="-2.36542">
        <ele>4</ele>
        <time>2022-06-16T07:32:59.000Z</time>
      </trkpt>
      <trkpt lat="47.30644" lon="-2.3653">
        <ele>4</ele>
        <time>2022-06-16T07:33:05.000Z</time>
      </trkpt>
      <trkpt lat="47.30679" lon="-2.36513">
        <ele>4</ele>
        <time>2022-06-16T07:33:11.000Z</time>
      </trkpt>
      <trkpt lat="47.3069" lon="-2.36509">
        <ele>4</ele>
        <time>2022-06-16T07:33:13.000Z</time>
      </trkpt>
      <trkpt lat="47.30697" lon="-2.36514">
        <ele>4</ele>
        <time>2022-06-16T07:33:15.000Z</time>
      </trkpt>
      <trkpt lat="47.30707" lon="-2.36516">
        <ele>4</ele>
        <time>2022-06-16T07:33:18.000Z</time>
      </trkpt>
      <trkpt lat="47.30714" lon="-2.36507">
        <ele>4</ele>
        <time>2022-06-16T07:33:20.000Z</time>
      </trkpt>
      <trkpt lat="47.30718" lon="-2.36503">
        <ele>4</ele>
        <time>2022-06-16T07:33:21.000Z</time>
      </trkpt>
      <trkpt lat="47.30724" lon="-2.36499">
        <ele>4</ele>
        <time>2022-06-16T07:33:22.000Z</time>
      </trkpt>
      <trkpt lat="47.30741" lon="-2.36491">
        <ele>3.5999999046326</ele>
        <time>2022-06-16T07:33:25.000Z</time>
      </trkpt>
      <trkpt lat="47.30748" lon="-2.36488">
        <ele>3.2000000476837</ele>
        <time>2022-06-16T07:33:26.000Z</time>
      </trkpt>
      <trkpt lat="47.30754" lon="-2.36486">
        <ele>2.7999999523163</ele>
        <time>2022-06-16T07:33:27.000Z</time>
      </trkpt>
      <trkpt lat="47.3076" lon="-2.36484">
        <ele>2.4000000953674</ele>
        <time>2022-06-16T07:33:28.000Z</time>
      </trkpt>
      <trkpt lat="47.30766" lon="-2.36483">
        <ele>2</ele>
        <time>2022-06-16T07:33:29.000Z</time>
      </trkpt>
      <trkpt lat="47.3079" lon="-2.36478">
        <ele>2</ele>
        <time>2022-06-16T07:33:33.000Z</time>
      </trkpt>
      <trkpt lat="47.30806" lon="-2.36472">
        <ele>2</ele>
        <time>2022-06-16T07:33:36.000Z</time>
      </trkpt>
      <trkpt lat="47.30815" lon="-2.36472">
        <ele>2</ele>
        <time>2022-06-16T07:33:38.000Z</time>
      </trkpt>
      <trkpt lat="47.30818" lon="-2.36474">
        <ele>1.6000000238419</ele>
        <time>2022-06-16T07:33:39.000Z</time>
      </trkpt>
      <trkpt lat="47.30821" lon="-2.36476">
        <ele>1.2000000476837</ele>
        <time>2022-06-16T07:33:40.000Z</time>
      </trkpt>
      <trkpt lat="47.30824" lon="-2.36479">
        <ele>0.60000002384186</ele>
        <time>2022-06-16T07:33:41.000Z</time>
      </trkpt>
      <trkpt lat="47.30826" lon="-2.36481">
        <ele>0.20000000298023</ele>
        <time>2022-06-16T07:33:42.000Z</time>
      </trkpt>
      <trkpt lat="47.30828" lon="-2.36483">
        <ele>-0.20000000298023</ele>
        <time>2022-06-16T07:33:43.000Z</time>
      </trkpt>
      <trkpt lat="47.30838" lon="-2.36485">
        <ele>-0.20000000298023</ele>
        <time>2022-06-16T07:33:46.000Z</time>
      </trkpt>
      <trkpt lat="47.3086" lon="-2.36482">
        <ele>-0.20000000298023</ele>
        <time>2022-06-16T07:33:54.000Z</time>
      </trkpt>
      <trkpt lat="47.30882" lon="-2.36476">
        <ele>-0.20000000298023</ele>
        <time>2022-06-16T07:34:01.000Z</time>
      </trkpt>
      <trkpt lat="47.30903" lon="-2.36468">
        <ele>-0.20000000298023</ele>
        <time>2022-06-16T07:34:07.000Z</time>
      </trkpt>
      <trkpt lat="47.30931" lon="-2.36459">
        <ele>-0.20000000298023</ele>
        <time>2022-06-16T07:34:14.000Z</time>
      </trkpt>
      <trkpt lat="47.30936" lon="-2.36459">
        <ele>-0.20000000298023</ele>
        <time>2022-06-16T07:34:15.000Z</time>
      </trkpt>
      <trkpt lat="47.3094" lon="-2.36457">
        <ele>-0.20000000298023</ele>
        <time>2022-06-16T07:34:16.000Z</time>
      </trkpt>
      <trkpt lat="47.30964" lon="-2.36449">
        <ele>-0.20000000298023</ele>
        <time>2022-06-16T07:34:22.000Z</time>
      </trkpt>
      <trkpt lat="47.30996" lon="-2.36432">
        <ele>-0.20000000298023</ele>
        <time>2022-06-16T07:34:30.000Z</time>
      </trkpt>
      <trkpt lat="47.3101" lon="-2.36426">
        <ele>-0.60000002384186</ele>
        <time>2022-06-16T07:34:33.000Z</time>
      </trkpt>
      <trkpt lat="47.31015" lon="-2.36425">
        <ele>-1</ele>
        <time>2022-06-16T07:34:34.000Z</time>
      </trkpt>
      <trkpt lat="47.3102" lon="-2.36424">
        <ele>-1.3999999761581</ele>
        <time>2022-06-16T07:34:35.000Z</time>
      </trkpt>
      <trkpt lat="47.31025" lon="-2.36422">
        <ele>-2.2000000476837</ele>
        <time>2022-06-16T07:34:36.000Z</time>
      </trkpt>
      <trkpt lat="47.3103" lon="-2.36421">
        <ele>-2.2000000476837</ele>
        <time>2022-06-16T07:34:37.000Z</time>
      </trkpt>
      <trkpt lat="47.31073" lon="-2.36416">
        <ele>-2.2000000476837</ele>
        <time>2022-06-16T07:34:45.000Z</time>
      </trkpt>
      <trkpt lat="47.31089" lon="-2.36415">
        <ele>-2.2000000476837</ele>
        <time>2022-06-16T07:34:49.000Z</time>
      </trkpt>
      <trkpt lat="47.31103" lon="-2.36412">
        <ele>-2.2000000476837</ele>
        <time>2022-06-16T07:34:52.000Z</time>
      </trkpt>
      <trkpt lat="47.31112" lon="-2.36407">
        <ele>-2.2000000476837</ele>
        <time>2022-06-16T07:34:54.000Z</time>
      </trkpt>
      <trkpt lat="47.31122" lon="-2.36402">
        <ele>-2.2000000476837</ele>
        <time>2022-06-16T07:34:56.000Z</time>
      </trkpt>
      <trkpt lat="47.31148" lon="-2.36386">
        <ele>-2.2000000476837</ele>
        <time>2022-06-16T07:35:01.000Z</time>
      </trkpt>
      <trkpt lat="47.31162" lon="-2.36376">
        <ele>-2.2000000476837</ele>
        <time>2022-06-16T07:35:04.000Z</time>
      </trkpt>
      <trkpt lat="47.31172" lon="-2.36369">
        <ele>-2.2000000476837</ele>
        <time>2022-06-16T07:35:06.000Z</time>
      </trkpt>
      <trkpt lat="47.31211" lon="-2.36345">
        <ele>-2.2000000476837</ele>
        <time>2022-06-16T07:35:13.000Z</time>
      </trkpt>
      <trkpt lat="47.31252" lon="-2.3632">
        <ele>-2.2000000476837</ele>
        <time>2022-06-16T07:35:21.000Z</time>
      </trkpt>
      <trkpt lat="47.3129" lon="-2.363">
        <ele>-2.2000000476837</ele>
        <time>2022-06-16T07:35:29.000Z</time>
      </trkpt>
      <trkpt lat="47.31319" lon="-2.36283">
        <ele>-2.2000000476837</ele>
        <time>2022-06-16T07:35:35.000Z</time>
      </trkpt>
      <trkpt lat="47.31324" lon="-2.36279">
        <ele>-2.2000000476837</ele>
        <time>2022-06-16T07:35:36.000Z</time>
      </trkpt>
      <trkpt lat="47.31355" lon="-2.36247">
        <ele>-2.2000000476837</ele>
        <time>2022-06-16T07:35:43.000Z</time>
      </trkpt>
      <trkpt lat="47.31366" lon="-2.3624">
        <ele>-2.2000000476837</ele>
        <time>2022-06-16T07:35:45.000Z</time>
      </trkpt>
      <trkpt lat="47.31387" lon="-2.36229">
        <ele>-2.2000000476837</ele>
        <time>2022-06-16T07:35:49.000Z</time>
      </trkpt>
      <trkpt lat="47.31427" lon="-2.36208">
        <ele>-2.2000000476837</ele>
        <time>2022-06-16T07:35:56.000Z</time>
      </trkpt>
      <trkpt lat="47.31463" lon="-2.36181">
        <ele>-2.2000000476837</ele>
        <time>2022-06-16T07:36:03.000Z</time>
      </trkpt>
      <trkpt lat="47.31486" lon="-2.36154">
        <ele>-2.2000000476837</ele>
        <time>2022-06-16T07:36:08.000Z</time>
      </trkpt>
      <trkpt lat="47.31491" lon="-2.36149">
        <ele>-2.2000000476837</ele>
        <time>2022-06-16T07:36:09.000Z</time>
      </trkpt>
      <trkpt lat="47.31523" lon="-2.3611">
        <ele>-2.2000000476837</ele>
        <time>2022-06-16T07:36:16.000Z</time>
      </trkpt>
      <trkpt lat="47.31557" lon="-2.36073">
        <ele>-2.2000000476837</ele>
        <time>2022-06-16T07:36:23.000Z</time>
      </trkpt>
      <trkpt lat="47.31563" lon="-2.36068">
        <ele>-2.2000000476837</ele>
        <time>2022-06-16T07:36:24.000Z</time>
      </trkpt>
      <trkpt lat="47.31595" lon="-2.36036">
        <ele>-2.2000000476837</ele>
        <time>2022-06-16T07:36:30.000Z</time>
      </trkpt>
      <trkpt lat="47.31607" lon="-2.36024">
        <ele>-2.2000000476837</ele>
        <time>2022-06-16T07:36:32.000Z</time>
      </trkpt>
      <trkpt lat="47.31624" lon="-2.36006">
        <ele>-2.2000000476837</ele>
        <time>2022-06-16T07:36:35.000Z</time>
      </trkpt>
      <trkpt lat="47.31654" lon="-2.35975">
        <ele>-3</ele>
        <time>2022-06-16T07:36:40.000Z</time>
      </trkpt>
      <trkpt lat="47.3166" lon="-2.3597">
        <ele>-3.4000000953674</ele>
        <time>2022-06-16T07:36:41.000Z</time>
      </trkpt>
      <trkpt lat="47.31667" lon="-2.35966">
        <ele>-3.7999999523163</ele>
        <time>2022-06-16T07:36:42.000Z</time>
      </trkpt>
      <trkpt lat="47.31674" lon="-2.35962">
        <ele>-4.4000000953674</ele>
        <time>2022-06-16T07:36:43.000Z</time>
      </trkpt>
      <trkpt lat="47.31702" lon="-2.35946">
        <ele>-4.4000000953674</ele>
        <time>2022-06-16T07:36:47.000Z</time>
      </trkpt>
      <trkpt lat="47.31743" lon="-2.35923">
        <ele>-4.8000001907349</ele>
        <time>2022-06-16T07:36:53.000Z</time>
      </trkpt>
      <trkpt lat="47.3175" lon="-2.35919">
        <ele>-5.1999998092651</ele>
        <time>2022-06-16T07:36:54.000Z</time>
      </trkpt>
      <trkpt lat="47.31757" lon="-2.35915">
        <ele>-5.5999999046326</ele>
        <time>2022-06-16T07:36:55.000Z</time>
      </trkpt>
      <trkpt lat="47.31764" lon="-2.35912">
        <ele>-6.1999998092651</ele>
        <time>2022-06-16T07:36:56.000Z</time>
      </trkpt>
      <trkpt lat="47.31771" lon="-2.35908">
        <ele>-6.5999999046326</ele>
        <time>2022-06-16T07:36:57.000Z</time>
      </trkpt>
      <trkpt lat="47.31777" lon="-2.35904">
        <ele>-6.5999999046326</ele>
        <time>2022-06-16T07:36:58.000Z</time>
      </trkpt>
      <trkpt lat="47.31809" lon="-2.35885">
        <ele>-7</ele>
        <time>2022-06-16T07:37:03.000Z</time>
      </trkpt>
      <trkpt lat="47.31815" lon="-2.35881">
        <ele>-7.8000001907349</ele>
        <time>2022-06-16T07:37:04.000Z</time>
      </trkpt>
      <trkpt lat="47.31821" lon="-2.35877">
        <ele>-8.1999998092651</ele>
        <time>2022-06-16T07:37:05.000Z</time>
      </trkpt>
      <trkpt lat="47.31824" lon="-2.3587">
        <ele>-8.6000003814697</ele>
        <time>2022-06-16T07:37:06.000Z</time>
      </trkpt>
      <trkpt lat="47.31826" lon="-2.35863">
        <ele>-8.6000003814697</ele>
        <time>2022-06-16T07:37:07.000Z</time>
      </trkpt>
      <trkpt lat="47.31824" lon="-2.35844">
        <ele>-8.6000003814697</ele>
        <time>2022-06-16T07:37:10.000Z</time>
      </trkpt>
      <trkpt lat="47.3182" lon="-2.35839">
        <ele>-8.6000003814697</ele>
        <time>2022-06-16T07:37:11.000Z</time>
      </trkpt>
      <trkpt lat="47.31812" lon="-2.35828">
        <ele>-8.6000003814697</ele>
        <time>2022-06-16T07:37:13.000Z</time>
      </trkpt>
      <trkpt lat="47.31795" lon="-2.35805">
        <ele>-8.6000003814697</ele>
        <time>2022-06-16T07:37:17.000Z</time>
      </trkpt>
      <trkpt lat="47.31788" lon="-2.3579">
        <ele>-8.6000003814697</ele>
        <time>2022-06-16T07:37:19.000Z</time>
      </trkpt>
      <trkpt lat="47.31784" lon="-2.35774">
        <ele>-8.6000003814697</ele>
        <time>2022-06-16T07:37:21.000Z</time>
      </trkpt>
      <trkpt lat="47.31782" lon="-2.35749">
        <ele>-8.6000003814697</ele>
        <time>2022-06-16T07:37:24.000Z</time>
      </trkpt>
      <trkpt lat="47.31782" lon="-2.35739">
        <ele>-8.6000003814697</ele>
        <time>2022-06-16T07:37:25.000Z</time>
      </trkpt>
      <trkpt lat="47.31782" lon="-2.35717">
        <ele>-9</ele>
        <time>2022-06-16T07:37:27.000Z</time>
      </trkpt>
      <trkpt lat="47.31783" lon="-2.35706">
        <ele>-9.6000003814697</ele>
        <time>2022-06-16T07:37:28.000Z</time>
      </trkpt>
      <trkpt lat="47.31783" lon="-2.35695">
        <ele>-10.39999961853</ele>
        <time>2022-06-16T07:37:29.000Z</time>
      </trkpt>
      <trkpt lat="47.31784" lon="-2.35683">
        <ele>-11</ele>
        <time>2022-06-16T07:37:30.000Z</time>
      </trkpt>
      <trkpt lat="47.31785" lon="-2.35659">
        <ele>-11</ele>
        <time>2022-06-16T07:37:32.000Z</time>
      </trkpt>
      <trkpt lat="47.31789" lon="-2.35637">
        <ele>-11</ele>
        <time>2022-06-16T07:37:34.000Z</time>
      </trkpt>
      <trkpt lat="47.31794" lon="-2.35617">
        <ele>-11.39999961853</ele>
        <time>2022-06-16T07:37:36.000Z</time>
      </trkpt>
      <trkpt lat="47.31798" lon="-2.35607">
        <ele>-11.800000190735</ele>
        <time>2022-06-16T07:37:37.000Z</time>
      </trkpt>
      <trkpt lat="47.31801" lon="-2.35597">
        <ele>-12.199999809265</ele>
        <time>2022-06-16T07:37:38.000Z</time>
      </trkpt>
      <trkpt lat="47.31804" lon="-2.35588">
        <ele>-12.60000038147</ele>
        <time>2022-06-16T07:37:39.000Z</time>
      </trkpt>
      <trkpt lat="47.31807" lon="-2.35581">
        <ele>-13</ele>
        <time>2022-06-16T07:37:40.000Z</time>
      </trkpt>
      <trkpt lat="47.31816" lon="-2.3557">
        <ele>-13</ele>
        <time>2022-06-16T07:37:42.000Z</time>
      </trkpt>
      <trkpt lat="47.31831" lon="-2.35551">
        <ele>-13.39999961853</ele>
        <time>2022-06-16T07:37:46.000Z</time>
      </trkpt>
      <trkpt lat="47.31832" lon="-2.35545">
        <ele>-13.800000190735</ele>
        <time>2022-06-16T07:37:47.000Z</time>
      </trkpt>
      <trkpt lat="47.31831" lon="-2.3554">
        <ele>-14.199999809265</ele>
        <time>2022-06-16T07:37:48.000Z</time>
      </trkpt>
      <trkpt lat="47.31829" lon="-2.35535">
        <ele>-14.60000038147</ele>
        <time>2022-06-16T07:37:49.000Z</time>
      </trkpt>
      <trkpt lat="47.31826" lon="-2.35529">
        <ele>-15</ele>
        <time>2022-06-16T07:37:50.000Z</time>
      </trkpt>
      <trkpt lat="47.31823" lon="-2.35524">
        <ele>-15</ele>
        <time>2022-06-16T07:37:51.000Z</time>
      </trkpt>
      <trkpt lat="47.31811" lon="-2.35504">
        <ele>-15</ele>
        <time>2022-06-16T07:37:54.000Z</time>
      </trkpt>
      <trkpt lat="47.31808" lon="-2.35498">
        <ele>-15</ele>
        <time>2022-06-16T07:37:55.000Z</time>
      </trkpt>
      <trkpt lat="47.31795" lon="-2.35464">
        <ele>-15</ele>
        <time>2022-06-16T07:38:01.000Z</time>
      </trkpt>
      <trkpt lat="47.3178" lon="-2.35432">
        <ele>-14.60000038147</ele>
        <time>2022-06-16T07:38:07.000Z</time>
      </trkpt>
      <trkpt lat="47.31776" lon="-2.35425">
        <ele>-14.199999809265</ele>
        <time>2022-06-16T07:38:08.000Z</time>
      </trkpt>
      <trkpt lat="47.31772" lon="-2.35418">
        <ele>-13.800000190735</ele>
        <time>2022-06-16T07:38:09.000Z</time>
      </trkpt>
      <trkpt lat="47.31768" lon="-2.35411">
        <ele>-13.199999809265</ele>
        <time>2022-06-16T07:38:10.000Z</time>
      </trkpt>
      <trkpt lat="47.31765" lon="-2.35405">
        <ele>-12.800000190735</ele>
        <time>2022-06-16T07:38:11.000Z</time>
      </trkpt>
      <trkpt lat="47.31761" lon="-2.35398">
        <ele>-12.800000190735</ele>
        <time>2022-06-16T07:38:12.000Z</time>
      </trkpt>
      <trkpt lat="47.31755" lon="-2.35387">
        <ele>-12.800000190735</ele>
        <time>2022-06-16T07:38:14.000Z</time>
      </trkpt>
      <trkpt lat="47.31751" lon="-2.35373">
        <ele>-12.800000190735</ele>
        <time>2022-06-16T07:38:18.000Z</time>
      </trkpt>
      <trkpt lat="47.3175" lon="-2.35367">
        <ele>-12.800000190735</ele>
        <time>2022-06-16T07:38:22.000Z</time>
      </trkpt>
      <trkpt lat="47.31754" lon="-2.3536">
        <ele>-12.800000190735</ele>
        <time>2022-06-16T07:39:09.000Z</time>
      </trkpt>
      <trkpt lat="47.31769" lon="-2.35347">
        <ele>-12.800000190735</ele>
        <time>2022-06-16T07:39:15.000Z</time>
      </trkpt>
      <trkpt lat="47.31789" lon="-2.35333">
        <ele>-12.800000190735</ele>
        <time>2022-06-16T07:39:20.000Z</time>
      </trkpt>
      <trkpt lat="47.31819" lon="-2.35313">
        <ele>-12.800000190735</ele>
        <time>2022-06-16T07:39:26.000Z</time>
      </trkpt>
      <trkpt lat="47.31847" lon="-2.35298">
        <ele>-13.199999809265</ele>
        <time>2022-06-16T07:39:31.000Z</time>
      </trkpt>
      <trkpt lat="47.31853" lon="-2.35295">
        <ele>-14</ele>
        <time>2022-06-16T07:39:32.000Z</time>
      </trkpt>
      <trkpt lat="47.31858" lon="-2.35291">
        <ele>-14.39999961853</ele>
        <time>2022-06-16T07:39:33.000Z</time>
      </trkpt>
      <trkpt lat="47.31864" lon="-2.35288">
        <ele>-14.800000190735</ele>
        <time>2022-06-16T07:39:34.000Z</time>
      </trkpt>
      <trkpt lat="47.31886" lon="-2.3527">
        <ele>-14.800000190735</ele>
        <time>2022-06-16T07:39:38.000Z</time>
      </trkpt>
      <trkpt lat="47.31907" lon="-2.35245">
        <ele>-14.800000190735</ele>
        <time>2022-06-16T07:39:43.000Z</time>
      </trkpt>
      <trkpt lat="47.3192" lon="-2.35231">
        <ele>-15.199999809265</ele>
        <time>2022-06-16T07:39:46.000Z</time>
      </trkpt>
      <trkpt lat="47.31924" lon="-2.35227">
        <ele>-15.60000038147</ele>
        <time>2022-06-16T07:39:47.000Z</time>
      </trkpt>
      <trkpt lat="47.31929" lon="-2.35223">
        <ele>-16</ele>
        <time>2022-06-16T07:39:48.000Z</time>
      </trkpt>
      <trkpt lat="47.31934" lon="-2.35219">
        <ele>-16.39999961853</ele>
        <time>2022-06-16T07:39:49.000Z</time>
      </trkpt>
      <trkpt lat="47.31938" lon="-2.35215">
        <ele>-16.799999237061</ele>
        <time>2022-06-16T07:39:50.000Z</time>
      </trkpt>
      <trkpt lat="47.31967" lon="-2.35187">
        <ele>-16.799999237061</ele>
        <time>2022-06-16T07:39:56.000Z</time>
      </trkpt>
      <trkpt lat="47.31996" lon="-2.35159">
        <ele>-16.799999237061</ele>
        <time>2022-06-16T07:40:02.000Z</time>
      </trkpt>
      <trkpt lat="47.32019" lon="-2.35136">
        <ele>-16.799999237061</ele>
        <time>2022-06-16T07:40:07.000Z</time>
      </trkpt>
      <trkpt lat="47.32023" lon="-2.35129">
        <ele>-16.799999237061</ele>
        <time>2022-06-16T07:40:08.000Z</time>
      </trkpt>
      <trkpt lat="47.32029" lon="-2.35115">
        <ele>-16.799999237061</ele>
        <time>2022-06-16T07:40:10.000Z</time>
      </trkpt>
      <trkpt lat="47.32029" lon="-2.35088">
        <ele>-16.799999237061</ele>
        <time>2022-06-16T07:40:14.000Z</time>
      </trkpt>
      <trkpt lat="47.32027" lon="-2.35082">
        <ele>-16.799999237061</ele>
        <time>2022-06-16T07:40:15.000Z</time>
      </trkpt>
      <trkpt lat="47.32028" lon="-2.35072">
        <ele>-16.799999237061</ele>
        <time>2022-06-16T07:40:17.000Z</time>
      </trkpt>
      <trkpt lat="47.32033" lon="-2.35068">
        <ele>-16.799999237061</ele>
        <time>2022-06-16T07:40:18.000Z</time>
      </trkpt>
      <trkpt lat="47.32047" lon="-2.35064">
        <ele>-16.799999237061</ele>
        <time>2022-06-16T07:40:21.000Z</time>
      </trkpt>
      <trkpt lat="47.32085" lon="-2.35063">
        <ele>-16.799999237061</ele>
        <time>2022-06-16T07:40:28.000Z</time>
      </trkpt>
      <trkpt lat="47.32121" lon="-2.3506">
        <ele>-16.799999237061</ele>
        <time>2022-06-16T07:40:35.000Z</time>
      </trkpt>
      <trkpt lat="47.32152" lon="-2.35058">
        <ele>-16.799999237061</ele>
        <time>2022-06-16T07:40:41.000Z</time>
      </trkpt>
      <trkpt lat="47.32181" lon="-2.35056">
        <ele>-16.799999237061</ele>
        <time>2022-06-16T07:40:47.000Z</time>
      </trkpt>
      <trkpt lat="47.32224" lon="-2.35054">
        <ele>-16.799999237061</ele>
        <time>2022-06-16T07:40:55.000Z</time>
      </trkpt>
      <trkpt lat="47.32249" lon="-2.3505">
        <ele>-16.799999237061</ele>
        <time>2022-06-16T07:41:00.000Z</time>
      </trkpt>
      <trkpt lat="47.3227" lon="-2.35045">
        <ele>-16.799999237061</ele>
        <time>2022-06-16T07:41:04.000Z</time>
      </trkpt>
      <trkpt lat="47.3228" lon="-2.35044">
        <ele>-16.799999237061</ele>
        <time>2022-06-16T07:41:06.000Z</time>
      </trkpt>
      <trkpt lat="47.3231" lon="-2.35045">
        <ele>-16.39999961853</ele>
        <time>2022-06-16T07:41:12.000Z</time>
      </trkpt>
      <trkpt lat="47.32316" lon="-2.35044">
        <ele>-16</ele>
        <time>2022-06-16T07:41:13.000Z</time>
      </trkpt>
      <trkpt lat="47.32321" lon="-2.35044">
        <ele>-15.60000038147</ele>
        <time>2022-06-16T07:41:14.000Z</time>
      </trkpt>
      <trkpt lat="47.32328" lon="-2.35044">
        <ele>-15.199999809265</ele>
        <time>2022-06-16T07:41:15.000Z</time>
      </trkpt>
      <trkpt lat="47.32333" lon="-2.35043">
        <ele>-14.60000038147</ele>
        <time>2022-06-16T07:41:16.000Z</time>
      </trkpt>
      <trkpt lat="47.32358" lon="-2.35042">
        <ele>-14.60000038147</ele>
        <time>2022-06-16T07:41:21.000Z</time>
      </trkpt>
      <trkpt lat="47.32382" lon="-2.35043">
        <ele>-14.60000038147</ele>
        <time>2022-06-16T07:41:27.000Z</time>
      </trkpt>
      <trkpt lat="47.32411" lon="-2.35039">
        <ele>-14.199999809265</ele>
        <time>2022-06-16T07:41:33.000Z</time>
      </trkpt>
      <trkpt lat="47.32418" lon="-2.35038">
        <ele>-13.800000190735</ele>
        <time>2022-06-16T07:41:34.000Z</time>
      </trkpt>
      <trkpt lat="47.32424" lon="-2.35037">
        <ele>-13.39999961853</ele>
        <time>2022-06-16T07:41:35.000Z</time>
      </trkpt>
      <trkpt lat="47.3243" lon="-2.35036">
        <ele>-12.60000038147</ele>
        <time>2022-06-16T07:41:36.000Z</time>
      </trkpt>
      <trkpt lat="47.32454" lon="-2.35029">
        <ele>-12.60000038147</ele>
        <time>2022-06-16T07:41:40.000Z</time>
      </trkpt>
      <trkpt lat="47.32486" lon="-2.35021">
        <ele>-12.60000038147</ele>
        <time>2022-06-16T07:41:45.000Z</time>
      </trkpt>
      <trkpt lat="47.32494" lon="-2.35019">
        <ele>-12.60000038147</ele>
        <time>2022-06-16T07:41:46.000Z</time>
      </trkpt>
      <trkpt lat="47.32547" lon="-2.35005">
        <ele>-12.60000038147</ele>
        <time>2022-06-16T07:41:54.000Z</time>
      </trkpt>
      <trkpt lat="47.32583" lon="-2.34987">
        <ele>-13</ele>
        <time>2022-06-16T07:42:00.000Z</time>
      </trkpt>
      <trkpt lat="47.32588" lon="-2.34985">
        <ele>-13.800000190735</ele>
        <time>2022-06-16T07:42:01.000Z</time>
      </trkpt>
      <trkpt lat="47.32594" lon="-2.34982">
        <ele>-14.199999809265</ele>
        <time>2022-06-16T07:42:02.000Z</time>
      </trkpt>
      <trkpt lat="47.326" lon="-2.34978">
        <ele>-14.800000190735</ele>
        <time>2022-06-16T07:42:03.000Z</time>
      </trkpt>
      <trkpt lat="47.32623" lon="-2.34967">
        <ele>-14.800000190735</ele>
        <time>2022-06-16T07:42:07.000Z</time>
      </trkpt>
      <trkpt lat="47.32644" lon="-2.3496">
        <ele>-14.800000190735</ele>
        <time>2022-06-16T07:42:11.000Z</time>
      </trkpt>
      <trkpt lat="47.32661" lon="-2.34949">
        <ele>-14.800000190735</ele>
        <time>2022-06-16T07:42:16.000Z</time>
      </trkpt>
      <trkpt lat="47.32678" lon="-2.34937">
        <ele>-14.800000190735</ele>
        <time>2022-06-16T07:42:20.000Z</time>
      </trkpt>
      <trkpt lat="47.32683" lon="-2.34933">
        <ele>-14.800000190735</ele>
        <time>2022-06-16T07:42:21.000Z</time>
      </trkpt>
      <trkpt lat="47.32698" lon="-2.34921">
        <ele>-15.199999809265</ele>
        <time>2022-06-16T07:42:24.000Z</time>
      </trkpt>
      <trkpt lat="47.32703" lon="-2.34917">
        <ele>-16</ele>
        <time>2022-06-16T07:42:25.000Z</time>
      </trkpt>
      <trkpt lat="47.32708" lon="-2.34913">
        <ele>-16.39999961853</ele>
        <time>2022-06-16T07:42:26.000Z</time>
      </trkpt>
      <trkpt lat="47.32713" lon="-2.34909">
        <ele>-16.799999237061</ele>
        <time>2022-06-16T07:42:27.000Z</time>
      </trkpt>
      <trkpt lat="47.32752" lon="-2.34881">
        <ele>-16.799999237061</ele>
        <time>2022-06-16T07:42:34.000Z</time>
      </trkpt>
      <trkpt lat="47.32793" lon="-2.34852">
        <ele>-16.799999237061</ele>
        <time>2022-06-16T07:42:41.000Z</time>
      </trkpt>
      <trkpt lat="47.32842" lon="-2.34818">
        <ele>-16.799999237061</ele>
        <time>2022-06-16T07:42:49.000Z</time>
      </trkpt>
      <trkpt lat="47.32855" lon="-2.3481">
        <ele>-17.200000762939</ele>
        <time>2022-06-16T07:42:51.000Z</time>
      </trkpt>
      <trkpt lat="47.32862" lon="-2.34805">
        <ele>-17.60000038147</ele>
        <time>2022-06-16T07:42:52.000Z</time>
      </trkpt>
      <trkpt lat="47.32869" lon="-2.348">
        <ele>-18</ele>
        <time>2022-06-16T07:42:53.000Z</time>
      </trkpt>
      <trkpt lat="47.32875" lon="-2.34796">
        <ele>-18.39999961853</ele>
        <time>2022-06-16T07:42:54.000Z</time>
      </trkpt>
      <trkpt lat="47.32881" lon="-2.34791">
        <ele>-19</ele>
        <time>2022-06-16T07:42:55.000Z</time>
      </trkpt>
      <trkpt lat="47.32893" lon="-2.34783">
        <ele>-19</ele>
        <time>2022-06-16T07:42:57.000Z</time>
      </trkpt>
      <trkpt lat="47.32901" lon="-2.34781">
        <ele>-19</ele>
        <time>2022-06-16T07:42:59.000Z</time>
      </trkpt>
      <trkpt lat="47.32904" lon="-2.34782">
        <ele>-19</ele>
        <time>2022-06-16T07:43:00.000Z</time>
      </trkpt>
      <trkpt lat="47.32914" lon="-2.34797">
        <ele>-19</ele>
        <time>2022-06-16T07:43:03.000Z</time>
      </trkpt>
      <trkpt lat="47.3292" lon="-2.34814">
        <ele>-19</ele>
        <time>2022-06-16T07:43:06.000Z</time>
      </trkpt>
      <trkpt lat="47.32925" lon="-2.34826">
        <ele>-19</ele>
        <time>2022-06-16T07:43:08.000Z</time>
      </trkpt>
      <trkpt lat="47.32935" lon="-2.34853">
        <ele>-19</ele>
        <time>2022-06-16T07:43:12.000Z</time>
      </trkpt>
      <trkpt lat="47.32941" lon="-2.34867">
        <ele>-19</ele>
        <time>2022-06-16T07:43:14.000Z</time>
      </trkpt>
      <trkpt lat="47.32957" lon="-2.34906">
        <ele>-19</ele>
        <time>2022-06-16T07:43:20.000Z</time>
      </trkpt>
      <trkpt lat="47.32961" lon="-2.34913">
        <ele>-19</ele>
        <time>2022-06-16T07:43:24.000Z</time>
      </trkpt>
      <trkpt lat="47.32961" lon="-2.34913">
        <ele>-19</ele>
        <time>2022-06-16T07:43:25.000Z</time>
      </trkpt>
      <trkpt lat="47.32964" lon="-2.34927">
        <ele>-19</ele>
        <time>2022-06-16T07:43:45.000Z</time>
      </trkpt>
      <trkpt lat="47.32967" lon="-2.34934">
        <ele>-19</ele>
        <time>2022-06-16T07:43:47.000Z</time>
      </trkpt>
      <trkpt lat="47.32975" lon="-2.3496">
        <ele>-19</ele>
        <time>2022-06-16T07:43:52.000Z</time>
      </trkpt>
      <trkpt lat="47.32983" lon="-2.34984">
        <ele>-19</ele>
        <time>2022-06-16T07:43:57.000Z</time>
      </trkpt>
      <trkpt lat="47.32991" lon="-2.3501">
        <ele>-19</ele>
        <time>2022-06-16T07:44:03.000Z</time>
      </trkpt>
      <trkpt lat="47.32997" lon="-2.35033">
        <ele>-19</ele>
        <time>2022-06-16T07:44:07.000Z</time>
      </trkpt>
      <trkpt lat="47.32999" lon="-2.35039">
        <ele>-18.39999961853</ele>
        <time>2022-06-16T07:44:08.000Z</time>
      </trkpt>
      <trkpt lat="47.33" lon="-2.35046">
        <ele>-18</ele>
        <time>2022-06-16T07:44:09.000Z</time>
      </trkpt>
      <trkpt lat="47.33002" lon="-2.35052">
        <ele>-17.60000038147</ele>
        <time>2022-06-16T07:44:10.000Z</time>
      </trkpt>
      <trkpt lat="47.33004" lon="-2.35057">
        <ele>-17.200000762939</ele>
        <time>2022-06-16T07:44:11.000Z</time>
      </trkpt>
      <trkpt lat="47.33005" lon="-2.35062">
        <ele>-16.799999237061</ele>
        <time>2022-06-16T07:44:12.000Z</time>
      </trkpt>
      <trkpt lat="47.33008" lon="-2.35068">
        <ele>-16.799999237061</ele>
        <time>2022-06-16T07:44:13.000Z</time>
      </trkpt>
      <trkpt lat="47.33014" lon="-2.35095">
        <ele>-16.799999237061</ele>
        <time>2022-06-16T07:44:17.000Z</time>
      </trkpt>
      <trkpt lat="47.33015" lon="-2.35102">
        <ele>-16.799999237061</ele>
        <time>2022-06-16T07:44:18.000Z</time>
      </trkpt>
      <trkpt lat="47.33022" lon="-2.35153">
        <ele>-16.799999237061</ele>
        <time>2022-06-16T07:44:26.000Z</time>
      </trkpt>
      <trkpt lat="47.33032" lon="-2.35166">
        <ele>-16.799999237061</ele>
        <time>2022-06-16T07:44:30.000Z</time>
      </trkpt>
      <trkpt lat="47.33046" lon="-2.35158">
        <ele>-16.799999237061</ele>
        <time>2022-06-16T07:44:34.000Z</time>
      </trkpt>
      <trkpt lat="47.33052" lon="-2.35155">
        <ele>-16.799999237061</ele>
        <time>2022-06-16T07:44:37.000Z</time>
      </trkpt>
      <trkpt lat="47.33058" lon="-2.35142">
        <ele>-16.799999237061</ele>
        <time>2022-06-16T07:44:42.000Z</time>
      </trkpt>
      <trkpt lat="47.33066" lon="-2.35132">
        <ele>-16.799999237061</ele>
        <time>2022-06-16T07:44:46.000Z</time>
      </trkpt>
      <trkpt lat="47.33071" lon="-2.35125">
        <ele>-16.799999237061</ele>
        <time>2022-06-16T07:44:48.000Z</time>
      </trkpt>
      <trkpt lat="47.3309" lon="-2.35099">
        <ele>-16.799999237061</ele>
        <time>2022-06-16T07:44:54.000Z</time>
      </trkpt>
      <trkpt lat="47.331" lon="-2.35086">
        <ele>-16.799999237061</ele>
        <time>2022-06-16T07:44:58.000Z</time>
      </trkpt>
      <trkpt lat="47.33111" lon="-2.35057">
        <ele>-16.799999237061</ele>
        <time>2022-06-16T07:45:03.000Z</time>
      </trkpt>
      <trkpt lat="47.33128" lon="-2.35032">
        <ele>-16.799999237061</ele>
        <time>2022-06-16T07:45:07.000Z</time>
      </trkpt>
      <trkpt lat="47.33133" lon="-2.35026">
        <ele>-16.799999237061</ele>
        <time>2022-06-16T07:45:08.000Z</time>
      </trkpt>
      <trkpt lat="47.33158" lon="-2.34991">
        <ele>-16.799999237061</ele>
        <time>2022-06-16T07:45:14.000Z</time>
      </trkpt>
      <trkpt lat="47.33177" lon="-2.34955">
        <ele>-16.799999237061</ele>
        <time>2022-06-16T07:45:20.000Z</time>
      </trkpt>
      <trkpt lat="47.3319" lon="-2.34927">
        <ele>-17.200000762939</ele>
        <time>2022-06-16T07:45:24.000Z</time>
      </trkpt>
      <trkpt lat="47.33193" lon="-2.3492">
        <ele>-17.60000038147</ele>
        <time>2022-06-16T07:45:25.000Z</time>
      </trkpt>
      <trkpt lat="47.33196" lon="-2.34914">
        <ele>-18.200000762939</ele>
        <time>2022-06-16T07:45:26.000Z</time>
      </trkpt>
      <trkpt lat="47.33198" lon="-2.34908">
        <ele>-18.60000038147</ele>
        <time>2022-06-16T07:45:27.000Z</time>
      </trkpt>
      <trkpt lat="47.33201" lon="-2.34901">
        <ele>-19</ele>
        <time>2022-06-16T07:45:28.000Z</time>
      </trkpt>
      <trkpt lat="47.33211" lon="-2.34873">
        <ele>-19</ele>
        <time>2022-06-16T07:45:32.000Z</time>
      </trkpt>
      <trkpt lat="47.33216" lon="-2.34859">
        <ele>-19</ele>
        <time>2022-06-16T07:45:34.000Z</time>
      </trkpt>
      <trkpt lat="47.33234" lon="-2.34808">
        <ele>-19.39999961853</ele>
        <time>2022-06-16T07:45:41.000Z</time>
      </trkpt>
      <trkpt lat="47.33237" lon="-2.348">
        <ele>-19.799999237061</ele>
        <time>2022-06-16T07:45:42.000Z</time>
      </trkpt>
      <trkpt lat="47.3324" lon="-2.34791">
        <ele>-20.60000038147</ele>
        <time>2022-06-16T07:45:43.000Z</time>
      </trkpt>
      <trkpt lat="47.33243" lon="-2.34783">
        <ele>-21</ele>
        <time>2022-06-16T07:45:44.000Z</time>
      </trkpt>
      <trkpt lat="47.33257" lon="-2.34747">
        <ele>-21</ele>
        <time>2022-06-16T07:45:48.000Z</time>
      </trkpt>
      <trkpt lat="47.33274" lon="-2.34693">
        <ele>-21</ele>
        <time>2022-06-16T07:45:54.000Z</time>
      </trkpt>
      <trkpt lat="47.3328" lon="-2.34679">
        <ele>-21</ele>
        <time>2022-06-16T07:45:56.000Z</time>
      </trkpt>
      <trkpt lat="47.33284" lon="-2.3467">
        <ele>-21</ele>
        <time>2022-06-16T07:45:58.000Z</time>
      </trkpt>
      <trkpt lat="47.33293" lon="-2.34644">
        <ele>-21</ele>
        <time>2022-06-16T07:46:03.000Z</time>
      </trkpt>
      <trkpt lat="47.33307" lon="-2.34609">
        <ele>-21</ele>
        <time>2022-06-16T07:46:08.000Z</time>
      </trkpt>
      <trkpt lat="47.33314" lon="-2.34583">
        <ele>-21.39999961853</ele>
        <time>2022-06-16T07:46:12.000Z</time>
      </trkpt>
      <trkpt lat="47.33316" lon="-2.34578">
        <ele>-21.799999237061</ele>
        <time>2022-06-16T07:46:13.000Z</time>
      </trkpt>
      <trkpt lat="47.33317" lon="-2.34573">
        <ele>-22.200000762939</ele>
        <time>2022-06-16T07:46:14.000Z</time>
      </trkpt>
      <trkpt lat="47.33319" lon="-2.34568">
        <ele>-22.60000038147</ele>
        <time>2022-06-16T07:46:15.000Z</time>
      </trkpt>
      <trkpt lat="47.33321" lon="-2.34563">
        <ele>-23</ele>
        <time>2022-06-16T07:46:16.000Z</time>
      </trkpt>
      <trkpt lat="47.33325" lon="-2.34552">
        <ele>-23</ele>
        <time>2022-06-16T07:46:18.000Z</time>
      </trkpt>
      <trkpt lat="47.33339" lon="-2.34515">
        <ele>-23</ele>
        <time>2022-06-16T07:46:25.000Z</time>
      </trkpt>
      <trkpt lat="47.3335" lon="-2.34495">
        <ele>-23</ele>
        <time>2022-06-16T07:46:31.000Z</time>
      </trkpt>
      <trkpt lat="47.33352" lon="-2.34493">
        <ele>-23</ele>
        <time>2022-06-16T07:46:35.000Z</time>
      </trkpt>
      <trkpt lat="47.33355" lon="-2.34493">
        <ele>-23</ele>
        <time>2022-06-16T07:46:51.000Z</time>
      </trkpt>
      <trkpt lat="47.33362" lon="-2.34495">
        <ele>-23</ele>
        <time>2022-06-16T07:46:54.000Z</time>
      </trkpt>
      <trkpt lat="47.33367" lon="-2.34501">
        <ele>-23</ele>
        <time>2022-06-16T07:46:56.000Z</time>
      </trkpt>
      <trkpt lat="47.3337" lon="-2.34505">
        <ele>-22.200000762939</ele>
        <time>2022-06-16T07:46:57.000Z</time>
      </trkpt>
      <trkpt lat="47.33373" lon="-2.34509">
        <ele>-21.799999237061</ele>
        <time>2022-06-16T07:46:58.000Z</time>
      </trkpt>
      <trkpt lat="47.33376" lon="-2.34513">
        <ele>-21.39999961853</ele>
        <time>2022-06-16T07:46:59.000Z</time>
      </trkpt>
      <trkpt lat="47.3338" lon="-2.34517">
        <ele>-21</ele>
        <time>2022-06-16T07:47:00.000Z</time>
      </trkpt>
      <trkpt lat="47.33389" lon="-2.34531">
        <ele>-21</ele>
        <time>2022-06-16T07:47:03.000Z</time>
      </trkpt>
      <trkpt lat="47.33395" lon="-2.34542">
        <ele>-21</ele>
        <time>2022-06-16T07:47:05.000Z</time>
      </trkpt>
      <trkpt lat="47.33405" lon="-2.34558">
        <ele>-21</ele>
        <time>2022-06-16T07:47:08.000Z</time>
      </trkpt>
      <trkpt lat="47.33429" lon="-2.34603">
        <ele>-21</ele>
        <time>2022-06-16T07:47:16.000Z</time>
      </trkpt>
      <trkpt lat="47.33431" lon="-2.34608">
        <ele>-20.60000038147</ele>
        <time>2022-06-16T07:47:17.000Z</time>
      </trkpt>
      <trkpt lat="47.33434" lon="-2.34614">
        <ele>-20.200000762939</ele>
        <time>2022-06-16T07:47:18.000Z</time>
      </trkpt>
      <trkpt lat="47.33436" lon="-2.34619">
        <ele>-19.799999237061</ele>
        <time>2022-06-16T07:47:19.000Z</time>
      </trkpt>
      <trkpt lat="47.3344" lon="-2.34624">
        <ele>-19.200000762939</ele>
        <time>2022-06-16T07:47:20.000Z</time>
      </trkpt>
      <trkpt lat="47.33443" lon="-2.3463">
        <ele>-18.799999237061</ele>
        <time>2022-06-16T07:47:21.000Z</time>
      </trkpt>
      <trkpt lat="47.33449" lon="-2.34641">
        <ele>-18.799999237061</ele>
        <time>2022-06-16T07:47:23.000Z</time>
      </trkpt>
      <trkpt lat="47.33469" lon="-2.34668">
        <ele>-18.39999961853</ele>
        <time>2022-06-16T07:47:28.000Z</time>
      </trkpt>
      <trkpt lat="47.33472" lon="-2.34674">
        <ele>-18</ele>
        <time>2022-06-16T07:47:29.000Z</time>
      </trkpt>
      <trkpt lat="47.33476" lon="-2.34681">
        <ele>-17.60000038147</ele>
        <time>2022-06-16T07:47:30.000Z</time>
      </trkpt>
      <trkpt lat="47.3348" lon="-2.34687">
        <ele>-17.200000762939</ele>
        <time>2022-06-16T07:47:31.000Z</time>
      </trkpt>
      <trkpt lat="47.33484" lon="-2.34693">
        <ele>-16.60000038147</ele>
        <time>2022-06-16T07:47:32.000Z</time>
      </trkpt>
      <trkpt lat="47.33503" lon="-2.34719">
        <ele>-16.60000038147</ele>
        <time>2022-06-16T07:47:37.000Z</time>
      </trkpt>
      <trkpt lat="47.33524" lon="-2.34747">
        <ele>-16.200000762939</ele>
        <time>2022-06-16T07:47:43.000Z</time>
      </trkpt>
      <trkpt lat="47.33528" lon="-2.34751">
        <ele>-15.800000190735</ele>
        <time>2022-06-16T07:47:44.000Z</time>
      </trkpt>
      <trkpt lat="47.33531" lon="-2.34756">
        <ele>-15.39999961853</ele>
        <time>2022-06-16T07:47:45.000Z</time>
      </trkpt>
      <trkpt lat="47.33535" lon="-2.34761">
        <ele>-15</ele>
        <time>2022-06-16T07:47:46.000Z</time>
      </trkpt>
      <trkpt lat="47.33538" lon="-2.34765">
        <ele>-14.60000038147</ele>
        <time>2022-06-16T07:47:47.000Z</time>
      </trkpt>
      <trkpt lat="47.33554" lon="-2.34784">
        <ele>-14.60000038147</ele>
        <time>2022-06-16T07:47:51.000Z</time>
      </trkpt>
      <trkpt lat="47.33577" lon="-2.34813">
        <ele>-14.60000038147</ele>
        <time>2022-06-16T07:47:57.000Z</time>
      </trkpt>
      <trkpt lat="47.3361" lon="-2.34852">
        <ele>-14.60000038147</ele>
        <time>2022-06-16T07:48:04.000Z</time>
      </trkpt>
      <trkpt lat="47.33636" lon="-2.34885">
        <ele>-14.60000038147</ele>
        <time>2022-06-16T07:48:10.000Z</time>
      </trkpt>
      <trkpt lat="47.33645" lon="-2.34897">
        <ele>-15</ele>
        <time>2022-06-16T07:48:12.000Z</time>
      </trkpt>
      <trkpt lat="47.33649" lon="-2.34903">
        <ele>-15.39999961853</ele>
        <time>2022-06-16T07:48:13.000Z</time>
      </trkpt>
      <trkpt lat="47.33654" lon="-2.34908">
        <ele>-15.800000190735</ele>
        <time>2022-06-16T07:48:14.000Z</time>
      </trkpt>
      <trkpt lat="47.33658" lon="-2.34914">
        <ele>-16.200000762939</ele>
        <time>2022-06-16T07:48:15.000Z</time>
      </trkpt>
      <trkpt lat="47.33663" lon="-2.34921">
        <ele>-16.60000038147</ele>
        <time>2022-06-16T07:48:16.000Z</time>
      </trkpt>
      <trkpt lat="47.33677" lon="-2.34946">
        <ele>-16.60000038147</ele>
        <time>2022-06-16T07:48:21.000Z</time>
      </trkpt>
      <trkpt lat="47.33665" lon="-2.34955">
        <ele>-16.60000038147</ele>
        <time>2022-06-16T07:48:24.000Z</time>
      </trkpt>
      <trkpt lat="47.33649" lon="-2.34952">
        <ele>-16.60000038147</ele>
        <time>2022-06-16T07:48:28.000Z</time>
      </trkpt>
      <trkpt lat="47.33623" lon="-2.34939">
        <ele>-16.60000038147</ele>
        <time>2022-06-16T07:48:34.000Z</time>
      </trkpt>
      <trkpt lat="47.33598" lon="-2.3493">
        <ele>-16.60000038147</ele>
        <time>2022-06-16T07:48:40.000Z</time>
      </trkpt>
      <trkpt lat="47.33575" lon="-2.34923">
        <ele>-16.60000038147</ele>
        <time>2022-06-16T07:48:45.000Z</time>
      </trkpt>
      <trkpt lat="47.33571" lon="-2.34922">
        <ele>-16.200000762939</ele>
        <time>2022-06-16T07:48:46.000Z</time>
      </trkpt>
      <trkpt lat="47.33567" lon="-2.34922">
        <ele>-15.800000190735</ele>
        <time>2022-06-16T07:48:47.000Z</time>
      </trkpt>
      <trkpt lat="47.33562" lon="-2.3492">
        <ele>-15.39999961853</ele>
        <time>2022-06-16T07:48:48.000Z</time>
      </trkpt>
      <trkpt lat="47.33557" lon="-2.34918">
        <ele>-15</ele>
        <time>2022-06-16T07:48:49.000Z</time>
      </trkpt>
      <trkpt lat="47.33552" lon="-2.34916">
        <ele>-14.60000038147</ele>
        <time>2022-06-16T07:48:50.000Z</time>
      </trkpt>
      <trkpt lat="47.33525" lon="-2.34901">
        <ele>-14.60000038147</ele>
        <time>2022-06-16T07:48:56.000Z</time>
      </trkpt>
      <trkpt lat="47.33499" lon="-2.34901">
        <ele>-14.60000038147</ele>
        <time>2022-06-16T07:49:01.000Z</time>
      </trkpt>
      <trkpt lat="47.33483" lon="-2.34906">
        <ele>-14.60000038147</ele>
        <time>2022-06-16T07:49:04.000Z</time>
      </trkpt>
      <trkpt lat="47.33462" lon="-2.34916">
        <ele>-14.60000038147</ele>
        <time>2022-06-16T07:49:08.000Z</time>
      </trkpt>
      <trkpt lat="47.33418" lon="-2.34936">
        <ele>-14.60000038147</ele>
        <time>2022-06-16T07:49:15.000Z</time>
      </trkpt>
      <trkpt lat="47.33392" lon="-2.3494">
        <ele>-14.60000038147</ele>
        <time>2022-06-16T07:49:20.000Z</time>
      </trkpt>
      <trkpt lat="47.33377" lon="-2.34941">
        <ele>-14.60000038147</ele>
        <time>2022-06-16T07:49:24.000Z</time>
      </trkpt>
      <trkpt lat="47.33369" lon="-2.34943">
        <ele>-14.60000038147</ele>
        <time>2022-06-16T07:49:26.000Z</time>
      </trkpt>
      <trkpt lat="47.33359" lon="-2.34945">
        <ele>-14.60000038147</ele>
        <time>2022-06-16T07:49:28.000Z</time>
      </trkpt>
      <trkpt lat="47.33351" lon="-2.34947">
        <ele>-15</ele>
        <time>2022-06-16T07:49:30.000Z</time>
      </trkpt>
      <trkpt lat="47.33348" lon="-2.34947">
        <ele>-15.39999961853</ele>
        <time>2022-06-16T07:49:31.000Z</time>
      </trkpt>
      <trkpt lat="47.33344" lon="-2.34946">
        <ele>-16</ele>
        <time>2022-06-16T07:49:32.000Z</time>
      </trkpt>
      <trkpt lat="47.33341" lon="-2.34945">
        <ele>-16.39999961853</ele>
        <time>2022-06-16T07:49:33.000Z</time>
      </trkpt>
      <trkpt lat="47.33337" lon="-2.34944">
        <ele>-16.799999237061</ele>
        <time>2022-06-16T07:49:34.000Z</time>
      </trkpt>
      <trkpt lat="47.33331" lon="-2.34945">
        <ele>-16.799999237061</ele>
        <time>2022-06-16T07:49:37.000Z</time>
      </trkpt>
      <trkpt lat="47.33329" lon="-2.34946">
        <ele>-16.799999237061</ele>
        <time>2022-06-16T07:49:38.000Z</time>
      </trkpt>
      <trkpt lat="47.33327" lon="-2.34946">
        <ele>-16.799999237061</ele>
        <time>2022-06-16T07:49:42.000Z</time>
      </trkpt>
      <trkpt lat="47.33323" lon="-2.34945">
        <ele>-16.799999237061</ele>
        <time>2022-06-16T07:49:45.000Z</time>
      </trkpt>
      <trkpt lat="47.33309" lon="-2.34945">
        <ele>-16.799999237061</ele>
        <time>2022-06-16T07:49:50.000Z</time>
      </trkpt>
      <trkpt lat="47.33285" lon="-2.34948">
        <ele>-16.799999237061</ele>
        <time>2022-06-16T07:49:56.000Z</time>
      </trkpt>
      <trkpt lat="47.33262" lon="-2.34955">
        <ele>-16.799999237061</ele>
        <time>2022-06-16T07:50:02.000Z</time>
      </trkpt>
      <trkpt lat="47.33253" lon="-2.34957">
        <ele>-17.200000762939</ele>
        <time>2022-06-16T07:50:05.000Z</time>
      </trkpt>
      <trkpt lat="47.33251" lon="-2.34957">
        <ele>-17.60000038147</ele>
        <time>2022-06-16T07:50:06.000Z</time>
      </trkpt>
      <trkpt lat="47.33249" lon="-2.34957">
        <ele>-18</ele>
        <time>2022-06-16T07:50:07.000Z</time>
      </trkpt>
      <trkpt lat="47.33246" lon="-2.34958">
        <ele>-18.39999961853</ele>
        <time>2022-06-16T07:50:08.000Z</time>
      </trkpt>
      <trkpt lat="47.33242" lon="-2.34959">
        <ele>-18.799999237061</ele>
        <time>2022-06-16T07:50:09.000Z</time>
      </trkpt>
      <trkpt lat="47.33233" lon="-2.34964">
        <ele>-18.799999237061</ele>
        <time>2022-06-16T07:50:12.000Z</time>
      </trkpt>
      <trkpt lat="47.33213" lon="-2.34982">
        <ele>-18.799999237061</ele>
        <time>2022-06-16T07:50:18.000Z</time>
      </trkpt>
      <trkpt lat="47.33187" lon="-2.3501">
        <ele>-18.799999237061</ele>
        <time>2022-06-16T07:50:26.000Z</time>
      </trkpt>
      <trkpt lat="47.33175" lon="-2.35011">
        <ele>-18.799999237061</ele>
        <time>2022-06-16T07:50:29.000Z</time>
      </trkpt>
      <trkpt lat="47.33172" lon="-2.3501">
        <ele>-18.799999237061</ele>
        <time>2022-06-16T07:50:30.000Z</time>
      </trkpt>
      <trkpt lat="47.33154" lon="-2.35009">
        <ele>-18.799999237061</ele>
        <time>2022-06-16T07:50:35.000Z</time>
      </trkpt>
      <trkpt lat="47.33143" lon="-2.35021">
        <ele>-18.799999237061</ele>
        <time>2022-06-16T07:50:39.000Z</time>
      </trkpt>
      <trkpt lat="47.33128" lon="-2.35045">
        <ele>-18.799999237061</ele>
        <time>2022-06-16T07:50:45.000Z</time>
      </trkpt>
      <trkpt lat="47.3311" lon="-2.35074">
        <ele>-18.799999237061</ele>
        <time>2022-06-16T07:50:52.000Z</time>
      </trkpt>
      <trkpt lat="47.33094" lon="-2.351">
        <ele>-18.799999237061</ele>
        <time>2022-06-16T07:50:59.000Z</time>
      </trkpt>
      <trkpt lat="47.33081" lon="-2.35117">
        <ele>-18.39999961853</ele>
        <time>2022-06-16T07:51:03.000Z</time>
      </trkpt>
      <trkpt lat="47.33078" lon="-2.35122">
        <ele>-18</ele>
        <time>2022-06-16T07:51:04.000Z</time>
      </trkpt>
      <trkpt lat="47.33075" lon="-2.35126">
        <ele>-17.200000762939</ele>
        <time>2022-06-16T07:51:05.000Z</time>
      </trkpt>
      <trkpt lat="47.33071" lon="-2.35131">
        <ele>-16.799999237061</ele>
        <time>2022-06-16T07:51:06.000Z</time>
      </trkpt>
      <trkpt lat="47.33059" lon="-2.35149">
        <ele>-16.799999237061</ele>
        <time>2022-06-16T07:51:10.000Z</time>
      </trkpt>
      <trkpt lat="47.33058" lon="-2.35156">
        <ele>-16.799999237061</ele>
        <time>2022-06-16T07:51:11.000Z</time>
      </trkpt>
      <trkpt lat="47.33053" lon="-2.35169">
        <ele>-16.799999237061</ele>
        <time>2022-06-16T07:51:13.000Z</time>
      </trkpt>
      <trkpt lat="47.33037" lon="-2.35197">
        <ele>-16.799999237061</ele>
        <time>2022-06-16T07:51:18.000Z</time>
      </trkpt>
      <trkpt lat="47.33035" lon="-2.35203">
        <ele>-16.799999237061</ele>
        <time>2022-06-16T07:51:19.000Z</time>
      </trkpt>
      <trkpt lat="47.33027" lon="-2.35223">
        <ele>-16.799999237061</ele>
        <time>2022-06-16T07:51:23.000Z</time>
      </trkpt>
      <trkpt lat="47.33028" lon="-2.35243">
        <ele>-16.799999237061</ele>
        <time>2022-06-16T07:51:27.000Z</time>
      </trkpt>
      <trkpt lat="47.33029" lon="-2.35275">
        <ele>-16.799999237061</ele>
        <time>2022-06-16T07:51:33.000Z</time>
      </trkpt>
      <trkpt lat="47.33028" lon="-2.3531">
        <ele>-16.799999237061</ele>
        <time>2022-06-16T07:51:38.000Z</time>
      </trkpt>
      <trkpt lat="47.33034" lon="-2.35364">
        <ele>-16.799999237061</ele>
        <time>2022-06-16T07:51:45.000Z</time>
      </trkpt>
      <trkpt lat="47.33039" lon="-2.35398">
        <ele>-16.799999237061</ele>
        <time>2022-06-16T07:51:49.000Z</time>
      </trkpt>
      <trkpt lat="47.3304" lon="-2.35417">
        <ele>-16.799999237061</ele>
        <time>2022-06-16T07:51:51.000Z</time>
      </trkpt>
      <trkpt lat="47.33041" lon="-2.35436">
        <ele>-16.799999237061</ele>
        <time>2022-06-16T07:51:53.000Z</time>
      </trkpt>
      <trkpt lat="47.33042" lon="-2.35456">
        <ele>-16.799999237061</ele>
        <time>2022-06-16T07:51:55.000Z</time>
      </trkpt>
      <trkpt lat="47.33037" lon="-2.3551">
        <ele>-16.799999237061</ele>
        <time>2022-06-16T07:52:00.000Z</time>
      </trkpt>
      <trkpt lat="47.33035" lon="-2.3554">
        <ele>-17.200000762939</ele>
        <time>2022-06-16T07:52:03.000Z</time>
      </trkpt>
      <trkpt lat="47.33035" lon="-2.35548">
        <ele>-17.60000038147</ele>
        <time>2022-06-16T07:52:04.000Z</time>
      </trkpt>
      <trkpt lat="47.33036" lon="-2.35557">
        <ele>-18</ele>
        <time>2022-06-16T07:52:05.000Z</time>
      </trkpt>
      <trkpt lat="47.33036" lon="-2.35566">
        <ele>-18.39999961853</ele>
        <time>2022-06-16T07:52:06.000Z</time>
      </trkpt>
      <trkpt lat="47.33035" lon="-2.35574">
        <ele>-18.799999237061</ele>
        <time>2022-06-16T07:52:07.000Z</time>
      </trkpt>
      <trkpt lat="47.33032" lon="-2.35601">
        <ele>-18.799999237061</ele>
        <time>2022-06-16T07:52:10.000Z</time>
      </trkpt>
      <trkpt lat="47.33029" lon="-2.35637">
        <ele>-19.200000762939</ele>
        <time>2022-06-16T07:52:14.000Z</time>
      </trkpt>
      <trkpt lat="47.33028" lon="-2.35647">
        <ele>-19.60000038147</ele>
        <time>2022-06-16T07:52:15.000Z</time>
      </trkpt>
      <trkpt lat="47.33028" lon="-2.35656">
        <ele>-20.200000762939</ele>
        <time>2022-06-16T07:52:16.000Z</time>
      </trkpt>
      <trkpt lat="47.33027" lon="-2.35667">
        <ele>-20.60000038147</ele>
        <time>2022-06-16T07:52:17.000Z</time>
      </trkpt>
      <trkpt lat="47.33025" lon="-2.35678">
        <ele>-21</ele>
        <time>2022-06-16T07:52:18.000Z</time>
      </trkpt>
      <trkpt lat="47.3302" lon="-2.35718">
        <ele>-21</ele>
        <time>2022-06-16T07:52:22.000Z</time>
      </trkpt>
      <trkpt lat="47.33018" lon="-2.35749">
        <ele>-21</ele>
        <time>2022-06-16T07:52:25.000Z</time>
      </trkpt>
      <trkpt lat="47.33019" lon="-2.35767">
        <ele>-21</ele>
        <time>2022-06-16T07:52:27.000Z</time>
      </trkpt>
      <trkpt lat="47.33021" lon="-2.35775">
        <ele>-21</ele>
        <time>2022-06-16T07:52:28.000Z</time>
      </trkpt>
      <trkpt lat="47.33027" lon="-2.35787">
        <ele>-21</ele>
        <time>2022-06-16T07:52:30.000Z</time>
      </trkpt>
      <trkpt lat="47.33044" lon="-2.35799">
        <ele>-21</ele>
        <time>2022-06-16T07:52:34.000Z</time>
      </trkpt>
      <trkpt lat="47.33054" lon="-2.35801">
        <ele>-21</ele>
        <time>2022-06-16T07:52:36.000Z</time>
      </trkpt>
      <trkpt lat="47.33071" lon="-2.35801">
        <ele>-21</ele>
        <time>2022-06-16T07:52:39.000Z</time>
      </trkpt>
      <trkpt lat="47.33099" lon="-2.35801">
        <ele>-20.60000038147</ele>
        <time>2022-06-16T07:52:44.000Z</time>
      </trkpt>
      <trkpt lat="47.33105" lon="-2.35801">
        <ele>-20.200000762939</ele>
        <time>2022-06-16T07:52:45.000Z</time>
      </trkpt>
      <trkpt lat="47.3311" lon="-2.35801">
        <ele>-19.799999237061</ele>
        <time>2022-06-16T07:52:46.000Z</time>
      </trkpt>
      <trkpt lat="47.33115" lon="-2.35801">
        <ele>-19.39999961853</ele>
        <time>2022-06-16T07:52:47.000Z</time>
      </trkpt>
      <trkpt lat="47.33119" lon="-2.35801">
        <ele>-19</ele>
        <time>2022-06-16T07:52:48.000Z</time>
      </trkpt>
      <trkpt lat="47.33142" lon="-2.35806">
        <ele>-19</ele>
        <time>2022-06-16T07:52:53.000Z</time>
      </trkpt>
      <trkpt lat="47.33175" lon="-2.3581">
        <ele>-19</ele>
        <time>2022-06-16T07:53:00.000Z</time>
      </trkpt>
      <trkpt lat="47.33191" lon="-2.35812">
        <ele>-19</ele>
        <time>2022-06-16T07:53:03.000Z</time>
      </trkpt>
      <trkpt lat="47.33205" lon="-2.35815">
        <ele>-19</ele>
        <time>2022-06-16T07:53:06.000Z</time>
      </trkpt>
      <trkpt lat="47.33214" lon="-2.35818">
        <ele>-18</ele>
        <time>2022-06-16T07:53:08.000Z</time>
      </trkpt>
      <trkpt lat="47.33218" lon="-2.3582">
        <ele>-17.60000038147</ele>
        <time>2022-06-16T07:53:09.000Z</time>
      </trkpt>
      <trkpt lat="47.33222" lon="-2.35821">
        <ele>-17.200000762939</ele>
        <time>2022-06-16T07:53:10.000Z</time>
      </trkpt>
      <trkpt lat="47.33227" lon="-2.35823">
        <ele>-16.799999237061</ele>
        <time>2022-06-16T07:53:11.000Z</time>
      </trkpt>
      <trkpt lat="47.33235" lon="-2.35827">
        <ele>-16.799999237061</ele>
        <time>2022-06-16T07:53:13.000Z</time>
      </trkpt>
      <trkpt lat="47.33239" lon="-2.35831">
        <ele>-16.799999237061</ele>
        <time>2022-06-16T07:53:14.000Z</time>
      </trkpt>
      <trkpt lat="47.3325" lon="-2.3584">
        <ele>-16.39999961853</ele>
        <time>2022-06-16T07:53:17.000Z</time>
      </trkpt>
      <trkpt lat="47.33254" lon="-2.35843">
        <ele>-16</ele>
        <time>2022-06-16T07:53:18.000Z</time>
      </trkpt>
      <trkpt lat="47.33257" lon="-2.35847">
        <ele>-15.39999961853</ele>
        <time>2022-06-16T07:53:19.000Z</time>
      </trkpt>
      <trkpt lat="47.3326" lon="-2.35851">
        <ele>-15</ele>
        <time>2022-06-16T07:53:20.000Z</time>
      </trkpt>
      <trkpt lat="47.33263" lon="-2.35854">
        <ele>-14.60000038147</ele>
        <time>2022-06-16T07:53:21.000Z</time>
      </trkpt>
      <trkpt lat="47.33273" lon="-2.35865">
        <ele>-14.199999809265</ele>
        <time>2022-06-16T07:53:24.000Z</time>
      </trkpt>
      <trkpt lat="47.33277" lon="-2.35869">
        <ele>-13.800000190735</ele>
        <time>2022-06-16T07:53:25.000Z</time>
      </trkpt>
      <trkpt lat="47.33281" lon="-2.35872">
        <ele>-13.39999961853</ele>
        <time>2022-06-16T07:53:26.000Z</time>
      </trkpt>
      <trkpt lat="47.33284" lon="-2.35875">
        <ele>-13</ele>
        <time>2022-06-16T07:53:27.000Z</time>
      </trkpt>
      <trkpt lat="47.33288" lon="-2.35878">
        <ele>-12.60000038147</ele>
        <time>2022-06-16T07:53:28.000Z</time>
      </trkpt>
      <trkpt lat="47.33303" lon="-2.35888">
        <ele>-12.60000038147</ele>
        <time>2022-06-16T07:53:32.000Z</time>
      </trkpt>
      <trkpt lat="47.33312" lon="-2.359">
        <ele>-12.60000038147</ele>
        <time>2022-06-16T07:53:35.000Z</time>
      </trkpt>
      <trkpt lat="47.33316" lon="-2.3591">
        <ele>-12.60000038147</ele>
        <time>2022-06-16T07:53:37.000Z</time>
      </trkpt>
      <trkpt lat="47.3332" lon="-2.35922">
        <ele>-12.199999809265</ele>
        <time>2022-06-16T07:53:39.000Z</time>
      </trkpt>
      <trkpt lat="47.33322" lon="-2.35928">
        <ele>-11.800000190735</ele>
        <time>2022-06-16T07:53:40.000Z</time>
      </trkpt>
      <trkpt lat="47.33323" lon="-2.35935">
        <ele>-11.39999961853</ele>
        <time>2022-06-16T07:53:41.000Z</time>
      </trkpt>
      <trkpt lat="47.33324" lon="-2.3594">
        <ele>-11</ele>
        <time>2022-06-16T07:53:42.000Z</time>
      </trkpt>
      <trkpt lat="47.33324" lon="-2.35947">
        <ele>-10.60000038147</ele>
        <time>2022-06-16T07:53:43.000Z</time>
      </trkpt>
      <trkpt lat="47.33325" lon="-2.35953">
        <ele>-10.60000038147</ele>
        <time>2022-06-16T07:53:44.000Z</time>
      </trkpt>
      <trkpt lat="47.33323" lon="-2.35974">
        <ele>-10.60000038147</ele>
        <time>2022-06-16T07:53:47.000Z</time>
      </trkpt>
      <trkpt lat="47.33314" lon="-2.36021">
        <ele>-10.60000038147</ele>
        <time>2022-06-16T07:53:54.000Z</time>
      </trkpt>
      <trkpt lat="47.33311" lon="-2.3606">
        <ele>-10.60000038147</ele>
        <time>2022-06-16T07:54:00.000Z</time>
      </trkpt>
      <trkpt lat="47.3331" lon="-2.36096">
        <ele>-10.60000038147</ele>
        <time>2022-06-16T07:54:06.000Z</time>
      </trkpt>
      <trkpt lat="47.33311" lon="-2.36147">
        <ele>-10.60000038147</ele>
        <time>2022-06-16T07:54:13.000Z</time>
      </trkpt>
      <trkpt lat="47.33312" lon="-2.36215">
        <ele>-10.60000038147</ele>
        <time>2022-06-16T07:54:23.000Z</time>
      </trkpt>
      <trkpt lat="47.33313" lon="-2.36217">
        <ele>-10.60000038147</ele>
        <time>2022-06-16T07:54:24.000Z</time>
      </trkpt>
      <trkpt lat="47.33319" lon="-2.36218">
        <ele>-10.60000038147</ele>
        <time>2022-06-16T07:54:26.000Z</time>
      </trkpt>
      <trkpt lat="47.33333" lon="-2.36207">
        <ele>-10.60000038147</ele>
        <time>2022-06-16T07:54:31.000Z</time>
      </trkpt>
      <trkpt lat="47.33337" lon="-2.36204">
        <ele>-10.60000038147</ele>
        <time>2022-06-16T07:54:32.000Z</time>
      </trkpt>
      <trkpt lat="47.33362" lon="-2.36188">
        <ele>-10.60000038147</ele>
        <time>2022-06-16T07:54:39.000Z</time>
      </trkpt>
      <trkpt lat="47.33374" lon="-2.3618">
        <ele>-10.60000038147</ele>
        <time>2022-06-16T07:54:42.000Z</time>
      </trkpt>
      <trkpt lat="47.33398" lon="-2.36163">
        <ele>-10.60000038147</ele>
        <time>2022-06-16T07:54:48.000Z</time>
      </trkpt>
      <trkpt lat="47.33406" lon="-2.36159">
        <ele>-10.60000038147</ele>
        <time>2022-06-16T07:54:50.000Z</time>
      </trkpt>
      <trkpt lat="47.33413" lon="-2.36166">
        <ele>-10.60000038147</ele>
        <time>2022-06-16T07:54:52.000Z</time>
      </trkpt>
      <trkpt lat="47.33416" lon="-2.36188">
        <ele>-10.60000038147</ele>
        <time>2022-06-16T07:54:55.000Z</time>
      </trkpt>
      <trkpt lat="47.33417" lon="-2.36196">
        <ele>-10.60000038147</ele>
        <time>2022-06-16T07:54:56.000Z</time>
      </trkpt>
      <trkpt lat="47.33417" lon="-2.36211">
        <ele>-10.60000038147</ele>
        <time>2022-06-16T07:54:58.000Z</time>
      </trkpt>
      <trkpt lat="47.33413" lon="-2.36227">
        <ele>-10.60000038147</ele>
        <time>2022-06-16T07:55:00.000Z</time>
      </trkpt>
      <trkpt lat="47.33412" lon="-2.36235">
        <ele>-10.60000038147</ele>
        <time>2022-06-16T07:55:01.000Z</time>
      </trkpt>
      <trkpt lat="47.33412" lon="-2.36271">
        <ele>-10.60000038147</ele>
        <time>2022-06-16T07:55:05.000Z</time>
      </trkpt>
      <trkpt lat="47.33417" lon="-2.36304">
        <ele>-10.60000038147</ele>
        <time>2022-06-16T07:55:09.000Z</time>
      </trkpt>
      <trkpt lat="47.33419" lon="-2.36311">
        <ele>-10.60000038147</ele>
        <time>2022-06-16T07:55:10.000Z</time>
      </trkpt>
      <trkpt lat="47.33422" lon="-2.36322">
        <ele>-11.39999961853</ele>
        <time>2022-06-16T07:55:12.000Z</time>
      </trkpt>
      <trkpt lat="47.33424" lon="-2.36327">
        <ele>-11.800000190735</ele>
        <time>2022-06-16T07:55:13.000Z</time>
      </trkpt>
      <trkpt lat="47.33425" lon="-2.36332">
        <ele>-12.199999809265</ele>
        <time>2022-06-16T07:55:14.000Z</time>
      </trkpt>
      <trkpt lat="47.33427" lon="-2.36336">
        <ele>-12.60000038147</ele>
        <time>2022-06-16T07:55:15.000Z</time>
      </trkpt>
      <trkpt lat="47.33434" lon="-2.36356">
        <ele>-12.60000038147</ele>
        <time>2022-06-16T07:55:20.000Z</time>
      </trkpt>
      <trkpt lat="47.33442" lon="-2.36373">
        <ele>-13</ele>
        <time>2022-06-16T07:55:26.000Z</time>
      </trkpt>
      <trkpt lat="47.33444" lon="-2.36376">
        <ele>-13.39999961853</ele>
        <time>2022-06-16T07:55:27.000Z</time>
      </trkpt>
      <trkpt lat="47.33446" lon="-2.36379">
        <ele>-13.800000190735</ele>
        <time>2022-06-16T07:55:28.000Z</time>
      </trkpt>
      <trkpt lat="47.33447" lon="-2.36383">
        <ele>-14.199999809265</ele>
        <time>2022-06-16T07:55:29.000Z</time>
      </trkpt>
      <trkpt lat="47.33447" lon="-2.36386">
        <ele>-14.60000038147</ele>
        <time>2022-06-16T07:55:30.000Z</time>
      </trkpt>
      <trkpt lat="47.33448" lon="-2.36389">
        <ele>-14.60000038147</ele>
        <time>2022-06-16T07:55:31.000Z</time>
      </trkpt>
      <trkpt lat="47.33454" lon="-2.36398">
        <ele>-14.60000038147</ele>
        <time>2022-06-16T07:55:35.000Z</time>
      </trkpt>
      <trkpt lat="47.3347" lon="-2.36408">
        <ele>-14.60000038147</ele>
        <time>2022-06-16T07:55:40.000Z</time>
      </trkpt>
      <trkpt lat="47.33479" lon="-2.36429">
        <ele>-14.60000038147</ele>
        <time>2022-06-16T07:55:46.000Z</time>
      </trkpt>
      <trkpt lat="47.3348" lon="-2.36465">
        <ele>-14.60000038147</ele>
        <time>2022-06-16T07:55:51.000Z</time>
      </trkpt>
      <trkpt lat="47.33479" lon="-2.3648">
        <ele>-15</ele>
        <time>2022-06-16T07:55:53.000Z</time>
      </trkpt>
      <trkpt lat="47.3348" lon="-2.36488">
        <ele>-15.39999961853</ele>
        <time>2022-06-16T07:55:54.000Z</time>
      </trkpt>
      <trkpt lat="47.33479" lon="-2.36498">
        <ele>-15.800000190735</ele>
        <time>2022-06-16T07:55:55.000Z</time>
      </trkpt>
      <trkpt lat="47.33479" lon="-2.36506">
        <ele>-16.200000762939</ele>
        <time>2022-06-16T07:55:56.000Z</time>
      </trkpt>
      <trkpt lat="47.33478" lon="-2.36515">
        <ele>-16.60000038147</ele>
        <time>2022-06-16T07:55:57.000Z</time>
      </trkpt>
      <trkpt lat="47.33478" lon="-2.3653">
        <ele>-16.60000038147</ele>
        <time>2022-06-16T07:55:59.000Z</time>
      </trkpt>
      <trkpt lat="47.33478" lon="-2.36571">
        <ele>-16.60000038147</ele>
        <time>2022-06-16T07:56:04.000Z</time>
      </trkpt>
      <trkpt lat="47.33481" lon="-2.36577">
        <ele>-16.60000038147</ele>
        <time>2022-06-16T07:56:06.000Z</time>
      </trkpt>
      <trkpt lat="47.33494" lon="-2.36585">
        <ele>-16.60000038147</ele>
        <time>2022-06-16T07:56:10.000Z</time>
      </trkpt>
      <trkpt lat="47.33508" lon="-2.36595">
        <ele>-16.60000038147</ele>
        <time>2022-06-16T07:56:15.000Z</time>
      </trkpt>
      <trkpt lat="47.3352" lon="-2.36604">
        <ele>-16.60000038147</ele>
        <time>2022-06-16T07:56:18.000Z</time>
      </trkpt>
      <trkpt lat="47.33524" lon="-2.36607">
        <ele>-17</ele>
        <time>2022-06-16T07:56:19.000Z</time>
      </trkpt>
      <trkpt lat="47.33528" lon="-2.36609">
        <ele>-17.60000038147</ele>
        <time>2022-06-16T07:56:20.000Z</time>
      </trkpt>
      <trkpt lat="47.33531" lon="-2.36611">
        <ele>-18</ele>
        <time>2022-06-16T07:56:21.000Z</time>
      </trkpt>
      <trkpt lat="47.33533" lon="-2.36613">
        <ele>-18.39999961853</ele>
        <time>2022-06-16T07:56:22.000Z</time>
      </trkpt>
      <trkpt lat="47.33535" lon="-2.36615">
        <ele>-18.799999237061</ele>
        <time>2022-06-16T07:56:23.000Z</time>
      </trkpt>
      <trkpt lat="47.33539" lon="-2.36622">
        <ele>-19.200000762939</ele>
        <time>2022-06-16T07:56:25.000Z</time>
      </trkpt>
      <trkpt lat="47.33541" lon="-2.36625">
        <ele>-20.200000762939</ele>
        <time>2022-06-16T07:56:26.000Z</time>
      </trkpt>
      <trkpt lat="47.33543" lon="-2.36628">
        <ele>-20.799999237061</ele>
        <time>2022-06-16T07:56:27.000Z</time>
      </trkpt>
      <trkpt lat="47.33544" lon="-2.36631">
        <ele>-21.39999961853</ele>
        <time>2022-06-16T07:56:28.000Z</time>
      </trkpt>
      <trkpt lat="47.33544" lon="-2.36635">
        <ele>-22</ele>
        <time>2022-06-16T07:56:29.000Z</time>
      </trkpt>
      <trkpt lat="47.33545" lon="-2.36638">
        <ele>-22.60000038147</ele>
        <time>2022-06-16T07:56:30.000Z</time>
      </trkpt>
      <trkpt lat="47.33542" lon="-2.36641">
        <ele>-23.200000762939</ele>
        <time>2022-06-16T07:56:31.000Z</time>
      </trkpt>
      <trkpt lat="47.3354" lon="-2.36645">
        <ele>-23.799999237061</ele>
        <time>2022-06-16T07:56:32.000Z</time>
      </trkpt>
      <trkpt lat="47.33537" lon="-2.36648">
        <ele>-23.799999237061</ele>
        <time>2022-06-16T07:56:33.000Z</time>
      </trkpt>
      <trkpt lat="47.33521" lon="-2.36665">
        <ele>-23.799999237061</ele>
        <time>2022-06-16T07:56:39.000Z</time>
      </trkpt>
      <trkpt lat="47.33509" lon="-2.36684">
        <ele>-23.799999237061</ele>
        <time>2022-06-16T07:56:44.000Z</time>
      </trkpt>
      <trkpt lat="47.33495" lon="-2.36711">
        <ele>-23.799999237061</ele>
        <time>2022-06-16T07:56:51.000Z</time>
      </trkpt>
      <trkpt lat="47.33483" lon="-2.36744">
        <ele>-23.799999237061</ele>
        <time>2022-06-16T07:56:58.000Z</time>
      </trkpt>
      <trkpt lat="47.33478" lon="-2.36762">
        <ele>-23.799999237061</ele>
        <time>2022-06-16T07:57:01.000Z</time>
      </trkpt>
      <trkpt lat="47.33472" lon="-2.36779">
        <ele>-23.799999237061</ele>
        <time>2022-06-16T07:57:03.000Z</time>
      </trkpt>
      <trkpt lat="47.33471" lon="-2.36787">
        <ele>-23.799999237061</ele>
        <time>2022-06-16T07:57:04.000Z</time>
      </trkpt>
      <trkpt lat="47.33465" lon="-2.36828">
        <ele>-23.799999237061</ele>
        <time>2022-06-16T07:57:10.000Z</time>
      </trkpt>
      <trkpt lat="47.33456" lon="-2.36852">
        <ele>-23.799999237061</ele>
        <time>2022-06-16T07:57:15.000Z</time>
      </trkpt>
      <trkpt lat="47.3345" lon="-2.36864">
        <ele>-23.39999961853</ele>
        <time>2022-06-16T07:57:19.000Z</time>
      </trkpt>
      <trkpt lat="47.3345" lon="-2.36867">
        <ele>-23</ele>
        <time>2022-06-16T07:57:20.000Z</time>
      </trkpt>
      <trkpt lat="47.3345" lon="-2.3687">
        <ele>-22.60000038147</ele>
        <time>2022-06-16T07:57:21.000Z</time>
      </trkpt>
      <trkpt lat="47.3345" lon="-2.36873">
        <ele>-22.200000762939</ele>
        <time>2022-06-16T07:57:22.000Z</time>
      </trkpt>
      <trkpt lat="47.33451" lon="-2.36876">
        <ele>-21.60000038147</ele>
        <time>2022-06-16T07:57:23.000Z</time>
      </trkpt>
      <trkpt lat="47.33451" lon="-2.36889">
        <ele>-21.60000038147</ele>
        <time>2022-06-16T07:57:26.000Z</time>
      </trkpt>
      <trkpt lat="47.33456" lon="-2.36916">
        <ele>-21.60000038147</ele>
        <time>2022-06-16T07:57:32.000Z</time>
      </trkpt>
      <trkpt lat="47.33456" lon="-2.36932">
        <ele>-21.60000038147</ele>
        <time>2022-06-16T07:57:35.000Z</time>
      </trkpt>
      <trkpt lat="47.33454" lon="-2.36948">
        <ele>-21.60000038147</ele>
        <time>2022-06-16T07:57:38.000Z</time>
      </trkpt>
      <trkpt lat="47.33456" lon="-2.3696">
        <ele>-21.60000038147</ele>
        <time>2022-06-16T07:57:40.000Z</time>
      </trkpt>
      <trkpt lat="47.3346" lon="-2.36972">
        <ele>-21.60000038147</ele>
        <time>2022-06-16T07:57:42.000Z</time>
      </trkpt>
      <trkpt lat="47.33468" lon="-2.36986">
        <ele>-21.60000038147</ele>
        <time>2022-06-16T07:57:46.000Z</time>
      </trkpt>
      <trkpt lat="47.33474" lon="-2.3699">
        <ele>-21.60000038147</ele>
        <time>2022-06-16T07:57:50.000Z</time>
      </trkpt>
      <trkpt lat="47.33475" lon="-2.36989">
        <ele>-21.60000038147</ele>
        <time>2022-06-16T07:57:51.000Z</time>
      </trkpt>
      <trkpt lat="47.33477" lon="-2.36983">
        <ele>-21.60000038147</ele>
        <time>2022-06-16T07:57:54.000Z</time>
      </trkpt>
      <trkpt lat="47.33479" lon="-2.36979">
        <ele>-21.60000038147</ele>
        <time>2022-06-16T07:57:56.000Z</time>
      </trkpt>
      <trkpt lat="47.33481" lon="-2.36977">
        <ele>-21.60000038147</ele>
        <time>2022-06-16T07:57:58.000Z</time>
      </trkpt>
      <trkpt lat="47.33486" lon="-2.36976">
        <ele>-21.60000038147</ele>
        <time>2022-06-16T07:58:01.000Z</time>
      </trkpt>
      <trkpt lat="47.33497" lon="-2.36972">
        <ele>-21.60000038147</ele>
        <time>2022-06-16T07:58:08.000Z</time>
      </trkpt>
      <trkpt lat="47.33505" lon="-2.36967">
        <ele>-21.200000762939</ele>
        <time>2022-06-16T07:58:16.000Z</time>
      </trkpt>
      <trkpt lat="47.33506" lon="-2.36967">
        <ele>-20.799999237061</ele>
        <time>2022-06-16T07:58:17.000Z</time>
      </trkpt>
      <trkpt lat="47.33508" lon="-2.36967">
        <ele>-20.39999961853</ele>
        <time>2022-06-16T07:58:18.000Z</time>
      </trkpt>
      <trkpt lat="47.33509" lon="-2.36967">
        <ele>-20</ele>
        <time>2022-06-16T07:58:19.000Z</time>
      </trkpt>
      <trkpt lat="47.3351" lon="-2.36967">
        <ele>-19.60000038147</ele>
        <time>2022-06-16T07:58:20.000Z</time>
      </trkpt>
      <trkpt lat="47.3351" lon="-2.36967">
        <ele>-19.60000038147</ele>
        <time>2022-06-16T07:58:21.000Z</time>
      </trkpt>
      <trkpt lat="47.33531" lon="-2.36964">
        <ele>-17.39999961853</ele>
        <time>2022-06-16T07:58:49.000Z</time>
      </trkpt>
      <trkpt lat="47.33536" lon="-2.36962">
        <ele>-16.799999237061</ele>
        <time>2022-06-16T07:58:52.000Z</time>
      </trkpt>
      <trkpt lat="47.33538" lon="-2.36962">
        <ele>-16.39999961853</ele>
        <time>2022-06-16T07:58:53.000Z</time>
      </trkpt>
      <trkpt lat="47.33541" lon="-2.36962">
        <ele>-15.60000038147</ele>
        <time>2022-06-16T07:58:54.000Z</time>
      </trkpt>
      <trkpt lat="47.33544" lon="-2.36962">
        <ele>-15.199999809265</ele>
        <time>2022-06-16T07:58:55.000Z</time>
      </trkpt>
      <trkpt lat="47.33564" lon="-2.36959">
        <ele>-15.199999809265</ele>
        <time>2022-06-16T07:59:02.000Z</time>
      </trkpt>
      <trkpt lat="47.33577" lon="-2.36956">
        <ele>-15.199999809265</ele>
        <time>2022-06-16T07:59:07.000Z</time>
      </trkpt>
      <trkpt lat="47.33593" lon="-2.36951">
        <ele>-15.199999809265</ele>
        <time>2022-06-16T07:59:13.000Z</time>
      </trkpt>
      <trkpt lat="47.33601" lon="-2.3695">
        <ele>-15.199999809265</ele>
        <time>2022-06-16T07:59:17.000Z</time>
      </trkpt>
      <trkpt lat="47.33606" lon="-2.36948">
        <ele>-15.199999809265</ele>
        <time>2022-06-16T07:59:50.000Z</time>
      </trkpt>
      <trkpt lat="47.3361" lon="-2.36942">
        <ele>-15.199999809265</ele>
        <time>2022-06-16T07:59:53.000Z</time>
      </trkpt>
      <trkpt lat="47.33613" lon="-2.36933">
        <ele>-15.199999809265</ele>
        <time>2022-06-16T07:59:59.000Z</time>
      </trkpt>
      <trkpt lat="47.33616" lon="-2.36929">
        <ele>-15.199999809265</ele>
        <time>2022-06-16T08:00:04.000Z</time>
      </trkpt>
      <trkpt lat="47.33617" lon="-2.36935">
        <ele>-15.199999809265</ele>
        <time>2022-06-16T08:00:40.000Z</time>
      </trkpt>
      <trkpt lat="47.33609" lon="-2.36951">
        <ele>-15.199999809265</ele>
        <time>2022-06-16T08:00:45.000Z</time>
      </trkpt>
      <trkpt lat="47.33603" lon="-2.36976">
        <ele>-15.199999809265</ele>
        <time>2022-06-16T08:00:51.000Z</time>
      </trkpt>
      <trkpt lat="47.33604" lon="-2.37018">
        <ele>-15.199999809265</ele>
        <time>2022-06-16T08:00:59.000Z</time>
      </trkpt>
      <trkpt lat="47.33603" lon="-2.37057">
        <ele>-14.800000190735</ele>
        <time>2022-06-16T08:01:06.000Z</time>
      </trkpt>
      <trkpt lat="47.33603" lon="-2.37063">
        <ele>-14.39999961853</ele>
        <time>2022-06-16T08:01:07.000Z</time>
      </trkpt>
      <trkpt lat="47.33603" lon="-2.3707">
        <ele>-14</ele>
        <time>2022-06-16T08:01:08.000Z</time>
      </trkpt>
      <trkpt lat="47.33604" lon="-2.37077">
        <ele>-13.60000038147</ele>
        <time>2022-06-16T08:01:09.000Z</time>
      </trkpt>
      <trkpt lat="47.33604" lon="-2.37084">
        <ele>-13.199999809265</ele>
        <time>2022-06-16T08:01:10.000Z</time>
      </trkpt>
      <trkpt lat="47.33605" lon="-2.3711">
        <ele>-13.199999809265</ele>
        <time>2022-06-16T08:01:14.000Z</time>
      </trkpt>
      <trkpt lat="47.33604" lon="-2.37168">
        <ele>-13.199999809265</ele>
        <time>2022-06-16T08:01:22.000Z</time>
      </trkpt>
      <trkpt lat="47.33602" lon="-2.37183">
        <ele>-13.199999809265</ele>
        <time>2022-06-16T08:01:24.000Z</time>
      </trkpt>
      <trkpt lat="47.33601" lon="-2.37214">
        <ele>-13.199999809265</ele>
        <time>2022-06-16T08:01:28.000Z</time>
      </trkpt>
      <trkpt lat="47.33607" lon="-2.37251">
        <ele>-13.199999809265</ele>
        <time>2022-06-16T08:01:33.000Z</time>
      </trkpt>
      <trkpt lat="47.33617" lon="-2.37295">
        <ele>-13.199999809265</ele>
        <time>2022-06-16T08:01:39.000Z</time>
      </trkpt>
      <trkpt lat="47.33618" lon="-2.37303">
        <ele>-13.199999809265</ele>
        <time>2022-06-16T08:01:40.000Z</time>
      </trkpt>
      <trkpt lat="47.33612" lon="-2.37321">
        <ele>-13.199999809265</ele>
        <time>2022-06-16T08:01:43.000Z</time>
      </trkpt>
      <trkpt lat="47.33595" lon="-2.3733">
        <ele>-13.199999809265</ele>
        <time>2022-06-16T08:01:47.000Z</time>
      </trkpt>
      <trkpt lat="47.33557" lon="-2.3734">
        <ele>-13.199999809265</ele>
        <time>2022-06-16T08:01:55.000Z</time>
      </trkpt>
      <trkpt lat="47.33537" lon="-2.37347">
        <ele>-13.199999809265</ele>
        <time>2022-06-16T08:02:00.000Z</time>
      </trkpt>
      <trkpt lat="47.33533" lon="-2.37344">
        <ele>-13.199999809265</ele>
        <time>2022-06-16T08:02:01.000Z</time>
      </trkpt>
      <trkpt lat="47.33525" lon="-2.37326">
        <ele>-13.199999809265</ele>
        <time>2022-06-16T08:02:04.000Z</time>
      </trkpt>
      <trkpt lat="47.33518" lon="-2.37304">
        <ele>-13.199999809265</ele>
        <time>2022-06-16T08:02:07.000Z</time>
      </trkpt>
      <trkpt lat="47.33511" lon="-2.37271">
        <ele>-13.199999809265</ele>
        <time>2022-06-16T08:02:11.000Z</time>
      </trkpt>
      <trkpt lat="47.33496" lon="-2.37229">
        <ele>-13.199999809265</ele>
        <time>2022-06-16T08:02:16.000Z</time>
      </trkpt>
      <trkpt lat="47.33493" lon="-2.3722">
        <ele>-13.60000038147</ele>
        <time>2022-06-16T08:02:17.000Z</time>
      </trkpt>
      <trkpt lat="47.33489" lon="-2.37211">
        <ele>-14</ele>
        <time>2022-06-16T08:02:18.000Z</time>
      </trkpt>
      <trkpt lat="47.33486" lon="-2.37201">
        <ele>-14.39999961853</ele>
        <time>2022-06-16T08:02:19.000Z</time>
      </trkpt>
      <trkpt lat="47.33483" lon="-2.37191">
        <ele>-15</ele>
        <time>2022-06-16T08:02:20.000Z</time>
      </trkpt>
      <trkpt lat="47.33481" lon="-2.37181">
        <ele>-15.39999961853</ele>
        <time>2022-06-16T08:02:21.000Z</time>
      </trkpt>
      <trkpt lat="47.33479" lon="-2.37172">
        <ele>-15.39999961853</ele>
        <time>2022-06-16T08:02:22.000Z</time>
      </trkpt>
      <trkpt lat="47.33474" lon="-2.37132">
        <ele>-15.800000190735</ele>
        <time>2022-06-16T08:02:26.000Z</time>
      </trkpt>
      <trkpt lat="47.33473" lon="-2.3712">
        <ele>-16.200000762939</ele>
        <time>2022-06-16T08:02:27.000Z</time>
      </trkpt>
      <trkpt lat="47.33472" lon="-2.37109">
        <ele>-16.60000038147</ele>
        <time>2022-06-16T08:02:28.000Z</time>
      </trkpt>
      <trkpt lat="47.33471" lon="-2.37097">
        <ele>-17</ele>
        <time>2022-06-16T08:02:29.000Z</time>
      </trkpt>
      <trkpt lat="47.3347" lon="-2.37086">
        <ele>-17.39999961853</ele>
        <time>2022-06-16T08:02:30.000Z</time>
      </trkpt>
      <trkpt lat="47.33469" lon="-2.37045">
        <ele>-17.799999237061</ele>
        <time>2022-06-16T08:02:34.000Z</time>
      </trkpt>
      <trkpt lat="47.3347" lon="-2.37037">
        <ele>-18.200000762939</ele>
        <time>2022-06-16T08:02:35.000Z</time>
      </trkpt>
      <trkpt lat="47.3347" lon="-2.3703">
        <ele>-18.60000038147</ele>
        <time>2022-06-16T08:02:36.000Z</time>
      </trkpt>
      <trkpt lat="47.3347" lon="-2.37025">
        <ele>-19.200000762939</ele>
        <time>2022-06-16T08:02:37.000Z</time>
      </trkpt>
      <trkpt lat="47.3347" lon="-2.37021">
        <ele>-19.60000038147</ele>
        <time>2022-06-16T08:02:38.000Z</time>
      </trkpt>
      <trkpt lat="47.33471" lon="-2.37019">
        <ele>-19.60000038147</ele>
        <time>2022-06-16T08:02:40.000Z</time>
      </trkpt>
      <trkpt lat="47.33473" lon="-2.37026">
        <ele>-21.60000038147</ele>
        <time>2022-06-16T08:07:42.000Z</time>
      </trkpt>
      <trkpt lat="47.33472" lon="-2.37042">
        <ele>-21.60000038147</ele>
        <time>2022-06-16T08:07:46.000Z</time>
      </trkpt>
      <trkpt lat="47.33472" lon="-2.37068">
        <ele>-21.60000038147</ele>
        <time>2022-06-16T08:07:50.000Z</time>
      </trkpt>
      <trkpt lat="47.33473" lon="-2.37076">
        <ele>-21.60000038147</ele>
        <time>2022-06-16T08:07:51.000Z</time>
      </trkpt>
      <trkpt lat="47.33477" lon="-2.3712">
        <ele>-21.60000038147</ele>
        <time>2022-06-16T08:07:57.000Z</time>
      </trkpt>
      <trkpt lat="47.33482" lon="-2.37161">
        <ele>-21.60000038147</ele>
        <time>2022-06-16T08:08:04.000Z</time>
      </trkpt>
      <trkpt lat="47.33485" lon="-2.37177">
        <ele>-21.200000762939</ele>
        <time>2022-06-16T08:08:07.000Z</time>
      </trkpt>
      <trkpt lat="47.33486" lon="-2.37183">
        <ele>-20.799999237061</ele>
        <time>2022-06-16T08:08:08.000Z</time>
      </trkpt>
      <trkpt lat="47.33487" lon="-2.37188">
        <ele>-20.39999961853</ele>
        <time>2022-06-16T08:08:09.000Z</time>
      </trkpt>
      <trkpt lat="47.33488" lon="-2.37194">
        <ele>-20</ele>
        <time>2022-06-16T08:08:10.000Z</time>
      </trkpt>
      <trkpt lat="47.33489" lon="-2.372">
        <ele>-19.39999961853</ele>
        <time>2022-06-16T08:08:11.000Z</time>
      </trkpt>
      <trkpt lat="47.33497" lon="-2.37225">
        <ele>-19.39999961853</ele>
        <time>2022-06-16T08:08:16.000Z</time>
      </trkpt>
      <trkpt lat="47.33509" lon="-2.37231">
        <ele>-19.39999961853</ele>
        <time>2022-06-16T08:08:20.000Z</time>
      </trkpt>
      <trkpt lat="47.33519" lon="-2.37232">
        <ele>-19</ele>
        <time>2022-06-16T08:08:23.000Z</time>
      </trkpt>
      <trkpt lat="47.33522" lon="-2.37233">
        <ele>-18.200000762939</ele>
        <time>2022-06-16T08:08:24.000Z</time>
      </trkpt>
      <trkpt lat="47.33526" lon="-2.37233">
        <ele>-17.799999237061</ele>
        <time>2022-06-16T08:08:25.000Z</time>
      </trkpt>
      <trkpt lat="47.33529" lon="-2.37233">
        <ele>-17.39999961853</ele>
        <time>2022-06-16T08:08:26.000Z</time>
      </trkpt>
      <trkpt lat="47.33557" lon="-2.37232">
        <ele>-17.39999961853</ele>
        <time>2022-06-16T08:08:34.000Z</time>
      </trkpt>
      <trkpt lat="47.3356" lon="-2.37233">
        <ele>-17</ele>
        <time>2022-06-16T08:08:35.000Z</time>
      </trkpt>
      <trkpt lat="47.33563" lon="-2.37234">
        <ele>-16.60000038147</ele>
        <time>2022-06-16T08:08:36.000Z</time>
      </trkpt>
      <trkpt lat="47.33567" lon="-2.37235">
        <ele>-16.200000762939</ele>
        <time>2022-06-16T08:08:37.000Z</time>
      </trkpt>
      <trkpt lat="47.3357" lon="-2.37235">
        <ele>-15.800000190735</ele>
        <time>2022-06-16T08:08:38.000Z</time>
      </trkpt>
      <trkpt lat="47.33574" lon="-2.37234">
        <ele>-15.39999961853</ele>
        <time>2022-06-16T08:08:39.000Z</time>
      </trkpt>
      <trkpt lat="47.33596" lon="-2.37229">
        <ele>-15.39999961853</ele>
        <time>2022-06-16T08:08:45.000Z</time>
      </trkpt>
      <trkpt lat="47.33596" lon="-2.37211">
        <ele>-15.39999961853</ele>
        <time>2022-06-16T08:08:48.000Z</time>
      </trkpt>
      <trkpt lat="47.33597" lon="-2.3719">
        <ele>-15.39999961853</ele>
        <time>2022-06-16T08:08:51.000Z</time>
      </trkpt>
      <trkpt lat="47.33599" lon="-2.37175">
        <ele>-15.39999961853</ele>
        <time>2022-06-16T08:08:53.000Z</time>
      </trkpt>
      <trkpt lat="47.33602" lon="-2.37126">
        <ele>-15.39999961853</ele>
        <time>2022-06-16T08:08:59.000Z</time>
      </trkpt>
      <trkpt lat="47.33602" lon="-2.37074">
        <ele>-15.39999961853</ele>
        <time>2022-06-16T08:09:06.000Z</time>
      </trkpt>
      <trkpt lat="47.33601" lon="-2.37023">
        <ele>-15.39999961853</ele>
        <time>2022-06-16T08:09:13.000Z</time>
      </trkpt>
      <trkpt lat="47.33601" lon="-2.37">
        <ele>-15.39999961853</ele>
        <time>2022-06-16T08:09:16.000Z</time>
      </trkpt>
      <trkpt lat="47.33601" lon="-2.36968">
        <ele>-15.39999961853</ele>
        <time>2022-06-16T08:09:20.000Z</time>
      </trkpt>
      <trkpt lat="47.33603" lon="-2.36952">
        <ele>-15.39999961853</ele>
        <time>2022-06-16T08:09:22.000Z</time>
      </trkpt>
      <trkpt lat="47.33611" lon="-2.3693">
        <ele>-15.39999961853</ele>
        <time>2022-06-16T08:09:25.000Z</time>
      </trkpt>
      <trkpt lat="47.33619" lon="-2.36919">
        <ele>-15.39999961853</ele>
        <time>2022-06-16T08:09:27.000Z</time>
      </trkpt>
      <trkpt lat="47.33636" lon="-2.36897">
        <ele>-15.39999961853</ele>
        <time>2022-06-16T08:09:31.000Z</time>
      </trkpt>
      <trkpt lat="47.33665" lon="-2.36863">
        <ele>-15.39999961853</ele>
        <time>2022-06-16T08:09:38.000Z</time>
      </trkpt>
      <trkpt lat="47.33698" lon="-2.36828">
        <ele>-15.39999961853</ele>
        <time>2022-06-16T08:09:46.000Z</time>
      </trkpt>
      <trkpt lat="47.33702" lon="-2.36825">
        <ele>-15.39999961853</ele>
        <time>2022-06-16T08:09:47.000Z</time>
      </trkpt>
      <trkpt lat="47.33721" lon="-2.36815">
        <ele>-15.39999961853</ele>
        <time>2022-06-16T08:09:51.000Z</time>
      </trkpt>
      <trkpt lat="47.3375" lon="-2.36803">
        <ele>-15.39999961853</ele>
        <time>2022-06-16T08:09:56.000Z</time>
      </trkpt>
      <trkpt lat="47.33784" lon="-2.36791">
        <ele>-15.39999961853</ele>
        <time>2022-06-16T08:10:01.000Z</time>
      </trkpt>
      <trkpt lat="47.33833" lon="-2.36776">
        <ele>-15.39999961853</ele>
        <time>2022-06-16T08:10:08.000Z</time>
      </trkpt>
      <trkpt lat="47.33884" lon="-2.36764">
        <ele>-15.39999961853</ele>
        <time>2022-06-16T08:10:16.000Z</time>
      </trkpt>
      <trkpt lat="47.3392" lon="-2.36755">
        <ele>-15.39999961853</ele>
        <time>2022-06-16T08:10:23.000Z</time>
      </trkpt>
      <trkpt lat="47.33939" lon="-2.36756">
        <ele>-15.39999961853</ele>
        <time>2022-06-16T08:10:27.000Z</time>
      </trkpt>
      <trkpt lat="47.33944" lon="-2.36756">
        <ele>-15.39999961853</ele>
        <time>2022-06-16T08:10:28.000Z</time>
      </trkpt>
      <trkpt lat="47.33984" lon="-2.36746">
        <ele>-15.800000190735</ele>
        <time>2022-06-16T08:10:35.000Z</time>
      </trkpt>
      <trkpt lat="47.3399" lon="-2.36744">
        <ele>-16.200000762939</ele>
        <time>2022-06-16T08:10:36.000Z</time>
      </trkpt>
      <trkpt lat="47.33997" lon="-2.36742">
        <ele>-16.60000038147</ele>
        <time>2022-06-16T08:10:37.000Z</time>
      </trkpt>
      <trkpt lat="47.34003" lon="-2.3674">
        <ele>-17</ele>
        <time>2022-06-16T08:10:38.000Z</time>
      </trkpt>
      <trkpt lat="47.3401" lon="-2.36738">
        <ele>-17.60000038147</ele>
        <time>2022-06-16T08:10:39.000Z</time>
      </trkpt>
      <trkpt lat="47.34022" lon="-2.36733">
        <ele>-17.60000038147</ele>
        <time>2022-06-16T08:10:41.000Z</time>
      </trkpt>
      <trkpt lat="47.34055" lon="-2.36715">
        <ele>-18</ele>
        <time>2022-06-16T08:10:46.000Z</time>
      </trkpt>
      <trkpt lat="47.34061" lon="-2.36712">
        <ele>-18.39999961853</ele>
        <time>2022-06-16T08:10:47.000Z</time>
      </trkpt>
      <trkpt lat="47.34066" lon="-2.36708">
        <ele>-18.799999237061</ele>
        <time>2022-06-16T08:10:48.000Z</time>
      </trkpt>
      <trkpt lat="47.34072" lon="-2.36704">
        <ele>-19.200000762939</ele>
        <time>2022-06-16T08:10:49.000Z</time>
      </trkpt>
      <trkpt lat="47.34077" lon="-2.367">
        <ele>-19.60000038147</ele>
        <time>2022-06-16T08:10:50.000Z</time>
      </trkpt>
      <trkpt lat="47.34082" lon="-2.36697">
        <ele>-19.60000038147</ele>
        <time>2022-06-16T08:10:51.000Z</time>
      </trkpt>
      <trkpt lat="47.34085" lon="-2.367">
        <ele>-19.60000038147</ele>
        <time>2022-06-16T08:10:52.000Z</time>
      </trkpt>
      <trkpt lat="47.34092" lon="-2.36716">
        <ele>-19.60000038147</ele>
        <time>2022-06-16T08:10:55.000Z</time>
      </trkpt>
      <trkpt lat="47.34095" lon="-2.36731">
        <ele>-19.60000038147</ele>
        <time>2022-06-16T08:10:57.000Z</time>
      </trkpt>
      <trkpt lat="47.34098" lon="-2.36758">
        <ele>-19.60000038147</ele>
        <time>2022-06-16T08:11:00.000Z</time>
      </trkpt>
      <trkpt lat="47.34099" lon="-2.36767">
        <ele>-20</ele>
        <time>2022-06-16T08:11:01.000Z</time>
      </trkpt>
      <trkpt lat="47.341" lon="-2.36776">
        <ele>-20.60000038147</ele>
        <time>2022-06-16T08:11:02.000Z</time>
      </trkpt>
      <trkpt lat="47.34102" lon="-2.36784">
        <ele>-21</ele>
        <time>2022-06-16T08:11:03.000Z</time>
      </trkpt>
      <trkpt lat="47.34103" lon="-2.36794">
        <ele>-21.39999961853</ele>
        <time>2022-06-16T08:11:04.000Z</time>
      </trkpt>
      <trkpt lat="47.34104" lon="-2.36803">
        <ele>-21.799999237061</ele>
        <time>2022-06-16T08:11:05.000Z</time>
      </trkpt>
      <trkpt lat="47.34109" lon="-2.36831">
        <ele>-21.799999237061</ele>
        <time>2022-06-16T08:11:08.000Z</time>
      </trkpt>
      <trkpt lat="47.34115" lon="-2.36858">
        <ele>-21.799999237061</ele>
        <time>2022-06-16T08:11:11.000Z</time>
      </trkpt>
      <trkpt lat="47.34121" lon="-2.36876">
        <ele>-21.799999237061</ele>
        <time>2022-06-16T08:11:13.000Z</time>
      </trkpt>
      <trkpt lat="47.34129" lon="-2.36891">
        <ele>-21.799999237061</ele>
        <time>2022-06-16T08:11:15.000Z</time>
      </trkpt>
      <trkpt lat="47.34138" lon="-2.36907">
        <ele>-21.799999237061</ele>
        <time>2022-06-16T08:11:17.000Z</time>
      </trkpt>
      <trkpt lat="47.34142" lon="-2.36915">
        <ele>-21.799999237061</ele>
        <time>2022-06-16T08:11:18.000Z</time>
      </trkpt>
      <trkpt lat="47.34163" lon="-2.36956">
        <ele>-21.799999237061</ele>
        <time>2022-06-16T08:11:24.000Z</time>
      </trkpt>
      <trkpt lat="47.34168" lon="-2.36961">
        <ele>-21.799999237061</ele>
        <time>2022-06-16T08:11:25.000Z</time>
      </trkpt>
      <trkpt lat="47.34184" lon="-2.36982">
        <ele>-21.799999237061</ele>
        <time>2022-06-16T08:11:29.000Z</time>
      </trkpt>
      <trkpt lat="47.34196" lon="-2.36999">
        <ele>-21.799999237061</ele>
        <time>2022-06-16T08:11:32.000Z</time>
      </trkpt>
      <trkpt lat="47.34204" lon="-2.3701">
        <ele>-21.200000762939</ele>
        <time>2022-06-16T08:11:34.000Z</time>
      </trkpt>
      <trkpt lat="47.34208" lon="-2.37016">
        <ele>-20.799999237061</ele>
        <time>2022-06-16T08:11:35.000Z</time>
      </trkpt>
      <trkpt lat="47.34211" lon="-2.37022">
        <ele>-20.39999961853</ele>
        <time>2022-06-16T08:11:36.000Z</time>
      </trkpt>
      <trkpt lat="47.34214" lon="-2.37028">
        <ele>-20</ele>
        <time>2022-06-16T08:11:37.000Z</time>
      </trkpt>
      <trkpt lat="47.34218" lon="-2.37034">
        <ele>-19.39999961853</ele>
        <time>2022-06-16T08:11:38.000Z</time>
      </trkpt>
      <trkpt lat="47.34224" lon="-2.37047">
        <ele>-19.39999961853</ele>
        <time>2022-06-16T08:11:40.000Z</time>
      </trkpt>
      <trkpt lat="47.34229" lon="-2.37058">
        <ele>-19</ele>
        <time>2022-06-16T08:11:42.000Z</time>
      </trkpt>
      <trkpt lat="47.34232" lon="-2.37063">
        <ele>-18.60000038147</ele>
        <time>2022-06-16T08:11:43.000Z</time>
      </trkpt>
      <trkpt lat="47.34236" lon="-2.37066">
        <ele>-18.200000762939</ele>
        <time>2022-06-16T08:11:44.000Z</time>
      </trkpt>
      <trkpt lat="47.3424" lon="-2.37067">
        <ele>-17.799999237061</ele>
        <time>2022-06-16T08:11:45.000Z</time>
      </trkpt>
      <trkpt lat="47.34243" lon="-2.37065">
        <ele>-17.200000762939</ele>
        <time>2022-06-16T08:11:46.000Z</time>
      </trkpt>
      <trkpt lat="47.3425" lon="-2.37057">
        <ele>-17.200000762939</ele>
        <time>2022-06-16T08:11:48.000Z</time>
      </trkpt>
      <trkpt lat="47.34278" lon="-2.37029">
        <ele>-17.200000762939</ele>
        <time>2022-06-16T08:11:54.000Z</time>
      </trkpt>
      <trkpt lat="47.34312" lon="-2.36988">
        <ele>-17.200000762939</ele>
        <time>2022-06-16T08:12:01.000Z</time>
      </trkpt>
      <trkpt lat="47.34339" lon="-2.36953">
        <ele>-17.200000762939</ele>
        <time>2022-06-16T08:12:07.000Z</time>
      </trkpt>
      <trkpt lat="47.34368" lon="-2.36904">
        <ele>-17.200000762939</ele>
        <time>2022-06-16T08:12:14.000Z</time>
      </trkpt>
      <trkpt lat="47.34405" lon="-2.36842">
        <ele>-17.200000762939</ele>
        <time>2022-06-16T08:12:23.000Z</time>
      </trkpt>
      <trkpt lat="47.34409" lon="-2.36835">
        <ele>-17.200000762939</ele>
        <time>2022-06-16T08:12:24.000Z</time>
      </trkpt>
      <trkpt lat="47.34443" lon="-2.36782">
        <ele>-17.200000762939</ele>
        <time>2022-06-16T08:12:32.000Z</time>
      </trkpt>
      <trkpt lat="47.34471" lon="-2.36735">
        <ele>-17.200000762939</ele>
        <time>2022-06-16T08:12:39.000Z</time>
      </trkpt>
      <trkpt lat="47.34476" lon="-2.36727">
        <ele>-17.799999237061</ele>
        <time>2022-06-16T08:12:40.000Z</time>
      </trkpt>
      <trkpt lat="47.3448" lon="-2.36719">
        <ele>-18.200000762939</ele>
        <time>2022-06-16T08:12:41.000Z</time>
      </trkpt>
      <trkpt lat="47.34484" lon="-2.36711">
        <ele>-18.60000038147</ele>
        <time>2022-06-16T08:12:42.000Z</time>
      </trkpt>
      <trkpt lat="47.34488" lon="-2.36703">
        <ele>-19</ele>
        <time>2022-06-16T08:12:43.000Z</time>
      </trkpt>
      <trkpt lat="47.34492" lon="-2.36695">
        <ele>-19.60000038147</ele>
        <time>2022-06-16T08:12:44.000Z</time>
      </trkpt>
      <trkpt lat="47.34498" lon="-2.36679">
        <ele>-19.60000038147</ele>
        <time>2022-06-16T08:12:46.000Z</time>
      </trkpt>
      <trkpt lat="47.34514" lon="-2.36644">
        <ele>-20</ele>
        <time>2022-06-16T08:12:50.000Z</time>
      </trkpt>
      <trkpt lat="47.34518" lon="-2.36635">
        <ele>-20.39999961853</ele>
        <time>2022-06-16T08:12:51.000Z</time>
      </trkpt>
      <trkpt lat="47.34521" lon="-2.36626">
        <ele>-20.799999237061</ele>
        <time>2022-06-16T08:12:52.000Z</time>
      </trkpt>
      <trkpt lat="47.34525" lon="-2.36616">
        <ele>-21.200000762939</ele>
        <time>2022-06-16T08:12:53.000Z</time>
      </trkpt>
      <trkpt lat="47.34529" lon="-2.36607">
        <ele>-21.60000038147</ele>
        <time>2022-06-16T08:12:54.000Z</time>
      </trkpt>
      <trkpt lat="47.34545" lon="-2.36568">
        <ele>-22</ele>
        <time>2022-06-16T08:12:58.000Z</time>
      </trkpt>
      <trkpt lat="47.34548" lon="-2.36559">
        <ele>-22.39999961853</ele>
        <time>2022-06-16T08:12:59.000Z</time>
      </trkpt>
      <trkpt lat="47.34552" lon="-2.3655">
        <ele>-22.799999237061</ele>
        <time>2022-06-16T08:13:00.000Z</time>
      </trkpt>
      <trkpt lat="47.34555" lon="-2.36542">
        <ele>-23.200000762939</ele>
        <time>2022-06-16T08:13:01.000Z</time>
      </trkpt>
      <trkpt lat="47.34558" lon="-2.36533">
        <ele>-23.60000038147</ele>
        <time>2022-06-16T08:13:02.000Z</time>
      </trkpt>
      <trkpt lat="47.34568" lon="-2.36505">
        <ele>-23.60000038147</ele>
        <time>2022-06-16T08:13:05.000Z</time>
      </trkpt>
      <trkpt lat="47.34589" lon="-2.36448">
        <ele>-23.60000038147</ele>
        <time>2022-06-16T08:13:11.000Z</time>
      </trkpt>
      <trkpt lat="47.3459" lon="-2.3644">
        <ele>-23.60000038147</ele>
        <time>2022-06-16T08:13:12.000Z</time>
      </trkpt>
      <trkpt lat="47.34587" lon="-2.36424">
        <ele>-23.60000038147</ele>
        <time>2022-06-16T08:13:14.000Z</time>
      </trkpt>
      <trkpt lat="47.34579" lon="-2.36412">
        <ele>-23.60000038147</ele>
        <time>2022-06-16T08:13:16.000Z</time>
      </trkpt>
      <trkpt lat="47.34574" lon="-2.36404">
        <ele>-24</ele>
        <time>2022-06-16T08:13:17.000Z</time>
      </trkpt>
      <trkpt lat="47.34569" lon="-2.36397">
        <ele>-24.60000038147</ele>
        <time>2022-06-16T08:13:18.000Z</time>
      </trkpt>
      <trkpt lat="47.34564" lon="-2.36389">
        <ele>-25</ele>
        <time>2022-06-16T08:13:19.000Z</time>
      </trkpt>
      <trkpt lat="47.34559" lon="-2.36381">
        <ele>-25.39999961853</ele>
        <time>2022-06-16T08:13:20.000Z</time>
      </trkpt>
      <trkpt lat="47.34554" lon="-2.36372">
        <ele>-25.799999237061</ele>
        <time>2022-06-16T08:13:21.000Z</time>
      </trkpt>
      <trkpt lat="47.34549" lon="-2.36363">
        <ele>-25.799999237061</ele>
        <time>2022-06-16T08:13:22.000Z</time>
      </trkpt>
      <trkpt lat="47.34545" lon="-2.36353">
        <ele>-25.799999237061</ele>
        <time>2022-06-16T08:13:23.000Z</time>
      </trkpt>
      <trkpt lat="47.34524" lon="-2.36295">
        <ele>-26.200000762939</ele>
        <time>2022-06-16T08:13:29.000Z</time>
      </trkpt>
      <trkpt lat="47.34522" lon="-2.36285">
        <ele>-26.60000038147</ele>
        <time>2022-06-16T08:13:30.000Z</time>
      </trkpt>
      <trkpt lat="47.34519" lon="-2.36276">
        <ele>-27</ele>
        <time>2022-06-16T08:13:31.000Z</time>
      </trkpt>
      <trkpt lat="47.34516" lon="-2.36266">
        <ele>-27.39999961853</ele>
        <time>2022-06-16T08:13:32.000Z</time>
      </trkpt>
      <trkpt lat="47.34513" lon="-2.36257">
        <ele>-27.799999237061</ele>
        <time>2022-06-16T08:13:33.000Z</time>
      </trkpt>
      <trkpt lat="47.34503" lon="-2.36227">
        <ele>-27.799999237061</ele>
        <time>2022-06-16T08:13:36.000Z</time>
      </trkpt>
      <trkpt lat="47.34499" lon="-2.36219">
        <ele>-27.799999237061</ele>
        <time>2022-06-16T08:13:37.000Z</time>
      </trkpt>
      <trkpt lat="47.34476" lon="-2.36182">
        <ele>-27.799999237061</ele>
        <time>2022-06-16T08:13:42.000Z</time>
      </trkpt>
      <trkpt lat="47.34461" lon="-2.36152">
        <ele>-27.799999237061</ele>
        <time>2022-06-16T08:13:46.000Z</time>
      </trkpt>
      <trkpt lat="47.34455" lon="-2.36136">
        <ele>-27.799999237061</ele>
        <time>2022-06-16T08:13:48.000Z</time>
      </trkpt>
      <trkpt lat="47.34436" lon="-2.36091">
        <ele>-27.39999961853</ele>
        <time>2022-06-16T08:13:54.000Z</time>
      </trkpt>
      <trkpt lat="47.34433" lon="-2.36083">
        <ele>-27</ele>
        <time>2022-06-16T08:13:55.000Z</time>
      </trkpt>
      <trkpt lat="47.34431" lon="-2.36074">
        <ele>-26.60000038147</ele>
        <time>2022-06-16T08:13:56.000Z</time>
      </trkpt>
      <trkpt lat="47.34429" lon="-2.36065">
        <ele>-26.200000762939</ele>
        <time>2022-06-16T08:13:57.000Z</time>
      </trkpt>
      <trkpt lat="47.34427" lon="-2.36057">
        <ele>-25.799999237061</ele>
        <time>2022-06-16T08:13:58.000Z</time>
      </trkpt>
      <trkpt lat="47.34425" lon="-2.36048">
        <ele>-25.799999237061</ele>
        <time>2022-06-16T08:13:59.000Z</time>
      </trkpt>
      <trkpt lat="47.34418" lon="-2.36023">
        <ele>-25.799999237061</ele>
        <time>2022-06-16T08:14:02.000Z</time>
      </trkpt>
      <trkpt lat="47.34412" lon="-2.36009">
        <ele>-25.799999237061</ele>
        <time>2022-06-16T08:14:04.000Z</time>
      </trkpt>
      <trkpt lat="47.34416" lon="-2.35992">
        <ele>-25.799999237061</ele>
        <time>2022-06-16T08:14:07.000Z</time>
      </trkpt>
      <trkpt lat="47.34426" lon="-2.35983">
        <ele>-25.799999237061</ele>
        <time>2022-06-16T08:14:10.000Z</time>
      </trkpt>
      <trkpt lat="47.3443" lon="-2.35979">
        <ele>-25.799999237061</ele>
        <time>2022-06-16T08:14:11.000Z</time>
      </trkpt>
      <trkpt lat="47.34458" lon="-2.35955">
        <ele>-25.799999237061</ele>
        <time>2022-06-16T08:14:17.000Z</time>
      </trkpt>
      <trkpt lat="47.34494" lon="-2.35931">
        <ele>-25.799999237061</ele>
        <time>2022-06-16T08:14:23.000Z</time>
      </trkpt>
      <trkpt lat="47.34507" lon="-2.35925">
        <ele>-26.200000762939</ele>
        <time>2022-06-16T08:14:25.000Z</time>
      </trkpt>
      <trkpt lat="47.34514" lon="-2.35922">
        <ele>-26.60000038147</ele>
        <time>2022-06-16T08:14:26.000Z</time>
      </trkpt>
      <trkpt lat="47.34521" lon="-2.3592">
        <ele>-27.39999961853</ele>
        <time>2022-06-16T08:14:27.000Z</time>
      </trkpt>
      <trkpt lat="47.34527" lon="-2.35917">
        <ele>-27.799999237061</ele>
        <time>2022-06-16T08:14:28.000Z</time>
      </trkpt>
      <trkpt lat="47.3454" lon="-2.35911">
        <ele>-27.799999237061</ele>
        <time>2022-06-16T08:14:30.000Z</time>
      </trkpt>
      <trkpt lat="47.34551" lon="-2.35906">
        <ele>-28.200000762939</ele>
        <time>2022-06-16T08:14:32.000Z</time>
      </trkpt>
      <trkpt lat="47.34556" lon="-2.35904">
        <ele>-28.60000038147</ele>
        <time>2022-06-16T08:14:33.000Z</time>
      </trkpt>
      <trkpt lat="47.34562" lon="-2.35901">
        <ele>-29</ele>
        <time>2022-06-16T08:14:34.000Z</time>
      </trkpt>
      <trkpt lat="47.34568" lon="-2.35898">
        <ele>-29.39999961853</ele>
        <time>2022-06-16T08:14:35.000Z</time>
      </trkpt>
      <trkpt lat="47.34574" lon="-2.35894">
        <ele>-30</ele>
        <time>2022-06-16T08:14:36.000Z</time>
      </trkpt>
      <trkpt lat="47.34595" lon="-2.35878">
        <ele>-30</ele>
        <time>2022-06-16T08:14:40.000Z</time>
      </trkpt>
      <trkpt lat="47.346" lon="-2.35874">
        <ele>-30</ele>
        <time>2022-06-16T08:14:41.000Z</time>
      </trkpt>
      <trkpt lat="47.34605" lon="-2.3587">
        <ele>-30</ele>
        <time>2022-06-16T08:14:42.000Z</time>
      </trkpt>
      <trkpt lat="47.3462" lon="-2.35857">
        <ele>-30</ele>
        <time>2022-06-16T08:14:46.000Z</time>
      </trkpt>
      <trkpt lat="47.34635" lon="-2.35845">
        <ele>-30</ele>
        <time>2022-06-16T08:14:50.000Z</time>
      </trkpt>
      <trkpt lat="47.34649" lon="-2.35834">
        <ele>-30</ele>
        <time>2022-06-16T08:14:53.000Z</time>
      </trkpt>
      <trkpt lat="47.34691" lon="-2.35803">
        <ele>-30</ele>
        <time>2022-06-16T08:15:01.000Z</time>
      </trkpt>
      <trkpt lat="47.34733" lon="-2.3577">
        <ele>-30</ele>
        <time>2022-06-16T08:15:09.000Z</time>
      </trkpt>
      <trkpt lat="47.34764" lon="-2.35751">
        <ele>-30</ele>
        <time>2022-06-16T08:15:15.000Z</time>
      </trkpt>
      <trkpt lat="47.34786" lon="-2.35739">
        <ele>-30</ele>
        <time>2022-06-16T08:15:20.000Z</time>
      </trkpt>
      <trkpt lat="47.34804" lon="-2.35729">
        <ele>-30</ele>
        <time>2022-06-16T08:15:24.000Z</time>
      </trkpt>
      <trkpt lat="47.34808" lon="-2.35727">
        <ele>-30</ele>
        <time>2022-06-16T08:15:25.000Z</time>
      </trkpt>
      <trkpt lat="47.34818" lon="-2.35724">
        <ele>-30</ele>
        <time>2022-06-16T08:15:27.000Z</time>
      </trkpt>
      <trkpt lat="47.34832" lon="-2.35715">
        <ele>-30</ele>
        <time>2022-06-16T08:15:30.000Z</time>
      </trkpt>
      <trkpt lat="47.34843" lon="-2.35694">
        <ele>-30</ele>
        <time>2022-06-16T08:15:33.000Z</time>
      </trkpt>
      <trkpt lat="47.34846" lon="-2.35688">
        <ele>-30</ele>
        <time>2022-06-16T08:15:34.000Z</time>
      </trkpt>
      <trkpt lat="47.34848" lon="-2.35681">
        <ele>-30</ele>
        <time>2022-06-16T08:15:35.000Z</time>
      </trkpt>
      <trkpt lat="47.34854" lon="-2.35667">
        <ele>-30</ele>
        <time>2022-06-16T08:15:38.000Z</time>
      </trkpt>
      <trkpt lat="47.34854" lon="-2.35663">
        <ele>-30</ele>
        <time>2022-06-16T08:15:39.000Z</time>
      </trkpt>
      <trkpt lat="47.34848" lon="-2.35661">
        <ele>-30</ele>
        <time>2022-06-16T08:15:41.000Z</time>
      </trkpt>
      <trkpt lat="47.34841" lon="-2.35656">
        <ele>-30</ele>
        <time>2022-06-16T08:15:43.000Z</time>
      </trkpt>
      <trkpt lat="47.34829" lon="-2.35652">
        <ele>-30</ele>
        <time>2022-06-16T08:15:46.000Z</time>
      </trkpt>
      <trkpt lat="47.34817" lon="-2.35643">
        <ele>-30</ele>
        <time>2022-06-16T08:15:49.000Z</time>
      </trkpt>
      <trkpt lat="47.34804" lon="-2.35631">
        <ele>-30</ele>
        <time>2022-06-16T08:15:52.000Z</time>
      </trkpt>
      <trkpt lat="47.34767" lon="-2.35588">
        <ele>-30</ele>
        <time>2022-06-16T08:16:01.000Z</time>
      </trkpt>
      <trkpt lat="47.34759" lon="-2.35578">
        <ele>-30</ele>
        <time>2022-06-16T08:16:03.000Z</time>
      </trkpt>
      <trkpt lat="47.34746" lon="-2.35561">
        <ele>-30</ele>
        <time>2022-06-16T08:16:06.000Z</time>
      </trkpt>
      <trkpt lat="47.34722" lon="-2.35523">
        <ele>-30.39999961853</ele>
        <time>2022-06-16T08:16:12.000Z</time>
      </trkpt>
      <trkpt lat="47.34718" lon="-2.35516">
        <ele>-30.799999237061</ele>
        <time>2022-06-16T08:16:13.000Z</time>
      </trkpt>
      <trkpt lat="47.34715" lon="-2.3551">
        <ele>-31.200000762939</ele>
        <time>2022-06-16T08:16:14.000Z</time>
      </trkpt>
      <trkpt lat="47.34711" lon="-2.35504">
        <ele>-31.60000038147</ele>
        <time>2022-06-16T08:16:15.000Z</time>
      </trkpt>
      <trkpt lat="47.34707" lon="-2.35498">
        <ele>-32</ele>
        <time>2022-06-16T08:16:16.000Z</time>
      </trkpt>
      <trkpt lat="47.3469" lon="-2.3547">
        <ele>-32</ele>
        <time>2022-06-16T08:16:21.000Z</time>
      </trkpt>
      <trkpt lat="47.34662" lon="-2.35426">
        <ele>-32</ele>
        <time>2022-06-16T08:16:29.000Z</time>
      </trkpt>
      <trkpt lat="47.34649" lon="-2.35408">
        <ele>-32</ele>
        <time>2022-06-16T08:16:34.000Z</time>
      </trkpt>
      <trkpt lat="47.34653" lon="-2.35404">
        <ele>-32</ele>
        <time>2022-06-16T08:16:37.000Z</time>
      </trkpt>
      <trkpt lat="47.34655" lon="-2.35403">
        <ele>-32</ele>
        <time>2022-06-16T08:16:38.000Z</time>
      </trkpt>
      <trkpt lat="47.34667" lon="-2.354">
        <ele>-32</ele>
        <time>2022-06-16T08:16:42.000Z</time>
      </trkpt>
      <trkpt lat="47.34688" lon="-2.35399">
        <ele>-32</ele>
        <time>2022-06-16T08:16:48.000Z</time>
      </trkpt>
      <trkpt lat="47.34701" lon="-2.35389">
        <ele>-32</ele>
        <time>2022-06-16T08:16:53.000Z</time>
      </trkpt>
      <trkpt lat="47.34711" lon="-2.35371">
        <ele>-32</ele>
        <time>2022-06-16T08:16:58.000Z</time>
      </trkpt>
      <trkpt lat="47.34721" lon="-2.35352">
        <ele>-32</ele>
        <time>2022-06-16T08:17:03.000Z</time>
      </trkpt>
      <trkpt lat="47.34723" lon="-2.35344">
        <ele>-32</ele>
        <time>2022-06-16T08:17:05.000Z</time>
      </trkpt>
      <trkpt lat="47.34723" lon="-2.35334">
        <ele>-32</ele>
        <time>2022-06-16T08:17:07.000Z</time>
      </trkpt>
      <trkpt lat="47.34728" lon="-2.35309">
        <ele>-32</ele>
        <time>2022-06-16T08:17:13.000Z</time>
      </trkpt>
      <trkpt lat="47.34732" lon="-2.35299">
        <ele>-32</ele>
        <time>2022-06-16T08:17:15.000Z</time>
      </trkpt>
      <trkpt lat="47.34735" lon="-2.35294">
        <ele>-32</ele>
        <time>2022-06-16T08:17:16.000Z</time>
      </trkpt>
      <trkpt lat="47.34739" lon="-2.35282">
        <ele>-32</ele>
        <time>2022-06-16T08:17:18.000Z</time>
      </trkpt>
      <trkpt lat="47.34743" lon="-2.35267">
        <ele>-32</ele>
        <time>2022-06-16T08:17:20.000Z</time>
      </trkpt>
      <trkpt lat="47.3475" lon="-2.35243">
        <ele>-32</ele>
        <time>2022-06-16T08:17:23.000Z</time>
      </trkpt>
      <trkpt lat="47.34754" lon="-2.35221">
        <ele>-32</ele>
        <time>2022-06-16T08:17:26.000Z</time>
      </trkpt>
      <trkpt lat="47.34755" lon="-2.35207">
        <ele>-32</ele>
        <time>2022-06-16T08:17:28.000Z</time>
      </trkpt>
      <trkpt lat="47.34758" lon="-2.35192">
        <ele>-32</ele>
        <time>2022-06-16T08:17:30.000Z</time>
      </trkpt>
      <trkpt lat="47.3476" lon="-2.35176">
        <ele>-32</ele>
        <time>2022-06-16T08:17:32.000Z</time>
      </trkpt>
      <trkpt lat="47.3476" lon="-2.35162">
        <ele>-32</ele>
        <time>2022-06-16T08:17:34.000Z</time>
      </trkpt>
      <trkpt lat="47.34756" lon="-2.3515">
        <ele>-32</ele>
        <time>2022-06-16T08:17:36.000Z</time>
      </trkpt>
      <trkpt lat="47.34748" lon="-2.35137">
        <ele>-32</ele>
        <time>2022-06-16T08:17:39.000Z</time>
      </trkpt>
      <trkpt lat="47.34742" lon="-2.3513">
        <ele>-32</ele>
        <time>2022-06-16T08:17:41.000Z</time>
      </trkpt>
      <trkpt lat="47.34733" lon="-2.35107">
        <ele>-32</ele>
        <time>2022-06-16T08:17:45.000Z</time>
      </trkpt>
      <trkpt lat="47.34731" lon="-2.35102">
        <ele>-32</ele>
        <time>2022-06-16T08:17:46.000Z</time>
      </trkpt>
      <trkpt lat="47.34727" lon="-2.35098">
        <ele>-32</ele>
        <time>2022-06-16T08:17:47.000Z</time>
      </trkpt>
      <trkpt lat="47.34715" lon="-2.35086">
        <ele>-32</ele>
        <time>2022-06-16T08:17:50.000Z</time>
      </trkpt>
      <trkpt lat="47.34711" lon="-2.35082">
        <ele>-32</ele>
        <time>2022-06-16T08:17:51.000Z</time>
      </trkpt>
      <trkpt lat="47.34703" lon="-2.35073">
        <ele>-32</ele>
        <time>2022-06-16T08:17:53.000Z</time>
      </trkpt>
      <trkpt lat="47.34695" lon="-2.3506">
        <ele>-32</ele>
        <time>2022-06-16T08:17:56.000Z</time>
      </trkpt>
      <trkpt lat="47.34681" lon="-2.3505">
        <ele>-32</ele>
        <time>2022-06-16T08:18:00.000Z</time>
      </trkpt>
      <trkpt lat="47.3466" lon="-2.35045">
        <ele>-32</ele>
        <time>2022-06-16T08:18:05.000Z</time>
      </trkpt>
      <trkpt lat="47.34656" lon="-2.3504">
        <ele>-32</ele>
        <time>2022-06-16T08:18:06.000Z</time>
      </trkpt>
      <trkpt lat="47.34649" lon="-2.35031">
        <ele>-32</ele>
        <time>2022-06-16T08:18:08.000Z</time>
      </trkpt>
      <trkpt lat="47.34641" lon="-2.35021">
        <ele>-32</ele>
        <time>2022-06-16T08:18:10.000Z</time>
      </trkpt>
      <trkpt lat="47.34633" lon="-2.35006">
        <ele>-32</ele>
        <time>2022-06-16T08:18:13.000Z</time>
      </trkpt>
      <trkpt lat="47.34614" lon="-2.34974">
        <ele>-32</ele>
        <time>2022-06-16T08:18:20.000Z</time>
      </trkpt>
      <trkpt lat="47.34597" lon="-2.3494">
        <ele>-32</ele>
        <time>2022-06-16T08:18:27.000Z</time>
      </trkpt>
      <trkpt lat="47.34588" lon="-2.34913">
        <ele>-32</ele>
        <time>2022-06-16T08:18:32.000Z</time>
      </trkpt>
      <trkpt lat="47.34585" lon="-2.34883">
        <ele>-32</ele>
        <time>2022-06-16T08:18:37.000Z</time>
      </trkpt>
      <trkpt lat="47.34595" lon="-2.34852">
        <ele>-32</ele>
        <time>2022-06-16T08:18:41.000Z</time>
      </trkpt>
      <trkpt lat="47.34617" lon="-2.34804">
        <ele>-32</ele>
        <time>2022-06-16T08:18:48.000Z</time>
      </trkpt>
      <trkpt lat="47.34633" lon="-2.34765">
        <ele>-32</ele>
        <time>2022-06-16T08:18:53.000Z</time>
      </trkpt>
      <trkpt lat="47.34634" lon="-2.34756">
        <ele>-32</ele>
        <time>2022-06-16T08:18:54.000Z</time>
      </trkpt>
      <trkpt lat="47.34636" lon="-2.34732">
        <ele>-32</ele>
        <time>2022-06-16T08:18:57.000Z</time>
      </trkpt>
      <trkpt lat="47.34637" lon="-2.34714">
        <ele>-32</ele>
        <time>2022-06-16T08:18:59.000Z</time>
      </trkpt>
      <trkpt lat="47.34636" lon="-2.34696">
        <ele>-32</ele>
        <time>2022-06-16T08:19:01.000Z</time>
      </trkpt>
      <trkpt lat="47.34633" lon="-2.34673">
        <ele>-32</ele>
        <time>2022-06-16T08:19:04.000Z</time>
      </trkpt>
      <trkpt lat="47.34631" lon="-2.34666">
        <ele>-32</ele>
        <time>2022-06-16T08:19:05.000Z</time>
      </trkpt>
      <trkpt lat="47.34626" lon="-2.34645">
        <ele>-32</ele>
        <time>2022-06-16T08:19:08.000Z</time>
      </trkpt>
      <trkpt lat="47.34622" lon="-2.34619">
        <ele>-31.39999961853</ele>
        <time>2022-06-16T08:19:12.000Z</time>
      </trkpt>
      <trkpt lat="47.34621" lon="-2.34613">
        <ele>-31</ele>
        <time>2022-06-16T08:19:13.000Z</time>
      </trkpt>
      <trkpt lat="47.3462" lon="-2.34606">
        <ele>-30.60000038147</ele>
        <time>2022-06-16T08:19:14.000Z</time>
      </trkpt>
      <trkpt lat="47.34619" lon="-2.34599">
        <ele>-30.200000762939</ele>
        <time>2022-06-16T08:19:15.000Z</time>
      </trkpt>
      <trkpt lat="47.34618" lon="-2.34593">
        <ele>-29.60000038147</ele>
        <time>2022-06-16T08:19:16.000Z</time>
      </trkpt>
      <trkpt lat="47.34616" lon="-2.3458">
        <ele>-29.60000038147</ele>
        <time>2022-06-16T08:19:18.000Z</time>
      </trkpt>
      <trkpt lat="47.34614" lon="-2.34566">
        <ele>-29.200000762939</ele>
        <time>2022-06-16T08:19:20.000Z</time>
      </trkpt>
      <trkpt lat="47.34614" lon="-2.3456">
        <ele>-28.799999237061</ele>
        <time>2022-06-16T08:19:21.000Z</time>
      </trkpt>
      <trkpt lat="47.34613" lon="-2.34553">
        <ele>-28.39999961853</ele>
        <time>2022-06-16T08:19:22.000Z</time>
      </trkpt>
      <trkpt lat="47.34612" lon="-2.34547">
        <ele>-28</ele>
        <time>2022-06-16T08:19:23.000Z</time>
      </trkpt>
      <trkpt lat="47.34611" lon="-2.34542">
        <ele>-27.60000038147</ele>
        <time>2022-06-16T08:19:24.000Z</time>
      </trkpt>
      <trkpt lat="47.34612" lon="-2.34531">
        <ele>-27.60000038147</ele>
        <time>2022-06-16T08:19:26.000Z</time>
      </trkpt>
      <trkpt lat="47.34615" lon="-2.34527">
        <ele>-27.60000038147</ele>
        <time>2022-06-16T08:19:27.000Z</time>
      </trkpt>
      <trkpt lat="47.34628" lon="-2.34524">
        <ele>-27.60000038147</ele>
        <time>2022-06-16T08:19:30.000Z</time>
      </trkpt>
      <trkpt lat="47.34633" lon="-2.34523">
        <ele>-27.60000038147</ele>
        <time>2022-06-16T08:19:31.000Z</time>
      </trkpt>
      <trkpt lat="47.34657" lon="-2.34516">
        <ele>-27.60000038147</ele>
        <time>2022-06-16T08:19:37.000Z</time>
      </trkpt>
      <trkpt lat="47.34681" lon="-2.34509">
        <ele>-27.60000038147</ele>
        <time>2022-06-16T08:19:43.000Z</time>
      </trkpt>
      <trkpt lat="47.34709" lon="-2.34496">
        <ele>-27.60000038147</ele>
        <time>2022-06-16T08:19:50.000Z</time>
      </trkpt>
      <trkpt lat="47.34725" lon="-2.34489">
        <ele>-27.60000038147</ele>
        <time>2022-06-16T08:19:55.000Z</time>
      </trkpt>
      <trkpt lat="47.34747" lon="-2.34478">
        <ele>-27.60000038147</ele>
        <time>2022-06-16T08:20:01.000Z</time>
      </trkpt>
      <trkpt lat="47.3475" lon="-2.34474">
        <ele>-27.60000038147</ele>
        <time>2022-06-16T08:20:02.000Z</time>
      </trkpt>
      <trkpt lat="47.34752" lon="-2.34462">
        <ele>-27.60000038147</ele>
        <time>2022-06-16T08:20:04.000Z</time>
      </trkpt>
      <trkpt lat="47.34753" lon="-2.34457">
        <ele>-28</ele>
        <time>2022-06-16T08:20:05.000Z</time>
      </trkpt>
      <trkpt lat="47.34754" lon="-2.34452">
        <ele>-28.39999961853</ele>
        <time>2022-06-16T08:20:06.000Z</time>
      </trkpt>
      <trkpt lat="47.34755" lon="-2.34447">
        <ele>-29</ele>
        <time>2022-06-16T08:20:07.000Z</time>
      </trkpt>
      <trkpt lat="47.34757" lon="-2.34443">
        <ele>-29.39999961853</ele>
        <time>2022-06-16T08:20:08.000Z</time>
      </trkpt>
      <trkpt lat="47.34758" lon="-2.34439">
        <ele>-29.799999237061</ele>
        <time>2022-06-16T08:20:09.000Z</time>
      </trkpt>
      <trkpt lat="47.34767" lon="-2.3442">
        <ele>-29.799999237061</ele>
        <time>2022-06-16T08:20:14.000Z</time>
      </trkpt>
      <trkpt lat="47.34779" lon="-2.34398">
        <ele>-29.799999237061</ele>
        <time>2022-06-16T08:20:20.000Z</time>
      </trkpt>
      <trkpt lat="47.34786" lon="-2.34385">
        <ele>-29.799999237061</ele>
        <time>2022-06-16T08:20:24.000Z</time>
      </trkpt>
      <trkpt lat="47.34789" lon="-2.34384">
        <ele>-29.799999237061</ele>
        <time>2022-06-16T08:20:25.000Z</time>
      </trkpt>
      <trkpt lat="47.34799" lon="-2.34383">
        <ele>-29.39999961853</ele>
        <time>2022-06-16T08:20:28.000Z</time>
      </trkpt>
      <trkpt lat="47.34802" lon="-2.34382">
        <ele>-28.799999237061</ele>
        <time>2022-06-16T08:20:29.000Z</time>
      </trkpt>
      <trkpt lat="47.34806" lon="-2.34382">
        <ele>-28.39999961853</ele>
        <time>2022-06-16T08:20:30.000Z</time>
      </trkpt>
      <trkpt lat="47.3481" lon="-2.34381">
        <ele>-28</ele>
        <time>2022-06-16T08:20:31.000Z</time>
      </trkpt>
      <trkpt lat="47.34814" lon="-2.34381">
        <ele>-27.60000038147</ele>
        <time>2022-06-16T08:20:32.000Z</time>
      </trkpt>
      <trkpt lat="47.34837" lon="-2.34377">
        <ele>-27.60000038147</ele>
        <time>2022-06-16T08:20:38.000Z</time>
      </trkpt>
      <trkpt lat="47.34854" lon="-2.34375">
        <ele>-27.60000038147</ele>
        <time>2022-06-16T08:20:43.000Z</time>
      </trkpt>
      <trkpt lat="47.34865" lon="-2.34374">
        <ele>-27.60000038147</ele>
        <time>2022-06-16T08:20:46.000Z</time>
      </trkpt>
      <trkpt lat="47.3487" lon="-2.34373">
        <ele>-27.60000038147</ele>
        <time>2022-06-16T08:20:47.000Z</time>
      </trkpt>
      <trkpt lat="47.34907" lon="-2.34371">
        <ele>-27.60000038147</ele>
        <time>2022-06-16T08:20:54.000Z</time>
      </trkpt>
      <trkpt lat="47.34923" lon="-2.34367">
        <ele>-27.60000038147</ele>
        <time>2022-06-16T08:20:57.000Z</time>
      </trkpt>
      <trkpt lat="47.34934" lon="-2.34369">
        <ele>-27.60000038147</ele>
        <time>2022-06-16T08:20:59.000Z</time>
      </trkpt>
      <trkpt lat="47.34938" lon="-2.34369">
        <ele>-28</ele>
        <time>2022-06-16T08:21:00.000Z</time>
      </trkpt>
      <trkpt lat="47.34943" lon="-2.3437">
        <ele>-28.39999961853</ele>
        <time>2022-06-16T08:21:01.000Z</time>
      </trkpt>
      <trkpt lat="47.34947" lon="-2.3437">
        <ele>-29.200000762939</ele>
        <time>2022-06-16T08:21:02.000Z</time>
      </trkpt>
      <trkpt lat="47.34952" lon="-2.3437">
        <ele>-29.60000038147</ele>
        <time>2022-06-16T08:21:03.000Z</time>
      </trkpt>
      <trkpt lat="47.34961" lon="-2.3437">
        <ele>-29.60000038147</ele>
        <time>2022-06-16T08:21:05.000Z</time>
      </trkpt>
      <trkpt lat="47.3497" lon="-2.3437">
        <ele>-29.60000038147</ele>
        <time>2022-06-16T08:21:07.000Z</time>
      </trkpt>
      <trkpt lat="47.34974" lon="-2.3437">
        <ele>-29.60000038147</ele>
        <time>2022-06-16T08:21:08.000Z</time>
      </trkpt>
      <trkpt lat="47.34989" lon="-2.34373">
        <ele>-29.60000038147</ele>
        <time>2022-06-16T08:21:12.000Z</time>
      </trkpt>
      <trkpt lat="47.34991" lon="-2.34384">
        <ele>-29.60000038147</ele>
        <time>2022-06-16T08:21:16.000Z</time>
      </trkpt>
      <trkpt lat="47.34991" lon="-2.34387">
        <ele>-29.60000038147</ele>
        <time>2022-06-16T08:21:17.000Z</time>
      </trkpt>
      <trkpt lat="47.34996" lon="-2.34404">
        <ele>-30</ele>
        <time>2022-06-16T08:21:23.000Z</time>
      </trkpt>
      <trkpt lat="47.34997" lon="-2.3441">
        <ele>-30.60000038147</ele>
        <time>2022-06-16T08:21:24.000Z</time>
      </trkpt>
      <trkpt lat="47.34998" lon="-2.34416">
        <ele>-31</ele>
        <time>2022-06-16T08:21:25.000Z</time>
      </trkpt>
      <trkpt lat="47.35" lon="-2.34422">
        <ele>-31.39999961853</ele>
        <time>2022-06-16T08:21:26.000Z</time>
      </trkpt>
      <trkpt lat="47.35001" lon="-2.34428">
        <ele>-31.799999237061</ele>
        <time>2022-06-16T08:21:27.000Z</time>
      </trkpt>
      <trkpt lat="47.35007" lon="-2.3445">
        <ele>-32.200000762939</ele>
        <time>2022-06-16T08:21:31.000Z</time>
      </trkpt>
      <trkpt lat="47.35009" lon="-2.34454">
        <ele>-32.599998474121</ele>
        <time>2022-06-16T08:21:32.000Z</time>
      </trkpt>
      <trkpt lat="47.3501" lon="-2.34457">
        <ele>-33.200000762939</ele>
        <time>2022-06-16T08:21:33.000Z</time>
      </trkpt>
      <trkpt lat="47.35012" lon="-2.3446">
        <ele>-33.599998474121</ele>
        <time>2022-06-16T08:21:34.000Z</time>
      </trkpt>
      <trkpt lat="47.35014" lon="-2.34462">
        <ele>-34</ele>
        <time>2022-06-16T08:21:35.000Z</time>
      </trkpt>
      <trkpt lat="47.35016" lon="-2.34466">
        <ele>-34</ele>
        <time>2022-06-16T08:21:36.000Z</time>
      </trkpt>
      <trkpt lat="47.35025" lon="-2.34471">
        <ele>-34.400001525879</ele>
        <time>2022-06-16T08:21:40.000Z</time>
      </trkpt>
      <trkpt lat="47.35028" lon="-2.34473">
        <ele>-35</ele>
        <time>2022-06-16T08:21:41.000Z</time>
      </trkpt>
      <trkpt lat="47.3503" lon="-2.34474">
        <ele>-35.400001525879</ele>
        <time>2022-06-16T08:21:42.000Z</time>
      </trkpt>
      <trkpt lat="47.35033" lon="-2.34476">
        <ele>-35.799999237061</ele>
        <time>2022-06-16T08:21:43.000Z</time>
      </trkpt>
      <trkpt lat="47.35034" lon="-2.34479">
        <ele>-36.400001525879</ele>
        <time>2022-06-16T08:21:44.000Z</time>
      </trkpt>
      <trkpt lat="47.35035" lon="-2.3448">
        <ele>-36.400001525879</ele>
        <time>2022-06-16T08:21:45.000Z</time>
      </trkpt>
      <trkpt lat="47.35036" lon="-2.34482">
        <ele>-36.799999237061</ele>
        <time>2022-06-16T08:21:46.000Z</time>
      </trkpt>
      <trkpt lat="47.35037" lon="-2.34483">
        <ele>-37.200000762939</ele>
        <time>2022-06-16T08:21:47.000Z</time>
      </trkpt>
      <trkpt lat="47.35037" lon="-2.34485">
        <ele>-37.599998474121</ele>
        <time>2022-06-16T08:21:48.000Z</time>
      </trkpt>
      <trkpt lat="47.35037" lon="-2.34486">
        <ele>-38</ele>
        <time>2022-06-16T08:21:49.000Z</time>
      </trkpt>
      <trkpt lat="47.35063" lon="-2.34497">
        <ele>-37</ele>
        <time>2022-06-16T08:29:07.000Z</time>
      </trkpt>
      <trkpt lat="47.35064" lon="-2.34498">
        <ele>-36.599998474121</ele>
        <time>2022-06-16T08:29:08.000Z</time>
      </trkpt>
      <trkpt lat="47.35065" lon="-2.345">
        <ele>-36.200000762939</ele>
        <time>2022-06-16T08:29:09.000Z</time>
      </trkpt>
      <trkpt lat="47.35071" lon="-2.34513">
        <ele>-35.799999237061</ele>
        <time>2022-06-16T08:29:15.000Z</time>
      </trkpt>
      <trkpt lat="47.35072" lon="-2.34515">
        <ele>-35.400001525879</ele>
        <time>2022-06-16T08:29:16.000Z</time>
      </trkpt>
      <trkpt lat="47.35072" lon="-2.34517">
        <ele>-34.599998474121</ele>
        <time>2022-06-16T08:29:17.000Z</time>
      </trkpt>
      <trkpt lat="47.35073" lon="-2.34519">
        <ele>-34.200000762939</ele>
        <time>2022-06-16T08:29:18.000Z</time>
      </trkpt>
      <trkpt lat="47.35077" lon="-2.34525">
        <ele>-34.200000762939</ele>
        <time>2022-06-16T08:29:21.000Z</time>
      </trkpt>
      <trkpt lat="47.3508" lon="-2.34531">
        <ele>-33.799999237061</ele>
        <time>2022-06-16T08:29:23.000Z</time>
      </trkpt>
      <trkpt lat="47.35082" lon="-2.34535">
        <ele>-33.200000762939</ele>
        <time>2022-06-16T08:29:24.000Z</time>
      </trkpt>
      <trkpt lat="47.35084" lon="-2.34536">
        <ele>-32.799999237061</ele>
        <time>2022-06-16T08:29:25.000Z</time>
      </trkpt>
      <trkpt lat="47.35086" lon="-2.34537">
        <ele>-32.400001525879</ele>
        <time>2022-06-16T08:29:26.000Z</time>
      </trkpt>
      <trkpt lat="47.35089" lon="-2.34538">
        <ele>-32</ele>
        <time>2022-06-16T08:29:27.000Z</time>
      </trkpt>
      <trkpt lat="47.35103" lon="-2.34538">
        <ele>-32</ele>
        <time>2022-06-16T08:29:33.000Z</time>
      </trkpt>
      <trkpt lat="47.35106" lon="-2.34536">
        <ele>-32</ele>
        <time>2022-06-16T08:29:35.000Z</time>
      </trkpt>
      <trkpt lat="47.35108" lon="-2.3453">
        <ele>-32</ele>
        <time>2022-06-16T08:29:38.000Z</time>
      </trkpt>
      <trkpt lat="47.35108" lon="-2.34527">
        <ele>-32</ele>
        <time>2022-06-16T08:29:39.000Z</time>
      </trkpt>
      <trkpt lat="47.35105" lon="-2.34515">
        <ele>-32</ele>
        <time>2022-06-16T08:29:43.000Z</time>
      </trkpt>
      <trkpt lat="47.3509" lon="-2.34495">
        <ele>-32</ele>
        <time>2022-06-16T08:29:50.000Z</time>
      </trkpt>
      <trkpt lat="47.3508" lon="-2.34483">
        <ele>-32.400001525879</ele>
        <time>2022-06-16T08:29:54.000Z</time>
      </trkpt>
      <trkpt lat="47.35077" lon="-2.34478">
        <ele>-33</ele>
        <time>2022-06-16T08:29:55.000Z</time>
      </trkpt>
      <trkpt lat="47.35075" lon="-2.34474">
        <ele>-33.400001525879</ele>
        <time>2022-06-16T08:29:56.000Z</time>
      </trkpt>
      <trkpt lat="47.35074" lon="-2.34469">
        <ele>-33.799999237061</ele>
        <time>2022-06-16T08:29:57.000Z</time>
      </trkpt>
      <trkpt lat="47.35073" lon="-2.34465">
        <ele>-34.200000762939</ele>
        <time>2022-06-16T08:29:58.000Z</time>
      </trkpt>
      <trkpt lat="47.3507" lon="-2.34458">
        <ele>-34.599998474121</ele>
        <time>2022-06-16T08:30:00.000Z</time>
      </trkpt>
      <trkpt lat="47.35069" lon="-2.34456">
        <ele>-35</ele>
        <time>2022-06-16T08:30:01.000Z</time>
      </trkpt>
      <trkpt lat="47.35067" lon="-2.34454">
        <ele>-35.400001525879</ele>
        <time>2022-06-16T08:30:02.000Z</time>
      </trkpt>
      <trkpt lat="47.35067" lon="-2.34452">
        <ele>-36</ele>
        <time>2022-06-16T08:30:03.000Z</time>
      </trkpt>
      <trkpt lat="47.35067" lon="-2.34452">
        <ele>-36.400001525879</ele>
        <time>2022-06-16T08:30:04.000Z</time>
      </trkpt>
      <trkpt lat="47.35067" lon="-2.34451">
        <ele>-36.400001525879</ele>
        <time>2022-06-16T08:30:05.000Z</time>
      </trkpt>
      <trkpt lat="47.3505" lon="-2.3442">
        <ele>-36.400001525879</ele>
        <time>2022-06-16T08:31:18.000Z</time>
      </trkpt>
      <trkpt lat="47.35046" lon="-2.34411">
        <ele>-36.400001525879</ele>
        <time>2022-06-16T08:31:21.000Z</time>
      </trkpt>
      <trkpt lat="47.35042" lon="-2.34404">
        <ele>-36</ele>
        <time>2022-06-16T08:31:23.000Z</time>
      </trkpt>
      <trkpt lat="47.35041" lon="-2.34401">
        <ele>-35.599998474121</ele>
        <time>2022-06-16T08:31:24.000Z</time>
      </trkpt>
      <trkpt lat="47.35039" lon="-2.34398">
        <ele>-35.200000762939</ele>
        <time>2022-06-16T08:31:25.000Z</time>
      </trkpt>
      <trkpt lat="47.35038" lon="-2.34395">
        <ele>-34.799999237061</ele>
        <time>2022-06-16T08:31:26.000Z</time>
      </trkpt>
      <trkpt lat="47.35037" lon="-2.34393">
        <ele>-34.400001525879</ele>
        <time>2022-06-16T08:31:27.000Z</time>
      </trkpt>
      <trkpt lat="47.35036" lon="-2.3439">
        <ele>-34.400001525879</ele>
        <time>2022-06-16T08:31:28.000Z</time>
      </trkpt>
      <trkpt lat="47.35028" lon="-2.34376">
        <ele>-33.799999237061</ele>
        <time>2022-06-16T08:31:33.000Z</time>
      </trkpt>
      <trkpt lat="47.35027" lon="-2.34373">
        <ele>-33.400001525879</ele>
        <time>2022-06-16T08:31:34.000Z</time>
      </trkpt>
      <trkpt lat="47.35025" lon="-2.3437">
        <ele>-33</ele>
        <time>2022-06-16T08:31:35.000Z</time>
      </trkpt>
      <trkpt lat="47.35024" lon="-2.34367">
        <ele>-32.599998474121</ele>
        <time>2022-06-16T08:31:36.000Z</time>
      </trkpt>
      <trkpt lat="47.35022" lon="-2.34364">
        <ele>-32.200000762939</ele>
        <time>2022-06-16T08:31:37.000Z</time>
      </trkpt>
      <trkpt lat="47.35017" lon="-2.34347">
        <ele>-32.200000762939</ele>
        <time>2022-06-16T08:31:42.000Z</time>
      </trkpt>
      <trkpt lat="47.35011" lon="-2.34334">
        <ele>-31.799999237061</ele>
        <time>2022-06-16T08:31:46.000Z</time>
      </trkpt>
      <trkpt lat="47.3501" lon="-2.3433">
        <ele>-31.200000762939</ele>
        <time>2022-06-16T08:31:47.000Z</time>
      </trkpt>
      <trkpt lat="47.35009" lon="-2.34327">
        <ele>-30.799999237061</ele>
        <time>2022-06-16T08:31:48.000Z</time>
      </trkpt>
      <trkpt lat="47.35007" lon="-2.34323">
        <ele>-30.39999961853</ele>
        <time>2022-06-16T08:31:49.000Z</time>
      </trkpt>
      <trkpt lat="47.35006" lon="-2.34318">
        <ele>-30</ele>
        <time>2022-06-16T08:31:50.000Z</time>
      </trkpt>
      <trkpt lat="47.35001" lon="-2.34297">
        <ele>-30</ele>
        <time>2022-06-16T08:31:55.000Z</time>
      </trkpt>
      <trkpt lat="47.34998" lon="-2.34289">
        <ele>-29.60000038147</ele>
        <time>2022-06-16T08:31:57.000Z</time>
      </trkpt>
      <trkpt lat="47.34996" lon="-2.34285">
        <ele>-29.200000762939</ele>
        <time>2022-06-16T08:31:58.000Z</time>
      </trkpt>
      <trkpt lat="47.34995" lon="-2.34281">
        <ele>-28.60000038147</ele>
        <time>2022-06-16T08:31:59.000Z</time>
      </trkpt>
      <trkpt lat="47.34994" lon="-2.34277">
        <ele>-28.200000762939</ele>
        <time>2022-06-16T08:32:00.000Z</time>
      </trkpt>
      <trkpt lat="47.34994" lon="-2.34273">
        <ele>-27.799999237061</ele>
        <time>2022-06-16T08:32:01.000Z</time>
      </trkpt>
      <trkpt lat="47.34993" lon="-2.34269">
        <ele>-27.799999237061</ele>
        <time>2022-06-16T08:32:02.000Z</time>
      </trkpt>
      <trkpt lat="47.34988" lon="-2.34254">
        <ele>-27.39999961853</ele>
        <time>2022-06-16T08:32:06.000Z</time>
      </trkpt>
      <trkpt lat="47.34987" lon="-2.34249">
        <ele>-27</ele>
        <time>2022-06-16T08:32:07.000Z</time>
      </trkpt>
      <trkpt lat="47.34986" lon="-2.34245">
        <ele>-26.60000038147</ele>
        <time>2022-06-16T08:32:08.000Z</time>
      </trkpt>
      <trkpt lat="47.34985" lon="-2.3424">
        <ele>-26.200000762939</ele>
        <time>2022-06-16T08:32:09.000Z</time>
      </trkpt>
      <trkpt lat="47.34983" lon="-2.34235">
        <ele>-25.799999237061</ele>
        <time>2022-06-16T08:32:10.000Z</time>
      </trkpt>
      <trkpt lat="47.3498" lon="-2.34218">
        <ele>-25.799999237061</ele>
        <time>2022-06-16T08:32:14.000Z</time>
      </trkpt>
      <trkpt lat="47.34974" lon="-2.34206">
        <ele>-25.39999961853</ele>
        <time>2022-06-16T08:32:18.000Z</time>
      </trkpt>
      <trkpt lat="47.34973" lon="-2.34203">
        <ele>-25</ele>
        <time>2022-06-16T08:32:19.000Z</time>
      </trkpt>
      <trkpt lat="47.34971" lon="-2.342">
        <ele>-24.39999961853</ele>
        <time>2022-06-16T08:32:20.000Z</time>
      </trkpt>
      <trkpt lat="47.34968" lon="-2.34197">
        <ele>-24</ele>
        <time>2022-06-16T08:32:21.000Z</time>
      </trkpt>
      <trkpt lat="47.34966" lon="-2.34197">
        <ele>-23.60000038147</ele>
        <time>2022-06-16T08:32:22.000Z</time>
      </trkpt>
      <trkpt lat="47.3496" lon="-2.34197">
        <ele>-23.60000038147</ele>
        <time>2022-06-16T08:32:24.000Z</time>
      </trkpt>
      <trkpt lat="47.34947" lon="-2.34201">
        <ele>-23.200000762939</ele>
        <time>2022-06-16T08:32:29.000Z</time>
      </trkpt>
      <trkpt lat="47.34944" lon="-2.34202">
        <ele>-22.799999237061</ele>
        <time>2022-06-16T08:32:30.000Z</time>
      </trkpt>
      <trkpt lat="47.34942" lon="-2.34202">
        <ele>-22.39999961853</ele>
        <time>2022-06-16T08:32:31.000Z</time>
      </trkpt>
      <trkpt lat="47.34939" lon="-2.34203">
        <ele>-22</ele>
        <time>2022-06-16T08:32:32.000Z</time>
      </trkpt>
      <trkpt lat="47.34937" lon="-2.34204">
        <ele>-21.39999961853</ele>
        <time>2022-06-16T08:32:33.000Z</time>
      </trkpt>
      <trkpt lat="47.34929" lon="-2.34207">
        <ele>-21.39999961853</ele>
        <time>2022-06-16T08:32:37.000Z</time>
      </trkpt>
      <trkpt lat="47.34922" lon="-2.34208">
        <ele>-21.39999961853</ele>
        <time>2022-06-16T08:32:40.000Z</time>
      </trkpt>
      <trkpt lat="47.3492" lon="-2.34208">
        <ele>-21</ele>
        <time>2022-06-16T08:32:41.000Z</time>
      </trkpt>
      <trkpt lat="47.34918" lon="-2.34208">
        <ele>-20.60000038147</ele>
        <time>2022-06-16T08:32:42.000Z</time>
      </trkpt>
      <trkpt lat="47.34915" lon="-2.34208">
        <ele>-20.200000762939</ele>
        <time>2022-06-16T08:32:43.000Z</time>
      </trkpt>
      <trkpt lat="47.34912" lon="-2.34208">
        <ele>-19.799999237061</ele>
        <time>2022-06-16T08:32:44.000Z</time>
      </trkpt>
      <trkpt lat="47.3491" lon="-2.34208">
        <ele>-19.39999961853</ele>
        <time>2022-06-16T08:32:45.000Z</time>
      </trkpt>
      <trkpt lat="47.34902" lon="-2.34206">
        <ele>-19.39999961853</ele>
        <time>2022-06-16T08:32:49.000Z</time>
      </trkpt>
      <trkpt lat="47.34892" lon="-2.34204">
        <ele>-19</ele>
        <time>2022-06-16T08:32:55.000Z</time>
      </trkpt>
      <trkpt lat="47.34891" lon="-2.34205">
        <ele>-18.60000038147</ele>
        <time>2022-06-16T08:32:56.000Z</time>
      </trkpt>
      <trkpt lat="47.3489" lon="-2.34206">
        <ele>-18.200000762939</ele>
        <time>2022-06-16T08:32:57.000Z</time>
      </trkpt>
      <trkpt lat="47.3489" lon="-2.34206">
        <ele>-17.799999237061</ele>
        <time>2022-06-16T08:32:58.000Z</time>
      </trkpt>
      <trkpt lat="47.34886" lon="-2.34208">
        <ele>-19.200000762939</ele>
        <time>2022-06-16T08:47:20.000Z</time>
      </trkpt>
      <trkpt lat="47.34879" lon="-2.34211">
        <ele>-19.200000762939</ele>
        <time>2022-06-16T08:47:25.000Z</time>
      </trkpt>
      <trkpt lat="47.34878" lon="-2.34214">
        <ele>-19.799999237061</ele>
        <time>2022-06-16T08:47:26.000Z</time>
      </trkpt>
      <trkpt lat="47.34876" lon="-2.34216">
        <ele>-20.200000762939</ele>
        <time>2022-06-16T08:47:27.000Z</time>
      </trkpt>
      <trkpt lat="47.34875" lon="-2.34219">
        <ele>-20.60000038147</ele>
        <time>2022-06-16T08:47:28.000Z</time>
      </trkpt>
      <trkpt lat="47.34874" lon="-2.34222">
        <ele>-21</ele>
        <time>2022-06-16T08:47:29.000Z</time>
      </trkpt>
      <trkpt lat="47.34872" lon="-2.34225">
        <ele>-21.39999961853</ele>
        <time>2022-06-16T08:47:30.000Z</time>
      </trkpt>
      <trkpt lat="47.34868" lon="-2.34232">
        <ele>-21.799999237061</ele>
        <time>2022-06-16T08:47:33.000Z</time>
      </trkpt>
      <trkpt lat="47.34866" lon="-2.34233">
        <ele>-22.200000762939</ele>
        <time>2022-06-16T08:47:34.000Z</time>
      </trkpt>
      <trkpt lat="47.34864" lon="-2.34235">
        <ele>-22.799999237061</ele>
        <time>2022-06-16T08:47:35.000Z</time>
      </trkpt>
      <trkpt lat="47.34862" lon="-2.34235">
        <ele>-23.200000762939</ele>
        <time>2022-06-16T08:47:36.000Z</time>
      </trkpt>
      <trkpt lat="47.3486" lon="-2.34235">
        <ele>-23.60000038147</ele>
        <time>2022-06-16T08:47:37.000Z</time>
      </trkpt>
      <trkpt lat="47.34848" lon="-2.34235">
        <ele>-24</ele>
        <time>2022-06-16T08:47:41.000Z</time>
      </trkpt>
      <trkpt lat="47.34844" lon="-2.34236">
        <ele>-24.39999961853</ele>
        <time>2022-06-16T08:47:42.000Z</time>
      </trkpt>
      <trkpt lat="47.34838" lon="-2.34236">
        <ele>-24.799999237061</ele>
        <time>2022-06-16T08:47:43.000Z</time>
      </trkpt>
      <trkpt lat="47.34833" lon="-2.34236">
        <ele>-25.39999961853</ele>
        <time>2022-06-16T08:47:44.000Z</time>
      </trkpt>
      <trkpt lat="47.34825" lon="-2.34235">
        <ele>-25.799999237061</ele>
        <time>2022-06-16T08:47:45.000Z</time>
      </trkpt>
      <trkpt lat="47.34819" lon="-2.34235">
        <ele>-25.799999237061</ele>
        <time>2022-06-16T08:47:46.000Z</time>
      </trkpt>
      <trkpt lat="47.34805" lon="-2.34236">
        <ele>-26.200000762939</ele>
        <time>2022-06-16T08:47:48.000Z</time>
      </trkpt>
      <trkpt lat="47.34798" lon="-2.34237">
        <ele>-26.60000038147</ele>
        <time>2022-06-16T08:47:49.000Z</time>
      </trkpt>
      <trkpt lat="47.34792" lon="-2.34238">
        <ele>-27</ele>
        <time>2022-06-16T08:47:50.000Z</time>
      </trkpt>
      <trkpt lat="47.34785" lon="-2.34239">
        <ele>-28</ele>
        <time>2022-06-16T08:47:51.000Z</time>
      </trkpt>
      <trkpt lat="47.34779" lon="-2.34241">
        <ele>-28</ele>
        <time>2022-06-16T08:47:52.000Z</time>
      </trkpt>
      <trkpt lat="47.34734" lon="-2.34251">
        <ele>-28.39999961853</ele>
        <time>2022-06-16T08:47:59.000Z</time>
      </trkpt>
      <trkpt lat="47.34727" lon="-2.34253">
        <ele>-28.799999237061</ele>
        <time>2022-06-16T08:48:00.000Z</time>
      </trkpt>
      <trkpt lat="47.34721" lon="-2.34255">
        <ele>-29.200000762939</ele>
        <time>2022-06-16T08:48:01.000Z</time>
      </trkpt>
      <trkpt lat="47.34715" lon="-2.34257">
        <ele>-29.60000038147</ele>
        <time>2022-06-16T08:48:02.000Z</time>
      </trkpt>
      <trkpt lat="47.34709" lon="-2.34258">
        <ele>-30</ele>
        <time>2022-06-16T08:48:03.000Z</time>
      </trkpt>
      <trkpt lat="47.34672" lon="-2.34262">
        <ele>-30</ele>
        <time>2022-06-16T08:48:09.000Z</time>
      </trkpt>
      <trkpt lat="47.34669" lon="-2.34261">
        <ele>-30</ele>
        <time>2022-06-16T08:48:10.000Z</time>
      </trkpt>
      <trkpt lat="47.34665" lon="-2.34251">
        <ele>-30</ele>
        <time>2022-06-16T08:48:12.000Z</time>
      </trkpt>
      <trkpt lat="47.34667" lon="-2.34233">
        <ele>-30</ele>
        <time>2022-06-16T08:48:15.000Z</time>
      </trkpt>
      <trkpt lat="47.34668" lon="-2.34227">
        <ele>-30</ele>
        <time>2022-06-16T08:48:16.000Z</time>
      </trkpt>
      <trkpt lat="47.34668" lon="-2.34207">
        <ele>-30.39999961853</ele>
        <time>2022-06-16T08:48:20.000Z</time>
      </trkpt>
      <trkpt lat="47.34668" lon="-2.34203">
        <ele>-31</ele>
        <time>2022-06-16T08:48:21.000Z</time>
      </trkpt>
      <trkpt lat="47.34668" lon="-2.34198">
        <ele>-31.39999961853</ele>
        <time>2022-06-16T08:48:22.000Z</time>
      </trkpt>
      <trkpt lat="47.34668" lon="-2.34193">
        <ele>-31.799999237061</ele>
        <time>2022-06-16T08:48:23.000Z</time>
      </trkpt>
      <trkpt lat="47.34668" lon="-2.34188">
        <ele>-32.200000762939</ele>
        <time>2022-06-16T08:48:24.000Z</time>
      </trkpt>
      <trkpt lat="47.34673" lon="-2.34172">
        <ele>-32.200000762939</ele>
        <time>2022-06-16T08:48:27.000Z</time>
      </trkpt>
      <trkpt lat="47.34676" lon="-2.3416">
        <ele>-32.200000762939</ele>
        <time>2022-06-16T08:48:29.000Z</time>
      </trkpt>
      <trkpt lat="47.34671" lon="-2.34151">
        <ele>-32.200000762939</ele>
        <time>2022-06-16T08:48:31.000Z</time>
      </trkpt>
      <trkpt lat="47.34657" lon="-2.34151">
        <ele>-32.200000762939</ele>
        <time>2022-06-16T08:48:34.000Z</time>
      </trkpt>
      <trkpt lat="47.34653" lon="-2.3415">
        <ele>-32.200000762939</ele>
        <time>2022-06-16T08:48:35.000Z</time>
      </trkpt>
      <trkpt lat="47.34642" lon="-2.34138">
        <ele>-32.200000762939</ele>
        <time>2022-06-16T08:48:38.000Z</time>
      </trkpt>
      <trkpt lat="47.34637" lon="-2.34133">
        <ele>-32.200000762939</ele>
        <time>2022-06-16T08:48:39.000Z</time>
      </trkpt>
      <trkpt lat="47.34627" lon="-2.34116">
        <ele>-32.200000762939</ele>
        <time>2022-06-16T08:48:42.000Z</time>
      </trkpt>
      <trkpt lat="47.34625" lon="-2.34109">
        <ele>-32.200000762939</ele>
        <time>2022-06-16T08:48:43.000Z</time>
      </trkpt>
      <trkpt lat="47.34618" lon="-2.34085">
        <ele>-32.599998474121</ele>
        <time>2022-06-16T08:48:46.000Z</time>
      </trkpt>
      <trkpt lat="47.34616" lon="-2.34077">
        <ele>-33.200000762939</ele>
        <time>2022-06-16T08:48:47.000Z</time>
      </trkpt>
      <trkpt lat="47.34613" lon="-2.34068">
        <ele>-33.599998474121</ele>
        <time>2022-06-16T08:48:48.000Z</time>
      </trkpt>
      <trkpt lat="47.34611" lon="-2.34059">
        <ele>-34</ele>
        <time>2022-06-16T08:48:49.000Z</time>
      </trkpt>
      <trkpt lat="47.34608" lon="-2.34051">
        <ele>-34.599998474121</ele>
        <time>2022-06-16T08:48:50.000Z</time>
      </trkpt>
      <trkpt lat="47.34598" lon="-2.34009">
        <ele>-34.599998474121</ele>
        <time>2022-06-16T08:48:55.000Z</time>
      </trkpt>
      <trkpt lat="47.34582" lon="-2.33954">
        <ele>-34.599998474121</ele>
        <time>2022-06-16T08:49:01.000Z</time>
      </trkpt>
      <trkpt lat="47.34576" lon="-2.33937">
        <ele>-34.599998474121</ele>
        <time>2022-06-16T08:49:03.000Z</time>
      </trkpt>
      <trkpt lat="47.34565" lon="-2.33905">
        <ele>-34.599998474121</ele>
        <time>2022-06-16T08:49:07.000Z</time>
      </trkpt>
      <trkpt lat="47.3455" lon="-2.33865">
        <ele>-34.599998474121</ele>
        <time>2022-06-16T08:49:13.000Z</time>
      </trkpt>
      <trkpt lat="47.34543" lon="-2.33817">
        <ele>-34.599998474121</ele>
        <time>2022-06-16T08:49:19.000Z</time>
      </trkpt>
      <trkpt lat="47.34538" lon="-2.33779">
        <ele>-34.599998474121</ele>
        <time>2022-06-16T08:49:24.000Z</time>
      </trkpt>
      <trkpt lat="47.34527" lon="-2.3372">
        <ele>-34.599998474121</ele>
        <time>2022-06-16T08:49:31.000Z</time>
      </trkpt>
      <trkpt lat="47.34518" lon="-2.33674">
        <ele>-34.599998474121</ele>
        <time>2022-06-16T08:49:37.000Z</time>
      </trkpt>
      <trkpt lat="47.34516" lon="-2.33667">
        <ele>-34.599998474121</ele>
        <time>2022-06-16T08:49:38.000Z</time>
      </trkpt>
      <trkpt lat="47.34513" lon="-2.33654">
        <ele>-34.599998474121</ele>
        <time>2022-06-16T08:49:40.000Z</time>
      </trkpt>
      <trkpt lat="47.3451" lon="-2.33641">
        <ele>-34.599998474121</ele>
        <time>2022-06-16T08:49:42.000Z</time>
      </trkpt>
      <trkpt lat="47.34505" lon="-2.33622">
        <ele>-34.599998474121</ele>
        <time>2022-06-16T08:49:45.000Z</time>
      </trkpt>
      <trkpt lat="47.34502" lon="-2.3361">
        <ele>-34.599998474121</ele>
        <time>2022-06-16T08:49:47.000Z</time>
      </trkpt>
      <trkpt lat="47.345" lon="-2.33599">
        <ele>-35</ele>
        <time>2022-06-16T08:49:49.000Z</time>
      </trkpt>
      <trkpt lat="47.34499" lon="-2.33593">
        <ele>-35.400001525879</ele>
        <time>2022-06-16T08:49:50.000Z</time>
      </trkpt>
      <trkpt lat="47.34498" lon="-2.3359">
        <ele>-35.799999237061</ele>
        <time>2022-06-16T08:49:51.000Z</time>
      </trkpt>
      <trkpt lat="47.34497" lon="-2.33588">
        <ele>-36.400001525879</ele>
        <time>2022-06-16T08:49:52.000Z</time>
      </trkpt>
      <trkpt lat="47.34497" lon="-2.33586">
        <ele>-36.799999237061</ele>
        <time>2022-06-16T08:49:53.000Z</time>
      </trkpt>
      <trkpt lat="47.34498" lon="-2.33586">
        <ele>-36.799999237061</ele>
        <time>2022-06-16T08:49:55.000Z</time>
      </trkpt>
      <trkpt lat="47.34496" lon="-2.33582">
        <ele>-36.799999237061</ele>
        <time>2022-06-16T08:49:59.000Z</time>
      </trkpt>
      <trkpt lat="47.34489" lon="-2.33562">
        <ele>-36.799999237061</ele>
        <time>2022-06-16T08:50:04.000Z</time>
      </trkpt>
      <trkpt lat="47.34486" lon="-2.33534">
        <ele>-36.799999237061</ele>
        <time>2022-06-16T08:50:10.000Z</time>
      </trkpt>
      <trkpt lat="47.34481" lon="-2.33501">
        <ele>-36.799999237061</ele>
        <time>2022-06-16T08:50:16.000Z</time>
      </trkpt>
      <trkpt lat="47.34475" lon="-2.3346">
        <ele>-36.799999237061</ele>
        <time>2022-06-16T08:50:23.000Z</time>
      </trkpt>
      <trkpt lat="47.34472" lon="-2.33432">
        <ele>-36.799999237061</ele>
        <time>2022-06-16T08:50:29.000Z</time>
      </trkpt>
      <trkpt lat="47.34468" lon="-2.33419">
        <ele>-37.200000762939</ele>
        <time>2022-06-16T08:50:32.000Z</time>
      </trkpt>
      <trkpt lat="47.34467" lon="-2.33415">
        <ele>-37.599998474121</ele>
        <time>2022-06-16T08:50:33.000Z</time>
      </trkpt>
      <trkpt lat="47.34467" lon="-2.3341">
        <ele>-38</ele>
        <time>2022-06-16T08:50:34.000Z</time>
      </trkpt>
      <trkpt lat="47.34466" lon="-2.33406">
        <ele>-38.400001525879</ele>
        <time>2022-06-16T08:50:35.000Z</time>
      </trkpt>
      <trkpt lat="47.34466" lon="-2.33401">
        <ele>-38.799999237061</ele>
        <time>2022-06-16T08:50:36.000Z</time>
      </trkpt>
      <trkpt lat="47.34465" lon="-2.33392">
        <ele>-38.799999237061</ele>
        <time>2022-06-16T08:50:38.000Z</time>
      </trkpt>
      <trkpt lat="47.3446" lon="-2.33356">
        <ele>-38.799999237061</ele>
        <time>2022-06-16T08:50:44.000Z</time>
      </trkpt>
      <trkpt lat="47.34457" lon="-2.33323">
        <ele>-38.799999237061</ele>
        <time>2022-06-16T08:50:50.000Z</time>
      </trkpt>
      <trkpt lat="47.34447" lon="-2.33304">
        <ele>-38.799999237061</ele>
        <time>2022-06-16T08:50:55.000Z</time>
      </trkpt>
      <trkpt lat="47.34431" lon="-2.33294">
        <ele>-38.799999237061</ele>
        <time>2022-06-16T08:51:00.000Z</time>
      </trkpt>
      <trkpt lat="47.34423" lon="-2.33273">
        <ele>-38.799999237061</ele>
        <time>2022-06-16T08:51:04.000Z</time>
      </trkpt>
      <trkpt lat="47.34413" lon="-2.33233">
        <ele>-38.799999237061</ele>
        <time>2022-06-16T08:51:10.000Z</time>
      </trkpt>
      <trkpt lat="47.34413" lon="-2.33225">
        <ele>-38.799999237061</ele>
        <time>2022-06-16T08:51:11.000Z</time>
      </trkpt>
      <trkpt lat="47.3441" lon="-2.33209">
        <ele>-39.200000762939</ele>
        <time>2022-06-16T08:51:13.000Z</time>
      </trkpt>
      <trkpt lat="47.34408" lon="-2.33202">
        <ele>-39.599998474121</ele>
        <time>2022-06-16T08:51:14.000Z</time>
      </trkpt>
      <trkpt lat="47.34406" lon="-2.33193">
        <ele>-40</ele>
        <time>2022-06-16T08:51:15.000Z</time>
      </trkpt>
      <trkpt lat="47.34404" lon="-2.33185">
        <ele>-40.400001525879</ele>
        <time>2022-06-16T08:51:16.000Z</time>
      </trkpt>
      <trkpt lat="47.34402" lon="-2.33176">
        <ele>-40.799999237061</ele>
        <time>2022-06-16T08:51:17.000Z</time>
      </trkpt>
      <trkpt lat="47.34394" lon="-2.33144">
        <ele>-40.799999237061</ele>
        <time>2022-06-16T08:51:21.000Z</time>
      </trkpt>
      <trkpt lat="47.34393" lon="-2.33136">
        <ele>-40.799999237061</ele>
        <time>2022-06-16T08:51:22.000Z</time>
      </trkpt>
      <trkpt lat="47.34387" lon="-2.33114">
        <ele>-41.200000762939</ele>
        <time>2022-06-16T08:51:25.000Z</time>
      </trkpt>
      <trkpt lat="47.34385" lon="-2.33107">
        <ele>-41.799999237061</ele>
        <time>2022-06-16T08:51:26.000Z</time>
      </trkpt>
      <trkpt lat="47.34383" lon="-2.331">
        <ele>-42.200000762939</ele>
        <time>2022-06-16T08:51:27.000Z</time>
      </trkpt>
      <trkpt lat="47.34381" lon="-2.33092">
        <ele>-42.599998474121</ele>
        <time>2022-06-16T08:51:28.000Z</time>
      </trkpt>
      <trkpt lat="47.3438" lon="-2.33086">
        <ele>-43</ele>
        <time>2022-06-16T08:51:29.000Z</time>
      </trkpt>
      <trkpt lat="47.34372" lon="-2.33063">
        <ele>-43</ele>
        <time>2022-06-16T08:51:33.000Z</time>
      </trkpt>
      <trkpt lat="47.34361" lon="-2.33045">
        <ele>-43</ele>
        <time>2022-06-16T08:51:38.000Z</time>
      </trkpt>
      <trkpt lat="47.34362" lon="-2.33041">
        <ele>-43</ele>
        <time>2022-06-16T08:51:41.000Z</time>
      </trkpt>
      <trkpt lat="47.3436" lon="-2.33042">
        <ele>-43</ele>
        <time>2022-06-16T08:52:11.000Z</time>
      </trkpt>
      <trkpt lat="47.34347" lon="-2.33046">
        <ele>-43</ele>
        <time>2022-06-16T08:52:16.000Z</time>
      </trkpt>
      <trkpt lat="47.34344" lon="-2.33047">
        <ele>-43</ele>
        <time>2022-06-16T08:52:17.000Z</time>
      </trkpt>
      <trkpt lat="47.34327" lon="-2.33051">
        <ele>-43</ele>
        <time>2022-06-16T08:52:21.000Z</time>
      </trkpt>
      <trkpt lat="47.34314" lon="-2.33052">
        <ele>-43</ele>
        <time>2022-06-16T08:52:24.000Z</time>
      </trkpt>
      <trkpt lat="47.34306" lon="-2.33055">
        <ele>-43</ele>
        <time>2022-06-16T08:52:26.000Z</time>
      </trkpt>
      <trkpt lat="47.34296" lon="-2.33051">
        <ele>-43</ele>
        <time>2022-06-16T08:52:30.000Z</time>
      </trkpt>
      <trkpt lat="47.34288" lon="-2.33035">
        <ele>-43</ele>
        <time>2022-06-16T08:52:34.000Z</time>
      </trkpt>
      <trkpt lat="47.34274" lon="-2.33006">
        <ele>-43</ele>
        <time>2022-06-16T08:52:40.000Z</time>
      </trkpt>
      <trkpt lat="47.34258" lon="-2.32971">
        <ele>-43</ele>
        <time>2022-06-16T08:52:47.000Z</time>
      </trkpt>
      <trkpt lat="47.34244" lon="-2.32941">
        <ele>-43</ele>
        <time>2022-06-16T08:52:54.000Z</time>
      </trkpt>
      <trkpt lat="47.34238" lon="-2.32937">
        <ele>-43</ele>
        <time>2022-06-16T08:52:57.000Z</time>
      </trkpt>
      <trkpt lat="47.34232" lon="-2.32932">
        <ele>-43</ele>
        <time>2022-06-16T08:52:59.000Z</time>
      </trkpt>
      <trkpt lat="47.34229" lon="-2.32928">
        <ele>-42.599998474121</ele>
        <time>2022-06-16T08:53:00.000Z</time>
      </trkpt>
      <trkpt lat="47.34227" lon="-2.32924">
        <ele>-42.200000762939</ele>
        <time>2022-06-16T08:53:01.000Z</time>
      </trkpt>
      <trkpt lat="47.34226" lon="-2.32921">
        <ele>-41.599998474121</ele>
        <time>2022-06-16T08:53:02.000Z</time>
      </trkpt>
      <trkpt lat="47.34223" lon="-2.32915">
        <ele>-41.200000762939</ele>
        <time>2022-06-16T08:53:03.000Z</time>
      </trkpt>
      <trkpt lat="47.34221" lon="-2.3291">
        <ele>-40.799999237061</ele>
        <time>2022-06-16T08:53:04.000Z</time>
      </trkpt>
      <trkpt lat="47.34212" lon="-2.32891">
        <ele>-40.799999237061</ele>
        <time>2022-06-16T08:53:09.000Z</time>
      </trkpt>
      <trkpt lat="47.3421" lon="-2.32888">
        <ele>-40.799999237061</ele>
        <time>2022-06-16T08:53:10.000Z</time>
      </trkpt>
      <trkpt lat="47.34202" lon="-2.32874">
        <ele>-40.400001525879</ele>
        <time>2022-06-16T08:53:14.000Z</time>
      </trkpt>
      <trkpt lat="47.34199" lon="-2.3287">
        <ele>-40</ele>
        <time>2022-06-16T08:53:15.000Z</time>
      </trkpt>
      <trkpt lat="47.34197" lon="-2.32867">
        <ele>-39.599998474121</ele>
        <time>2022-06-16T08:53:16.000Z</time>
      </trkpt>
      <trkpt lat="47.34195" lon="-2.32864">
        <ele>-39.200000762939</ele>
        <time>2022-06-16T08:53:17.000Z</time>
      </trkpt>
      <trkpt lat="47.34193" lon="-2.32861">
        <ele>-38.599998474121</ele>
        <time>2022-06-16T08:53:18.000Z</time>
      </trkpt>
      <trkpt lat="47.34183" lon="-2.3285">
        <ele>-38.599998474121</ele>
        <time>2022-06-16T08:53:22.000Z</time>
      </trkpt>
      <trkpt lat="47.34172" lon="-2.3284">
        <ele>-38.599998474121</ele>
        <time>2022-06-16T08:53:28.000Z</time>
      </trkpt>
      <trkpt lat="47.34165" lon="-2.32824">
        <ele>-38.599998474121</ele>
        <time>2022-06-16T08:53:33.000Z</time>
      </trkpt>
      <trkpt lat="47.34164" lon="-2.32821">
        <ele>-38.200000762939</ele>
        <time>2022-06-16T08:53:34.000Z</time>
      </trkpt>
      <trkpt lat="47.34163" lon="-2.32818">
        <ele>-37.799999237061</ele>
        <time>2022-06-16T08:53:35.000Z</time>
      </trkpt>
      <trkpt lat="47.34163" lon="-2.32814">
        <ele>-37.400001525879</ele>
        <time>2022-06-16T08:53:36.000Z</time>
      </trkpt>
      <trkpt lat="47.34163" lon="-2.32809">
        <ele>-37</ele>
        <time>2022-06-16T08:53:37.000Z</time>
      </trkpt>
      <trkpt lat="47.34163" lon="-2.32805">
        <ele>-36.599998474121</ele>
        <time>2022-06-16T08:53:38.000Z</time>
      </trkpt>
      <trkpt lat="47.34159" lon="-2.32787">
        <ele>-36.599998474121</ele>
        <time>2022-06-16T08:53:43.000Z</time>
      </trkpt>
      <trkpt lat="47.34156" lon="-2.32753">
        <ele>-36.599998474121</ele>
        <time>2022-06-16T08:53:51.000Z</time>
      </trkpt>
      <trkpt lat="47.34157" lon="-2.32744">
        <ele>-36.599998474121</ele>
        <time>2022-06-16T08:53:55.000Z</time>
      </trkpt>
      <trkpt lat="47.34157" lon="-2.32737">
        <ele>-36.599998474121</ele>
        <time>2022-06-16T08:54:18.000Z</time>
      </trkpt>
      <trkpt lat="47.34159" lon="-2.32715">
        <ele>-36.599998474121</ele>
        <time>2022-06-16T08:54:23.000Z</time>
      </trkpt>
      <trkpt lat="47.34157" lon="-2.32677">
        <ele>-36.599998474121</ele>
        <time>2022-06-16T08:54:29.000Z</time>
      </trkpt>
      <trkpt lat="47.34157" lon="-2.32658">
        <ele>-36.599998474121</ele>
        <time>2022-06-16T08:54:32.000Z</time>
      </trkpt>
      <trkpt lat="47.34157" lon="-2.32644">
        <ele>-36.599998474121</ele>
        <time>2022-06-16T08:54:34.000Z</time>
      </trkpt>
      <trkpt lat="47.34153" lon="-2.326">
        <ele>-36.599998474121</ele>
        <time>2022-06-16T08:54:41.000Z</time>
      </trkpt>
      <trkpt lat="47.34155" lon="-2.32573">
        <ele>-36.599998474121</ele>
        <time>2022-06-16T08:54:46.000Z</time>
      </trkpt>
      <trkpt lat="47.34154" lon="-2.32566">
        <ele>-36.599998474121</ele>
        <time>2022-06-16T08:54:47.000Z</time>
      </trkpt>
      <trkpt lat="47.34153" lon="-2.32543">
        <ele>-36.599998474121</ele>
        <time>2022-06-16T08:54:50.000Z</time>
      </trkpt>
      <trkpt lat="47.34147" lon="-2.3248">
        <ele>-36.599998474121</ele>
        <time>2022-06-16T08:54:58.000Z</time>
      </trkpt>
      <trkpt lat="47.34136" lon="-2.32433">
        <ele>-36.599998474121</ele>
        <time>2022-06-16T08:55:04.000Z</time>
      </trkpt>
      <trkpt lat="47.34119" lon="-2.32376">
        <ele>-36.599998474121</ele>
        <time>2022-06-16T08:55:11.000Z</time>
      </trkpt>
      <trkpt lat="47.34109" lon="-2.32345">
        <ele>-36.599998474121</ele>
        <time>2022-06-16T08:55:15.000Z</time>
      </trkpt>
      <trkpt lat="47.34102" lon="-2.32322">
        <ele>-36.599998474121</ele>
        <time>2022-06-16T08:55:18.000Z</time>
      </trkpt>
      <trkpt lat="47.3409" lon="-2.32266">
        <ele>-37.200000762939</ele>
        <time>2022-06-16T08:55:24.000Z</time>
      </trkpt>
      <trkpt lat="47.34087" lon="-2.32256">
        <ele>-37.599998474121</ele>
        <time>2022-06-16T08:55:25.000Z</time>
      </trkpt>
      <trkpt lat="47.34084" lon="-2.32247">
        <ele>-38</ele>
        <time>2022-06-16T08:55:26.000Z</time>
      </trkpt>
      <trkpt lat="47.3408" lon="-2.32238">
        <ele>-38.599998474121</ele>
        <time>2022-06-16T08:55:27.000Z</time>
      </trkpt>
      <trkpt lat="47.34075" lon="-2.3223">
        <ele>-39</ele>
        <time>2022-06-16T08:55:28.000Z</time>
      </trkpt>
      <trkpt lat="47.34069" lon="-2.32224">
        <ele>-39</ele>
        <time>2022-06-16T08:55:29.000Z</time>
      </trkpt>
      <trkpt lat="47.34049" lon="-2.32215">
        <ele>-39.400001525879</ele>
        <time>2022-06-16T08:55:32.000Z</time>
      </trkpt>
      <trkpt lat="47.34041" lon="-2.32215">
        <ele>-39.799999237061</ele>
        <time>2022-06-16T08:55:33.000Z</time>
      </trkpt>
      <trkpt lat="47.34034" lon="-2.32216">
        <ele>-40.200000762939</ele>
        <time>2022-06-16T08:55:34.000Z</time>
      </trkpt>
      <trkpt lat="47.34027" lon="-2.32216">
        <ele>-40.599998474121</ele>
        <time>2022-06-16T08:55:35.000Z</time>
      </trkpt>
      <trkpt lat="47.3402" lon="-2.32216">
        <ele>-41.200000762939</ele>
        <time>2022-06-16T08:55:36.000Z</time>
      </trkpt>
      <trkpt lat="47.33999" lon="-2.32218">
        <ele>-41.200000762939</ele>
        <time>2022-06-16T08:55:39.000Z</time>
      </trkpt>
      <trkpt lat="47.33971" lon="-2.3222">
        <ele>-41.200000762939</ele>
        <time>2022-06-16T08:55:43.000Z</time>
      </trkpt>
      <trkpt lat="47.33965" lon="-2.32219">
        <ele>-41.200000762939</ele>
        <time>2022-06-16T08:55:44.000Z</time>
      </trkpt>
      <trkpt lat="47.33953" lon="-2.32214">
        <ele>-41.200000762939</ele>
        <time>2022-06-16T08:55:46.000Z</time>
      </trkpt>
      <trkpt lat="47.33947" lon="-2.3221">
        <ele>-41.200000762939</ele>
        <time>2022-06-16T08:55:47.000Z</time>
      </trkpt>
      <trkpt lat="47.3393" lon="-2.322">
        <ele>-41.200000762939</ele>
        <time>2022-06-16T08:55:50.000Z</time>
      </trkpt>
      <trkpt lat="47.33924" lon="-2.32198">
        <ele>-41.200000762939</ele>
        <time>2022-06-16T08:55:51.000Z</time>
      </trkpt>
      <trkpt lat="47.33906" lon="-2.32199">
        <ele>-41.200000762939</ele>
        <time>2022-06-16T08:55:54.000Z</time>
      </trkpt>
      <trkpt lat="47.33899" lon="-2.322">
        <ele>-41.200000762939</ele>
        <time>2022-06-16T08:55:55.000Z</time>
      </trkpt>
      <trkpt lat="47.33887" lon="-2.32199">
        <ele>-41.200000762939</ele>
        <time>2022-06-16T08:55:57.000Z</time>
      </trkpt>
      <trkpt lat="47.33867" lon="-2.32197">
        <ele>-41.200000762939</ele>
        <time>2022-06-16T08:56:00.000Z</time>
      </trkpt>
      <trkpt lat="47.33829" lon="-2.32202">
        <ele>-41.200000762939</ele>
        <time>2022-06-16T08:56:06.000Z</time>
      </trkpt>
      <trkpt lat="47.33773" lon="-2.32213">
        <ele>-41.200000762939</ele>
        <time>2022-06-16T08:56:15.000Z</time>
      </trkpt>
      <trkpt lat="47.33737" lon="-2.32227">
        <ele>-41.200000762939</ele>
        <time>2022-06-16T08:56:21.000Z</time>
      </trkpt>
      <trkpt lat="47.33703" lon="-2.32248">
        <ele>-41.200000762939</ele>
        <time>2022-06-16T08:56:27.000Z</time>
      </trkpt>
      <trkpt lat="47.33657" lon="-2.32273">
        <ele>-41.200000762939</ele>
        <time>2022-06-16T08:56:35.000Z</time>
      </trkpt>
      <trkpt lat="47.33608" lon="-2.32286">
        <ele>-41.200000762939</ele>
        <time>2022-06-16T08:56:43.000Z</time>
      </trkpt>
      <trkpt lat="47.33565" lon="-2.32297">
        <ele>-41.200000762939</ele>
        <time>2022-06-16T08:56:50.000Z</time>
      </trkpt>
      <trkpt lat="47.33546" lon="-2.32302">
        <ele>-41.200000762939</ele>
        <time>2022-06-16T08:56:53.000Z</time>
      </trkpt>
      <trkpt lat="47.33533" lon="-2.32302">
        <ele>-41.200000762939</ele>
        <time>2022-06-16T08:56:55.000Z</time>
      </trkpt>
      <trkpt lat="47.33526" lon="-2.32303">
        <ele>-41.200000762939</ele>
        <time>2022-06-16T08:56:56.000Z</time>
      </trkpt>
      <trkpt lat="47.33504" lon="-2.32313">
        <ele>-41.200000762939</ele>
        <time>2022-06-16T08:56:59.000Z</time>
      </trkpt>
      <trkpt lat="47.33453" lon="-2.32341">
        <ele>-41.200000762939</ele>
        <time>2022-06-16T08:57:06.000Z</time>
      </trkpt>
      <trkpt lat="47.33433" lon="-2.32354">
        <ele>-41.200000762939</ele>
        <time>2022-06-16T08:57:09.000Z</time>
      </trkpt>
      <trkpt lat="47.3342" lon="-2.32364">
        <ele>-41.200000762939</ele>
        <time>2022-06-16T08:57:11.000Z</time>
      </trkpt>
      <trkpt lat="47.3337" lon="-2.32409">
        <ele>-41.200000762939</ele>
        <time>2022-06-16T08:57:19.000Z</time>
      </trkpt>
      <trkpt lat="47.33347" lon="-2.32434">
        <ele>-41.200000762939</ele>
        <time>2022-06-16T08:57:23.000Z</time>
      </trkpt>
      <trkpt lat="47.33343" lon="-2.32441">
        <ele>-41.200000762939</ele>
        <time>2022-06-16T08:57:24.000Z</time>
      </trkpt>
      <trkpt lat="47.33325" lon="-2.32456">
        <ele>-41.200000762939</ele>
        <time>2022-06-16T08:57:28.000Z</time>
      </trkpt>
      <trkpt lat="47.33298" lon="-2.32468">
        <ele>-41.200000762939</ele>
        <time>2022-06-16T08:57:33.000Z</time>
      </trkpt>
      <trkpt lat="47.33261" lon="-2.32485">
        <ele>-41.200000762939</ele>
        <time>2022-06-16T08:57:39.000Z</time>
      </trkpt>
      <trkpt lat="47.33212" lon="-2.32508">
        <ele>-41.200000762939</ele>
        <time>2022-06-16T08:57:47.000Z</time>
      </trkpt>
      <trkpt lat="47.33179" lon="-2.32522">
        <ele>-41.200000762939</ele>
        <time>2022-06-16T08:57:53.000Z</time>
      </trkpt>
      <trkpt lat="47.33159" lon="-2.32533">
        <ele>-41.200000762939</ele>
        <time>2022-06-16T08:57:57.000Z</time>
      </trkpt>
      <trkpt lat="47.33154" lon="-2.32537">
        <ele>-41.200000762939</ele>
        <time>2022-06-16T08:57:58.000Z</time>
      </trkpt>
      <trkpt lat="47.33122" lon="-2.32563">
        <ele>-41.200000762939</ele>
        <time>2022-06-16T08:58:04.000Z</time>
      </trkpt>
      <trkpt lat="47.33117" lon="-2.32567">
        <ele>-41.200000762939</ele>
        <time>2022-06-16T08:58:05.000Z</time>
      </trkpt>
      <trkpt lat="47.33084" lon="-2.32594">
        <ele>-41.200000762939</ele>
        <time>2022-06-16T08:58:11.000Z</time>
      </trkpt>
      <trkpt lat="47.33063" lon="-2.32611">
        <ele>-41.599998474121</ele>
        <time>2022-06-16T08:58:15.000Z</time>
      </trkpt>
      <trkpt lat="47.33057" lon="-2.32615">
        <ele>-42</ele>
        <time>2022-06-16T08:58:16.000Z</time>
      </trkpt>
      <trkpt lat="47.33052" lon="-2.32621">
        <ele>-42.400001525879</ele>
        <time>2022-06-16T08:58:17.000Z</time>
      </trkpt>
      <trkpt lat="47.33046" lon="-2.32626">
        <ele>-42.799999237061</ele>
        <time>2022-06-16T08:58:18.000Z</time>
      </trkpt>
      <trkpt lat="47.3304" lon="-2.32631">
        <ele>-43.200000762939</ele>
        <time>2022-06-16T08:58:19.000Z</time>
      </trkpt>
      <trkpt lat="47.33028" lon="-2.32638">
        <ele>-43.200000762939</ele>
        <time>2022-06-16T08:58:21.000Z</time>
      </trkpt>
      <trkpt lat="47.33023" lon="-2.32639">
        <ele>-43.200000762939</ele>
        <time>2022-06-16T08:58:22.000Z</time>
      </trkpt>
      <trkpt lat="47.33007" lon="-2.32631">
        <ele>-43.200000762939</ele>
        <time>2022-06-16T08:58:25.000Z</time>
      </trkpt>
      <trkpt lat="47.33001" lon="-2.32629">
        <ele>-43.599998474121</ele>
        <time>2022-06-16T08:58:26.000Z</time>
      </trkpt>
      <trkpt lat="47.32995" lon="-2.32629">
        <ele>-44</ele>
        <time>2022-06-16T08:58:27.000Z</time>
      </trkpt>
      <trkpt lat="47.32988" lon="-2.32631">
        <ele>-44.400001525879</ele>
        <time>2022-06-16T08:58:28.000Z</time>
      </trkpt>
      <trkpt lat="47.32983" lon="-2.32636">
        <ele>-44.799999237061</ele>
        <time>2022-06-16T08:58:29.000Z</time>
      </trkpt>
      <trkpt lat="47.32978" lon="-2.32639">
        <ele>-45.200000762939</ele>
        <time>2022-06-16T08:58:30.000Z</time>
      </trkpt>
      <trkpt lat="47.32973" lon="-2.32642">
        <ele>-45.200000762939</ele>
        <time>2022-06-16T08:58:31.000Z</time>
      </trkpt>
      <trkpt lat="47.32962" lon="-2.32645">
        <ele>-45.200000762939</ele>
        <time>2022-06-16T08:58:33.000Z</time>
      </trkpt>
      <trkpt lat="47.32943" lon="-2.32649">
        <ele>-45.200000762939</ele>
        <time>2022-06-16T08:58:36.000Z</time>
      </trkpt>
      <trkpt lat="47.32932" lon="-2.32647">
        <ele>-45.200000762939</ele>
        <time>2022-06-16T08:58:38.000Z</time>
      </trkpt>
      <trkpt lat="47.32926" lon="-2.32641">
        <ele>-45.200000762939</ele>
        <time>2022-06-16T08:58:40.000Z</time>
      </trkpt>
      <trkpt lat="47.32924" lon="-2.32635">
        <ele>-44.799999237061</ele>
        <time>2022-06-16T08:58:41.000Z</time>
      </trkpt>
      <trkpt lat="47.32923" lon="-2.32626">
        <ele>-44.400001525879</ele>
        <time>2022-06-16T08:58:42.000Z</time>
      </trkpt>
      <trkpt lat="47.32921" lon="-2.32617">
        <ele>-44</ele>
        <time>2022-06-16T08:58:43.000Z</time>
      </trkpt>
      <trkpt lat="47.32921" lon="-2.32608">
        <ele>-43.599998474121</ele>
        <time>2022-06-16T08:58:44.000Z</time>
      </trkpt>
      <trkpt lat="47.3292" lon="-2.32598">
        <ele>-43.200000762939</ele>
        <time>2022-06-16T08:58:45.000Z</time>
      </trkpt>
      <trkpt lat="47.32917" lon="-2.32562">
        <ele>-43.200000762939</ele>
        <time>2022-06-16T08:58:49.000Z</time>
      </trkpt>
      <trkpt lat="47.32915" lon="-2.32536">
        <ele>-43.200000762939</ele>
        <time>2022-06-16T08:58:52.000Z</time>
      </trkpt>
      <trkpt lat="47.32911" lon="-2.3252">
        <ele>-43.200000762939</ele>
        <time>2022-06-16T08:58:54.000Z</time>
      </trkpt>
      <trkpt lat="47.32897" lon="-2.32472">
        <ele>-43.200000762939</ele>
        <time>2022-06-16T08:59:00.000Z</time>
      </trkpt>
      <trkpt lat="47.32893" lon="-2.32465">
        <ele>-43.200000762939</ele>
        <time>2022-06-16T08:59:01.000Z</time>
      </trkpt>
      <trkpt lat="47.32872" lon="-2.32447">
        <ele>-43.200000762939</ele>
        <time>2022-06-16T08:59:05.000Z</time>
      </trkpt>
      <trkpt lat="47.32866" lon="-2.32444">
        <ele>-43.200000762939</ele>
        <time>2022-06-16T08:59:06.000Z</time>
      </trkpt>
      <trkpt lat="47.32833" lon="-2.32419">
        <ele>-43.200000762939</ele>
        <time>2022-06-16T08:59:12.000Z</time>
      </trkpt>
      <trkpt lat="47.32791" lon="-2.32378">
        <ele>-43.200000762939</ele>
        <time>2022-06-16T08:59:20.000Z</time>
      </trkpt>
      <trkpt lat="47.32758" lon="-2.32358">
        <ele>-43.200000762939</ele>
        <time>2022-06-16T08:59:26.000Z</time>
      </trkpt>
      <trkpt lat="47.32728" lon="-2.32338">
        <ele>-43.200000762939</ele>
        <time>2022-06-16T08:59:32.000Z</time>
      </trkpt>
      <trkpt lat="47.32692" lon="-2.32321">
        <ele>-43.200000762939</ele>
        <time>2022-06-16T08:59:39.000Z</time>
      </trkpt>
      <trkpt lat="47.32673" lon="-2.32316">
        <ele>-42.799999237061</ele>
        <time>2022-06-16T08:59:43.000Z</time>
      </trkpt>
      <trkpt lat="47.32668" lon="-2.32314">
        <ele>-42.400001525879</ele>
        <time>2022-06-16T08:59:44.000Z</time>
      </trkpt>
      <trkpt lat="47.32663" lon="-2.32313">
        <ele>-42</ele>
        <time>2022-06-16T08:59:45.000Z</time>
      </trkpt>
      <trkpt lat="47.32659" lon="-2.32312">
        <ele>-41.400001525879</ele>
        <time>2022-06-16T08:59:46.000Z</time>
      </trkpt>
      <trkpt lat="47.32654" lon="-2.32311">
        <ele>-41</ele>
        <time>2022-06-16T08:59:47.000Z</time>
      </trkpt>
      <trkpt lat="47.32622" lon="-2.32308">
        <ele>-41</ele>
        <time>2022-06-16T08:59:54.000Z</time>
      </trkpt>
      <trkpt lat="47.32591" lon="-2.32311">
        <ele>-41</ele>
        <time>2022-06-16T09:00:00.000Z</time>
      </trkpt>
      <trkpt lat="47.32563" lon="-2.32313">
        <ele>-41</ele>
        <time>2022-06-16T09:00:06.000Z</time>
      </trkpt>
      <trkpt lat="47.32538" lon="-2.32314">
        <ele>-41</ele>
        <time>2022-06-16T09:00:13.000Z</time>
      </trkpt>
      <trkpt lat="47.32535" lon="-2.32312">
        <ele>-41</ele>
        <time>2022-06-16T09:00:14.000Z</time>
      </trkpt>
      <trkpt lat="47.32534" lon="-2.32304">
        <ele>-41</ele>
        <time>2022-06-16T09:00:16.000Z</time>
      </trkpt>
      <trkpt lat="47.32537" lon="-2.32288">
        <ele>-41</ele>
        <time>2022-06-16T09:00:19.000Z</time>
      </trkpt>
      <trkpt lat="47.32548" lon="-2.32256">
        <ele>-41</ele>
        <time>2022-06-16T09:00:23.000Z</time>
      </trkpt>
      <trkpt lat="47.32554" lon="-2.32238">
        <ele>-41.400001525879</ele>
        <time>2022-06-16T09:00:25.000Z</time>
      </trkpt>
      <trkpt lat="47.32556" lon="-2.32228">
        <ele>-41.799999237061</ele>
        <time>2022-06-16T09:00:26.000Z</time>
      </trkpt>
      <trkpt lat="47.32559" lon="-2.32218">
        <ele>-42.400001525879</ele>
        <time>2022-06-16T09:00:27.000Z</time>
      </trkpt>
      <trkpt lat="47.32562" lon="-2.32209">
        <ele>-42.799999237061</ele>
        <time>2022-06-16T09:00:28.000Z</time>
      </trkpt>
      <trkpt lat="47.32564" lon="-2.32199">
        <ele>-43.200000762939</ele>
        <time>2022-06-16T09:00:29.000Z</time>
      </trkpt>
      <trkpt lat="47.3258" lon="-2.32148">
        <ele>-43.200000762939</ele>
        <time>2022-06-16T09:00:35.000Z</time>
      </trkpt>
      <trkpt lat="47.3259" lon="-2.32119">
        <ele>-43.200000762939</ele>
        <time>2022-06-16T09:00:39.000Z</time>
      </trkpt>
      <trkpt lat="47.32591" lon="-2.32112">
        <ele>-42.599998474121</ele>
        <time>2022-06-16T09:00:40.000Z</time>
      </trkpt>
      <trkpt lat="47.3259" lon="-2.32104">
        <ele>-42.200000762939</ele>
        <time>2022-06-16T09:00:41.000Z</time>
      </trkpt>
      <trkpt lat="47.32589" lon="-2.32098">
        <ele>-41.799999237061</ele>
        <time>2022-06-16T09:00:42.000Z</time>
      </trkpt>
      <trkpt lat="47.32587" lon="-2.32094">
        <ele>-41.400001525879</ele>
        <time>2022-06-16T09:00:43.000Z</time>
      </trkpt>
      <trkpt lat="47.32584" lon="-2.32091">
        <ele>-41</ele>
        <time>2022-06-16T09:00:44.000Z</time>
      </trkpt>
      <trkpt lat="47.32568" lon="-2.32093">
        <ele>-41</ele>
        <time>2022-06-16T09:00:47.000Z</time>
      </trkpt>
      <trkpt lat="47.32525" lon="-2.32097">
        <ele>-41</ele>
        <time>2022-06-16T09:00:54.000Z</time>
      </trkpt>
      <trkpt lat="47.32514" lon="-2.32098">
        <ele>-41</ele>
        <time>2022-06-16T09:00:56.000Z</time>
      </trkpt>
      <trkpt lat="47.32502" lon="-2.32089">
        <ele>-41</ele>
        <time>2022-06-16T09:00:59.000Z</time>
      </trkpt>
      <trkpt lat="47.32502" lon="-2.32072">
        <ele>-41</ele>
        <time>2022-06-16T09:01:02.000Z</time>
      </trkpt>
      <trkpt lat="47.32503" lon="-2.32057">
        <ele>-40.599998474121</ele>
        <time>2022-06-16T09:01:04.000Z</time>
      </trkpt>
      <trkpt lat="47.32503" lon="-2.32049">
        <ele>-40.200000762939</ele>
        <time>2022-06-16T09:01:05.000Z</time>
      </trkpt>
      <trkpt lat="47.32503" lon="-2.32041">
        <ele>-39.799999237061</ele>
        <time>2022-06-16T09:01:06.000Z</time>
      </trkpt>
      <trkpt lat="47.32502" lon="-2.32032">
        <ele>-39.400001525879</ele>
        <time>2022-06-16T09:01:07.000Z</time>
      </trkpt>
      <trkpt lat="47.32502" lon="-2.32023">
        <ele>-39</ele>
        <time>2022-06-16T09:01:08.000Z</time>
      </trkpt>
      <trkpt lat="47.32504" lon="-2.31967">
        <ele>-39</ele>
        <time>2022-06-16T09:01:14.000Z</time>
      </trkpt>
      <trkpt lat="47.3251" lon="-2.31915">
        <ele>-39</ele>
        <time>2022-06-16T09:01:20.000Z</time>
      </trkpt>
      <trkpt lat="47.32517" lon="-2.31865">
        <ele>-39</ele>
        <time>2022-06-16T09:01:26.000Z</time>
      </trkpt>
      <trkpt lat="47.3252" lon="-2.3183">
        <ele>-39</ele>
        <time>2022-06-16T09:01:30.000Z</time>
      </trkpt>
      <trkpt lat="47.32519" lon="-2.31814">
        <ele>-39</ele>
        <time>2022-06-16T09:01:32.000Z</time>
      </trkpt>
      <trkpt lat="47.32513" lon="-2.31745">
        <ele>-39</ele>
        <time>2022-06-16T09:01:40.000Z</time>
      </trkpt>
      <trkpt lat="47.32505" lon="-2.31661">
        <ele>-39</ele>
        <time>2022-06-16T09:01:49.000Z</time>
      </trkpt>
      <trkpt lat="47.32506" lon="-2.31653">
        <ele>-39</ele>
        <time>2022-06-16T09:01:50.000Z</time>
      </trkpt>
      <trkpt lat="47.32514" lon="-2.31638">
        <ele>-39</ele>
        <time>2022-06-16T09:01:52.000Z</time>
      </trkpt>
      <trkpt lat="47.32524" lon="-2.31624">
        <ele>-39</ele>
        <time>2022-06-16T09:01:54.000Z</time>
      </trkpt>
      <trkpt lat="47.3254" lon="-2.31604">
        <ele>-39</ele>
        <time>2022-06-16T09:01:57.000Z</time>
      </trkpt>
      <trkpt lat="47.32555" lon="-2.31585">
        <ele>-39</ele>
        <time>2022-06-16T09:02:00.000Z</time>
      </trkpt>
      <trkpt lat="47.32558" lon="-2.31568">
        <ele>-39</ele>
        <time>2022-06-16T09:02:02.000Z</time>
      </trkpt>
      <trkpt lat="47.32558" lon="-2.31552">
        <ele>-39</ele>
        <time>2022-06-16T09:02:04.000Z</time>
      </trkpt>
      <trkpt lat="47.32557" lon="-2.31535">
        <ele>-39</ele>
        <time>2022-06-16T09:02:06.000Z</time>
      </trkpt>
      <trkpt lat="47.32556" lon="-2.31478">
        <ele>-39</ele>
        <time>2022-06-16T09:02:13.000Z</time>
      </trkpt>
      <trkpt lat="47.32555" lon="-2.31461">
        <ele>-39</ele>
        <time>2022-06-16T09:02:15.000Z</time>
      </trkpt>
      <trkpt lat="47.32552" lon="-2.31437">
        <ele>-39</ele>
        <time>2022-06-16T09:02:18.000Z</time>
      </trkpt>
      <trkpt lat="47.32547" lon="-2.3141">
        <ele>-39</ele>
        <time>2022-06-16T09:02:23.000Z</time>
      </trkpt>
      <trkpt lat="47.32547" lon="-2.3141">
        <ele>-39</ele>
        <time>2022-06-16T09:02:24.000Z</time>
      </trkpt>
      <trkpt lat="47.32548" lon="-2.31408">
        <ele>-39</ele>
        <time>2022-06-16T09:02:29.000Z</time>
      </trkpt>
      <trkpt lat="47.32548" lon="-2.31404">
        <ele>-39</ele>
        <time>2022-06-16T09:02:30.000Z</time>
      </trkpt>
      <trkpt lat="47.32552" lon="-2.31384">
        <ele>-39</ele>
        <time>2022-06-16T09:02:33.000Z</time>
      </trkpt>
      <trkpt lat="47.32557" lon="-2.31335">
        <ele>-39</ele>
        <time>2022-06-16T09:02:39.000Z</time>
      </trkpt>
      <trkpt lat="47.32567" lon="-2.3131">
        <ele>-39</ele>
        <time>2022-06-16T09:02:42.000Z</time>
      </trkpt>
      <trkpt lat="47.32568" lon="-2.31301">
        <ele>-39</ele>
        <time>2022-06-16T09:02:43.000Z</time>
      </trkpt>
      <trkpt lat="47.3257" lon="-2.31281">
        <ele>-39</ele>
        <time>2022-06-16T09:02:45.000Z</time>
      </trkpt>
      <trkpt lat="47.32572" lon="-2.31223">
        <ele>-39</ele>
        <time>2022-06-16T09:02:51.000Z</time>
      </trkpt>
      <trkpt lat="47.32571" lon="-2.31214">
        <ele>-39</ele>
        <time>2022-06-16T09:02:52.000Z</time>
      </trkpt>
      <trkpt lat="47.32564" lon="-2.31203">
        <ele>-39</ele>
        <time>2022-06-16T09:02:54.000Z</time>
      </trkpt>
      <trkpt lat="47.32558" lon="-2.31182">
        <ele>-39</ele>
        <time>2022-06-16T09:02:57.000Z</time>
      </trkpt>
      <trkpt lat="47.32558" lon="-2.3115">
        <ele>-39</ele>
        <time>2022-06-16T09:03:01.000Z</time>
      </trkpt>
      <trkpt lat="47.32566" lon="-2.31083">
        <ele>-39</ele>
        <time>2022-06-16T09:03:09.000Z</time>
      </trkpt>
      <trkpt lat="47.32566" lon="-2.31056">
        <ele>-39</ele>
        <time>2022-06-16T09:03:12.000Z</time>
      </trkpt>
      <trkpt lat="47.32564" lon="-2.3104">
        <ele>-38.599998474121</ele>
        <time>2022-06-16T09:03:14.000Z</time>
      </trkpt>
      <trkpt lat="47.32563" lon="-2.31032">
        <ele>-38</ele>
        <time>2022-06-16T09:03:15.000Z</time>
      </trkpt>
      <trkpt lat="47.32561" lon="-2.31024">
        <ele>-37.599998474121</ele>
        <time>2022-06-16T09:03:16.000Z</time>
      </trkpt>
      <trkpt lat="47.3256" lon="-2.31016">
        <ele>-37.200000762939</ele>
        <time>2022-06-16T09:03:17.000Z</time>
      </trkpt>
      <trkpt lat="47.32559" lon="-2.31007">
        <ele>-36.799999237061</ele>
        <time>2022-06-16T09:03:18.000Z</time>
      </trkpt>
      <trkpt lat="47.32559" lon="-2.3099">
        <ele>-36.799999237061</ele>
        <time>2022-06-16T09:03:20.000Z</time>
      </trkpt>
      <trkpt lat="47.3256" lon="-2.30925">
        <ele>-36.799999237061</ele>
        <time>2022-06-16T09:03:27.000Z</time>
      </trkpt>
      <trkpt lat="47.32561" lon="-2.30874">
        <ele>-36.799999237061</ele>
        <time>2022-06-16T09:03:32.000Z</time>
      </trkpt>
      <trkpt lat="47.32557" lon="-2.30803">
        <ele>-36.799999237061</ele>
        <time>2022-06-16T09:03:39.000Z</time>
      </trkpt>
      <trkpt lat="47.32552" lon="-2.30733">
        <ele>-36.799999237061</ele>
        <time>2022-06-16T09:03:46.000Z</time>
      </trkpt>
      <trkpt lat="47.32551" lon="-2.30723">
        <ele>-36.799999237061</ele>
        <time>2022-06-16T09:03:47.000Z</time>
      </trkpt>
      <trkpt lat="47.32546" lon="-2.30693">
        <ele>-36.799999237061</ele>
        <time>2022-06-16T09:03:50.000Z</time>
      </trkpt>
      <trkpt lat="47.32545" lon="-2.30684">
        <ele>-36.799999237061</ele>
        <time>2022-06-16T09:03:51.000Z</time>
      </trkpt>
      <trkpt lat="47.32536" lon="-2.30633">
        <ele>-36.799999237061</ele>
        <time>2022-06-16T09:03:57.000Z</time>
      </trkpt>
      <trkpt lat="47.32529" lon="-2.30598">
        <ele>-36.799999237061</ele>
        <time>2022-06-16T09:04:01.000Z</time>
      </trkpt>
      <trkpt lat="47.32528" lon="-2.3059">
        <ele>-36.799999237061</ele>
        <time>2022-06-16T09:04:02.000Z</time>
      </trkpt>
      <trkpt lat="47.3252" lon="-2.30539">
        <ele>-36.799999237061</ele>
        <time>2022-06-16T09:04:08.000Z</time>
      </trkpt>
      <trkpt lat="47.32512" lon="-2.30491">
        <ele>-36.799999237061</ele>
        <time>2022-06-16T09:04:14.000Z</time>
      </trkpt>
      <trkpt lat="47.32501" lon="-2.30438">
        <ele>-36.799999237061</ele>
        <time>2022-06-16T09:04:21.000Z</time>
      </trkpt>
      <trkpt lat="47.32499" lon="-2.30416">
        <ele>-36.799999237061</ele>
        <time>2022-06-16T09:04:24.000Z</time>
      </trkpt>
      <trkpt lat="47.32502" lon="-2.30412">
        <ele>-36.799999237061</ele>
        <time>2022-06-16T09:04:25.000Z</time>
      </trkpt>
      <trkpt lat="47.32518" lon="-2.30406">
        <ele>-36.799999237061</ele>
        <time>2022-06-16T09:04:28.000Z</time>
      </trkpt>
      <trkpt lat="47.32524" lon="-2.30404">
        <ele>-36.799999237061</ele>
        <time>2022-06-16T09:04:29.000Z</time>
      </trkpt>
      <trkpt lat="47.32539" lon="-2.30395">
        <ele>-36.799999237061</ele>
        <time>2022-06-16T09:04:32.000Z</time>
      </trkpt>
      <trkpt lat="47.32542" lon="-2.30389">
        <ele>-36.799999237061</ele>
        <time>2022-06-16T09:04:33.000Z</time>
      </trkpt>
      <trkpt lat="47.3254" lon="-2.30368">
        <ele>-36.799999237061</ele>
        <time>2022-06-16T09:04:36.000Z</time>
      </trkpt>
      <trkpt lat="47.32538" lon="-2.30361">
        <ele>-36.799999237061</ele>
        <time>2022-06-16T09:04:37.000Z</time>
      </trkpt>
      <trkpt lat="47.32532" lon="-2.30333">
        <ele>-36.799999237061</ele>
        <time>2022-06-16T09:04:41.000Z</time>
      </trkpt>
      <trkpt lat="47.32531" lon="-2.30326">
        <ele>-36.799999237061</ele>
        <time>2022-06-16T09:04:42.000Z</time>
      </trkpt>
      <trkpt lat="47.32529" lon="-2.30311">
        <ele>-36.400001525879</ele>
        <time>2022-06-16T09:04:44.000Z</time>
      </trkpt>
      <trkpt lat="47.32527" lon="-2.30303">
        <ele>-36</ele>
        <time>2022-06-16T09:04:45.000Z</time>
      </trkpt>
      <trkpt lat="47.32525" lon="-2.30296">
        <ele>-35.599998474121</ele>
        <time>2022-06-16T09:04:46.000Z</time>
      </trkpt>
      <trkpt lat="47.32524" lon="-2.30289">
        <ele>-35.200000762939</ele>
        <time>2022-06-16T09:04:47.000Z</time>
      </trkpt>
      <trkpt lat="47.32523" lon="-2.30281">
        <ele>-34.799999237061</ele>
        <time>2022-06-16T09:04:48.000Z</time>
      </trkpt>
      <trkpt lat="47.32514" lon="-2.30228">
        <ele>-34.799999237061</ele>
        <time>2022-06-16T09:04:55.000Z</time>
      </trkpt>
      <trkpt lat="47.32509" lon="-2.30191">
        <ele>-34.400001525879</ele>
        <time>2022-06-16T09:05:00.000Z</time>
      </trkpt>
      <trkpt lat="47.32508" lon="-2.30183">
        <ele>-34</ele>
        <time>2022-06-16T09:05:01.000Z</time>
      </trkpt>
      <trkpt lat="47.32507" lon="-2.30176">
        <ele>-33.599998474121</ele>
        <time>2022-06-16T09:05:02.000Z</time>
      </trkpt>
      <trkpt lat="47.32506" lon="-2.30168">
        <ele>-33.200000762939</ele>
        <time>2022-06-16T09:05:03.000Z</time>
      </trkpt>
      <trkpt lat="47.32504" lon="-2.30161">
        <ele>-32.799999237061</ele>
        <time>2022-06-16T09:05:04.000Z</time>
      </trkpt>
      <trkpt lat="47.32504" lon="-2.30153">
        <ele>-32.799999237061</ele>
        <time>2022-06-16T09:05:05.000Z</time>
      </trkpt>
      <trkpt lat="47.32501" lon="-2.30131">
        <ele>-32.799999237061</ele>
        <time>2022-06-16T09:05:08.000Z</time>
      </trkpt>
      <trkpt lat="47.32495" lon="-2.30093">
        <ele>-32.799999237061</ele>
        <time>2022-06-16T09:05:13.000Z</time>
      </trkpt>
      <trkpt lat="47.32494" lon="-2.30084">
        <ele>-32.799999237061</ele>
        <time>2022-06-16T09:05:14.000Z</time>
      </trkpt>
      <trkpt lat="47.32491" lon="-2.3006">
        <ele>-32.799999237061</ele>
        <time>2022-06-16T09:05:17.000Z</time>
      </trkpt>
      <trkpt lat="47.32483" lon="-2.30029">
        <ele>-32.799999237061</ele>
        <time>2022-06-16T09:05:21.000Z</time>
      </trkpt>
      <trkpt lat="47.3248" lon="-2.30021">
        <ele>-32.799999237061</ele>
        <time>2022-06-16T09:05:22.000Z</time>
      </trkpt>
      <trkpt lat="47.32472" lon="-2.29998">
        <ele>-32.799999237061</ele>
        <time>2022-06-16T09:05:25.000Z</time>
      </trkpt>
      <trkpt lat="47.3246" lon="-2.29979">
        <ele>-32.799999237061</ele>
        <time>2022-06-16T09:05:28.000Z</time>
      </trkpt>
      <trkpt lat="47.32452" lon="-2.29968">
        <ele>-32.799999237061</ele>
        <time>2022-06-16T09:05:30.000Z</time>
      </trkpt>
      <trkpt lat="47.32442" lon="-2.29952">
        <ele>-32.799999237061</ele>
        <time>2022-06-16T09:05:33.000Z</time>
      </trkpt>
      <trkpt lat="47.32445" lon="-2.2994">
        <ele>-32.799999237061</ele>
        <time>2022-06-16T09:05:36.000Z</time>
      </trkpt>
      <trkpt lat="47.32453" lon="-2.29931">
        <ele>-32.799999237061</ele>
        <time>2022-06-16T09:05:40.000Z</time>
      </trkpt>
      <trkpt lat="47.32449" lon="-2.29921">
        <ele>-32.799999237061</ele>
        <time>2022-06-16T09:05:44.000Z</time>
      </trkpt>
      <trkpt lat="47.32444" lon="-2.29903">
        <ele>-32.799999237061</ele>
        <time>2022-06-16T09:05:50.000Z</time>
      </trkpt>
      <trkpt lat="47.32442" lon="-2.2988">
        <ele>-32.799999237061</ele>
        <time>2022-06-16T09:05:57.000Z</time>
      </trkpt>
      <trkpt lat="47.32446" lon="-2.29861">
        <ele>-32.799999237061</ele>
        <time>2022-06-16T09:06:02.000Z</time>
      </trkpt>
      <trkpt lat="47.32459" lon="-2.29849">
        <ele>-32.799999237061</ele>
        <time>2022-06-16T09:06:06.000Z</time>
      </trkpt>
      <trkpt lat="47.32488" lon="-2.29823">
        <ele>-32.799999237061</ele>
        <time>2022-06-16T09:06:13.000Z</time>
      </trkpt>
      <trkpt lat="47.32493" lon="-2.29819">
        <ele>-32.799999237061</ele>
        <time>2022-06-16T09:06:14.000Z</time>
      </trkpt>
      <trkpt lat="47.3251" lon="-2.29803">
        <ele>-32.799999237061</ele>
        <time>2022-06-16T09:06:18.000Z</time>
      </trkpt>
      <trkpt lat="47.32525" lon="-2.29789">
        <ele>-32.799999237061</ele>
        <time>2022-06-16T09:06:21.000Z</time>
      </trkpt>
      <trkpt lat="47.32526" lon="-2.29781">
        <ele>-32.799999237061</ele>
        <time>2022-06-16T09:06:22.000Z</time>
      </trkpt>
      <trkpt lat="47.32521" lon="-2.29757">
        <ele>-32.799999237061</ele>
        <time>2022-06-16T09:06:25.000Z</time>
      </trkpt>
      <trkpt lat="47.32516" lon="-2.29742">
        <ele>-32.799999237061</ele>
        <time>2022-06-16T09:06:27.000Z</time>
      </trkpt>
      <trkpt lat="47.32512" lon="-2.29725">
        <ele>-32.799999237061</ele>
        <time>2022-06-16T09:06:29.000Z</time>
      </trkpt>
      <trkpt lat="47.32508" lon="-2.29707">
        <ele>-32.799999237061</ele>
        <time>2022-06-16T09:06:31.000Z</time>
      </trkpt>
      <trkpt lat="47.32492" lon="-2.29655">
        <ele>-32.799999237061</ele>
        <time>2022-06-16T09:06:37.000Z</time>
      </trkpt>
      <trkpt lat="47.32486" lon="-2.29634">
        <ele>-33.200000762939</ele>
        <time>2022-06-16T09:06:39.000Z</time>
      </trkpt>
      <trkpt lat="47.32484" lon="-2.29623">
        <ele>-33.599998474121</ele>
        <time>2022-06-16T09:06:40.000Z</time>
      </trkpt>
      <trkpt lat="47.32481" lon="-2.29612">
        <ele>-34</ele>
        <time>2022-06-16T09:06:41.000Z</time>
      </trkpt>
      <trkpt lat="47.32479" lon="-2.29601">
        <ele>-34.400001525879</ele>
        <time>2022-06-16T09:06:42.000Z</time>
      </trkpt>
      <trkpt lat="47.32476" lon="-2.2959">
        <ele>-34.799999237061</ele>
        <time>2022-06-16T09:06:43.000Z</time>
      </trkpt>
      <trkpt lat="47.32473" lon="-2.29578">
        <ele>-35.200000762939</ele>
        <time>2022-06-16T09:06:44.000Z</time>
      </trkpt>
      <trkpt lat="47.3247" lon="-2.29567">
        <ele>-35.799999237061</ele>
        <time>2022-06-16T09:06:45.000Z</time>
      </trkpt>
      <trkpt lat="47.32466" lon="-2.29555">
        <ele>-36.200000762939</ele>
        <time>2022-06-16T09:06:46.000Z</time>
      </trkpt>
      <trkpt lat="47.32463" lon="-2.29543">
        <ele>-36.599998474121</ele>
        <time>2022-06-16T09:06:47.000Z</time>
      </trkpt>
      <trkpt lat="47.3246" lon="-2.29532">
        <ele>-37</ele>
        <time>2022-06-16T09:06:48.000Z</time>
      </trkpt>
      <trkpt lat="47.32453" lon="-2.29509">
        <ele>-37.599998474121</ele>
        <time>2022-06-16T09:06:50.000Z</time>
      </trkpt>
      <trkpt lat="47.3245" lon="-2.29497">
        <ele>-38</ele>
        <time>2022-06-16T09:06:51.000Z</time>
      </trkpt>
      <trkpt lat="47.32447" lon="-2.29486">
        <ele>-38.400001525879</ele>
        <time>2022-06-16T09:06:52.000Z</time>
      </trkpt>
      <trkpt lat="47.32443" lon="-2.29474">
        <ele>-39</ele>
        <time>2022-06-16T09:06:53.000Z</time>
      </trkpt>
      <trkpt lat="47.3244" lon="-2.29463">
        <ele>-39.400001525879</ele>
        <time>2022-06-16T09:06:54.000Z</time>
      </trkpt>
      <trkpt lat="47.32435" lon="-2.2944">
        <ele>-39.400001525879</ele>
        <time>2022-06-16T09:06:56.000Z</time>
      </trkpt>
      <trkpt lat="47.32434" lon="-2.29428">
        <ele>-40</ele>
        <time>2022-06-16T09:06:57.000Z</time>
      </trkpt>
      <trkpt lat="47.32433" lon="-2.29417">
        <ele>-40.400001525879</ele>
        <time>2022-06-16T09:06:58.000Z</time>
      </trkpt>
      <trkpt lat="47.32431" lon="-2.29406">
        <ele>-40.799999237061</ele>
        <time>2022-06-16T09:06:59.000Z</time>
      </trkpt>
      <trkpt lat="47.32429" lon="-2.29395">
        <ele>-41.200000762939</ele>
        <time>2022-06-16T09:07:00.000Z</time>
      </trkpt>
      <trkpt lat="47.32427" lon="-2.29384">
        <ele>-41.799999237061</ele>
        <time>2022-06-16T09:07:01.000Z</time>
      </trkpt>
      <trkpt lat="47.32425" lon="-2.29374">
        <ele>-41.799999237061</ele>
        <time>2022-06-16T09:07:02.000Z</time>
      </trkpt>
      <trkpt lat="47.32421" lon="-2.29344">
        <ele>-42.200000762939</ele>
        <time>2022-06-16T09:07:05.000Z</time>
      </trkpt>
      <trkpt lat="47.32421" lon="-2.29334">
        <ele>-42.599998474121</ele>
        <time>2022-06-16T09:07:06.000Z</time>
      </trkpt>
      <trkpt lat="47.3242" lon="-2.29326">
        <ele>-43</ele>
        <time>2022-06-16T09:07:07.000Z</time>
      </trkpt>
      <trkpt lat="47.32419" lon="-2.29317">
        <ele>-43.400001525879</ele>
        <time>2022-06-16T09:07:08.000Z</time>
      </trkpt>
      <trkpt lat="47.32418" lon="-2.29309">
        <ele>-43.799999237061</ele>
        <time>2022-06-16T09:07:09.000Z</time>
      </trkpt>
      <trkpt lat="47.32416" lon="-2.29301">
        <ele>-43.799999237061</ele>
        <time>2022-06-16T09:07:10.000Z</time>
      </trkpt>
      <trkpt lat="47.32411" lon="-2.29278">
        <ele>-43.799999237061</ele>
        <time>2022-06-16T09:07:13.000Z</time>
      </trkpt>
      <trkpt lat="47.32409" lon="-2.29272">
        <ele>-43.799999237061</ele>
        <time>2022-06-16T09:07:14.000Z</time>
      </trkpt>
      <trkpt lat="47.32395" lon="-2.29259">
        <ele>-43.799999237061</ele>
        <time>2022-06-16T09:07:17.000Z</time>
      </trkpt>
      <trkpt lat="47.32384" lon="-2.29255">
        <ele>-43.799999237061</ele>
        <time>2022-06-16T09:07:19.000Z</time>
      </trkpt>
      <trkpt lat="47.32369" lon="-2.29248">
        <ele>-43.799999237061</ele>
        <time>2022-06-16T09:07:22.000Z</time>
      </trkpt>
      <trkpt lat="47.32347" lon="-2.29238">
        <ele>-43.799999237061</ele>
        <time>2022-06-16T09:07:27.000Z</time>
      </trkpt>
      <trkpt lat="47.32338" lon="-2.29233">
        <ele>-43.799999237061</ele>
        <time>2022-06-16T09:07:29.000Z</time>
      </trkpt>
      <trkpt lat="47.32316" lon="-2.29221">
        <ele>-43.799999237061</ele>
        <time>2022-06-16T09:07:35.000Z</time>
      </trkpt>
      <trkpt lat="47.32301" lon="-2.29214">
        <ele>-43.799999237061</ele>
        <time>2022-06-16T09:07:40.000Z</time>
      </trkpt>
      <trkpt lat="47.32279" lon="-2.29221">
        <ele>-43.799999237061</ele>
        <time>2022-06-16T09:07:46.000Z</time>
      </trkpt>
      <trkpt lat="47.32252" lon="-2.29223">
        <ele>-43.799999237061</ele>
        <time>2022-06-16T09:07:53.000Z</time>
      </trkpt>
      <trkpt lat="47.32239" lon="-2.29209">
        <ele>-43.799999237061</ele>
        <time>2022-06-16T09:07:58.000Z</time>
      </trkpt>
      <trkpt lat="47.32222" lon="-2.2918">
        <ele>-43.799999237061</ele>
        <time>2022-06-16T09:08:03.000Z</time>
      </trkpt>
      <trkpt lat="47.3222" lon="-2.29175">
        <ele>-43.799999237061</ele>
        <time>2022-06-16T09:08:04.000Z</time>
      </trkpt>
      <trkpt lat="47.32209" lon="-2.29161">
        <ele>-43.799999237061</ele>
        <time>2022-06-16T09:08:07.000Z</time>
      </trkpt>
      <trkpt lat="47.322" lon="-2.29151">
        <ele>-43.799999237061</ele>
        <time>2022-06-16T09:08:09.000Z</time>
      </trkpt>
      <trkpt lat="47.32186" lon="-2.29138">
        <ele>-43.799999237061</ele>
        <time>2022-06-16T09:08:12.000Z</time>
      </trkpt>
      <trkpt lat="47.32168" lon="-2.29122">
        <ele>-43.799999237061</ele>
        <time>2022-06-16T09:08:16.000Z</time>
      </trkpt>
      <trkpt lat="47.3216" lon="-2.29113">
        <ele>-43.799999237061</ele>
        <time>2022-06-16T09:08:18.000Z</time>
      </trkpt>
      <trkpt lat="47.32146" lon="-2.29082">
        <ele>-43.799999237061</ele>
        <time>2022-06-16T09:08:23.000Z</time>
      </trkpt>
      <trkpt lat="47.32142" lon="-2.29074">
        <ele>-43.799999237061</ele>
        <time>2022-06-16T09:08:24.000Z</time>
      </trkpt>
      <trkpt lat="47.32129" lon="-2.29036">
        <ele>-43.799999237061</ele>
        <time>2022-06-16T09:08:28.000Z</time>
      </trkpt>
      <trkpt lat="47.32125" lon="-2.29028">
        <ele>-43.799999237061</ele>
        <time>2022-06-16T09:08:29.000Z</time>
      </trkpt>
      <trkpt lat="47.32111" lon="-2.28994">
        <ele>-43.799999237061</ele>
        <time>2022-06-16T09:08:33.000Z</time>
      </trkpt>
      <trkpt lat="47.32101" lon="-2.28977">
        <ele>-43.799999237061</ele>
        <time>2022-06-16T09:08:35.000Z</time>
      </trkpt>
      <trkpt lat="47.32088" lon="-2.28964">
        <ele>-43.799999237061</ele>
        <time>2022-06-16T09:08:37.000Z</time>
      </trkpt>
      <trkpt lat="47.32075" lon="-2.28954">
        <ele>-43.799999237061</ele>
        <time>2022-06-16T09:08:39.000Z</time>
      </trkpt>
      <trkpt lat="47.32063" lon="-2.28944">
        <ele>-44.200000762939</ele>
        <time>2022-06-16T09:08:41.000Z</time>
      </trkpt>
      <trkpt lat="47.32057" lon="-2.28939">
        <ele>-44.599998474121</ele>
        <time>2022-06-16T09:08:42.000Z</time>
      </trkpt>
      <trkpt lat="47.32053" lon="-2.28932">
        <ele>-45.200000762939</ele>
        <time>2022-06-16T09:08:43.000Z</time>
      </trkpt>
      <trkpt lat="47.3205" lon="-2.28922">
        <ele>-45.599998474121</ele>
        <time>2022-06-16T09:08:44.000Z</time>
      </trkpt>
      <trkpt lat="47.32047" lon="-2.28913">
        <ele>-46</ele>
        <time>2022-06-16T09:08:45.000Z</time>
      </trkpt>
      <trkpt lat="47.32044" lon="-2.28892">
        <ele>-46</ele>
        <time>2022-06-16T09:08:47.000Z</time>
      </trkpt>
      <trkpt lat="47.32041" lon="-2.28876">
        <ele>-46</ele>
        <time>2022-06-16T09:08:49.000Z</time>
      </trkpt>
      <trkpt lat="47.3203" lon="-2.28869">
        <ele>-46</ele>
        <time>2022-06-16T09:08:52.000Z</time>
      </trkpt>
      <trkpt lat="47.32018" lon="-2.28878">
        <ele>-46</ele>
        <time>2022-06-16T09:08:54.000Z</time>
      </trkpt>
      <trkpt lat="47.32012" lon="-2.28881">
        <ele>-46</ele>
        <time>2022-06-16T09:08:55.000Z</time>
      </trkpt>
      <trkpt lat="47.31981" lon="-2.28889">
        <ele>-46</ele>
        <time>2022-06-16T09:09:00.000Z</time>
      </trkpt>
      <trkpt lat="47.31955" lon="-2.28891">
        <ele>-46</ele>
        <time>2022-06-16T09:09:05.000Z</time>
      </trkpt>
      <trkpt lat="47.31951" lon="-2.28891">
        <ele>-46</ele>
        <time>2022-06-16T09:09:06.000Z</time>
      </trkpt>
      <trkpt lat="47.31941" lon="-2.28903">
        <ele>-46</ele>
        <time>2022-06-16T09:09:09.000Z</time>
      </trkpt>
      <trkpt lat="47.31929" lon="-2.28914">
        <ele>-46</ele>
        <time>2022-06-16T09:09:12.000Z</time>
      </trkpt>
      <trkpt lat="47.31921" lon="-2.28922">
        <ele>-46</ele>
        <time>2022-06-16T09:09:14.000Z</time>
      </trkpt>
      <trkpt lat="47.31898" lon="-2.28941">
        <ele>-46</ele>
        <time>2022-06-16T09:09:19.000Z</time>
      </trkpt>
      <trkpt lat="47.31892" lon="-2.28942">
        <ele>-46</ele>
        <time>2022-06-16T09:09:20.000Z</time>
      </trkpt>
      <trkpt lat="47.3188" lon="-2.28944">
        <ele>-46</ele>
        <time>2022-06-16T09:09:22.000Z</time>
      </trkpt>
      <trkpt lat="47.31865" lon="-2.2895">
        <ele>-46</ele>
        <time>2022-06-16T09:09:25.000Z</time>
      </trkpt>
      <trkpt lat="47.3186" lon="-2.2897">
        <ele>-46</ele>
        <time>2022-06-16T09:09:28.000Z</time>
      </trkpt>
      <trkpt lat="47.31859" lon="-2.28986">
        <ele>-46</ele>
        <time>2022-06-16T09:09:30.000Z</time>
      </trkpt>
      <trkpt lat="47.31856" lon="-2.2901">
        <ele>-46</ele>
        <time>2022-06-16T09:09:33.000Z</time>
      </trkpt>
      <trkpt lat="47.31846" lon="-2.2906">
        <ele>-46</ele>
        <time>2022-06-16T09:09:39.000Z</time>
      </trkpt>
      <trkpt lat="47.31842" lon="-2.29083">
        <ele>-45.599998474121</ele>
        <time>2022-06-16T09:09:42.000Z</time>
      </trkpt>
      <trkpt lat="47.3184" lon="-2.29091">
        <ele>-45</ele>
        <time>2022-06-16T09:09:43.000Z</time>
      </trkpt>
      <trkpt lat="47.31839" lon="-2.29099">
        <ele>-44.599998474121</ele>
        <time>2022-06-16T09:09:44.000Z</time>
      </trkpt>
      <trkpt lat="47.31838" lon="-2.29107">
        <ele>-44.200000762939</ele>
        <time>2022-06-16T09:09:45.000Z</time>
      </trkpt>
      <trkpt lat="47.31837" lon="-2.29115">
        <ele>-43.799999237061</ele>
        <time>2022-06-16T09:09:46.000Z</time>
      </trkpt>
      <trkpt lat="47.31836" lon="-2.29136">
        <ele>-43.799999237061</ele>
        <time>2022-06-16T09:09:49.000Z</time>
      </trkpt>
      <trkpt lat="47.31832" lon="-2.2916">
        <ele>-43.799999237061</ele>
        <time>2022-06-16T09:09:52.000Z</time>
      </trkpt>
      <trkpt lat="47.31829" lon="-2.29184">
        <ele>-43.400001525879</ele>
        <time>2022-06-16T09:09:55.000Z</time>
      </trkpt>
      <trkpt lat="47.31829" lon="-2.29191">
        <ele>-43</ele>
        <time>2022-06-16T09:09:56.000Z</time>
      </trkpt>
      <trkpt lat="47.31828" lon="-2.29199">
        <ele>-42.599998474121</ele>
        <time>2022-06-16T09:09:57.000Z</time>
      </trkpt>
      <trkpt lat="47.31827" lon="-2.29207">
        <ele>-42.200000762939</ele>
        <time>2022-06-16T09:09:58.000Z</time>
      </trkpt>
      <trkpt lat="47.31827" lon="-2.29215">
        <ele>-41.799999237061</ele>
        <time>2022-06-16T09:09:59.000Z</time>
      </trkpt>
      <trkpt lat="47.31827" lon="-2.29223">
        <ele>-41.799999237061</ele>
        <time>2022-06-16T09:10:00.000Z</time>
      </trkpt>
      <trkpt lat="47.31833" lon="-2.2926">
        <ele>-41.400001525879</ele>
        <time>2022-06-16T09:10:05.000Z</time>
      </trkpt>
      <trkpt lat="47.31834" lon="-2.29267">
        <ele>-41</ele>
        <time>2022-06-16T09:10:06.000Z</time>
      </trkpt>
      <trkpt lat="47.31834" lon="-2.29275">
        <ele>-40.400001525879</ele>
        <time>2022-06-16T09:10:07.000Z</time>
      </trkpt>
      <trkpt lat="47.31835" lon="-2.29283">
        <ele>-40</ele>
        <time>2022-06-16T09:10:08.000Z</time>
      </trkpt>
      <trkpt lat="47.31835" lon="-2.2929">
        <ele>-39.599998474121</ele>
        <time>2022-06-16T09:10:09.000Z</time>
      </trkpt>
      <trkpt lat="47.31838" lon="-2.29319">
        <ele>-39.599998474121</ele>
        <time>2022-06-16T09:10:13.000Z</time>
      </trkpt>
      <trkpt lat="47.31841" lon="-2.29348">
        <ele>-39.200000762939</ele>
        <time>2022-06-16T09:10:17.000Z</time>
      </trkpt>
      <trkpt lat="47.31841" lon="-2.29355">
        <ele>-38.400001525879</ele>
        <time>2022-06-16T09:10:18.000Z</time>
      </trkpt>
      <trkpt lat="47.31843" lon="-2.29362">
        <ele>-38</ele>
        <time>2022-06-16T09:10:19.000Z</time>
      </trkpt>
      <trkpt lat="47.31844" lon="-2.29369">
        <ele>-37.400001525879</ele>
        <time>2022-06-16T09:10:20.000Z</time>
      </trkpt>
      <trkpt lat="47.31852" lon="-2.29396">
        <ele>-37.400001525879</ele>
        <time>2022-06-16T09:10:24.000Z</time>
      </trkpt>
      <trkpt lat="47.31854" lon="-2.2941">
        <ele>-37.400001525879</ele>
        <time>2022-06-16T09:10:26.000Z</time>
      </trkpt>
      <trkpt lat="47.31854" lon="-2.29446">
        <ele>-37.400001525879</ele>
        <time>2022-06-16T09:10:32.000Z</time>
      </trkpt>
      <trkpt lat="47.31849" lon="-2.29483">
        <ele>-37.400001525879</ele>
        <time>2022-06-16T09:10:38.000Z</time>
      </trkpt>
      <trkpt lat="47.3185" lon="-2.29496">
        <ele>-37.400001525879</ele>
        <time>2022-06-16T09:10:40.000Z</time>
      </trkpt>
      <trkpt lat="47.31852" lon="-2.29509">
        <ele>-37.400001525879</ele>
        <time>2022-06-16T09:10:42.000Z</time>
      </trkpt>
      <trkpt lat="47.31859" lon="-2.29534">
        <ele>-37.400001525879</ele>
        <time>2022-06-16T09:10:46.000Z</time>
      </trkpt>
      <trkpt lat="47.31862" lon="-2.2954">
        <ele>-37.400001525879</ele>
        <time>2022-06-16T09:10:47.000Z</time>
      </trkpt>
      <trkpt lat="47.31866" lon="-2.29551">
        <ele>-37.400001525879</ele>
        <time>2022-06-16T09:10:49.000Z</time>
      </trkpt>
      <trkpt lat="47.31872" lon="-2.29577">
        <ele>-37.400001525879</ele>
        <time>2022-06-16T09:10:53.000Z</time>
      </trkpt>
      <trkpt lat="47.31874" lon="-2.29593">
        <ele>-37.400001525879</ele>
        <time>2022-06-16T09:10:56.000Z</time>
      </trkpt>
      <trkpt lat="47.31873" lon="-2.29596">
        <ele>-37.400001525879</ele>
        <time>2022-06-16T09:10:57.000Z</time>
      </trkpt>
      <trkpt lat="47.3186" lon="-2.29618">
        <ele>-37.400001525879</ele>
        <time>2022-06-16T09:11:03.000Z</time>
      </trkpt>
      <trkpt lat="47.31857" lon="-2.29622">
        <ele>-37.400001525879</ele>
        <time>2022-06-16T09:11:04.000Z</time>
      </trkpt>
      <trkpt lat="47.31843" lon="-2.29632">
        <ele>-37.400001525879</ele>
        <time>2022-06-16T09:11:07.000Z</time>
      </trkpt>
      <trkpt lat="47.31812" lon="-2.29649">
        <ele>-37.400001525879</ele>
        <time>2022-06-16T09:11:13.000Z</time>
      </trkpt>
      <trkpt lat="47.31801" lon="-2.29657">
        <ele>-37.400001525879</ele>
        <time>2022-06-16T09:11:15.000Z</time>
      </trkpt>
      <trkpt lat="47.31791" lon="-2.29664">
        <ele>-37</ele>
        <time>2022-06-16T09:11:17.000Z</time>
      </trkpt>
      <trkpt lat="47.31785" lon="-2.29668">
        <ele>-36.599998474121</ele>
        <time>2022-06-16T09:11:18.000Z</time>
      </trkpt>
      <trkpt lat="47.3178" lon="-2.29672">
        <ele>-36.200000762939</ele>
        <time>2022-06-16T09:11:19.000Z</time>
      </trkpt>
      <trkpt lat="47.31774" lon="-2.29676">
        <ele>-35.799999237061</ele>
        <time>2022-06-16T09:11:20.000Z</time>
      </trkpt>
      <trkpt lat="47.31769" lon="-2.2968">
        <ele>-35.400001525879</ele>
        <time>2022-06-16T09:11:21.000Z</time>
      </trkpt>
      <trkpt lat="47.31742" lon="-2.297">
        <ele>-35.400001525879</ele>
        <time>2022-06-16T09:11:26.000Z</time>
      </trkpt>
      <trkpt lat="47.31737" lon="-2.29704">
        <ele>-35.400001525879</ele>
        <time>2022-06-16T09:11:27.000Z</time>
      </trkpt>
      <trkpt lat="47.31701" lon="-2.29733">
        <ele>-35.400001525879</ele>
        <time>2022-06-16T09:11:34.000Z</time>
      </trkpt>
      <trkpt lat="47.31678" lon="-2.29739">
        <ele>-35.400001525879</ele>
        <time>2022-06-16T09:11:38.000Z</time>
      </trkpt>
      <trkpt lat="47.31671" lon="-2.29739">
        <ele>-35.400001525879</ele>
        <time>2022-06-16T09:11:39.000Z</time>
      </trkpt>
      <trkpt lat="47.31661" lon="-2.29732">
        <ele>-35.400001525879</ele>
        <time>2022-06-16T09:11:41.000Z</time>
      </trkpt>
      <trkpt lat="47.3165" lon="-2.29711">
        <ele>-35.400001525879</ele>
        <time>2022-06-16T09:11:44.000Z</time>
      </trkpt>
      <trkpt lat="47.31647" lon="-2.29703">
        <ele>-35.400001525879</ele>
        <time>2022-06-16T09:11:45.000Z</time>
      </trkpt>
      <trkpt lat="47.31641" lon="-2.29684">
        <ele>-35</ele>
        <time>2022-06-16T09:11:47.000Z</time>
      </trkpt>
      <trkpt lat="47.31638" lon="-2.29675">
        <ele>-34.599998474121</ele>
        <time>2022-06-16T09:11:48.000Z</time>
      </trkpt>
      <trkpt lat="47.31635" lon="-2.29666">
        <ele>-34.200000762939</ele>
        <time>2022-06-16T09:11:49.000Z</time>
      </trkpt>
      <trkpt lat="47.31631" lon="-2.29657">
        <ele>-33.799999237061</ele>
        <time>2022-06-16T09:11:50.000Z</time>
      </trkpt>
      <trkpt lat="47.31627" lon="-2.29647">
        <ele>-33.200000762939</ele>
        <time>2022-06-16T09:11:51.000Z</time>
      </trkpt>
      <trkpt lat="47.31615" lon="-2.29623">
        <ele>-33.200000762939</ele>
        <time>2022-06-16T09:11:54.000Z</time>
      </trkpt>
      <trkpt lat="47.3161" lon="-2.29616">
        <ele>-33.200000762939</ele>
        <time>2022-06-16T09:11:55.000Z</time>
      </trkpt>
      <trkpt lat="47.31593" lon="-2.29599">
        <ele>-33.200000762939</ele>
        <time>2022-06-16T09:11:58.000Z</time>
      </trkpt>
      <trkpt lat="47.31583" lon="-2.2959">
        <ele>-33.200000762939</ele>
        <time>2022-06-16T09:12:00.000Z</time>
      </trkpt>
      <trkpt lat="47.31574" lon="-2.29578">
        <ele>-33.200000762939</ele>
        <time>2022-06-16T09:12:02.000Z</time>
      </trkpt>
      <trkpt lat="47.31553" lon="-2.29542">
        <ele>-33.200000762939</ele>
        <time>2022-06-16T09:12:07.000Z</time>
      </trkpt>
      <trkpt lat="47.31549" lon="-2.29533">
        <ele>-33.200000762939</ele>
        <time>2022-06-16T09:12:08.000Z</time>
      </trkpt>
      <trkpt lat="47.31539" lon="-2.29497">
        <ele>-33.200000762939</ele>
        <time>2022-06-16T09:12:12.000Z</time>
      </trkpt>
      <trkpt lat="47.31537" lon="-2.29487">
        <ele>-33.799999237061</ele>
        <time>2022-06-16T09:12:13.000Z</time>
      </trkpt>
      <trkpt lat="47.31535" lon="-2.29476">
        <ele>-34.200000762939</ele>
        <time>2022-06-16T09:12:14.000Z</time>
      </trkpt>
      <trkpt lat="47.31532" lon="-2.29465">
        <ele>-34.599998474121</ele>
        <time>2022-06-16T09:12:15.000Z</time>
      </trkpt>
      <trkpt lat="47.31529" lon="-2.29454">
        <ele>-35</ele>
        <time>2022-06-16T09:12:16.000Z</time>
      </trkpt>
      <trkpt lat="47.31525" lon="-2.29444">
        <ele>-35.400001525879</ele>
        <time>2022-06-16T09:12:17.000Z</time>
      </trkpt>
      <trkpt lat="47.31508" lon="-2.2941">
        <ele>-35.799999237061</ele>
        <time>2022-06-16T09:12:21.000Z</time>
      </trkpt>
      <trkpt lat="47.31503" lon="-2.29404">
        <ele>-36.599998474121</ele>
        <time>2022-06-16T09:12:22.000Z</time>
      </trkpt>
      <trkpt lat="47.31498" lon="-2.29401">
        <ele>-37</ele>
        <time>2022-06-16T09:12:23.000Z</time>
      </trkpt>
      <trkpt lat="47.31492" lon="-2.294">
        <ele>-37.400001525879</ele>
        <time>2022-06-16T09:12:24.000Z</time>
      </trkpt>
      <trkpt lat="47.31487" lon="-2.29401">
        <ele>-37.400001525879</ele>
        <time>2022-06-16T09:12:25.000Z</time>
      </trkpt>
      <trkpt lat="47.3146" lon="-2.29406">
        <ele>-37.400001525879</ele>
        <time>2022-06-16T09:12:29.000Z</time>
      </trkpt>
      <trkpt lat="47.31444" lon="-2.29391">
        <ele>-37.799999237061</ele>
        <time>2022-06-16T09:12:32.000Z</time>
      </trkpt>
      <trkpt lat="47.31439" lon="-2.29384">
        <ele>-38.200000762939</ele>
        <time>2022-06-16T09:12:33.000Z</time>
      </trkpt>
      <trkpt lat="47.31434" lon="-2.29377">
        <ele>-38.599998474121</ele>
        <time>2022-06-16T09:12:34.000Z</time>
      </trkpt>
      <trkpt lat="47.31429" lon="-2.29369">
        <ele>-39</ele>
        <time>2022-06-16T09:12:35.000Z</time>
      </trkpt>
      <trkpt lat="47.31424" lon="-2.29362">
        <ele>-39.400001525879</ele>
        <time>2022-06-16T09:12:36.000Z</time>
      </trkpt>
      <trkpt lat="47.31418" lon="-2.29355">
        <ele>-39.400001525879</ele>
        <time>2022-06-16T09:12:37.000Z</time>
      </trkpt>
      <trkpt lat="47.31411" lon="-2.29348">
        <ele>-39.400001525879</ele>
        <time>2022-06-16T09:12:38.000Z</time>
      </trkpt>
      <trkpt lat="47.3139" lon="-2.2933">
        <ele>-39.400001525879</ele>
        <time>2022-06-16T09:12:41.000Z</time>
      </trkpt>
      <trkpt lat="47.31383" lon="-2.29326">
        <ele>-39.400001525879</ele>
        <time>2022-06-16T09:12:42.000Z</time>
      </trkpt>
      <trkpt lat="47.31355" lon="-2.29311">
        <ele>-39.799999237061</ele>
        <time>2022-06-16T09:12:46.000Z</time>
      </trkpt>
      <trkpt lat="47.31348" lon="-2.29308">
        <ele>-40.799999237061</ele>
        <time>2022-06-16T09:12:47.000Z</time>
      </trkpt>
      <trkpt lat="47.31341" lon="-2.29305">
        <ele>-41.200000762939</ele>
        <time>2022-06-16T09:12:48.000Z</time>
      </trkpt>
      <trkpt lat="47.31334" lon="-2.29303">
        <ele>-41.599998474121</ele>
        <time>2022-06-16T09:12:49.000Z</time>
      </trkpt>
      <trkpt lat="47.31322" lon="-2.293">
        <ele>-41.599998474121</ele>
        <time>2022-06-16T09:12:51.000Z</time>
      </trkpt>
      <trkpt lat="47.31309" lon="-2.29301">
        <ele>-41.599998474121</ele>
        <time>2022-06-16T09:12:53.000Z</time>
      </trkpt>
      <trkpt lat="47.3129" lon="-2.29313">
        <ele>-41.599998474121</ele>
        <time>2022-06-16T09:12:56.000Z</time>
      </trkpt>
      <trkpt lat="47.31281" lon="-2.29328">
        <ele>-41.599998474121</ele>
        <time>2022-06-16T09:12:58.000Z</time>
      </trkpt>
      <trkpt lat="47.31274" lon="-2.29342">
        <ele>-41.599998474121</ele>
        <time>2022-06-16T09:13:00.000Z</time>
      </trkpt>
      <trkpt lat="47.31267" lon="-2.29358">
        <ele>-41.599998474121</ele>
        <time>2022-06-16T09:13:02.000Z</time>
      </trkpt>
      <trkpt lat="47.31262" lon="-2.29372">
        <ele>-41.599998474121</ele>
        <time>2022-06-16T09:13:04.000Z</time>
      </trkpt>
      <trkpt lat="47.31259" lon="-2.29378">
        <ele>-41.599998474121</ele>
        <time>2022-06-16T09:13:05.000Z</time>
      </trkpt>
      <trkpt lat="47.31245" lon="-2.29392">
        <ele>-41.599998474121</ele>
        <time>2022-06-16T09:13:09.000Z</time>
      </trkpt>
      <trkpt lat="47.31215" lon="-2.29413">
        <ele>-41.599998474121</ele>
        <time>2022-06-16T09:13:15.000Z</time>
      </trkpt>
      <trkpt lat="47.31193" lon="-2.29432">
        <ele>-42</ele>
        <time>2022-06-16T09:13:19.000Z</time>
      </trkpt>
      <trkpt lat="47.31187" lon="-2.29437">
        <ele>-42.400001525879</ele>
        <time>2022-06-16T09:13:20.000Z</time>
      </trkpt>
      <trkpt lat="47.3118" lon="-2.29442">
        <ele>-42.799999237061</ele>
        <time>2022-06-16T09:13:21.000Z</time>
      </trkpt>
      <trkpt lat="47.31173" lon="-2.29447">
        <ele>-43.200000762939</ele>
        <time>2022-06-16T09:13:22.000Z</time>
      </trkpt>
      <trkpt lat="47.31167" lon="-2.29452">
        <ele>-43.599998474121</ele>
        <time>2022-06-16T09:13:23.000Z</time>
      </trkpt>
      <trkpt lat="47.31154" lon="-2.29464">
        <ele>-43.599998474121</ele>
        <time>2022-06-16T09:13:25.000Z</time>
      </trkpt>
      <trkpt lat="47.3115" lon="-2.2947">
        <ele>-44</ele>
        <time>2022-06-16T09:13:26.000Z</time>
      </trkpt>
      <trkpt lat="47.31146" lon="-2.29477">
        <ele>-44.400001525879</ele>
        <time>2022-06-16T09:13:27.000Z</time>
      </trkpt>
      <trkpt lat="47.31144" lon="-2.29484">
        <ele>-44.799999237061</ele>
        <time>2022-06-16T09:13:28.000Z</time>
      </trkpt>
      <trkpt lat="47.31144" lon="-2.29492">
        <ele>-45.400001525879</ele>
        <time>2022-06-16T09:13:29.000Z</time>
      </trkpt>
      <trkpt lat="47.31144" lon="-2.295">
        <ele>-45.799999237061</ele>
        <time>2022-06-16T09:13:30.000Z</time>
      </trkpt>
      <trkpt lat="47.31145" lon="-2.29508">
        <ele>-45.799999237061</ele>
        <time>2022-06-16T09:13:31.000Z</time>
      </trkpt>
      <trkpt lat="47.31147" lon="-2.29517">
        <ele>-45.799999237061</ele>
        <time>2022-06-16T09:13:32.000Z</time>
      </trkpt>
      <trkpt lat="47.31152" lon="-2.29532">
        <ele>-45.799999237061</ele>
        <time>2022-06-16T09:13:34.000Z</time>
      </trkpt>
      <trkpt lat="47.31166" lon="-2.29565">
        <ele>-45.799999237061</ele>
        <time>2022-06-16T09:13:38.000Z</time>
      </trkpt>
      <trkpt lat="47.31167" lon="-2.29574">
        <ele>-45.799999237061</ele>
        <time>2022-06-16T09:13:39.000Z</time>
      </trkpt>
      <trkpt lat="47.31158" lon="-2.29595">
        <ele>-45.799999237061</ele>
        <time>2022-06-16T09:13:42.000Z</time>
      </trkpt>
      <trkpt lat="47.31147" lon="-2.29603">
        <ele>-45.799999237061</ele>
        <time>2022-06-16T09:13:44.000Z</time>
      </trkpt>
      <trkpt lat="47.31128" lon="-2.29617">
        <ele>-45.799999237061</ele>
        <time>2022-06-16T09:13:47.000Z</time>
      </trkpt>
      <trkpt lat="47.31102" lon="-2.29646">
        <ele>-45.799999237061</ele>
        <time>2022-06-16T09:13:52.000Z</time>
      </trkpt>
      <trkpt lat="47.31091" lon="-2.29658">
        <ele>-45.200000762939</ele>
        <time>2022-06-16T09:13:54.000Z</time>
      </trkpt>
      <trkpt lat="47.31087" lon="-2.29664">
        <ele>-44.799999237061</ele>
        <time>2022-06-16T09:13:55.000Z</time>
      </trkpt>
      <trkpt lat="47.31082" lon="-2.29669">
        <ele>-44.400001525879</ele>
        <time>2022-06-16T09:13:56.000Z</time>
      </trkpt>
      <trkpt lat="47.31078" lon="-2.29674">
        <ele>-44</ele>
        <time>2022-06-16T09:13:57.000Z</time>
      </trkpt>
      <trkpt lat="47.31073" lon="-2.29679">
        <ele>-43.599998474121</ele>
        <time>2022-06-16T09:13:58.000Z</time>
      </trkpt>
      <trkpt lat="47.31064" lon="-2.29687">
        <ele>-43.599998474121</ele>
        <time>2022-06-16T09:14:00.000Z</time>
      </trkpt>
      <trkpt lat="47.31054" lon="-2.29694">
        <ele>-43.599998474121</ele>
        <time>2022-06-16T09:14:02.000Z</time>
      </trkpt>
      <trkpt lat="47.31049" lon="-2.29695">
        <ele>-43.599998474121</ele>
        <time>2022-06-16T09:14:03.000Z</time>
      </trkpt>
      <trkpt lat="47.31037" lon="-2.29688">
        <ele>-43.599998474121</ele>
        <time>2022-06-16T09:14:06.000Z</time>
      </trkpt>
      <trkpt lat="47.31032" lon="-2.29677">
        <ele>-43.599998474121</ele>
        <time>2022-06-16T09:14:08.000Z</time>
      </trkpt>
      <trkpt lat="47.31026" lon="-2.29662">
        <ele>-43.599998474121</ele>
        <time>2022-06-16T09:14:10.000Z</time>
      </trkpt>
      <trkpt lat="47.31011" lon="-2.2962">
        <ele>-43.599998474121</ele>
        <time>2022-06-16T09:14:15.000Z</time>
      </trkpt>
      <trkpt lat="47.30994" lon="-2.29592">
        <ele>-43.599998474121</ele>
        <time>2022-06-16T09:14:19.000Z</time>
      </trkpt>
      <trkpt lat="47.3099" lon="-2.29588">
        <ele>-43.599998474121</ele>
        <time>2022-06-16T09:14:20.000Z</time>
      </trkpt>
      <trkpt lat="47.30966" lon="-2.29577">
        <ele>-43.599998474121</ele>
        <time>2022-06-16T09:14:24.000Z</time>
      </trkpt>
      <trkpt lat="47.30959" lon="-2.29575">
        <ele>-43.599998474121</ele>
        <time>2022-06-16T09:14:25.000Z</time>
      </trkpt>
      <trkpt lat="47.30924" lon="-2.29568">
        <ele>-43.599998474121</ele>
        <time>2022-06-16T09:14:30.000Z</time>
      </trkpt>
      <trkpt lat="47.30872" lon="-2.29552">
        <ele>-43.599998474121</ele>
        <time>2022-06-16T09:14:37.000Z</time>
      </trkpt>
      <trkpt lat="47.30828" lon="-2.29545">
        <ele>-43.599998474121</ele>
        <time>2022-06-16T09:14:43.000Z</time>
      </trkpt>
      <trkpt lat="47.30821" lon="-2.29545">
        <ele>-43.599998474121</ele>
        <time>2022-06-16T09:14:44.000Z</time>
      </trkpt>
      <trkpt lat="47.30776" lon="-2.29557">
        <ele>-43.599998474121</ele>
        <time>2022-06-16T09:14:50.000Z</time>
      </trkpt>
      <trkpt lat="47.30754" lon="-2.29565">
        <ele>-44</ele>
        <time>2022-06-16T09:14:53.000Z</time>
      </trkpt>
      <trkpt lat="47.30746" lon="-2.29567">
        <ele>-44.400001525879</ele>
        <time>2022-06-16T09:14:54.000Z</time>
      </trkpt>
      <trkpt lat="47.30738" lon="-2.2957">
        <ele>-44.799999237061</ele>
        <time>2022-06-16T09:14:55.000Z</time>
      </trkpt>
      <trkpt lat="47.30731" lon="-2.29573">
        <ele>-45.200000762939</ele>
        <time>2022-06-16T09:14:56.000Z</time>
      </trkpt>
      <trkpt lat="47.30723" lon="-2.29576">
        <ele>-45.599998474121</ele>
        <time>2022-06-16T09:14:57.000Z</time>
      </trkpt>
      <trkpt lat="47.30715" lon="-2.29579">
        <ele>-45.599998474121</ele>
        <time>2022-06-16T09:14:58.000Z</time>
      </trkpt>
      <trkpt lat="47.30661" lon="-2.29595">
        <ele>-45.599998474121</ele>
        <time>2022-06-16T09:15:05.000Z</time>
      </trkpt>
      <trkpt lat="47.30654" lon="-2.29597">
        <ele>-46</ele>
        <time>2022-06-16T09:15:06.000Z</time>
      </trkpt>
      <trkpt lat="47.30646" lon="-2.296">
        <ele>-46.400001525879</ele>
        <time>2022-06-16T09:15:07.000Z</time>
      </trkpt>
      <trkpt lat="47.30639" lon="-2.29603">
        <ele>-46.799999237061</ele>
        <time>2022-06-16T09:15:08.000Z</time>
      </trkpt>
      <trkpt lat="47.30631" lon="-2.29605">
        <ele>-47.200000762939</ele>
        <time>2022-06-16T09:15:09.000Z</time>
      </trkpt>
      <trkpt lat="47.30624" lon="-2.29607">
        <ele>-47.599998474121</ele>
        <time>2022-06-16T09:15:10.000Z</time>
      </trkpt>
      <trkpt lat="47.30602" lon="-2.29614">
        <ele>-47.599998474121</ele>
        <time>2022-06-16T09:15:13.000Z</time>
      </trkpt>
      <trkpt lat="47.30553" lon="-2.2963">
        <ele>-47.599998474121</ele>
        <time>2022-06-16T09:15:20.000Z</time>
      </trkpt>
      <trkpt lat="47.30498" lon="-2.29647">
        <ele>-47.599998474121</ele>
        <time>2022-06-16T09:15:28.000Z</time>
      </trkpt>
      <trkpt lat="47.30454" lon="-2.2966">
        <ele>-47.599998474121</ele>
        <time>2022-06-16T09:15:34.000Z</time>
      </trkpt>
      <trkpt lat="47.30411" lon="-2.29675">
        <ele>-47.599998474121</ele>
        <time>2022-06-16T09:15:40.000Z</time>
      </trkpt>
      <trkpt lat="47.30362" lon="-2.2969">
        <ele>-47.599998474121</ele>
        <time>2022-06-16T09:15:47.000Z</time>
      </trkpt>
      <trkpt lat="47.30318" lon="-2.29705">
        <ele>-47.599998474121</ele>
        <time>2022-06-16T09:15:54.000Z</time>
      </trkpt>
      <trkpt lat="47.3028" lon="-2.29716">
        <ele>-47.599998474121</ele>
        <time>2022-06-16T09:16:00.000Z</time>
      </trkpt>
      <trkpt lat="47.30263" lon="-2.2972">
        <ele>-47.599998474121</ele>
        <time>2022-06-16T09:16:03.000Z</time>
      </trkpt>
      <trkpt lat="47.30254" lon="-2.29719">
        <ele>-47.599998474121</ele>
        <time>2022-06-16T09:16:05.000Z</time>
      </trkpt>
      <trkpt lat="47.30248" lon="-2.29717">
        <ele>-47.599998474121</ele>
        <time>2022-06-16T09:16:08.000Z</time>
      </trkpt>
      <trkpt lat="47.30246" lon="-2.29719">
        <ele>-47.599998474121</ele>
        <time>2022-06-16T09:16:09.000Z</time>
      </trkpt>
      <trkpt lat="47.30237" lon="-2.29734">
        <ele>-47.599998474121</ele>
        <time>2022-06-16T09:16:15.000Z</time>
      </trkpt>
      <trkpt lat="47.30227" lon="-2.29747">
        <ele>-47.599998474121</ele>
        <time>2022-06-16T09:16:21.000Z</time>
      </trkpt>
      <trkpt lat="47.30218" lon="-2.29766">
        <ele>-47.599998474121</ele>
        <time>2022-06-16T09:16:26.000Z</time>
      </trkpt>
      <trkpt lat="47.30208" lon="-2.29783">
        <ele>-47.599998474121</ele>
        <time>2022-06-16T09:16:31.000Z</time>
      </trkpt>
      <trkpt lat="47.30192" lon="-2.29805">
        <ele>-47.599998474121</ele>
        <time>2022-06-16T09:16:38.000Z</time>
      </trkpt>
      <trkpt lat="47.30181" lon="-2.29821">
        <ele>-47.599998474121</ele>
        <time>2022-06-16T09:16:44.000Z</time>
      </trkpt>
      <trkpt lat="47.30165" lon="-2.29846">
        <ele>-47.599998474121</ele>
        <time>2022-06-16T09:16:51.000Z</time>
      </trkpt>
      <trkpt lat="47.30151" lon="-2.29859">
        <ele>-47.599998474121</ele>
        <time>2022-06-16T09:16:55.000Z</time>
      </trkpt>
      <trkpt lat="47.30133" lon="-2.29875">
        <ele>-47.599998474121</ele>
        <time>2022-06-16T09:17:00.000Z</time>
      </trkpt>
      <trkpt lat="47.30107" lon="-2.29901">
        <ele>-47.599998474121</ele>
        <time>2022-06-16T09:17:06.000Z</time>
      </trkpt>
      <trkpt lat="47.30101" lon="-2.2992">
        <ele>-47.599998474121</ele>
        <time>2022-06-16T09:17:10.000Z</time>
      </trkpt>
      <trkpt lat="47.30101" lon="-2.29928">
        <ele>-47.599998474121</ele>
        <time>2022-06-16T09:17:12.000Z</time>
      </trkpt>
      <trkpt lat="47.30104" lon="-2.29935">
        <ele>-47.599998474121</ele>
        <time>2022-06-16T09:17:14.000Z</time>
      </trkpt>
      <trkpt lat="47.30103" lon="-2.29953">
        <ele>-47.599998474121</ele>
        <time>2022-06-16T09:17:19.000Z</time>
      </trkpt>
      <trkpt lat="47.30105" lon="-2.29966">
        <ele>-47.599998474121</ele>
        <time>2022-06-16T09:17:22.000Z</time>
      </trkpt>
      <trkpt lat="47.30106" lon="-2.29972">
        <ele>-47.599998474121</ele>
        <time>2022-06-16T09:17:23.000Z</time>
      </trkpt>
      <trkpt lat="47.30114" lon="-2.29987">
        <ele>-47.599998474121</ele>
        <time>2022-06-16T09:17:27.000Z</time>
      </trkpt>
      <trkpt lat="47.30131" lon="-2.30013">
        <ele>-47.599998474121</ele>
        <time>2022-06-16T09:17:33.000Z</time>
      </trkpt>
      <trkpt lat="47.30151" lon="-2.30054">
        <ele>-47.599998474121</ele>
        <time>2022-06-16T09:17:40.000Z</time>
      </trkpt>
      <trkpt lat="47.30167" lon="-2.30092">
        <ele>-47.599998474121</ele>
        <time>2022-06-16T09:17:46.000Z</time>
      </trkpt>
      <trkpt lat="47.30173" lon="-2.30118">
        <ele>-47.200000762939</ele>
        <time>2022-06-16T09:17:50.000Z</time>
      </trkpt>
      <trkpt lat="47.30175" lon="-2.30124">
        <ele>-46.799999237061</ele>
        <time>2022-06-16T09:17:51.000Z</time>
      </trkpt>
      <trkpt lat="47.30177" lon="-2.30131">
        <ele>-46.400001525879</ele>
        <time>2022-06-16T09:17:52.000Z</time>
      </trkpt>
      <trkpt lat="47.30179" lon="-2.30137">
        <ele>-46</ele>
        <time>2022-06-16T09:17:53.000Z</time>
      </trkpt>
      <trkpt lat="47.30182" lon="-2.30144">
        <ele>-45.599998474121</ele>
        <time>2022-06-16T09:17:54.000Z</time>
      </trkpt>
      <trkpt lat="47.30194" lon="-2.30182">
        <ele>-45.599998474121</ele>
        <time>2022-06-16T09:18:00.000Z</time>
      </trkpt>
      <trkpt lat="47.30203" lon="-2.3022">
        <ele>-45.599998474121</ele>
        <time>2022-06-16T09:18:07.000Z</time>
      </trkpt>
      <trkpt lat="47.30197" lon="-2.30234">
        <ele>-45.599998474121</ele>
        <time>2022-06-16T09:18:11.000Z</time>
      </trkpt>
      <trkpt lat="47.30192" lon="-2.30237">
        <ele>-45.599998474121</ele>
        <time>2022-06-16T09:18:15.000Z</time>
      </trkpt>
      <trkpt lat="47.30191" lon="-2.30237">
        <ele>-45.599998474121</ele>
        <time>2022-06-16T09:18:23.000Z</time>
      </trkpt>
      <trkpt lat="47.30179" lon="-2.30242">
        <ele>-45.599998474121</ele>
        <time>2022-06-16T09:18:27.000Z</time>
      </trkpt>
      <trkpt lat="47.30156" lon="-2.30252">
        <ele>-45.599998474121</ele>
        <time>2022-06-16T09:18:33.000Z</time>
      </trkpt>
      <trkpt lat="47.30127" lon="-2.30261">
        <ele>-45.599998474121</ele>
        <time>2022-06-16T09:18:40.000Z</time>
      </trkpt>
      <trkpt lat="47.30118" lon="-2.30265">
        <ele>-45.599998474121</ele>
        <time>2022-06-16T09:18:42.000Z</time>
      </trkpt>
      <trkpt lat="47.30108" lon="-2.30278">
        <ele>-45.599998474121</ele>
        <time>2022-06-16T09:18:45.000Z</time>
      </trkpt>
      <trkpt lat="47.30106" lon="-2.30299">
        <ele>-45.599998474121</ele>
        <time>2022-06-16T09:18:49.000Z</time>
      </trkpt>
      <trkpt lat="47.30107" lon="-2.30303">
        <ele>-45.599998474121</ele>
        <time>2022-06-16T09:18:50.000Z</time>
      </trkpt>
      <trkpt lat="47.30114" lon="-2.30329">
        <ele>-45.599998474121</ele>
        <time>2022-06-16T09:18:57.000Z</time>
      </trkpt>
      <trkpt lat="47.30121" lon="-2.30349">
        <ele>-45.599998474121</ele>
        <time>2022-06-16T09:19:04.000Z</time>
      </trkpt>
      <trkpt lat="47.30125" lon="-2.30372">
        <ele>-45.599998474121</ele>
        <time>2022-06-16T09:19:10.000Z</time>
      </trkpt>
      <trkpt lat="47.30135" lon="-2.30407">
        <ele>-45.599998474121</ele>
        <time>2022-06-16T09:19:17.000Z</time>
      </trkpt>
      <trkpt lat="47.30151" lon="-2.30454">
        <ele>-45.599998474121</ele>
        <time>2022-06-16T09:19:26.000Z</time>
      </trkpt>
      <trkpt lat="47.30167" lon="-2.30484">
        <ele>-45.599998474121</ele>
        <time>2022-06-16T09:19:32.000Z</time>
      </trkpt>
      <trkpt lat="47.3017" lon="-2.30488">
        <ele>-45.599998474121</ele>
        <time>2022-06-16T09:19:33.000Z</time>
      </trkpt>
      <trkpt lat="47.30195" lon="-2.30513">
        <ele>-45.599998474121</ele>
        <time>2022-06-16T09:19:40.000Z</time>
      </trkpt>
      <trkpt lat="47.30217" lon="-2.30529">
        <ele>-45.599998474121</ele>
        <time>2022-06-16T09:19:46.000Z</time>
      </trkpt>
      <trkpt lat="47.30228" lon="-2.30552">
        <ele>-45.599998474121</ele>
        <time>2022-06-16T09:19:51.000Z</time>
      </trkpt>
      <trkpt lat="47.30231" lon="-2.30563">
        <ele>-45.599998474121</ele>
        <time>2022-06-16T09:19:53.000Z</time>
      </trkpt>
      <trkpt lat="47.30231" lon="-2.3058">
        <ele>-45.599998474121</ele>
        <time>2022-06-16T09:19:56.000Z</time>
      </trkpt>
      <trkpt lat="47.30221" lon="-2.30592">
        <ele>-45.599998474121</ele>
        <time>2022-06-16T09:19:59.000Z</time>
      </trkpt>
      <trkpt lat="47.30208" lon="-2.30601">
        <ele>-45.599998474121</ele>
        <time>2022-06-16T09:20:02.000Z</time>
      </trkpt>
      <trkpt lat="47.30204" lon="-2.30606">
        <ele>-45.599998474121</ele>
        <time>2022-06-16T09:20:03.000Z</time>
      </trkpt>
      <trkpt lat="47.30201" lon="-2.30611">
        <ele>-45.599998474121</ele>
        <time>2022-06-16T09:20:04.000Z</time>
      </trkpt>
      <trkpt lat="47.30188" lon="-2.30629">
        <ele>-45.599998474121</ele>
        <time>2022-06-16T09:20:08.000Z</time>
      </trkpt>
      <trkpt lat="47.30184" lon="-2.30632">
        <ele>-45.599998474121</ele>
        <time>2022-06-16T09:20:09.000Z</time>
      </trkpt>
      <trkpt lat="47.30174" lon="-2.30637">
        <ele>-45.599998474121</ele>
        <time>2022-06-16T09:20:11.000Z</time>
      </trkpt>
      <trkpt lat="47.30168" lon="-2.30651">
        <ele>-45.599998474121</ele>
        <time>2022-06-16T09:20:13.000Z</time>
      </trkpt>
      <trkpt lat="47.30168" lon="-2.3067">
        <ele>-45.599998474121</ele>
        <time>2022-06-16T09:20:15.000Z</time>
      </trkpt>
      <trkpt lat="47.30168" lon="-2.30689">
        <ele>-45.599998474121</ele>
        <time>2022-06-16T09:20:17.000Z</time>
      </trkpt>
      <trkpt lat="47.3017" lon="-2.30746">
        <ele>-45.599998474121</ele>
        <time>2022-06-16T09:20:23.000Z</time>
      </trkpt>
      <trkpt lat="47.30169" lon="-2.30755">
        <ele>-45.599998474121</ele>
        <time>2022-06-16T09:20:24.000Z</time>
      </trkpt>
      <trkpt lat="47.30164" lon="-2.30781">
        <ele>-45.599998474121</ele>
        <time>2022-06-16T09:20:27.000Z</time>
      </trkpt>
      <trkpt lat="47.30166" lon="-2.30798">
        <ele>-45.599998474121</ele>
        <time>2022-06-16T09:20:29.000Z</time>
      </trkpt>
      <trkpt lat="47.30176" lon="-2.3082">
        <ele>-45.599998474121</ele>
        <time>2022-06-16T09:20:33.000Z</time>
      </trkpt>
      <trkpt lat="47.30185" lon="-2.30828">
        <ele>-45.599998474121</ele>
        <time>2022-06-16T09:20:35.000Z</time>
      </trkpt>
      <trkpt lat="47.30203" lon="-2.30845">
        <ele>-45.599998474121</ele>
        <time>2022-06-16T09:20:39.000Z</time>
      </trkpt>
      <trkpt lat="47.30234" lon="-2.30873">
        <ele>-45.200000762939</ele>
        <time>2022-06-16T09:20:45.000Z</time>
      </trkpt>
      <trkpt lat="47.30239" lon="-2.30878">
        <ele>-44.799999237061</ele>
        <time>2022-06-16T09:20:46.000Z</time>
      </trkpt>
      <trkpt lat="47.30244" lon="-2.30883">
        <ele>-44.400001525879</ele>
        <time>2022-06-16T09:20:47.000Z</time>
      </trkpt>
      <trkpt lat="47.30249" lon="-2.30889">
        <ele>-44</ele>
        <time>2022-06-16T09:20:48.000Z</time>
      </trkpt>
      <trkpt lat="47.30253" lon="-2.30894">
        <ele>-43.599998474121</ele>
        <time>2022-06-16T09:20:49.000Z</time>
      </trkpt>
      <trkpt lat="47.30274" lon="-2.30922">
        <ele>-43.599998474121</ele>
        <time>2022-06-16T09:20:54.000Z</time>
      </trkpt>
      <trkpt lat="47.30282" lon="-2.30931">
        <ele>-43</ele>
        <time>2022-06-16T09:20:56.000Z</time>
      </trkpt>
      <trkpt lat="47.30286" lon="-2.30936">
        <ele>-42.599998474121</ele>
        <time>2022-06-16T09:20:57.000Z</time>
      </trkpt>
      <trkpt lat="47.30289" lon="-2.30941">
        <ele>-42.200000762939</ele>
        <time>2022-06-16T09:20:58.000Z</time>
      </trkpt>
      <trkpt lat="47.30293" lon="-2.30947">
        <ele>-41.799999237061</ele>
        <time>2022-06-16T09:20:59.000Z</time>
      </trkpt>
      <trkpt lat="47.30297" lon="-2.30952">
        <ele>-41.200000762939</ele>
        <time>2022-06-16T09:21:00.000Z</time>
      </trkpt>
      <trkpt lat="47.30301" lon="-2.30958">
        <ele>-41.200000762939</ele>
        <time>2022-06-16T09:21:01.000Z</time>
      </trkpt>
      <trkpt lat="47.30316" lon="-2.30979">
        <ele>-40.799999237061</ele>
        <time>2022-06-16T09:21:05.000Z</time>
      </trkpt>
      <trkpt lat="47.3032" lon="-2.30984">
        <ele>-40.400001525879</ele>
        <time>2022-06-16T09:21:06.000Z</time>
      </trkpt>
      <trkpt lat="47.30323" lon="-2.30988">
        <ele>-40</ele>
        <time>2022-06-16T09:21:07.000Z</time>
      </trkpt>
      <trkpt lat="47.30327" lon="-2.30992">
        <ele>-39.599998474121</ele>
        <time>2022-06-16T09:21:08.000Z</time>
      </trkpt>
      <trkpt lat="47.3033" lon="-2.30997">
        <ele>-39.200000762939</ele>
        <time>2022-06-16T09:21:09.000Z</time>
      </trkpt>
      <trkpt lat="47.30344" lon="-2.31015">
        <ele>-38.799999237061</ele>
        <time>2022-06-16T09:21:13.000Z</time>
      </trkpt>
      <trkpt lat="47.30348" lon="-2.3102">
        <ele>-38.400001525879</ele>
        <time>2022-06-16T09:21:14.000Z</time>
      </trkpt>
      <trkpt lat="47.30352" lon="-2.31025">
        <ele>-38</ele>
        <time>2022-06-16T09:21:15.000Z</time>
      </trkpt>
      <trkpt lat="47.30356" lon="-2.3103">
        <ele>-37.400001525879</ele>
        <time>2022-06-16T09:21:16.000Z</time>
      </trkpt>
      <trkpt lat="47.30359" lon="-2.31034">
        <ele>-37</ele>
        <time>2022-06-16T09:21:17.000Z</time>
      </trkpt>
      <trkpt lat="47.3037" lon="-2.31049">
        <ele>-37</ele>
        <time>2022-06-16T09:21:20.000Z</time>
      </trkpt>
      <trkpt lat="47.30396" lon="-2.31084">
        <ele>-36.599998474121</ele>
        <time>2022-06-16T09:21:27.000Z</time>
      </trkpt>
      <trkpt lat="47.304" lon="-2.31088">
        <ele>-36.200000762939</ele>
        <time>2022-06-16T09:21:28.000Z</time>
      </trkpt>
      <trkpt lat="47.30405" lon="-2.31091">
        <ele>-35.799999237061</ele>
        <time>2022-06-16T09:21:29.000Z</time>
      </trkpt>
      <trkpt lat="47.30409" lon="-2.31095">
        <ele>-35.400001525879</ele>
        <time>2022-06-16T09:21:30.000Z</time>
      </trkpt>
      <trkpt lat="47.30413" lon="-2.31099">
        <ele>-35</ele>
        <time>2022-06-16T09:21:31.000Z</time>
      </trkpt>
      <trkpt lat="47.30421" lon="-2.31106">
        <ele>-35</ele>
        <time>2022-06-16T09:21:33.000Z</time>
      </trkpt>
      <trkpt lat="47.30441" lon="-2.31124">
        <ele>-35</ele>
        <time>2022-06-16T09:21:38.000Z</time>
      </trkpt>
      <trkpt lat="47.30447" lon="-2.31133">
        <ele>-35</ele>
        <time>2022-06-16T09:21:40.000Z</time>
      </trkpt>
      <trkpt lat="47.30453" lon="-2.31144">
        <ele>-35</ele>
        <time>2022-06-16T09:21:42.000Z</time>
      </trkpt>
      <trkpt lat="47.30456" lon="-2.31157">
        <ele>-35</ele>
        <time>2022-06-16T09:21:44.000Z</time>
      </trkpt>
      <trkpt lat="47.30472" lon="-2.31209">
        <ele>-35</ele>
        <time>2022-06-16T09:21:51.000Z</time>
      </trkpt>
      <trkpt lat="47.30484" lon="-2.3124">
        <ele>-35</ele>
        <time>2022-06-16T09:21:55.000Z</time>
      </trkpt>
      <trkpt lat="47.30491" lon="-2.31254">
        <ele>-35</ele>
        <time>2022-06-16T09:21:57.000Z</time>
      </trkpt>
      <trkpt lat="47.30525" lon="-2.3131">
        <ele>-35</ele>
        <time>2022-06-16T09:22:05.000Z</time>
      </trkpt>
      <trkpt lat="47.30556" lon="-2.31358">
        <ele>-35</ele>
        <time>2022-06-16T09:22:12.000Z</time>
      </trkpt>
      <trkpt lat="47.30575" lon="-2.3139">
        <ele>-35</ele>
        <time>2022-06-16T09:22:17.000Z</time>
      </trkpt>
      <trkpt lat="47.30596" lon="-2.31436">
        <ele>-35</ele>
        <time>2022-06-16T09:22:23.000Z</time>
      </trkpt>
      <trkpt lat="47.30619" lon="-2.31492">
        <ele>-35</ele>
        <time>2022-06-16T09:22:30.000Z</time>
      </trkpt>
      <trkpt lat="47.30638" lon="-2.31537">
        <ele>-35</ele>
        <time>2022-06-16T09:22:36.000Z</time>
      </trkpt>
      <trkpt lat="47.30666" lon="-2.31604">
        <ele>-35</ele>
        <time>2022-06-16T09:22:44.000Z</time>
      </trkpt>
      <trkpt lat="47.3067" lon="-2.31612">
        <ele>-35.400001525879</ele>
        <time>2022-06-16T09:22:45.000Z</time>
      </trkpt>
      <trkpt lat="47.30675" lon="-2.31622">
        <ele>-35.799999237061</ele>
        <time>2022-06-16T09:22:46.000Z</time>
      </trkpt>
      <trkpt lat="47.30679" lon="-2.31631">
        <ele>-36.200000762939</ele>
        <time>2022-06-16T09:22:47.000Z</time>
      </trkpt>
      <trkpt lat="47.30683" lon="-2.31641">
        <ele>-36.599998474121</ele>
        <time>2022-06-16T09:22:48.000Z</time>
      </trkpt>
      <trkpt lat="47.30687" lon="-2.3165">
        <ele>-37</ele>
        <time>2022-06-16T09:22:49.000Z</time>
      </trkpt>
      <trkpt lat="47.3069" lon="-2.3166">
        <ele>-37</ele>
        <time>2022-06-16T09:22:50.000Z</time>
      </trkpt>
      <trkpt lat="47.307" lon="-2.31685">
        <ele>-37</ele>
        <time>2022-06-16T09:22:53.000Z</time>
      </trkpt>
      <trkpt lat="47.30706" lon="-2.31698">
        <ele>-37</ele>
        <time>2022-06-16T09:22:55.000Z</time>
      </trkpt>
      <trkpt lat="47.30725" lon="-2.31749">
        <ele>-37</ele>
        <time>2022-06-16T09:23:02.000Z</time>
      </trkpt>
      <trkpt lat="47.30728" lon="-2.31755">
        <ele>-37</ele>
        <time>2022-06-16T09:23:03.000Z</time>
      </trkpt>
      <trkpt lat="47.30736" lon="-2.31762">
        <ele>-37</ele>
        <time>2022-06-16T09:23:05.000Z</time>
      </trkpt>
      <trkpt lat="47.30749" lon="-2.3176">
        <ele>-37</ele>
        <time>2022-06-16T09:23:08.000Z</time>
      </trkpt>
      <trkpt lat="47.30762" lon="-2.31746">
        <ele>-37</ele>
        <time>2022-06-16T09:23:12.000Z</time>
      </trkpt>
      <trkpt lat="47.30766" lon="-2.31741">
        <ele>-37</ele>
        <time>2022-06-16T09:23:13.000Z</time>
      </trkpt>
      <trkpt lat="47.30787" lon="-2.31714">
        <ele>-36.599998474121</ele>
        <time>2022-06-16T09:23:19.000Z</time>
      </trkpt>
      <trkpt lat="47.30791" lon="-2.3171">
        <ele>-36.200000762939</ele>
        <time>2022-06-16T09:23:20.000Z</time>
      </trkpt>
      <trkpt lat="47.30796" lon="-2.31705">
        <ele>-35.799999237061</ele>
        <time>2022-06-16T09:23:21.000Z</time>
      </trkpt>
      <trkpt lat="47.308" lon="-2.31701">
        <ele>-35.400001525879</ele>
        <time>2022-06-16T09:23:22.000Z</time>
      </trkpt>
      <trkpt lat="47.30803" lon="-2.31696">
        <ele>-35</ele>
        <time>2022-06-16T09:23:23.000Z</time>
      </trkpt>
      <trkpt lat="47.30825" lon="-2.3167">
        <ele>-35</ele>
        <time>2022-06-16T09:23:29.000Z</time>
      </trkpt>
      <trkpt lat="47.30836" lon="-2.31657">
        <ele>-34.599998474121</ele>
        <time>2022-06-16T09:23:32.000Z</time>
      </trkpt>
      <trkpt lat="47.30839" lon="-2.31653">
        <ele>-34.200000762939</ele>
        <time>2022-06-16T09:23:33.000Z</time>
      </trkpt>
      <trkpt lat="47.30843" lon="-2.3165">
        <ele>-33.799999237061</ele>
        <time>2022-06-16T09:23:34.000Z</time>
      </trkpt>
      <trkpt lat="47.30847" lon="-2.31648">
        <ele>-33.200000762939</ele>
        <time>2022-06-16T09:23:35.000Z</time>
      </trkpt>
      <trkpt lat="47.30852" lon="-2.31649">
        <ele>-32.799999237061</ele>
        <time>2022-06-16T09:23:36.000Z</time>
      </trkpt>
      <trkpt lat="47.30863" lon="-2.31661">
        <ele>-32.799999237061</ele>
        <time>2022-06-16T09:23:39.000Z</time>
      </trkpt>
      <trkpt lat="47.30893" lon="-2.31701">
        <ele>-32.799999237061</ele>
        <time>2022-06-16T09:23:47.000Z</time>
      </trkpt>
      <trkpt lat="47.30919" lon="-2.31733">
        <ele>-32.799999237061</ele>
        <time>2022-06-16T09:23:53.000Z</time>
      </trkpt>
      <trkpt lat="47.30961" lon="-2.3178">
        <ele>-32.799999237061</ele>
        <time>2022-06-16T09:24:02.000Z</time>
      </trkpt>
      <trkpt lat="47.30995" lon="-2.31812">
        <ele>-32.799999237061</ele>
        <time>2022-06-16T09:24:09.000Z</time>
      </trkpt>
      <trkpt lat="47.31003" lon="-2.31821">
        <ele>-32.799999237061</ele>
        <time>2022-06-16T09:24:11.000Z</time>
      </trkpt>
      <trkpt lat="47.31006" lon="-2.31834">
        <ele>-32.799999237061</ele>
        <time>2022-06-16T09:24:13.000Z</time>
      </trkpt>
      <trkpt lat="47.31001" lon="-2.31856">
        <ele>-32.799999237061</ele>
        <time>2022-06-16T09:24:16.000Z</time>
      </trkpt>
      <trkpt lat="47.30991" lon="-2.31885">
        <ele>-32.799999237061</ele>
        <time>2022-06-16T09:24:20.000Z</time>
      </trkpt>
      <trkpt lat="47.3099" lon="-2.31893">
        <ele>-32.799999237061</ele>
        <time>2022-06-16T09:24:21.000Z</time>
      </trkpt>
      <trkpt lat="47.30984" lon="-2.31914">
        <ele>-32.799999237061</ele>
        <time>2022-06-16T09:24:24.000Z</time>
      </trkpt>
      <trkpt lat="47.3098" lon="-2.31926">
        <ele>-32.799999237061</ele>
        <time>2022-06-16T09:24:26.000Z</time>
      </trkpt>
      <trkpt lat="47.30969" lon="-2.31961">
        <ele>-32.799999237061</ele>
        <time>2022-06-16T09:24:31.000Z</time>
      </trkpt>
      <trkpt lat="47.30969" lon="-2.31967">
        <ele>-32.799999237061</ele>
        <time>2022-06-16T09:24:32.000Z</time>
      </trkpt>
      <trkpt lat="47.30971" lon="-2.31978">
        <ele>-32.799999237061</ele>
        <time>2022-06-16T09:24:34.000Z</time>
      </trkpt>
      <trkpt lat="47.30976" lon="-2.31989">
        <ele>-32.799999237061</ele>
        <time>2022-06-16T09:24:36.000Z</time>
      </trkpt>
      <trkpt lat="47.30985" lon="-2.3201">
        <ele>-32.799999237061</ele>
        <time>2022-06-16T09:24:40.000Z</time>
      </trkpt>
      <trkpt lat="47.30994" lon="-2.32033">
        <ele>-32.799999237061</ele>
        <time>2022-06-16T09:24:46.000Z</time>
      </trkpt>
      <trkpt lat="47.31007" lon="-2.32058">
        <ele>-32.799999237061</ele>
        <time>2022-06-16T09:24:52.000Z</time>
      </trkpt>
      <trkpt lat="47.31027" lon="-2.32092">
        <ele>-32.799999237061</ele>
        <time>2022-06-16T09:24:59.000Z</time>
      </trkpt>
      <trkpt lat="47.31047" lon="-2.32121">
        <ele>-32.400001525879</ele>
        <time>2022-06-16T09:25:05.000Z</time>
      </trkpt>
      <trkpt lat="47.31051" lon="-2.32127">
        <ele>-32</ele>
        <time>2022-06-16T09:25:06.000Z</time>
      </trkpt>
      <trkpt lat="47.31054" lon="-2.32131">
        <ele>-31.60000038147</ele>
        <time>2022-06-16T09:25:07.000Z</time>
      </trkpt>
      <trkpt lat="47.31057" lon="-2.32135">
        <ele>-31.200000762939</ele>
        <time>2022-06-16T09:25:08.000Z</time>
      </trkpt>
      <trkpt lat="47.3106" lon="-2.32139">
        <ele>-30.799999237061</ele>
        <time>2022-06-16T09:25:09.000Z</time>
      </trkpt>
      <trkpt lat="47.31066" lon="-2.3215">
        <ele>-30.799999237061</ele>
        <time>2022-06-16T09:25:11.000Z</time>
      </trkpt>
      <trkpt lat="47.31084" lon="-2.32183">
        <ele>-30.799999237061</ele>
        <time>2022-06-16T09:25:18.000Z</time>
      </trkpt>
      <trkpt lat="47.31096" lon="-2.32212">
        <ele>-30.799999237061</ele>
        <time>2022-06-16T09:25:24.000Z</time>
      </trkpt>
      <trkpt lat="47.31097" lon="-2.32216">
        <ele>-30.39999961853</ele>
        <time>2022-06-16T09:25:25.000Z</time>
      </trkpt>
      <trkpt lat="47.31099" lon="-2.32221">
        <ele>-30</ele>
        <time>2022-06-16T09:25:26.000Z</time>
      </trkpt>
      <trkpt lat="47.31101" lon="-2.32226">
        <ele>-29.60000038147</ele>
        <time>2022-06-16T09:25:27.000Z</time>
      </trkpt>
      <trkpt lat="47.31102" lon="-2.3223">
        <ele>-29.200000762939</ele>
        <time>2022-06-16T09:25:28.000Z</time>
      </trkpt>
      <trkpt lat="47.31104" lon="-2.32234">
        <ele>-28.799999237061</ele>
        <time>2022-06-16T09:25:29.000Z</time>
      </trkpt>
      <trkpt lat="47.31111" lon="-2.32253">
        <ele>-28.799999237061</ele>
        <time>2022-06-16T09:25:33.000Z</time>
      </trkpt>
      <trkpt lat="47.31117" lon="-2.32265">
        <ele>-28.200000762939</ele>
        <time>2022-06-16T09:25:36.000Z</time>
      </trkpt>
      <trkpt lat="47.31119" lon="-2.32269">
        <ele>-27.799999237061</ele>
        <time>2022-06-16T09:25:37.000Z</time>
      </trkpt>
      <trkpt lat="47.31121" lon="-2.32273">
        <ele>-27.39999961853</ele>
        <time>2022-06-16T09:25:38.000Z</time>
      </trkpt>
      <trkpt lat="47.31123" lon="-2.32277">
        <ele>-27</ele>
        <time>2022-06-16T09:25:39.000Z</time>
      </trkpt>
      <trkpt lat="47.31125" lon="-2.32281">
        <ele>-26.60000038147</ele>
        <time>2022-06-16T09:25:40.000Z</time>
      </trkpt>
      <trkpt lat="47.31135" lon="-2.32304">
        <ele>-26.60000038147</ele>
        <time>2022-06-16T09:25:47.000Z</time>
      </trkpt>
      <trkpt lat="47.31143" lon="-2.32336">
        <ele>-26.60000038147</ele>
        <time>2022-06-16T09:25:54.000Z</time>
      </trkpt>
      <trkpt lat="47.31144" lon="-2.3234">
        <ele>-26.200000762939</ele>
        <time>2022-06-16T09:25:55.000Z</time>
      </trkpt>
      <trkpt lat="47.31145" lon="-2.32345">
        <ele>-25.799999237061</ele>
        <time>2022-06-16T09:25:56.000Z</time>
      </trkpt>
      <trkpt lat="47.31145" lon="-2.3235">
        <ele>-25.39999961853</ele>
        <time>2022-06-16T09:25:57.000Z</time>
      </trkpt>
      <trkpt lat="47.31146" lon="-2.32355">
        <ele>-25</ele>
        <time>2022-06-16T09:25:58.000Z</time>
      </trkpt>
      <trkpt lat="47.31146" lon="-2.3236">
        <ele>-24.60000038147</ele>
        <time>2022-06-16T09:25:59.000Z</time>
      </trkpt>
      <trkpt lat="47.31148" lon="-2.32375">
        <ele>-24.60000038147</ele>
        <time>2022-06-16T09:26:02.000Z</time>
      </trkpt>
      <trkpt lat="47.31149" lon="-2.32413">
        <ele>-24.60000038147</ele>
        <time>2022-06-16T09:26:09.000Z</time>
      </trkpt>
      <trkpt lat="47.31159" lon="-2.32425">
        <ele>-24.60000038147</ele>
        <time>2022-06-16T09:26:13.000Z</time>
      </trkpt>
      <trkpt lat="47.31174" lon="-2.32428">
        <ele>-24.60000038147</ele>
        <time>2022-06-16T09:26:19.000Z</time>
      </trkpt>
      <trkpt lat="47.31178" lon="-2.3243">
        <ele>-24.60000038147</ele>
        <time>2022-06-16T09:26:23.000Z</time>
      </trkpt>
      <trkpt lat="47.31178" lon="-2.3243">
        <ele>-24.60000038147</ele>
        <time>2022-06-16T09:26:24.000Z</time>
      </trkpt>
      <trkpt lat="47.31183" lon="-2.32433">
        <ele>-22.39999961853</ele>
        <time>2022-06-16T09:27:11.000Z</time>
      </trkpt>
      <trkpt lat="47.31188" lon="-2.32433">
        <ele>-22.39999961853</ele>
        <time>2022-06-16T09:27:13.000Z</time>
      </trkpt>
      <trkpt lat="47.31204" lon="-2.32425">
        <ele>-22.39999961853</ele>
        <time>2022-06-16T09:27:18.000Z</time>
      </trkpt>
      <trkpt lat="47.3123" lon="-2.32409">
        <ele>-22.39999961853</ele>
        <time>2022-06-16T09:27:25.000Z</time>
      </trkpt>
      <trkpt lat="47.31255" lon="-2.32391">
        <ele>-22.39999961853</ele>
        <time>2022-06-16T09:27:31.000Z</time>
      </trkpt>
      <trkpt lat="47.3128" lon="-2.32368">
        <ele>-22.39999961853</ele>
        <time>2022-06-16T09:27:38.000Z</time>
      </trkpt>
      <trkpt lat="47.31286" lon="-2.32363">
        <ele>-22.39999961853</ele>
        <time>2022-06-16T09:27:42.000Z</time>
      </trkpt>
      <trkpt lat="47.31288" lon="-2.32361">
        <ele>-22.39999961853</ele>
        <time>2022-06-16T09:28:25.000Z</time>
      </trkpt>
      <trkpt lat="47.31292" lon="-2.32354">
        <ele>-22.39999961853</ele>
        <time>2022-06-16T09:28:27.000Z</time>
      </trkpt>
      <trkpt lat="47.31306" lon="-2.3234">
        <ele>-22.39999961853</ele>
        <time>2022-06-16T09:28:31.000Z</time>
      </trkpt>
      <trkpt lat="47.31335" lon="-2.32312">
        <ele>-22.39999961853</ele>
        <time>2022-06-16T09:28:37.000Z</time>
      </trkpt>
      <trkpt lat="47.31351" lon="-2.32299">
        <ele>-22.39999961853</ele>
        <time>2022-06-16T09:28:40.000Z</time>
      </trkpt>
      <trkpt lat="47.31363" lon="-2.32293">
        <ele>-22.39999961853</ele>
        <time>2022-06-16T09:28:42.000Z</time>
      </trkpt>
      <trkpt lat="47.31389" lon="-2.32282">
        <ele>-22.39999961853</ele>
        <time>2022-06-16T09:28:47.000Z</time>
      </trkpt>
      <trkpt lat="47.31428" lon="-2.32271">
        <ele>-22.39999961853</ele>
        <time>2022-06-16T09:28:54.000Z</time>
      </trkpt>
      <trkpt lat="47.31445" lon="-2.32263">
        <ele>-22.39999961853</ele>
        <time>2022-06-16T09:28:57.000Z</time>
      </trkpt>
      <trkpt lat="47.31454" lon="-2.32254">
        <ele>-22.39999961853</ele>
        <time>2022-06-16T09:28:59.000Z</time>
      </trkpt>
      <trkpt lat="47.31464" lon="-2.32233">
        <ele>-22.39999961853</ele>
        <time>2022-06-16T09:29:02.000Z</time>
      </trkpt>
      <trkpt lat="47.31469" lon="-2.3222">
        <ele>-22.39999961853</ele>
        <time>2022-06-16T09:29:04.000Z</time>
      </trkpt>
      <trkpt lat="47.31487" lon="-2.32175">
        <ele>-22.39999961853</ele>
        <time>2022-06-16T09:29:11.000Z</time>
      </trkpt>
      <trkpt lat="47.31501" lon="-2.32178">
        <ele>-22</ele>
        <time>2022-06-16T09:29:14.000Z</time>
      </trkpt>
      <trkpt lat="47.31506" lon="-2.32181">
        <ele>-21.60000038147</ele>
        <time>2022-06-16T09:29:15.000Z</time>
      </trkpt>
      <trkpt lat="47.3151" lon="-2.32182">
        <ele>-21.200000762939</ele>
        <time>2022-06-16T09:29:16.000Z</time>
      </trkpt>
      <trkpt lat="47.31515" lon="-2.3218">
        <ele>-20.799999237061</ele>
        <time>2022-06-16T09:29:17.000Z</time>
      </trkpt>
      <trkpt lat="47.31518" lon="-2.32176">
        <ele>-20.39999961853</ele>
        <time>2022-06-16T09:29:18.000Z</time>
      </trkpt>
      <trkpt lat="47.31516" lon="-2.3216">
        <ele>-20.39999961853</ele>
        <time>2022-06-16T09:29:21.000Z</time>
      </trkpt>
      <trkpt lat="47.31513" lon="-2.32155">
        <ele>-20.39999961853</ele>
        <time>2022-06-16T09:29:22.000Z</time>
      </trkpt>
      <trkpt lat="47.315" lon="-2.32131">
        <ele>-20.39999961853</ele>
        <time>2022-06-16T09:29:26.000Z</time>
      </trkpt>
      <trkpt lat="47.31497" lon="-2.32124">
        <ele>-20.39999961853</ele>
        <time>2022-06-16T09:29:27.000Z</time>
      </trkpt>
      <trkpt lat="47.31498" lon="-2.32108">
        <ele>-20.39999961853</ele>
        <time>2022-06-16T09:29:30.000Z</time>
      </trkpt>
      <trkpt lat="47.31501" lon="-2.32106">
        <ele>-20.39999961853</ele>
        <time>2022-06-16T09:29:32.000Z</time>
      </trkpt>
      <trkpt lat="47.31505" lon="-2.32104">
        <ele>-20.39999961853</ele>
        <time>2022-06-16T09:29:34.000Z</time>
      </trkpt>
      <trkpt lat="47.31514" lon="-2.32109">
        <ele>-20.39999961853</ele>
        <time>2022-06-16T09:29:37.000Z</time>
      </trkpt>
      <trkpt lat="47.31534" lon="-2.32112">
        <ele>-20.39999961853</ele>
        <time>2022-06-16T09:29:42.000Z</time>
      </trkpt>
      <trkpt lat="47.31543" lon="-2.32114">
        <ele>-20.39999961853</ele>
        <time>2022-06-16T09:29:44.000Z</time>
      </trkpt>
      <trkpt lat="47.31558" lon="-2.32117">
        <ele>-20.39999961853</ele>
        <time>2022-06-16T09:29:47.000Z</time>
      </trkpt>
      <trkpt lat="47.31562" lon="-2.32119">
        <ele>-20.39999961853</ele>
        <time>2022-06-16T09:29:48.000Z</time>
      </trkpt>
      <trkpt lat="47.31578" lon="-2.32122">
        <ele>-20.39999961853</ele>
        <time>2022-06-16T09:29:51.000Z</time>
      </trkpt>
      <trkpt lat="47.31583" lon="-2.32123">
        <ele>-20</ele>
        <time>2022-06-16T09:29:52.000Z</time>
      </trkpt>
      <trkpt lat="47.31587" lon="-2.32124">
        <ele>-19.60000038147</ele>
        <time>2022-06-16T09:29:53.000Z</time>
      </trkpt>
      <trkpt lat="47.31592" lon="-2.32125">
        <ele>-19.200000762939</ele>
        <time>2022-06-16T09:29:54.000Z</time>
      </trkpt>
      <trkpt lat="47.31597" lon="-2.32126">
        <ele>-18.799999237061</ele>
        <time>2022-06-16T09:29:55.000Z</time>
      </trkpt>
      <trkpt lat="47.31602" lon="-2.32128">
        <ele>-18.39999961853</ele>
        <time>2022-06-16T09:29:56.000Z</time>
      </trkpt>
      <trkpt lat="47.31623" lon="-2.32134">
        <ele>-18.39999961853</ele>
        <time>2022-06-16T09:30:00.000Z</time>
      </trkpt>
      <trkpt lat="47.31628" lon="-2.32135">
        <ele>-18.39999961853</ele>
        <time>2022-06-16T09:30:01.000Z</time>
      </trkpt>
      <trkpt lat="47.31653" lon="-2.32141">
        <ele>-18.39999961853</ele>
        <time>2022-06-16T09:30:06.000Z</time>
      </trkpt>
      <trkpt lat="47.31657" lon="-2.32143">
        <ele>-18.39999961853</ele>
        <time>2022-06-16T09:30:07.000Z</time>
      </trkpt>
      <trkpt lat="47.31662" lon="-2.32144">
        <ele>-18.39999961853</ele>
        <time>2022-06-16T09:30:08.000Z</time>
      </trkpt>
      <trkpt lat="47.3168" lon="-2.32149">
        <ele>-18.39999961853</ele>
        <time>2022-06-16T09:30:12.000Z</time>
      </trkpt>
      <trkpt lat="47.31725" lon="-2.32159">
        <ele>-18.39999961853</ele>
        <time>2022-06-16T09:30:21.000Z</time>
      </trkpt>
      <trkpt lat="47.31771" lon="-2.3217">
        <ele>-18.39999961853</ele>
        <time>2022-06-16T09:30:29.000Z</time>
      </trkpt>
      <trkpt lat="47.31823" lon="-2.32181">
        <ele>-18.39999961853</ele>
        <time>2022-06-16T09:30:37.000Z</time>
      </trkpt>
      <trkpt lat="47.31837" lon="-2.32184">
        <ele>-18.799999237061</ele>
        <time>2022-06-16T09:30:39.000Z</time>
      </trkpt>
      <trkpt lat="47.31844" lon="-2.32186">
        <ele>-19.39999961853</ele>
        <time>2022-06-16T09:30:40.000Z</time>
      </trkpt>
      <trkpt lat="47.31851" lon="-2.32188">
        <ele>-19.799999237061</ele>
        <time>2022-06-16T09:30:41.000Z</time>
      </trkpt>
      <trkpt lat="47.31859" lon="-2.3219">
        <ele>-20.200000762939</ele>
        <time>2022-06-16T09:30:42.000Z</time>
      </trkpt>
      <trkpt lat="47.31866" lon="-2.32191">
        <ele>-20.799999237061</ele>
        <time>2022-06-16T09:30:43.000Z</time>
      </trkpt>
      <trkpt lat="47.31873" lon="-2.32193">
        <ele>-20.799999237061</ele>
        <time>2022-06-16T09:30:44.000Z</time>
      </trkpt>
      <trkpt lat="47.3188" lon="-2.32194">
        <ele>-21.200000762939</ele>
        <time>2022-06-16T09:30:45.000Z</time>
      </trkpt>
      <trkpt lat="47.31886" lon="-2.32195">
        <ele>-21.60000038147</ele>
        <time>2022-06-16T09:30:46.000Z</time>
      </trkpt>
      <trkpt lat="47.31891" lon="-2.32195">
        <ele>-22.200000762939</ele>
        <time>2022-06-16T09:30:47.000Z</time>
      </trkpt>
      <trkpt lat="47.31894" lon="-2.32197">
        <ele>-22.60000038147</ele>
        <time>2022-06-16T09:30:48.000Z</time>
      </trkpt>
      <trkpt lat="47.31897" lon="-2.322">
        <ele>-23.200000762939</ele>
        <time>2022-06-16T09:30:49.000Z</time>
      </trkpt>
      <trkpt lat="47.31897" lon="-2.32204">
        <ele>-23.60000038147</ele>
        <time>2022-06-16T09:30:50.000Z</time>
      </trkpt>
      <trkpt lat="47.31896" lon="-2.32207">
        <ele>-24.200000762939</ele>
        <time>2022-06-16T09:30:51.000Z</time>
      </trkpt>
      <trkpt lat="47.31892" lon="-2.32209">
        <ele>-24.799999237061</ele>
        <time>2022-06-16T09:30:52.000Z</time>
      </trkpt>
      <trkpt lat="47.31888" lon="-2.3221">
        <ele>-25.200000762939</ele>
        <time>2022-06-16T09:30:53.000Z</time>
      </trkpt>
      <trkpt lat="47.31883" lon="-2.3221">
        <ele>-25.200000762939</ele>
        <time>2022-06-16T09:30:54.000Z</time>
      </trkpt>
      <trkpt lat="47.31868" lon="-2.32215">
        <ele>-25.200000762939</ele>
        <time>2022-06-16T09:30:57.000Z</time>
      </trkpt>
      <trkpt lat="47.31859" lon="-2.32217">
        <ele>-25.200000762939</ele>
        <time>2022-06-16T09:30:59.000Z</time>
      </trkpt>
      <trkpt lat="47.31851" lon="-2.3222">
        <ele>-24.799999237061</ele>
        <time>2022-06-16T09:31:01.000Z</time>
      </trkpt>
      <trkpt lat="47.31847" lon="-2.32222">
        <ele>-24.39999961853</ele>
        <time>2022-06-16T09:31:02.000Z</time>
      </trkpt>
      <trkpt lat="47.31843" lon="-2.32223">
        <ele>-24</ele>
        <time>2022-06-16T09:31:03.000Z</time>
      </trkpt>
      <trkpt lat="47.31839" lon="-2.32224">
        <ele>-23.39999961853</ele>
        <time>2022-06-16T09:31:04.000Z</time>
      </trkpt>
      <trkpt lat="47.31835" lon="-2.32225">
        <ele>-23</ele>
        <time>2022-06-16T09:31:05.000Z</time>
      </trkpt>
      <trkpt lat="47.31826" lon="-2.32227">
        <ele>-22.60000038147</ele>
        <time>2022-06-16T09:31:07.000Z</time>
      </trkpt>
      <trkpt lat="47.31822" lon="-2.32227">
        <ele>-22.200000762939</ele>
        <time>2022-06-16T09:31:08.000Z</time>
      </trkpt>
      <trkpt lat="47.31818" lon="-2.32228">
        <ele>-21.799999237061</ele>
        <time>2022-06-16T09:31:09.000Z</time>
      </trkpt>
      <trkpt lat="47.31814" lon="-2.32229">
        <ele>-21.39999961853</ele>
        <time>2022-06-16T09:31:10.000Z</time>
      </trkpt>
      <trkpt lat="47.3181" lon="-2.3223">
        <ele>-21</ele>
        <time>2022-06-16T09:31:11.000Z</time>
      </trkpt>
      <trkpt lat="47.31802" lon="-2.32231">
        <ele>-21</ele>
        <time>2022-06-16T09:31:13.000Z</time>
      </trkpt>
      <trkpt lat="47.31773" lon="-2.32235">
        <ele>-20.39999961853</ele>
        <time>2022-06-16T09:31:20.000Z</time>
      </trkpt>
      <trkpt lat="47.31769" lon="-2.32235">
        <ele>-19.60000038147</ele>
        <time>2022-06-16T09:31:21.000Z</time>
      </trkpt>
      <trkpt lat="47.31764" lon="-2.32237">
        <ele>-19.200000762939</ele>
        <time>2022-06-16T09:31:22.000Z</time>
      </trkpt>
      <trkpt lat="47.31761" lon="-2.3224">
        <ele>-18.799999237061</ele>
        <time>2022-06-16T09:31:23.000Z</time>
      </trkpt>
      <trkpt lat="47.3176" lon="-2.32244">
        <ele>-18.799999237061</ele>
        <time>2022-06-16T09:31:24.000Z</time>
      </trkpt>
      <trkpt lat="47.31762" lon="-2.32263">
        <ele>-18.799999237061</ele>
        <time>2022-06-16T09:31:27.000Z</time>
      </trkpt>
      <trkpt lat="47.31763" lon="-2.32269">
        <ele>-18.799999237061</ele>
        <time>2022-06-16T09:31:28.000Z</time>
      </trkpt>
      <trkpt lat="47.31768" lon="-2.32308">
        <ele>-18.799999237061</ele>
        <time>2022-06-16T09:31:33.000Z</time>
      </trkpt>
      <trkpt lat="47.31781" lon="-2.32376">
        <ele>-18.799999237061</ele>
        <time>2022-06-16T09:31:41.000Z</time>
      </trkpt>
      <trkpt lat="47.31789" lon="-2.32412">
        <ele>-19.60000038147</ele>
        <time>2022-06-16T09:31:45.000Z</time>
      </trkpt>
      <trkpt lat="47.3179" lon="-2.32422">
        <ele>-20</ele>
        <time>2022-06-16T09:31:46.000Z</time>
      </trkpt>
      <trkpt lat="47.31792" lon="-2.32432">
        <ele>-20.39999961853</ele>
        <time>2022-06-16T09:31:47.000Z</time>
      </trkpt>
      <trkpt lat="47.31793" lon="-2.32442">
        <ele>-20.799999237061</ele>
        <time>2022-06-16T09:31:48.000Z</time>
      </trkpt>
      <trkpt lat="47.31797" lon="-2.3246">
        <ele>-20.799999237061</ele>
        <time>2022-06-16T09:31:50.000Z</time>
      </trkpt>
      <trkpt lat="47.31799" lon="-2.3247">
        <ele>-21.39999961853</ele>
        <time>2022-06-16T09:31:51.000Z</time>
      </trkpt>
      <trkpt lat="47.31801" lon="-2.32479">
        <ele>-22</ele>
        <time>2022-06-16T09:31:52.000Z</time>
      </trkpt>
      <trkpt lat="47.31804" lon="-2.32489">
        <ele>-22.60000038147</ele>
        <time>2022-06-16T09:31:53.000Z</time>
      </trkpt>
      <trkpt lat="47.31807" lon="-2.32498">
        <ele>-23</ele>
        <time>2022-06-16T09:31:54.000Z</time>
      </trkpt>
      <trkpt lat="47.31809" lon="-2.32508">
        <ele>-23.60000038147</ele>
        <time>2022-06-16T09:31:55.000Z</time>
      </trkpt>
      <trkpt lat="47.31811" lon="-2.3252">
        <ele>-24.200000762939</ele>
        <time>2022-06-16T09:31:56.000Z</time>
      </trkpt>
      <trkpt lat="47.31813" lon="-2.3253">
        <ele>-24.799999237061</ele>
        <time>2022-06-16T09:31:57.000Z</time>
      </trkpt>
      <trkpt lat="47.31816" lon="-2.3254">
        <ele>-25.200000762939</ele>
        <time>2022-06-16T09:31:58.000Z</time>
      </trkpt>
      <trkpt lat="47.31818" lon="-2.32552">
        <ele>-25.799999237061</ele>
        <time>2022-06-16T09:31:59.000Z</time>
      </trkpt>
      <trkpt lat="47.31829" lon="-2.32607">
        <ele>-26.200000762939</ele>
        <time>2022-06-16T09:32:04.000Z</time>
      </trkpt>
      <trkpt lat="47.31831" lon="-2.32618">
        <ele>-26.799999237061</ele>
        <time>2022-06-16T09:32:05.000Z</time>
      </trkpt>
      <trkpt lat="47.31833" lon="-2.32629">
        <ele>-27.200000762939</ele>
        <time>2022-06-16T09:32:06.000Z</time>
      </trkpt>
      <trkpt lat="47.31836" lon="-2.32641">
        <ele>-27.60000038147</ele>
        <time>2022-06-16T09:32:07.000Z</time>
      </trkpt>
      <trkpt lat="47.31839" lon="-2.32651">
        <ele>-28</ele>
        <time>2022-06-16T09:32:08.000Z</time>
      </trkpt>
      <trkpt lat="47.31843" lon="-2.32661">
        <ele>-28</ele>
        <time>2022-06-16T09:32:09.000Z</time>
      </trkpt>
      <trkpt lat="47.31852" lon="-2.3268">
        <ele>-28.799999237061</ele>
        <time>2022-06-16T09:32:11.000Z</time>
      </trkpt>
      <trkpt lat="47.31856" lon="-2.3269">
        <ele>-29.200000762939</ele>
        <time>2022-06-16T09:32:12.000Z</time>
      </trkpt>
      <trkpt lat="47.31859" lon="-2.32699">
        <ele>-29.60000038147</ele>
        <time>2022-06-16T09:32:13.000Z</time>
      </trkpt>
      <trkpt lat="47.31863" lon="-2.32709">
        <ele>-30</ele>
        <time>2022-06-16T09:32:14.000Z</time>
      </trkpt>
      <trkpt lat="47.31867" lon="-2.32718">
        <ele>-30</ele>
        <time>2022-06-16T09:32:15.000Z</time>
      </trkpt>
      <trkpt lat="47.31878" lon="-2.32747">
        <ele>-30</ele>
        <time>2022-06-16T09:32:18.000Z</time>
      </trkpt>
      <trkpt lat="47.31883" lon="-2.32767">
        <ele>-30</ele>
        <time>2022-06-16T09:32:20.000Z</time>
      </trkpt>
      <trkpt lat="47.31891" lon="-2.32831">
        <ele>-30</ele>
        <time>2022-06-16T09:32:26.000Z</time>
      </trkpt>
      <trkpt lat="47.31891" lon="-2.32841">
        <ele>-30.39999961853</ele>
        <time>2022-06-16T09:32:27.000Z</time>
      </trkpt>
      <trkpt lat="47.31891" lon="-2.32851">
        <ele>-30.799999237061</ele>
        <time>2022-06-16T09:32:28.000Z</time>
      </trkpt>
      <trkpt lat="47.31891" lon="-2.32861">
        <ele>-31.39999961853</ele>
        <time>2022-06-16T09:32:29.000Z</time>
      </trkpt>
      <trkpt lat="47.31891" lon="-2.32871">
        <ele>-31.799999237061</ele>
        <time>2022-06-16T09:32:30.000Z</time>
      </trkpt>
      <trkpt lat="47.3189" lon="-2.32881">
        <ele>-32.200000762939</ele>
        <time>2022-06-16T09:32:31.000Z</time>
      </trkpt>
      <trkpt lat="47.31888" lon="-2.32942">
        <ele>-32.200000762939</ele>
        <time>2022-06-16T09:32:37.000Z</time>
      </trkpt>
      <trkpt lat="47.31883" lon="-2.33009">
        <ele>-32.200000762939</ele>
        <time>2022-06-16T09:32:43.000Z</time>
      </trkpt>
      <trkpt lat="47.31882" lon="-2.33047">
        <ele>-32.200000762939</ele>
        <time>2022-06-16T09:32:47.000Z</time>
      </trkpt>
      <trkpt lat="47.31881" lon="-2.33057">
        <ele>-32.200000762939</ele>
        <time>2022-06-16T09:32:48.000Z</time>
      </trkpt>
      <trkpt lat="47.31877" lon="-2.33118">
        <ele>-32.200000762939</ele>
        <time>2022-06-16T09:32:55.000Z</time>
      </trkpt>
      <trkpt lat="47.31872" lon="-2.33153">
        <ele>-31.60000038147</ele>
        <time>2022-06-16T09:33:00.000Z</time>
      </trkpt>
      <trkpt lat="47.31871" lon="-2.3316">
        <ele>-31.200000762939</ele>
        <time>2022-06-16T09:33:01.000Z</time>
      </trkpt>
      <trkpt lat="47.3187" lon="-2.33167">
        <ele>-30.799999237061</ele>
        <time>2022-06-16T09:33:02.000Z</time>
      </trkpt>
      <trkpt lat="47.3187" lon="-2.33174">
        <ele>-30.39999961853</ele>
        <time>2022-06-16T09:33:03.000Z</time>
      </trkpt>
      <trkpt lat="47.31869" lon="-2.33181">
        <ele>-29.799999237061</ele>
        <time>2022-06-16T09:33:04.000Z</time>
      </trkpt>
      <trkpt lat="47.31868" lon="-2.33196">
        <ele>-29.799999237061</ele>
        <time>2022-06-16T09:33:06.000Z</time>
      </trkpt>
      <trkpt lat="47.31865" lon="-2.33232">
        <ele>-29.39999961853</ele>
        <time>2022-06-16T09:33:11.000Z</time>
      </trkpt>
      <trkpt lat="47.31864" lon="-2.33239">
        <ele>-29</ele>
        <time>2022-06-16T09:33:12.000Z</time>
      </trkpt>
      <trkpt lat="47.31862" lon="-2.33246">
        <ele>-28.60000038147</ele>
        <time>2022-06-16T09:33:13.000Z</time>
      </trkpt>
      <trkpt lat="47.31861" lon="-2.33252">
        <ele>-28.200000762939</ele>
        <time>2022-06-16T09:33:14.000Z</time>
      </trkpt>
      <trkpt lat="47.31858" lon="-2.33259">
        <ele>-27.60000038147</ele>
        <time>2022-06-16T09:33:15.000Z</time>
      </trkpt>
      <trkpt lat="47.31856" lon="-2.33265">
        <ele>-27.60000038147</ele>
        <time>2022-06-16T09:33:16.000Z</time>
      </trkpt>
      <trkpt lat="47.31849" lon="-2.33279">
        <ele>-27.60000038147</ele>
        <time>2022-06-16T09:33:18.000Z</time>
      </trkpt>
      <trkpt lat="47.31846" lon="-2.33284">
        <ele>-27.60000038147</ele>
        <time>2022-06-16T09:33:19.000Z</time>
      </trkpt>
      <trkpt lat="47.31834" lon="-2.33295">
        <ele>-27.60000038147</ele>
        <time>2022-06-16T09:33:22.000Z</time>
      </trkpt>
      <trkpt lat="47.31826" lon="-2.333">
        <ele>-27.200000762939</ele>
        <time>2022-06-16T09:33:24.000Z</time>
      </trkpt>
      <trkpt lat="47.31822" lon="-2.33304">
        <ele>-26.39999961853</ele>
        <time>2022-06-16T09:33:25.000Z</time>
      </trkpt>
      <trkpt lat="47.31818" lon="-2.33307">
        <ele>-26</ele>
        <time>2022-06-16T09:33:26.000Z</time>
      </trkpt>
      <trkpt lat="47.31815" lon="-2.33311">
        <ele>-25.60000038147</ele>
        <time>2022-06-16T09:33:27.000Z</time>
      </trkpt>
      <trkpt lat="47.31805" lon="-2.33318">
        <ele>-25.200000762939</ele>
        <time>2022-06-16T09:33:30.000Z</time>
      </trkpt>
      <trkpt lat="47.31802" lon="-2.3332">
        <ele>-24.60000038147</ele>
        <time>2022-06-16T09:33:31.000Z</time>
      </trkpt>
      <trkpt lat="47.318" lon="-2.33322">
        <ele>-24.200000762939</ele>
        <time>2022-06-16T09:33:32.000Z</time>
      </trkpt>
      <trkpt lat="47.31797" lon="-2.33324">
        <ele>-23.799999237061</ele>
        <time>2022-06-16T09:33:33.000Z</time>
      </trkpt>
      <trkpt lat="47.31793" lon="-2.33327">
        <ele>-23.39999961853</ele>
        <time>2022-06-16T09:33:34.000Z</time>
      </trkpt>
      <trkpt lat="47.31786" lon="-2.33328">
        <ele>-23.39999961853</ele>
        <time>2022-06-16T09:33:36.000Z</time>
      </trkpt>
      <trkpt lat="47.31781" lon="-2.33324">
        <ele>-23.39999961853</ele>
        <time>2022-06-16T09:33:38.000Z</time>
      </trkpt>
      <trkpt lat="47.31778" lon="-2.33321">
        <ele>-23</ele>
        <time>2022-06-16T09:33:39.000Z</time>
      </trkpt>
      <trkpt lat="47.31775" lon="-2.33319">
        <ele>-22.60000038147</ele>
        <time>2022-06-16T09:33:40.000Z</time>
      </trkpt>
      <trkpt lat="47.31772" lon="-2.33315">
        <ele>-22.200000762939</ele>
        <time>2022-06-16T09:33:41.000Z</time>
      </trkpt>
      <trkpt lat="47.3177" lon="-2.33312">
        <ele>-21.799999237061</ele>
        <time>2022-06-16T09:33:42.000Z</time>
      </trkpt>
      <trkpt lat="47.31767" lon="-2.33308">
        <ele>-21.39999961853</ele>
        <time>2022-06-16T09:33:43.000Z</time>
      </trkpt>
      <trkpt lat="47.31758" lon="-2.33285">
        <ele>-21.39999961853</ele>
        <time>2022-06-16T09:33:48.000Z</time>
      </trkpt>
      <trkpt lat="47.31751" lon="-2.3326">
        <ele>-21.39999961853</ele>
        <time>2022-06-16T09:33:53.000Z</time>
      </trkpt>
      <trkpt lat="47.31746" lon="-2.33258">
        <ele>-21.39999961853</ele>
        <time>2022-06-16T09:33:54.000Z</time>
      </trkpt>
      <trkpt lat="47.3173" lon="-2.33262">
        <ele>-21.39999961853</ele>
        <time>2022-06-16T09:33:58.000Z</time>
      </trkpt>
      <trkpt lat="47.31725" lon="-2.33261">
        <ele>-21</ele>
        <time>2022-06-16T09:33:59.000Z</time>
      </trkpt>
      <trkpt lat="47.31719" lon="-2.33261">
        <ele>-20.39999961853</ele>
        <time>2022-06-16T09:34:00.000Z</time>
      </trkpt>
      <trkpt lat="47.31714" lon="-2.33262">
        <ele>-20</ele>
        <time>2022-06-16T09:34:01.000Z</time>
      </trkpt>
      <trkpt lat="47.3171" lon="-2.33262">
        <ele>-19.60000038147</ele>
        <time>2022-06-16T09:34:02.000Z</time>
      </trkpt>
      <trkpt lat="47.31706" lon="-2.33264">
        <ele>-19.200000762939</ele>
        <time>2022-06-16T09:34:03.000Z</time>
      </trkpt>
      <trkpt lat="47.31699" lon="-2.33265">
        <ele>-19.200000762939</ele>
        <time>2022-06-16T09:34:05.000Z</time>
      </trkpt>
      <trkpt lat="47.31689" lon="-2.33268">
        <ele>-18.799999237061</ele>
        <time>2022-06-16T09:34:08.000Z</time>
      </trkpt>
      <trkpt lat="47.31684" lon="-2.33268">
        <ele>-18.39999961853</ele>
        <time>2022-06-16T09:34:09.000Z</time>
      </trkpt>
      <trkpt lat="47.3168" lon="-2.33269">
        <ele>-17.799999237061</ele>
        <time>2022-06-16T09:34:10.000Z</time>
      </trkpt>
      <trkpt lat="47.31676" lon="-2.33271">
        <ele>-17.39999961853</ele>
        <time>2022-06-16T09:34:11.000Z</time>
      </trkpt>
      <trkpt lat="47.31672" lon="-2.33273">
        <ele>-17</ele>
        <time>2022-06-16T09:34:12.000Z</time>
      </trkpt>
      <trkpt lat="47.31667" lon="-2.33276">
        <ele>-17</ele>
        <time>2022-06-16T09:34:13.000Z</time>
      </trkpt>
      <trkpt lat="47.31654" lon="-2.33285">
        <ele>-17</ele>
        <time>2022-06-16T09:34:16.000Z</time>
      </trkpt>
      <trkpt lat="47.31618" lon="-2.33307">
        <ele>-16.60000038147</ele>
        <time>2022-06-16T09:34:24.000Z</time>
      </trkpt>
      <trkpt lat="47.31612" lon="-2.3331">
        <ele>-16.200000762939</ele>
        <time>2022-06-16T09:34:25.000Z</time>
      </trkpt>
      <trkpt lat="47.31608" lon="-2.33313">
        <ele>-15.800000190735</ele>
        <time>2022-06-16T09:34:26.000Z</time>
      </trkpt>
      <trkpt lat="47.31603" lon="-2.33316">
        <ele>-15.39999961853</ele>
        <time>2022-06-16T09:34:27.000Z</time>
      </trkpt>
      <trkpt lat="47.31598" lon="-2.33318">
        <ele>-15</ele>
        <time>2022-06-16T09:34:28.000Z</time>
      </trkpt>
      <trkpt lat="47.3158" lon="-2.33331">
        <ele>-15</ele>
        <time>2022-06-16T09:34:32.000Z</time>
      </trkpt>
      <trkpt lat="47.31574" lon="-2.33333">
        <ele>-15</ele>
        <time>2022-06-16T09:34:33.000Z</time>
      </trkpt>
      <trkpt lat="47.31547" lon="-2.33343">
        <ele>-15</ele>
        <time>2022-06-16T09:34:37.000Z</time>
      </trkpt>
      <trkpt lat="47.31494" lon="-2.33371">
        <ele>-15</ele>
        <time>2022-06-16T09:34:46.000Z</time>
      </trkpt>
      <trkpt lat="47.31485" lon="-2.33372">
        <ele>-15</ele>
        <time>2022-06-16T09:34:49.000Z</time>
      </trkpt>
      <trkpt lat="47.31483" lon="-2.3337">
        <ele>-15</ele>
        <time>2022-06-16T09:34:52.000Z</time>
      </trkpt>
      <trkpt lat="47.31482" lon="-2.33365">
        <ele>-16.60000038147</ele>
        <time>2022-06-16T09:35:21.000Z</time>
      </trkpt>
      <trkpt lat="47.3148" lon="-2.33363">
        <ele>-16.200000762939</ele>
        <time>2022-06-16T09:35:22.000Z</time>
      </trkpt>
      <trkpt lat="47.31479" lon="-2.33361">
        <ele>-15.800000190735</ele>
        <time>2022-06-16T09:35:23.000Z</time>
      </trkpt>
      <trkpt lat="47.31478" lon="-2.33358">
        <ele>-15.39999961853</ele>
        <time>2022-06-16T09:35:24.000Z</time>
      </trkpt>
      <trkpt lat="47.31475" lon="-2.33354">
        <ele>-15</ele>
        <time>2022-06-16T09:35:25.000Z</time>
      </trkpt>
      <trkpt lat="47.31474" lon="-2.3335">
        <ele>-15</ele>
        <time>2022-06-16T09:35:26.000Z</time>
      </trkpt>
      <trkpt lat="47.31459" lon="-2.33319">
        <ele>-15</ele>
        <time>2022-06-16T09:35:32.000Z</time>
      </trkpt>
      <trkpt lat="47.31435" lon="-2.33283">
        <ele>-15</ele>
        <time>2022-06-16T09:35:39.000Z</time>
      </trkpt>
      <trkpt lat="47.31411" lon="-2.33263">
        <ele>-15</ele>
        <time>2022-06-16T09:35:44.000Z</time>
      </trkpt>
      <trkpt lat="47.31376" lon="-2.33237">
        <ele>-15</ele>
        <time>2022-06-16T09:35:51.000Z</time>
      </trkpt>
      <trkpt lat="47.31338" lon="-2.33208">
        <ele>-15</ele>
        <time>2022-06-16T09:35:58.000Z</time>
      </trkpt>
      <trkpt lat="47.31327" lon="-2.33198">
        <ele>-15.39999961853</ele>
        <time>2022-06-16T09:36:00.000Z</time>
      </trkpt>
      <trkpt lat="47.31322" lon="-2.33193">
        <ele>-15.800000190735</ele>
        <time>2022-06-16T09:36:01.000Z</time>
      </trkpt>
      <trkpt lat="47.31317" lon="-2.33188">
        <ele>-16.200000762939</ele>
        <time>2022-06-16T09:36:02.000Z</time>
      </trkpt>
      <trkpt lat="47.31311" lon="-2.33183">
        <ele>-16.60000038147</ele>
        <time>2022-06-16T09:36:03.000Z</time>
      </trkpt>
      <trkpt lat="47.31305" lon="-2.33177">
        <ele>-17.200000762939</ele>
        <time>2022-06-16T09:36:04.000Z</time>
      </trkpt>
      <trkpt lat="47.31294" lon="-2.33169">
        <ele>-17.200000762939</ele>
        <time>2022-06-16T09:36:06.000Z</time>
      </trkpt>
      <trkpt lat="47.31256" lon="-2.33152">
        <ele>-17.200000762939</ele>
        <time>2022-06-16T09:36:12.000Z</time>
      </trkpt>
      <trkpt lat="47.3125" lon="-2.3315">
        <ele>-17.200000762939</ele>
        <time>2022-06-16T09:36:13.000Z</time>
      </trkpt>
      <trkpt lat="47.31225" lon="-2.3315">
        <ele>-17.200000762939</ele>
        <time>2022-06-16T09:36:17.000Z</time>
      </trkpt>
      <trkpt lat="47.31219" lon="-2.33151">
        <ele>-17.200000762939</ele>
        <time>2022-06-16T09:36:18.000Z</time>
      </trkpt>
      <trkpt lat="47.31201" lon="-2.33157">
        <ele>-17.200000762939</ele>
        <time>2022-06-16T09:36:21.000Z</time>
      </trkpt>
      <trkpt lat="47.31196" lon="-2.3316">
        <ele>-17.200000762939</ele>
        <time>2022-06-16T09:36:22.000Z</time>
      </trkpt>
      <trkpt lat="47.31179" lon="-2.33169">
        <ele>-17.200000762939</ele>
        <time>2022-06-16T09:36:25.000Z</time>
      </trkpt>
      <trkpt lat="47.31169" lon="-2.33175">
        <ele>-17.200000762939</ele>
        <time>2022-06-16T09:36:27.000Z</time>
      </trkpt>
      <trkpt lat="47.31138" lon="-2.33197">
        <ele>-17.200000762939</ele>
        <time>2022-06-16T09:36:34.000Z</time>
      </trkpt>
      <trkpt lat="47.31113" lon="-2.33214">
        <ele>-17.200000762939</ele>
        <time>2022-06-16T09:36:39.000Z</time>
      </trkpt>
      <trkpt lat="47.31109" lon="-2.33219">
        <ele>-17.200000762939</ele>
        <time>2022-06-16T09:36:40.000Z</time>
      </trkpt>
      <trkpt lat="47.31107" lon="-2.33245">
        <ele>-17.200000762939</ele>
        <time>2022-06-16T09:36:43.000Z</time>
      </trkpt>
      <trkpt lat="47.31103" lon="-2.33297">
        <ele>-17.200000762939</ele>
        <time>2022-06-16T09:36:49.000Z</time>
      </trkpt>
      <trkpt lat="47.31101" lon="-2.33354">
        <ele>-16.799999237061</ele>
        <time>2022-06-16T09:36:56.000Z</time>
      </trkpt>
      <trkpt lat="47.31101" lon="-2.33363">
        <ele>-16.200000762939</ele>
        <time>2022-06-16T09:36:57.000Z</time>
      </trkpt>
      <trkpt lat="47.311" lon="-2.33372">
        <ele>-15.800000190735</ele>
        <time>2022-06-16T09:36:58.000Z</time>
      </trkpt>
      <trkpt lat="47.311" lon="-2.3338">
        <ele>-15.39999961853</ele>
        <time>2022-06-16T09:36:59.000Z</time>
      </trkpt>
      <trkpt lat="47.311" lon="-2.33388">
        <ele>-15</ele>
        <time>2022-06-16T09:37:00.000Z</time>
      </trkpt>
      <trkpt lat="47.311" lon="-2.33413">
        <ele>-15</ele>
        <time>2022-06-16T09:37:03.000Z</time>
      </trkpt>
      <trkpt lat="47.31102" lon="-2.33456">
        <ele>-15</ele>
        <time>2022-06-16T09:37:08.000Z</time>
      </trkpt>
      <trkpt lat="47.31106" lon="-2.3349">
        <ele>-14.60000038147</ele>
        <time>2022-06-16T09:37:12.000Z</time>
      </trkpt>
      <trkpt lat="47.31107" lon="-2.33498">
        <ele>-14.199999809265</ele>
        <time>2022-06-16T09:37:13.000Z</time>
      </trkpt>
      <trkpt lat="47.31108" lon="-2.33505">
        <ele>-13.800000190735</ele>
        <time>2022-06-16T09:37:14.000Z</time>
      </trkpt>
      <trkpt lat="47.31109" lon="-2.33513">
        <ele>-13.39999961853</ele>
        <time>2022-06-16T09:37:15.000Z</time>
      </trkpt>
      <trkpt lat="47.31111" lon="-2.33521">
        <ele>-13</ele>
        <time>2022-06-16T09:37:16.000Z</time>
      </trkpt>
      <trkpt lat="47.31117" lon="-2.33561">
        <ele>-13</ele>
        <time>2022-06-16T09:37:21.000Z</time>
      </trkpt>
      <trkpt lat="47.3112" lon="-2.33614">
        <ele>-13</ele>
        <time>2022-06-16T09:37:27.000Z</time>
      </trkpt>
      <trkpt lat="47.31119" lon="-2.33623">
        <ele>-13</ele>
        <time>2022-06-16T09:37:28.000Z</time>
      </trkpt>
      <trkpt lat="47.31117" lon="-2.33633">
        <ele>-13</ele>
        <time>2022-06-16T09:37:29.000Z</time>
      </trkpt>
      <trkpt lat="47.3111" lon="-2.33661">
        <ele>-13</ele>
        <time>2022-06-16T09:37:32.000Z</time>
      </trkpt>
      <trkpt lat="47.31096" lon="-2.33744">
        <ele>-13</ele>
        <time>2022-06-16T09:37:41.000Z</time>
      </trkpt>
      <trkpt lat="47.31082" lon="-2.33784">
        <ele>-13</ele>
        <time>2022-06-16T09:37:46.000Z</time>
      </trkpt>
      <trkpt lat="47.31073" lon="-2.33808">
        <ele>-13</ele>
        <time>2022-06-16T09:37:49.000Z</time>
      </trkpt>
      <trkpt lat="47.3107" lon="-2.33826">
        <ele>-13</ele>
        <time>2022-06-16T09:37:51.000Z</time>
      </trkpt>
      <trkpt lat="47.31068" lon="-2.33844">
        <ele>-13</ele>
        <time>2022-06-16T09:37:53.000Z</time>
      </trkpt>
      <trkpt lat="47.31067" lon="-2.3388">
        <ele>-13</ele>
        <time>2022-06-16T09:37:57.000Z</time>
      </trkpt>
      <trkpt lat="47.31065" lon="-2.33934">
        <ele>-13</ele>
        <time>2022-06-16T09:38:03.000Z</time>
      </trkpt>
      <trkpt lat="47.31063" lon="-2.33943">
        <ele>-13</ele>
        <time>2022-06-16T09:38:04.000Z</time>
      </trkpt>
      <trkpt lat="47.31053" lon="-2.33951">
        <ele>-13</ele>
        <time>2022-06-16T09:38:06.000Z</time>
      </trkpt>
      <trkpt lat="47.3104" lon="-2.33954">
        <ele>-12.60000038147</ele>
        <time>2022-06-16T09:38:08.000Z</time>
      </trkpt>
      <trkpt lat="47.31033" lon="-2.33955">
        <ele>-12.199999809265</ele>
        <time>2022-06-16T09:38:09.000Z</time>
      </trkpt>
      <trkpt lat="47.31027" lon="-2.33955">
        <ele>-11.800000190735</ele>
        <time>2022-06-16T09:38:10.000Z</time>
      </trkpt>
      <trkpt lat="47.31021" lon="-2.33955">
        <ele>-11.39999961853</ele>
        <time>2022-06-16T09:38:11.000Z</time>
      </trkpt>
      <trkpt lat="47.31014" lon="-2.33955">
        <ele>-10.800000190735</ele>
        <time>2022-06-16T09:38:12.000Z</time>
      </trkpt>
      <trkpt lat="47.30984" lon="-2.33957">
        <ele>-10.800000190735</ele>
        <time>2022-06-16T09:38:17.000Z</time>
      </trkpt>
      <trkpt lat="47.3094" lon="-2.33953">
        <ele>-10.800000190735</ele>
        <time>2022-06-16T09:38:24.000Z</time>
      </trkpt>
      <trkpt lat="47.30903" lon="-2.33947">
        <ele>-10.800000190735</ele>
        <time>2022-06-16T09:38:30.000Z</time>
      </trkpt>
      <trkpt lat="47.3086" lon="-2.33954">
        <ele>-10.800000190735</ele>
        <time>2022-06-16T09:38:37.000Z</time>
      </trkpt>
      <trkpt lat="47.30835" lon="-2.33959">
        <ele>-10.39999961853</ele>
        <time>2022-06-16T09:38:41.000Z</time>
      </trkpt>
      <trkpt lat="47.30829" lon="-2.3396">
        <ele>-10</ele>
        <time>2022-06-16T09:38:42.000Z</time>
      </trkpt>
      <trkpt lat="47.30823" lon="-2.33961">
        <ele>-9.1999998092651</ele>
        <time>2022-06-16T09:38:43.000Z</time>
      </trkpt>
      <trkpt lat="47.30817" lon="-2.33963">
        <ele>-8.8000001907349</ele>
        <time>2022-06-16T09:38:44.000Z</time>
      </trkpt>
      <trkpt lat="47.30811" lon="-2.33965">
        <ele>-8.8000001907349</ele>
        <time>2022-06-16T09:38:45.000Z</time>
      </trkpt>
      <trkpt lat="47.30783" lon="-2.33979">
        <ele>-8.8000001907349</ele>
        <time>2022-06-16T09:38:50.000Z</time>
      </trkpt>
      <trkpt lat="47.30778" lon="-2.34002">
        <ele>-8.8000001907349</ele>
        <time>2022-06-16T09:38:53.000Z</time>
      </trkpt>
      <trkpt lat="47.30775" lon="-2.34052">
        <ele>-8.8000001907349</ele>
        <time>2022-06-16T09:38:59.000Z</time>
      </trkpt>
      <trkpt lat="47.30776" lon="-2.34109">
        <ele>-8.8000001907349</ele>
        <time>2022-06-16T09:39:06.000Z</time>
      </trkpt>
      <trkpt lat="47.30777" lon="-2.34124">
        <ele>-8.8000001907349</ele>
        <time>2022-06-16T09:39:08.000Z</time>
      </trkpt>
      <trkpt lat="47.30775" lon="-2.34149">
        <ele>-8.8000001907349</ele>
        <time>2022-06-16T09:39:11.000Z</time>
      </trkpt>
      <trkpt lat="47.3077" lon="-2.34208">
        <ele>-8.8000001907349</ele>
        <time>2022-06-16T09:39:18.000Z</time>
      </trkpt>
      <trkpt lat="47.30761" lon="-2.34222">
        <ele>-8.8000001907349</ele>
        <time>2022-06-16T09:39:21.000Z</time>
      </trkpt>
      <trkpt lat="47.30742" lon="-2.34226">
        <ele>-8.8000001907349</ele>
        <time>2022-06-16T09:39:24.000Z</time>
      </trkpt>
      <trkpt lat="47.30737" lon="-2.34229">
        <ele>-8.8000001907349</ele>
        <time>2022-06-16T09:39:25.000Z</time>
      </trkpt>
      <trkpt lat="47.30732" lon="-2.34238">
        <ele>-8.8000001907349</ele>
        <time>2022-06-16T09:39:27.000Z</time>
      </trkpt>
      <trkpt lat="47.30731" lon="-2.34261">
        <ele>-8.8000001907349</ele>
        <time>2022-06-16T09:39:30.000Z</time>
      </trkpt>
      <trkpt lat="47.3072" lon="-2.3429">
        <ele>-8.8000001907349</ele>
        <time>2022-06-16T09:39:34.000Z</time>
      </trkpt>
      <trkpt lat="47.30717" lon="-2.34297">
        <ele>-8.8000001907349</ele>
        <time>2022-06-16T09:39:35.000Z</time>
      </trkpt>
      <trkpt lat="47.307" lon="-2.34329">
        <ele>-8.8000001907349</ele>
        <time>2022-06-16T09:39:40.000Z</time>
      </trkpt>
      <trkpt lat="47.30683" lon="-2.34362">
        <ele>-8.3999996185303</ele>
        <time>2022-06-16T09:39:45.000Z</time>
      </trkpt>
      <trkpt lat="47.30679" lon="-2.34368">
        <ele>-8</ele>
        <time>2022-06-16T09:39:46.000Z</time>
      </trkpt>
      <trkpt lat="47.30676" lon="-2.34374">
        <ele>-7.5999999046326</ele>
        <time>2022-06-16T09:39:47.000Z</time>
      </trkpt>
      <trkpt lat="47.30672" lon="-2.34379">
        <ele>-7.1999998092651</ele>
        <time>2022-06-16T09:39:48.000Z</time>
      </trkpt>
      <trkpt lat="47.30669" lon="-2.34385">
        <ele>-6.8000001907349</ele>
        <time>2022-06-16T09:39:49.000Z</time>
      </trkpt>
      <trkpt lat="47.30657" lon="-2.34403">
        <ele>-6.8000001907349</ele>
        <time>2022-06-16T09:39:52.000Z</time>
      </trkpt>
      <trkpt lat="47.30619" lon="-2.34454">
        <ele>-6.8000001907349</ele>
        <time>2022-06-16T09:40:00.000Z</time>
      </trkpt>
      <trkpt lat="47.30594" lon="-2.34502">
        <ele>-6.8000001907349</ele>
        <time>2022-06-16T09:40:06.000Z</time>
      </trkpt>
      <trkpt lat="47.30563" lon="-2.34563">
        <ele>-6.8000001907349</ele>
        <time>2022-06-16T09:40:13.000Z</time>
      </trkpt>
      <trkpt lat="47.30532" lon="-2.34607">
        <ele>-6.8000001907349</ele>
        <time>2022-06-16T09:40:19.000Z</time>
      </trkpt>
      <trkpt lat="47.30528" lon="-2.34615">
        <ele>-6.8000001907349</ele>
        <time>2022-06-16T09:40:20.000Z</time>
      </trkpt>
      <trkpt lat="47.30518" lon="-2.34637">
        <ele>-6.8000001907349</ele>
        <time>2022-06-16T09:40:23.000Z</time>
      </trkpt>
      <trkpt lat="47.30511" lon="-2.3465">
        <ele>-6.8000001907349</ele>
        <time>2022-06-16T09:40:25.000Z</time>
      </trkpt>
      <trkpt lat="47.30502" lon="-2.3466">
        <ele>-7.1999998092651</ele>
        <time>2022-06-16T09:40:27.000Z</time>
      </trkpt>
      <trkpt lat="47.30497" lon="-2.34666">
        <ele>-7.5999999046326</ele>
        <time>2022-06-16T09:40:28.000Z</time>
      </trkpt>
      <trkpt lat="47.30492" lon="-2.34671">
        <ele>-8</ele>
        <time>2022-06-16T09:40:29.000Z</time>
      </trkpt>
      <trkpt lat="47.30486" lon="-2.34677">
        <ele>-8.3999996185303</ele>
        <time>2022-06-16T09:40:30.000Z</time>
      </trkpt>
      <trkpt lat="47.3048" lon="-2.34683">
        <ele>-9</ele>
        <time>2022-06-16T09:40:31.000Z</time>
      </trkpt>
      <trkpt lat="47.30461" lon="-2.347">
        <ele>-9</ele>
        <time>2022-06-16T09:40:34.000Z</time>
      </trkpt>
      <trkpt lat="47.3045" lon="-2.34711">
        <ele>-9</ele>
        <time>2022-06-16T09:40:36.000Z</time>
      </trkpt>
      <trkpt lat="47.30425" lon="-2.34733">
        <ele>-9</ele>
        <time>2022-06-16T09:40:40.000Z</time>
      </trkpt>
      <trkpt lat="47.30418" lon="-2.34738">
        <ele>-9</ele>
        <time>2022-06-16T09:40:41.000Z</time>
      </trkpt>
      <trkpt lat="47.30388" lon="-2.34756">
        <ele>-9</ele>
        <time>2022-06-16T09:40:45.000Z</time>
      </trkpt>
      <trkpt lat="47.30367" lon="-2.34768">
        <ele>-8.3999996185303</ele>
        <time>2022-06-16T09:40:48.000Z</time>
      </trkpt>
      <trkpt lat="47.30362" lon="-2.34772">
        <ele>-8</ele>
        <time>2022-06-16T09:40:49.000Z</time>
      </trkpt>
      <trkpt lat="47.30355" lon="-2.34776">
        <ele>-7.5999999046326</ele>
        <time>2022-06-16T09:40:50.000Z</time>
      </trkpt>
      <trkpt lat="47.30349" lon="-2.3478">
        <ele>-7.1999998092651</ele>
        <time>2022-06-16T09:40:51.000Z</time>
      </trkpt>
      <trkpt lat="47.30343" lon="-2.34787">
        <ele>-6.8000001907349</ele>
        <time>2022-06-16T09:40:52.000Z</time>
      </trkpt>
      <trkpt lat="47.30326" lon="-2.34819">
        <ele>-6.8000001907349</ele>
        <time>2022-06-16T09:40:56.000Z</time>
      </trkpt>
      <trkpt lat="47.30322" lon="-2.34825">
        <ele>-6.8000001907349</ele>
        <time>2022-06-16T09:40:57.000Z</time>
      </trkpt>
      <trkpt lat="47.30303" lon="-2.34848">
        <ele>-6.8000001907349</ele>
        <time>2022-06-16T09:41:01.000Z</time>
      </trkpt>
      <trkpt lat="47.30292" lon="-2.34857">
        <ele>-6.8000001907349</ele>
        <time>2022-06-16T09:41:03.000Z</time>
      </trkpt>
      <trkpt lat="47.30275" lon="-2.34866">
        <ele>-6.8000001907349</ele>
        <time>2022-06-16T09:41:06.000Z</time>
      </trkpt>
      <trkpt lat="47.30243" lon="-2.34885">
        <ele>-6.8000001907349</ele>
        <time>2022-06-16T09:41:11.000Z</time>
      </trkpt>
      <trkpt lat="47.30237" lon="-2.3489">
        <ele>-6.8000001907349</ele>
        <time>2022-06-16T09:41:12.000Z</time>
      </trkpt>
      <trkpt lat="47.30222" lon="-2.34906">
        <ele>-6.8000001907349</ele>
        <time>2022-06-16T09:41:15.000Z</time>
      </trkpt>
      <trkpt lat="47.30217" lon="-2.34922">
        <ele>-6.8000001907349</ele>
        <time>2022-06-16T09:41:17.000Z</time>
      </trkpt>
      <trkpt lat="47.30215" lon="-2.34954">
        <ele>-6.8000001907349</ele>
        <time>2022-06-16T09:41:20.000Z</time>
      </trkpt>
      <trkpt lat="47.30214" lon="-2.34965">
        <ele>-7.1999998092651</ele>
        <time>2022-06-16T09:41:21.000Z</time>
      </trkpt>
      <trkpt lat="47.30213" lon="-2.34976">
        <ele>-7.5999999046326</ele>
        <time>2022-06-16T09:41:22.000Z</time>
      </trkpt>
      <trkpt lat="47.30212" lon="-2.34987">
        <ele>-8.1999998092651</ele>
        <time>2022-06-16T09:41:23.000Z</time>
      </trkpt>
      <trkpt lat="47.30212" lon="-2.34999">
        <ele>-8.6000003814697</ele>
        <time>2022-06-16T09:41:24.000Z</time>
      </trkpt>
      <trkpt lat="47.30211" lon="-2.3501">
        <ele>-9</ele>
        <time>2022-06-16T09:41:25.000Z</time>
      </trkpt>
      <trkpt lat="47.30212" lon="-2.3502">
        <ele>-9</ele>
        <time>2022-06-16T09:41:26.000Z</time>
      </trkpt>
      <trkpt lat="47.30212" lon="-2.35087">
        <ele>-9</ele>
        <time>2022-06-16T09:41:32.000Z</time>
      </trkpt>
      <trkpt lat="47.30212" lon="-2.35097">
        <ele>-9.3999996185303</ele>
        <time>2022-06-16T09:41:33.000Z</time>
      </trkpt>
      <trkpt lat="47.30212" lon="-2.35107">
        <ele>-9.8000001907349</ele>
        <time>2022-06-16T09:41:34.000Z</time>
      </trkpt>
      <trkpt lat="47.30212" lon="-2.35117">
        <ele>-10.199999809265</ele>
        <time>2022-06-16T09:41:35.000Z</time>
      </trkpt>
      <trkpt lat="47.30211" lon="-2.35128">
        <ele>-11</ele>
        <time>2022-06-16T09:41:36.000Z</time>
      </trkpt>
      <trkpt lat="47.30211" lon="-2.35149">
        <ele>-11</ele>
        <time>2022-06-16T09:41:38.000Z</time>
      </trkpt>
      <trkpt lat="47.30208" lon="-2.35166">
        <ele>-11</ele>
        <time>2022-06-16T09:41:40.000Z</time>
      </trkpt>
      <trkpt lat="47.30204" lon="-2.35169">
        <ele>-11</ele>
        <time>2022-06-16T09:41:41.000Z</time>
      </trkpt>
      <trkpt lat="47.30196" lon="-2.35172">
        <ele>-11.39999961853</ele>
        <time>2022-06-16T09:41:43.000Z</time>
      </trkpt>
      <trkpt lat="47.30193" lon="-2.35172">
        <ele>-11.800000190735</ele>
        <time>2022-06-16T09:41:44.000Z</time>
      </trkpt>
      <trkpt lat="47.30189" lon="-2.35174">
        <ele>-12.199999809265</ele>
        <time>2022-06-16T09:41:45.000Z</time>
      </trkpt>
      <trkpt lat="47.30184" lon="-2.35177">
        <ele>-12.60000038147</ele>
        <time>2022-06-16T09:41:46.000Z</time>
      </trkpt>
      <trkpt lat="47.30179" lon="-2.35179">
        <ele>-13</ele>
        <time>2022-06-16T09:41:47.000Z</time>
      </trkpt>
      <trkpt lat="47.30173" lon="-2.35181">
        <ele>-13</ele>
        <time>2022-06-16T09:41:48.000Z</time>
      </trkpt>
      <trkpt lat="47.30168" lon="-2.35185">
        <ele>-13</ele>
        <time>2022-06-16T09:41:49.000Z</time>
      </trkpt>
      <trkpt lat="47.30154" lon="-2.35196">
        <ele>-13</ele>
        <time>2022-06-16T09:41:52.000Z</time>
      </trkpt>
      <trkpt lat="47.30142" lon="-2.35197">
        <ele>-13</ele>
        <time>2022-06-16T09:41:55.000Z</time>
      </trkpt>
      <trkpt lat="47.30122" lon="-2.35202">
        <ele>-13</ele>
        <time>2022-06-16T09:41:59.000Z</time>
      </trkpt>
      <trkpt lat="47.30105" lon="-2.3521">
        <ele>-13</ele>
        <time>2022-06-16T09:42:02.000Z</time>
      </trkpt>
      <trkpt lat="47.30092" lon="-2.35216">
        <ele>-13</ele>
        <time>2022-06-16T09:42:04.000Z</time>
      </trkpt>
      <trkpt lat="47.30086" lon="-2.35217">
        <ele>-13</ele>
        <time>2022-06-16T09:42:05.000Z</time>
      </trkpt>
      <trkpt lat="47.30069" lon="-2.35227">
        <ele>-13</ele>
        <time>2022-06-16T09:42:08.000Z</time>
      </trkpt>
      <trkpt lat="47.3004" lon="-2.35241">
        <ele>-13</ele>
        <time>2022-06-16T09:42:13.000Z</time>
      </trkpt>
      <trkpt lat="47.30029" lon="-2.35247">
        <ele>-13</ele>
        <time>2022-06-16T09:42:16.000Z</time>
      </trkpt>
      <trkpt lat="47.30027" lon="-2.35246">
        <ele>-13</ele>
        <time>2022-06-16T09:42:17.000Z</time>
      </trkpt>
      <trkpt lat="47.30023" lon="-2.35249">
        <ele>-13</ele>
        <time>2022-06-16T09:42:19.000Z</time>
      </trkpt>
      <trkpt lat="47.30006" lon="-2.35257">
        <ele>-13</ele>
        <time>2022-06-16T09:42:26.000Z</time>
      </trkpt>
      <trkpt lat="47.3" lon="-2.35256">
        <ele>-13</ele>
        <time>2022-06-16T09:42:29.000Z</time>
      </trkpt>
      <trkpt lat="47.29997" lon="-2.35264">
        <ele>-13</ele>
        <time>2022-06-16T09:42:52.000Z</time>
      </trkpt>
      <trkpt lat="47.29979" lon="-2.35287">
        <ele>-13</ele>
        <time>2022-06-16T09:42:59.000Z</time>
      </trkpt>
      <trkpt lat="47.29952" lon="-2.35321">
        <ele>-13</ele>
        <time>2022-06-16T09:43:07.000Z</time>
      </trkpt>
      <trkpt lat="47.29917" lon="-2.35366">
        <ele>-13</ele>
        <time>2022-06-16T09:43:17.000Z</time>
      </trkpt>
      <trkpt lat="47.29883" lon="-2.35403">
        <ele>-13</ele>
        <time>2022-06-16T09:43:26.000Z</time>
      </trkpt>
      <trkpt lat="47.29855" lon="-2.3543">
        <ele>-13</ele>
        <time>2022-06-16T09:43:33.000Z</time>
      </trkpt>
      <trkpt lat="47.29833" lon="-2.35456">
        <ele>-13</ele>
        <time>2022-06-16T09:43:39.000Z</time>
      </trkpt>
      <trkpt lat="47.29831" lon="-2.35462">
        <ele>-13</ele>
        <time>2022-06-16T09:43:40.000Z</time>
      </trkpt>
      <trkpt lat="47.29829" lon="-2.35478">
        <ele>-13</ele>
        <time>2022-06-16T09:43:43.000Z</time>
      </trkpt>
      <trkpt lat="47.29836" lon="-2.35501">
        <ele>-13</ele>
        <time>2022-06-16T09:43:47.000Z</time>
      </trkpt>
      <trkpt lat="47.29838" lon="-2.35507">
        <ele>-13</ele>
        <time>2022-06-16T09:43:48.000Z</time>
      </trkpt>
      <trkpt lat="47.29851" lon="-2.35552">
        <ele>-13</ele>
        <time>2022-06-16T09:43:55.000Z</time>
      </trkpt>
      <trkpt lat="47.29858" lon="-2.3557">
        <ele>-12.60000038147</ele>
        <time>2022-06-16T09:43:58.000Z</time>
      </trkpt>
      <trkpt lat="47.2986" lon="-2.35576">
        <ele>-12.199999809265</ele>
        <time>2022-06-16T09:43:59.000Z</time>
      </trkpt>
      <trkpt lat="47.29861" lon="-2.35582">
        <ele>-11.800000190735</ele>
        <time>2022-06-16T09:44:00.000Z</time>
      </trkpt>
      <trkpt lat="47.29863" lon="-2.35588">
        <ele>-11.39999961853</ele>
        <time>2022-06-16T09:44:01.000Z</time>
      </trkpt>
      <trkpt lat="47.29865" lon="-2.35594">
        <ele>-11</ele>
        <time>2022-06-16T09:44:02.000Z</time>
      </trkpt>
      <trkpt lat="47.29867" lon="-2.35601">
        <ele>-11</ele>
        <time>2022-06-16T09:44:03.000Z</time>
      </trkpt>
      <trkpt lat="47.29875" lon="-2.3565">
        <ele>-11</ele>
        <time>2022-06-16T09:44:11.000Z</time>
      </trkpt>
      <trkpt lat="47.29883" lon="-2.35694">
        <ele>-11</ele>
        <time>2022-06-16T09:44:18.000Z</time>
      </trkpt>
      <trkpt lat="47.29894" lon="-2.3574">
        <ele>-11</ele>
        <time>2022-06-16T09:44:26.000Z</time>
      </trkpt>
      <trkpt lat="47.29895" lon="-2.35752">
        <ele>-11</ele>
        <time>2022-06-16T09:44:29.000Z</time>
      </trkpt>
      <trkpt lat="47.29895" lon="-2.35756">
        <ele>-11</ele>
        <time>2022-06-16T09:44:30.000Z</time>
      </trkpt>
      <trkpt lat="47.29887" lon="-2.35767">
        <ele>-11</ele>
        <time>2022-06-16T09:44:33.000Z</time>
      </trkpt>
      <trkpt lat="47.29878" lon="-2.35772">
        <ele>-11</ele>
        <time>2022-06-16T09:44:35.000Z</time>
      </trkpt>
      <trkpt lat="47.29858" lon="-2.35779">
        <ele>-11</ele>
        <time>2022-06-16T09:44:39.000Z</time>
      </trkpt>
      <trkpt lat="47.29843" lon="-2.35785">
        <ele>-10.60000038147</ele>
        <time>2022-06-16T09:44:42.000Z</time>
      </trkpt>
      <trkpt lat="47.29839" lon="-2.35787">
        <ele>-10.199999809265</ele>
        <time>2022-06-16T09:44:43.000Z</time>
      </trkpt>
      <trkpt lat="47.29834" lon="-2.35788">
        <ele>-9.8000001907349</ele>
        <time>2022-06-16T09:44:44.000Z</time>
      </trkpt>
      <trkpt lat="47.29829" lon="-2.3579">
        <ele>-9.3999996185303</ele>
        <time>2022-06-16T09:44:45.000Z</time>
      </trkpt>
      <trkpt lat="47.29824" lon="-2.35791">
        <ele>-9</ele>
        <time>2022-06-16T09:44:46.000Z</time>
      </trkpt>
      <trkpt lat="47.29791" lon="-2.35801">
        <ele>-9</ele>
        <time>2022-06-16T09:44:53.000Z</time>
      </trkpt>
      <trkpt lat="47.2975" lon="-2.35815">
        <ele>-9</ele>
        <time>2022-06-16T09:45:01.000Z</time>
      </trkpt>
      <trkpt lat="47.2972" lon="-2.35833">
        <ele>-9</ele>
        <time>2022-06-16T09:45:06.000Z</time>
      </trkpt>
      <trkpt lat="47.29687" lon="-2.35853">
        <ele>-9</ele>
        <time>2022-06-16T09:45:11.000Z</time>
      </trkpt>
      <trkpt lat="47.29672" lon="-2.35861">
        <ele>-9</ele>
        <time>2022-06-16T09:45:14.000Z</time>
      </trkpt>
      <trkpt lat="47.29668" lon="-2.35862">
        <ele>-9.3999996185303</ele>
        <time>2022-06-16T09:45:15.000Z</time>
      </trkpt>
      <trkpt lat="47.29664" lon="-2.35863">
        <ele>-9.8000001907349</ele>
        <time>2022-06-16T09:45:16.000Z</time>
      </trkpt>
      <trkpt lat="47.2966" lon="-2.35865">
        <ele>-10.199999809265</ele>
        <time>2022-06-16T09:45:17.000Z</time>
      </trkpt>
      <trkpt lat="47.29656" lon="-2.35867">
        <ele>-10.60000038147</ele>
        <time>2022-06-16T09:45:18.000Z</time>
      </trkpt>
      <trkpt lat="47.29651" lon="-2.35869">
        <ele>-11</ele>
        <time>2022-06-16T09:45:19.000Z</time>
      </trkpt>
      <trkpt lat="47.29641" lon="-2.35875">
        <ele>-11</ele>
        <time>2022-06-16T09:45:21.000Z</time>
      </trkpt>
      <trkpt lat="47.29606" lon="-2.35895">
        <ele>-11</ele>
        <time>2022-06-16T09:45:28.000Z</time>
      </trkpt>
      <trkpt lat="47.29573" lon="-2.35916">
        <ele>-11</ele>
        <time>2022-06-16T09:45:34.000Z</time>
      </trkpt>
      <trkpt lat="47.29544" lon="-2.35931">
        <ele>-11</ele>
        <time>2022-06-16T09:45:39.000Z</time>
      </trkpt>
      <trkpt lat="47.29519" lon="-2.35943">
        <ele>-11</ele>
        <time>2022-06-16T09:45:43.000Z</time>
      </trkpt>
      <trkpt lat="47.29514" lon="-2.35942">
        <ele>-11</ele>
        <time>2022-06-16T09:45:44.000Z</time>
      </trkpt>
      <trkpt lat="47.29498" lon="-2.35933">
        <ele>-11</ele>
        <time>2022-06-16T09:45:47.000Z</time>
      </trkpt>
      <trkpt lat="47.29485" lon="-2.35911">
        <ele>-11</ele>
        <time>2022-06-16T09:45:51.000Z</time>
      </trkpt>
      <trkpt lat="47.29483" lon="-2.35906">
        <ele>-11</ele>
        <time>2022-06-16T09:45:52.000Z</time>
      </trkpt>
      <trkpt lat="47.29475" lon="-2.35903">
        <ele>-11</ele>
        <time>2022-06-16T09:45:54.000Z</time>
      </trkpt>
      <trkpt lat="47.29467" lon="-2.35903">
        <ele>-11</ele>
        <time>2022-06-16T09:45:56.000Z</time>
      </trkpt>
      <trkpt lat="47.29457" lon="-2.35905">
        <ele>-11</ele>
        <time>2022-06-16T09:45:58.000Z</time>
      </trkpt>
      <trkpt lat="47.29452" lon="-2.35908">
        <ele>-11</ele>
        <time>2022-06-16T09:45:59.000Z</time>
      </trkpt>
      <trkpt lat="47.2944" lon="-2.35916">
        <ele>-11</ele>
        <time>2022-06-16T09:46:02.000Z</time>
      </trkpt>
      <trkpt lat="47.29433" lon="-2.35917">
        <ele>-11</ele>
        <time>2022-06-16T09:46:04.000Z</time>
      </trkpt>
      <trkpt lat="47.29425" lon="-2.35902">
        <ele>-11</ele>
        <time>2022-06-16T09:46:07.000Z</time>
      </trkpt>
      <trkpt lat="47.29419" lon="-2.3589">
        <ele>-11</ele>
        <time>2022-06-16T09:46:09.000Z</time>
      </trkpt>
      <trkpt lat="47.29408" lon="-2.35874">
        <ele>-11</ele>
        <time>2022-06-16T09:46:12.000Z</time>
      </trkpt>
      <trkpt lat="47.29379" lon="-2.35838">
        <ele>-11</ele>
        <time>2022-06-16T09:46:19.000Z</time>
      </trkpt>
      <trkpt lat="47.29353" lon="-2.35812">
        <ele>-11</ele>
        <time>2022-06-16T09:46:24.000Z</time>
      </trkpt>
      <trkpt lat="47.29327" lon="-2.35785">
        <ele>-11</ele>
        <time>2022-06-16T09:46:29.000Z</time>
      </trkpt>
      <trkpt lat="47.29296" lon="-2.3576">
        <ele>-11</ele>
        <time>2022-06-16T09:46:35.000Z</time>
      </trkpt>
      <trkpt lat="47.29264" lon="-2.3573">
        <ele>-11</ele>
        <time>2022-06-16T09:46:42.000Z</time>
      </trkpt>
      <trkpt lat="47.29259" lon="-2.35728">
        <ele>-11</ele>
        <time>2022-06-16T09:46:43.000Z</time>
      </trkpt>
      <trkpt lat="47.29252" lon="-2.35734">
        <ele>-11</ele>
        <time>2022-06-16T09:46:45.000Z</time>
      </trkpt>
      <trkpt lat="47.29246" lon="-2.35749">
        <ele>-11</ele>
        <time>2022-06-16T09:46:47.000Z</time>
      </trkpt>
      <trkpt lat="47.29233" lon="-2.35768">
        <ele>-11</ele>
        <time>2022-06-16T09:46:50.000Z</time>
      </trkpt>
      <trkpt lat="47.29201" lon="-2.35802">
        <ele>-11</ele>
        <time>2022-06-16T09:46:57.000Z</time>
      </trkpt>
      <trkpt lat="47.2916" lon="-2.35828">
        <ele>-11</ele>
        <time>2022-06-16T09:47:05.000Z</time>
      </trkpt>
      <trkpt lat="47.2913" lon="-2.35859">
        <ele>-11</ele>
        <time>2022-06-16T09:47:11.000Z</time>
      </trkpt>
      <trkpt lat="47.29096" lon="-2.35902">
        <ele>-11</ele>
        <time>2022-06-16T09:47:18.000Z</time>
      </trkpt>
      <trkpt lat="47.2905" lon="-2.35955">
        <ele>-11</ele>
        <time>2022-06-16T09:47:27.000Z</time>
      </trkpt>
      <trkpt lat="47.29045" lon="-2.35961">
        <ele>-11</ele>
        <time>2022-06-16T09:47:28.000Z</time>
      </trkpt>
      <trkpt lat="47.29002" lon="-2.36005">
        <ele>-11</ele>
        <time>2022-06-16T09:47:36.000Z</time>
      </trkpt>
      <trkpt lat="47.28961" lon="-2.36041">
        <ele>-11</ele>
        <time>2022-06-16T09:47:43.000Z</time>
      </trkpt>
      <trkpt lat="47.28918" lon="-2.36069">
        <ele>-11</ele>
        <time>2022-06-16T09:47:50.000Z</time>
      </trkpt>
      <trkpt lat="47.28901" lon="-2.36083">
        <ele>-11</ele>
        <time>2022-06-16T09:47:53.000Z</time>
      </trkpt>
      <trkpt lat="47.28885" lon="-2.361">
        <ele>-11</ele>
        <time>2022-06-16T09:47:56.000Z</time>
      </trkpt>
      <trkpt lat="47.28844" lon="-2.36144">
        <ele>-11.39999961853</ele>
        <time>2022-06-16T09:48:04.000Z</time>
      </trkpt>
      <trkpt lat="47.2884" lon="-2.3615">
        <ele>-12</ele>
        <time>2022-06-16T09:48:05.000Z</time>
      </trkpt>
      <trkpt lat="47.28836" lon="-2.36157">
        <ele>-12.39999961853</ele>
        <time>2022-06-16T09:48:06.000Z</time>
      </trkpt>
      <trkpt lat="47.28831" lon="-2.36163">
        <ele>-12.800000190735</ele>
        <time>2022-06-16T09:48:07.000Z</time>
      </trkpt>
      <trkpt lat="47.28827" lon="-2.3617">
        <ele>-13.199999809265</ele>
        <time>2022-06-16T09:48:08.000Z</time>
      </trkpt>
      <trkpt lat="47.28817" lon="-2.36181">
        <ele>-13.199999809265</ele>
        <time>2022-06-16T09:48:10.000Z</time>
      </trkpt>
      <trkpt lat="47.28812" lon="-2.36185">
        <ele>-13.199999809265</ele>
        <time>2022-06-16T09:48:11.000Z</time>
      </trkpt>
      <trkpt lat="47.28791" lon="-2.362">
        <ele>-13.199999809265</ele>
        <time>2022-06-16T09:48:15.000Z</time>
      </trkpt>
      <trkpt lat="47.2876" lon="-2.3622">
        <ele>-13.199999809265</ele>
        <time>2022-06-16T09:48:22.000Z</time>
      </trkpt>
      <trkpt lat="47.28729" lon="-2.36242">
        <ele>-13.199999809265</ele>
        <time>2022-06-16T09:48:30.000Z</time>
      </trkpt>
      <trkpt lat="47.28709" lon="-2.36263">
        <ele>-13.199999809265</ele>
        <time>2022-06-16T09:48:36.000Z</time>
      </trkpt>
      <trkpt lat="47.28704" lon="-2.36269">
        <ele>-12.800000190735</ele>
        <time>2022-06-16T09:48:38.000Z</time>
      </trkpt>
      <trkpt lat="47.28701" lon="-2.36272">
        <ele>-12.39999961853</ele>
        <time>2022-06-16T09:48:39.000Z</time>
      </trkpt>
      <trkpt lat="47.28699" lon="-2.36274">
        <ele>-12</ele>
        <time>2022-06-16T09:48:40.000Z</time>
      </trkpt>
      <trkpt lat="47.28697" lon="-2.36275">
        <ele>-11.60000038147</ele>
        <time>2022-06-16T09:48:41.000Z</time>
      </trkpt>
      <trkpt lat="47.28694" lon="-2.36276">
        <ele>-11.199999809265</ele>
        <time>2022-06-16T09:48:42.000Z</time>
      </trkpt>
      <trkpt lat="47.28681" lon="-2.36279">
        <ele>-10.800000190735</ele>
        <time>2022-06-16T09:48:47.000Z</time>
      </trkpt>
      <trkpt lat="47.28679" lon="-2.36278">
        <ele>-10.39999961853</ele>
        <time>2022-06-16T09:48:48.000Z</time>
      </trkpt>
      <trkpt lat="47.28676" lon="-2.36276">
        <ele>-10</ele>
        <time>2022-06-16T09:48:49.000Z</time>
      </trkpt>
      <trkpt lat="47.28674" lon="-2.36274">
        <ele>-9.3999996185303</ele>
        <time>2022-06-16T09:48:50.000Z</time>
      </trkpt>
      <trkpt lat="47.28672" lon="-2.3627">
        <ele>-9</ele>
        <time>2022-06-16T09:48:51.000Z</time>
      </trkpt>
      <trkpt lat="47.28668" lon="-2.36261">
        <ele>-9</ele>
        <time>2022-06-16T09:48:53.000Z</time>
      </trkpt>
      <trkpt lat="47.28665" lon="-2.36228">
        <ele>-9</ele>
        <time>2022-06-16T09:49:01.000Z</time>
      </trkpt>
      <trkpt lat="47.28664" lon="-2.3621">
        <ele>-8.6000003814697</ele>
        <time>2022-06-16T09:49:05.000Z</time>
      </trkpt>
      <trkpt lat="47.28663" lon="-2.36206">
        <ele>-8.1999998092651</ele>
        <time>2022-06-16T09:49:06.000Z</time>
      </trkpt>
      <trkpt lat="47.28662" lon="-2.36201">
        <ele>-7.8000001907349</ele>
        <time>2022-06-16T09:49:07.000Z</time>
      </trkpt>
      <trkpt lat="47.2866" lon="-2.36197">
        <ele>-7.4000000953674</ele>
        <time>2022-06-16T09:49:08.000Z</time>
      </trkpt>
      <trkpt lat="47.28659" lon="-2.36194">
        <ele>-7</ele>
        <time>2022-06-16T09:49:09.000Z</time>
      </trkpt>
      <trkpt lat="47.28651" lon="-2.36186">
        <ele>-7</ele>
        <time>2022-06-16T09:49:13.000Z</time>
      </trkpt>
      <trkpt lat="47.2864" lon="-2.36167">
        <ele>-6.4000000953674</ele>
        <time>2022-06-16T09:49:18.000Z</time>
      </trkpt>
      <trkpt lat="47.2864" lon="-2.36158">
        <ele>-6</ele>
        <time>2022-06-16T09:49:19.000Z</time>
      </trkpt>
      <trkpt lat="47.28638" lon="-2.36152">
        <ele>-5.5999999046326</ele>
        <time>2022-06-16T09:49:20.000Z</time>
      </trkpt>
      <trkpt lat="47.28636" lon="-2.3615">
        <ele>-5.1999998092651</ele>
        <time>2022-06-16T09:49:21.000Z</time>
      </trkpt>
      <trkpt lat="47.28633" lon="-2.36148">
        <ele>-4.8000001907349</ele>
        <time>2022-06-16T09:49:22.000Z</time>
      </trkpt>
      <trkpt lat="47.28631" lon="-2.36147">
        <ele>-4.8000001907349</ele>
        <time>2022-06-16T09:49:23.000Z</time>
      </trkpt>
      <trkpt lat="47.28628" lon="-2.36147">
        <ele>-4.8000001907349</ele>
        <time>2022-06-16T09:49:24.000Z</time>
      </trkpt>
      <trkpt lat="47.2862" lon="-2.36155">
        <ele>-4.8000001907349</ele>
        <time>2022-06-16T09:49:27.000Z</time>
      </trkpt>
      <trkpt lat="47.28599" lon="-2.36157">
        <ele>-4.8000001907349</ele>
        <time>2022-06-16T09:49:32.000Z</time>
      </trkpt>
      <trkpt lat="47.28575" lon="-2.36152">
        <ele>-4.8000001907349</ele>
        <time>2022-06-16T09:49:38.000Z</time>
      </trkpt>
      <trkpt lat="47.28553" lon="-2.36157">
        <ele>-5.1999998092651</ele>
        <time>2022-06-16T09:49:43.000Z</time>
      </trkpt>
      <trkpt lat="47.2855" lon="-2.36156">
        <ele>-5.8000001907349</ele>
        <time>2022-06-16T09:49:44.000Z</time>
      </trkpt>
      <trkpt lat="47.28546" lon="-2.36154">
        <ele>-6.4000000953674</ele>
        <time>2022-06-16T09:49:45.000Z</time>
      </trkpt>
      <trkpt lat="47.28542" lon="-2.36151">
        <ele>-6.8000001907349</ele>
        <time>2022-06-16T09:49:46.000Z</time>
      </trkpt>
      <trkpt lat="47.28539" lon="-2.36147">
        <ele>-7.4000000953674</ele>
        <time>2022-06-16T09:49:47.000Z</time>
      </trkpt>
      <trkpt lat="47.28536" lon="-2.36143">
        <ele>-7.4000000953674</ele>
        <time>2022-06-16T09:49:48.000Z</time>
      </trkpt>
      <trkpt lat="47.28536" lon="-2.36138">
        <ele>-7.4000000953674</ele>
        <time>2022-06-16T09:49:49.000Z</time>
      </trkpt>
      <trkpt lat="47.28534" lon="-2.3612">
        <ele>-7.4000000953674</ele>
        <time>2022-06-16T09:49:52.000Z</time>
      </trkpt>
      <trkpt lat="47.28529" lon="-2.36087">
        <ele>-7.4000000953674</ele>
        <time>2022-06-16T09:49:58.000Z</time>
      </trkpt>
      <trkpt lat="47.28519" lon="-2.36061">
        <ele>-7.4000000953674</ele>
        <time>2022-06-16T09:50:04.000Z</time>
      </trkpt>
      <trkpt lat="47.285" lon="-2.36039">
        <ele>-7.4000000953674</ele>
        <time>2022-06-16T09:50:09.000Z</time>
      </trkpt>
      <trkpt lat="47.28481" lon="-2.3603">
        <ele>-7.4000000953674</ele>
        <time>2022-06-16T09:50:13.000Z</time>
      </trkpt>
      <trkpt lat="47.28475" lon="-2.36027">
        <ele>-7.4000000953674</ele>
        <time>2022-06-16T09:50:14.000Z</time>
      </trkpt>
      <trkpt lat="47.28459" lon="-2.36005">
        <ele>-7.4000000953674</ele>
        <time>2022-06-16T09:50:18.000Z</time>
      </trkpt>
      <trkpt lat="47.28456" lon="-2.35999">
        <ele>-7.4000000953674</ele>
        <time>2022-06-16T09:50:19.000Z</time>
      </trkpt>
      <trkpt lat="47.28443" lon="-2.35985">
        <ele>-7.4000000953674</ele>
        <time>2022-06-16T09:50:23.000Z</time>
      </trkpt>
      <trkpt lat="47.28429" lon="-2.35994">
        <ele>-7.4000000953674</ele>
        <time>2022-06-16T09:50:27.000Z</time>
      </trkpt>
      <trkpt lat="47.28422" lon="-2.36005">
        <ele>-7.4000000953674</ele>
        <time>2022-06-16T09:50:29.000Z</time>
      </trkpt>
      <trkpt lat="47.28418" lon="-2.36011">
        <ele>-7.8000001907349</ele>
        <time>2022-06-16T09:50:30.000Z</time>
      </trkpt>
      <trkpt lat="47.28415" lon="-2.36014">
        <ele>-8.1999998092651</ele>
        <time>2022-06-16T09:50:31.000Z</time>
      </trkpt>
      <trkpt lat="47.28411" lon="-2.36017">
        <ele>-8.6000003814697</ele>
        <time>2022-06-16T09:50:32.000Z</time>
      </trkpt>
      <trkpt lat="47.28407" lon="-2.36018">
        <ele>-9</ele>
        <time>2022-06-16T09:50:33.000Z</time>
      </trkpt>
      <trkpt lat="47.28404" lon="-2.36019">
        <ele>-9.3999996185303</ele>
        <time>2022-06-16T09:50:34.000Z</time>
      </trkpt>
      <trkpt lat="47.28396" lon="-2.36019">
        <ele>-9.8000001907349</ele>
        <time>2022-06-16T09:50:36.000Z</time>
      </trkpt>
      <trkpt lat="47.28391" lon="-2.3602">
        <ele>-10.39999961853</ele>
        <time>2022-06-16T09:50:37.000Z</time>
      </trkpt>
      <trkpt lat="47.28387" lon="-2.36022">
        <ele>-10.800000190735</ele>
        <time>2022-06-16T09:50:38.000Z</time>
      </trkpt>
      <trkpt lat="47.28381" lon="-2.36024">
        <ele>-11.39999961853</ele>
        <time>2022-06-16T09:50:39.000Z</time>
      </trkpt>
      <trkpt lat="47.28374" lon="-2.36028">
        <ele>-12.199999809265</ele>
        <time>2022-06-16T09:50:40.000Z</time>
      </trkpt>
      <trkpt lat="47.28366" lon="-2.36032">
        <ele>-13.60000038147</ele>
        <time>2022-06-16T09:50:41.000Z</time>
      </trkpt>
      <trkpt lat="47.28358" lon="-2.36037">
        <ele>-14.199999809265</ele>
        <time>2022-06-16T09:50:42.000Z</time>
      </trkpt>
      <trkpt lat="47.28351" lon="-2.36042">
        <ele>-14.800000190735</ele>
        <time>2022-06-16T09:50:43.000Z</time>
      </trkpt>
      <trkpt lat="47.28344" lon="-2.36047">
        <ele>-15.39999961853</ele>
        <time>2022-06-16T09:50:44.000Z</time>
      </trkpt>
      <trkpt lat="47.28336" lon="-2.36049">
        <ele>-16</ele>
        <time>2022-06-16T09:50:45.000Z</time>
      </trkpt>
      <trkpt lat="47.28327" lon="-2.3605">
        <ele>-16.60000038147</ele>
        <time>2022-06-16T09:50:46.000Z</time>
      </trkpt>
      <trkpt lat="47.28313" lon="-2.36047">
        <ele>-16.60000038147</ele>
        <time>2022-06-16T09:50:48.000Z</time>
      </trkpt>
      <trkpt lat="47.283" lon="-2.36044">
        <ele>-17</ele>
        <time>2022-06-16T09:50:50.000Z</time>
      </trkpt>
      <trkpt lat="47.28295" lon="-2.36041">
        <ele>-17.60000038147</ele>
        <time>2022-06-16T09:50:51.000Z</time>
      </trkpt>
      <trkpt lat="47.2829" lon="-2.36038">
        <ele>-18.39999961853</ele>
        <time>2022-06-16T09:50:52.000Z</time>
      </trkpt>
      <trkpt lat="47.28285" lon="-2.36033">
        <ele>-19</ele>
        <time>2022-06-16T09:50:53.000Z</time>
      </trkpt>
      <trkpt lat="47.28282" lon="-2.36027">
        <ele>-20</ele>
        <time>2022-06-16T09:50:54.000Z</time>
      </trkpt>
      <trkpt lat="47.28279" lon="-2.36019">
        <ele>-20.799999237061</ele>
        <time>2022-06-16T09:50:55.000Z</time>
      </trkpt>
      <trkpt lat="47.28277" lon="-2.3601">
        <ele>-21.799999237061</ele>
        <time>2022-06-16T09:50:56.000Z</time>
      </trkpt>
      <trkpt lat="47.28276" lon="-2.36002">
        <ele>-22.60000038147</ele>
        <time>2022-06-16T09:50:57.000Z</time>
      </trkpt>
      <trkpt lat="47.28275" lon="-2.35994">
        <ele>-23.39999961853</ele>
        <time>2022-06-16T09:50:58.000Z</time>
      </trkpt>
      <trkpt lat="47.28274" lon="-2.35986">
        <ele>-24</ele>
        <time>2022-06-16T09:50:59.000Z</time>
      </trkpt>
      <trkpt lat="47.28272" lon="-2.35979">
        <ele>-24.799999237061</ele>
        <time>2022-06-16T09:51:00.000Z</time>
      </trkpt>
      <trkpt lat="47.28271" lon="-2.35972">
        <ele>-25.60000038147</ele>
        <time>2022-06-16T09:51:01.000Z</time>
      </trkpt>
      <trkpt lat="47.28267" lon="-2.35959">
        <ele>-25.60000038147</ele>
        <time>2022-06-16T09:51:03.000Z</time>
      </trkpt>
      <trkpt lat="47.28258" lon="-2.35935">
        <ele>-25.200000762939</ele>
        <time>2022-06-16T09:51:07.000Z</time>
      </trkpt>
      <trkpt lat="47.28256" lon="-2.35931">
        <ele>-24.60000038147</ele>
        <time>2022-06-16T09:51:08.000Z</time>
      </trkpt>
      <trkpt lat="47.28254" lon="-2.35926">
        <ele>-24.200000762939</ele>
        <time>2022-06-16T09:51:09.000Z</time>
      </trkpt>
      <trkpt lat="47.28252" lon="-2.35921">
        <ele>-23.799999237061</ele>
        <time>2022-06-16T09:51:10.000Z</time>
      </trkpt>
      <trkpt lat="47.2825" lon="-2.35918">
        <ele>-23.200000762939</ele>
        <time>2022-06-16T09:51:11.000Z</time>
      </trkpt>
      <trkpt lat="47.28244" lon="-2.35916">
        <ele>-23.200000762939</ele>
        <time>2022-06-16T09:51:13.000Z</time>
      </trkpt>
      <trkpt lat="47.28225" lon="-2.35908">
        <ele>-23.200000762939</ele>
        <time>2022-06-16T09:51:19.000Z</time>
      </trkpt>
      <trkpt lat="47.28219" lon="-2.35899">
        <ele>-23.60000038147</ele>
        <time>2022-06-16T09:51:21.000Z</time>
      </trkpt>
      <trkpt lat="47.28217" lon="-2.35894">
        <ele>-24</ele>
        <time>2022-06-16T09:51:22.000Z</time>
      </trkpt>
      <trkpt lat="47.28214" lon="-2.35887">
        <ele>-24.39999961853</ele>
        <time>2022-06-16T09:51:23.000Z</time>
      </trkpt>
      <trkpt lat="47.28211" lon="-2.35881">
        <ele>-24.799999237061</ele>
        <time>2022-06-16T09:51:24.000Z</time>
      </trkpt>
      <trkpt lat="47.28209" lon="-2.35875">
        <ele>-25.200000762939</ele>
        <time>2022-06-16T09:51:25.000Z</time>
      </trkpt>
      <trkpt lat="47.28197" lon="-2.35848">
        <ele>-25.200000762939</ele>
        <time>2022-06-16T09:51:30.000Z</time>
      </trkpt>
      <trkpt lat="47.28185" lon="-2.35819">
        <ele>-25.200000762939</ele>
        <time>2022-06-16T09:51:35.000Z</time>
      </trkpt>
      <trkpt lat="47.28166" lon="-2.35793">
        <ele>-25.200000762939</ele>
        <time>2022-06-16T09:51:40.000Z</time>
      </trkpt>
      <trkpt lat="47.28157" lon="-2.3577">
        <ele>-25.200000762939</ele>
        <time>2022-06-16T09:51:46.000Z</time>
      </trkpt>
      <trkpt lat="47.28145" lon="-2.35764">
        <ele>-25.200000762939</ele>
        <time>2022-06-16T09:51:50.000Z</time>
      </trkpt>
      <trkpt lat="47.28134" lon="-2.35765">
        <ele>-25.799999237061</ele>
        <time>2022-06-16T09:51:53.000Z</time>
      </trkpt>
      <trkpt lat="47.28131" lon="-2.35766">
        <ele>-26.200000762939</ele>
        <time>2022-06-16T09:51:54.000Z</time>
      </trkpt>
      <trkpt lat="47.28128" lon="-2.35771">
        <ele>-27</ele>
        <time>2022-06-16T09:51:55.000Z</time>
      </trkpt>
      <trkpt lat="47.28124" lon="-2.35776">
        <ele>-27.39999961853</ele>
        <time>2022-06-16T09:51:56.000Z</time>
      </trkpt>
      <trkpt lat="47.28121" lon="-2.35781">
        <ele>-27.39999961853</ele>
        <time>2022-06-16T09:51:57.000Z</time>
      </trkpt>
      <trkpt lat="47.28091" lon="-2.35807">
        <ele>-27.39999961853</ele>
        <time>2022-06-16T09:52:02.000Z</time>
      </trkpt>
      <trkpt lat="47.28088" lon="-2.35809">
        <ele>-27.39999961853</ele>
        <time>2022-06-16T09:52:03.000Z</time>
      </trkpt>
      <trkpt lat="47.28078" lon="-2.35803">
        <ele>-27.39999961853</ele>
        <time>2022-06-16T09:52:06.000Z</time>
      </trkpt>
      <trkpt lat="47.28077" lon="-2.358">
        <ele>-27.39999961853</ele>
        <time>2022-06-16T09:52:07.000Z</time>
      </trkpt>
      <trkpt lat="47.28076" lon="-2.35796">
        <ele>-27</ele>
        <time>2022-06-16T09:52:08.000Z</time>
      </trkpt>
      <trkpt lat="47.28076" lon="-2.35793">
        <ele>-26.60000038147</ele>
        <time>2022-06-16T09:52:09.000Z</time>
      </trkpt>
      <trkpt lat="47.28078" lon="-2.35785">
        <ele>-26.200000762939</ele>
        <time>2022-06-16T09:52:10.000Z</time>
      </trkpt>
      <trkpt lat="47.28079" lon="-2.3578">
        <ele>-25.60000038147</ele>
        <time>2022-06-16T09:52:11.000Z</time>
      </trkpt>
      <trkpt lat="47.2808" lon="-2.35775">
        <ele>-25.200000762939</ele>
        <time>2022-06-16T09:52:12.000Z</time>
      </trkpt>
      <trkpt lat="47.28086" lon="-2.35739">
        <ele>-24.799999237061</ele>
        <time>2022-06-16T09:52:18.000Z</time>
      </trkpt>
      <trkpt lat="47.28087" lon="-2.35734">
        <ele>-24.39999961853</ele>
        <time>2022-06-16T09:52:19.000Z</time>
      </trkpt>
      <trkpt lat="47.28088" lon="-2.35728">
        <ele>-23.39999961853</ele>
        <time>2022-06-16T09:52:20.000Z</time>
      </trkpt>
      <trkpt lat="47.28089" lon="-2.35722">
        <ele>-23</ele>
        <time>2022-06-16T09:52:21.000Z</time>
      </trkpt>
      <trkpt lat="47.28092" lon="-2.35706">
        <ele>-23</ele>
        <time>2022-06-16T09:52:24.000Z</time>
      </trkpt>
      <trkpt lat="47.28091" lon="-2.357">
        <ele>-23</ele>
        <time>2022-06-16T09:52:25.000Z</time>
      </trkpt>
      <trkpt lat="47.28085" lon="-2.35681">
        <ele>-23</ele>
        <time>2022-06-16T09:52:28.000Z</time>
      </trkpt>
      <trkpt lat="47.2807" lon="-2.35635">
        <ele>-23.39999961853</ele>
        <time>2022-06-16T09:52:34.000Z</time>
      </trkpt>
      <trkpt lat="47.28068" lon="-2.35626">
        <ele>-24</ele>
        <time>2022-06-16T09:52:35.000Z</time>
      </trkpt>
      <trkpt lat="47.28067" lon="-2.35616">
        <ele>-24.39999961853</ele>
        <time>2022-06-16T09:52:36.000Z</time>
      </trkpt>
      <trkpt lat="47.28065" lon="-2.35607">
        <ele>-25</ele>
        <time>2022-06-16T09:52:37.000Z</time>
      </trkpt>
      <trkpt lat="47.28065" lon="-2.356">
        <ele>-25.60000038147</ele>
        <time>2022-06-16T09:52:38.000Z</time>
      </trkpt>
      <trkpt lat="47.28066" lon="-2.35595">
        <ele>-26.200000762939</ele>
        <time>2022-06-16T09:52:39.000Z</time>
      </trkpt>
      <trkpt lat="47.28065" lon="-2.35593">
        <ele>-26.799999237061</ele>
        <time>2022-06-16T09:52:40.000Z</time>
      </trkpt>
      <trkpt lat="47.28065" lon="-2.35592">
        <ele>-27.200000762939</ele>
        <time>2022-06-16T09:52:41.000Z</time>
      </trkpt>
      <trkpt lat="47.28063" lon="-2.35585">
        <ele>-27.799999237061</ele>
        <time>2022-06-16T09:55:32.000Z</time>
      </trkpt>
      <trkpt lat="47.28058" lon="-2.35582">
        <ele>-27.799999237061</ele>
        <time>2022-06-16T09:55:35.000Z</time>
      </trkpt>
      <trkpt lat="47.2805" lon="-2.35581">
        <ele>-27.799999237061</ele>
        <time>2022-06-16T09:55:38.000Z</time>
      </trkpt>
      <trkpt lat="47.28041" lon="-2.35577">
        <ele>-27.799999237061</ele>
        <time>2022-06-16T09:55:41.000Z</time>
      </trkpt>
      <trkpt lat="47.2803" lon="-2.35567">
        <ele>-27.799999237061</ele>
        <time>2022-06-16T09:55:44.000Z</time>
      </trkpt>
      <trkpt lat="47.28027" lon="-2.35562">
        <ele>-27.799999237061</ele>
        <time>2022-06-16T09:55:45.000Z</time>
      </trkpt>
      <trkpt lat="47.28012" lon="-2.35557">
        <ele>-27.799999237061</ele>
        <time>2022-06-16T09:55:48.000Z</time>
      </trkpt>
      <trkpt lat="47.28008" lon="-2.35556">
        <ele>-28.200000762939</ele>
        <time>2022-06-16T09:55:49.000Z</time>
      </trkpt>
      <trkpt lat="47.28003" lon="-2.35553">
        <ele>-28.60000038147</ele>
        <time>2022-06-16T09:55:50.000Z</time>
      </trkpt>
      <trkpt lat="47.27999" lon="-2.35547">
        <ele>-29.200000762939</ele>
        <time>2022-06-16T09:55:51.000Z</time>
      </trkpt>
      <trkpt lat="47.27997" lon="-2.3554">
        <ele>-29.60000038147</ele>
        <time>2022-06-16T09:55:52.000Z</time>
      </trkpt>
      <trkpt lat="47.27994" lon="-2.35532">
        <ele>-30</ele>
        <time>2022-06-16T09:55:53.000Z</time>
      </trkpt>
      <trkpt lat="47.27988" lon="-2.35516">
        <ele>-30</ele>
        <time>2022-06-16T09:55:55.000Z</time>
      </trkpt>
      <trkpt lat="47.27976" lon="-2.35483">
        <ele>-30.39999961853</ele>
        <time>2022-06-16T09:55:59.000Z</time>
      </trkpt>
      <trkpt lat="47.27973" lon="-2.35476">
        <ele>-30.799999237061</ele>
        <time>2022-06-16T09:56:00.000Z</time>
      </trkpt>
      <trkpt lat="47.2797" lon="-2.3547">
        <ele>-31.39999961853</ele>
        <time>2022-06-16T09:56:01.000Z</time>
      </trkpt>
      <trkpt lat="47.27966" lon="-2.35465">
        <ele>-31.799999237061</ele>
        <time>2022-06-16T09:56:02.000Z</time>
      </trkpt>
      <trkpt lat="47.27962" lon="-2.35462">
        <ele>-32.400001525879</ele>
        <time>2022-06-16T09:56:03.000Z</time>
      </trkpt>
      <trkpt lat="47.27953" lon="-2.35458">
        <ele>-32.400001525879</ele>
        <time>2022-06-16T09:56:05.000Z</time>
      </trkpt>
      <trkpt lat="47.27929" lon="-2.3544">
        <ele>-32.400001525879</ele>
        <time>2022-06-16T09:56:12.000Z</time>
      </trkpt>
      <trkpt lat="47.27916" lon="-2.35422">
        <ele>-32.400001525879</ele>
        <time>2022-06-16T09:56:17.000Z</time>
      </trkpt>
      <trkpt lat="47.279" lon="-2.35399">
        <ele>-32.400001525879</ele>
        <time>2022-06-16T09:56:23.000Z</time>
      </trkpt>
      <trkpt lat="47.2788" lon="-2.35372">
        <ele>-32.400001525879</ele>
        <time>2022-06-16T09:56:30.000Z</time>
      </trkpt>
      <trkpt lat="47.27871" lon="-2.35362">
        <ele>-32.400001525879</ele>
        <time>2022-06-16T09:56:33.000Z</time>
      </trkpt>
      <trkpt lat="47.27863" lon="-2.35362">
        <ele>-32.400001525879</ele>
        <time>2022-06-16T09:56:35.000Z</time>
      </trkpt>
      <trkpt lat="47.27823" lon="-2.35363">
        <ele>-32.400001525879</ele>
        <time>2022-06-16T09:56:43.000Z</time>
      </trkpt>
      <trkpt lat="47.27803" lon="-2.35358">
        <ele>-32.400001525879</ele>
        <time>2022-06-16T09:56:47.000Z</time>
      </trkpt>
      <trkpt lat="47.278" lon="-2.35354">
        <ele>-32.400001525879</ele>
        <time>2022-06-16T09:56:48.000Z</time>
      </trkpt>
      <trkpt lat="47.27794" lon="-2.35336">
        <ele>-32.400001525879</ele>
        <time>2022-06-16T09:56:51.000Z</time>
      </trkpt>
      <trkpt lat="47.27791" lon="-2.35321">
        <ele>-32.400001525879</ele>
        <time>2022-06-16T09:56:56.000Z</time>
      </trkpt>
      <trkpt lat="47.27791" lon="-2.35321">
        <ele>-32.400001525879</ele>
        <time>2022-06-16T09:56:57.000Z</time>
      </trkpt>
      <trkpt lat="47.27776" lon="-2.35325">
        <ele>-34.200000762939</ele>
        <time>2022-06-16T11:08:46.000Z</time>
      </trkpt>
      <trkpt lat="47.27776" lon="-2.35324">
        <ele>-34.200000762939</ele>
        <time>2022-06-16T11:08:47.000Z</time>
      </trkpt>
      <trkpt lat="47.27782" lon="-2.35321">
        <ele>-34.200000762939</ele>
        <time>2022-06-16T11:08:52.000Z</time>
      </trkpt>
      <trkpt lat="47.27785" lon="-2.35322">
        <ele>-34.200000762939</ele>
        <time>2022-06-16T11:08:54.000Z</time>
      </trkpt>
      <trkpt lat="47.27789" lon="-2.35325">
        <ele>-34.200000762939</ele>
        <time>2022-06-16T11:08:57.000Z</time>
      </trkpt>
      <trkpt lat="47.27793" lon="-2.35326">
        <ele>-34.200000762939</ele>
        <time>2022-06-16T11:09:01.000Z</time>
      </trkpt>
      <trkpt lat="47.27794" lon="-2.35326">
        <ele>-34.200000762939</ele>
        <time>2022-06-16T11:09:02.000Z</time>
      </trkpt>
      <trkpt lat="47.27794" lon="-2.35324">
        <ele>-34.200000762939</ele>
        <time>2022-06-16T11:09:04.000Z</time>
      </trkpt>
      <trkpt lat="47.27793" lon="-2.35322">
        <ele>-34.200000762939</ele>
        <time>2022-06-16T11:09:07.000Z</time>
      </trkpt>
      <trkpt lat="47.27793" lon="-2.3532">
        <ele>-34.200000762939</ele>
        <time>2022-06-16T11:09:08.000Z</time>
      </trkpt>
      <trkpt lat="47.27789" lon="-2.35305">
        <ele>-34.200000762939</ele>
        <time>2022-06-16T11:09:13.000Z</time>
      </trkpt>
      <trkpt lat="47.27781" lon="-2.35268">
        <ele>-34.200000762939</ele>
        <time>2022-06-16T11:09:20.000Z</time>
      </trkpt>
      <trkpt lat="47.27775" lon="-2.35227">
        <ele>-34.200000762939</ele>
        <time>2022-06-16T11:09:27.000Z</time>
      </trkpt>
      <trkpt lat="47.27767" lon="-2.35201">
        <ele>-34.200000762939</ele>
        <time>2022-06-16T11:09:32.000Z</time>
      </trkpt>
      <trkpt lat="47.27763" lon="-2.35201">
        <ele>-34.200000762939</ele>
        <time>2022-06-16T11:09:33.000Z</time>
      </trkpt>
      <trkpt lat="47.27754" lon="-2.35202">
        <ele>-34.200000762939</ele>
        <time>2022-06-16T11:09:35.000Z</time>
      </trkpt>
      <trkpt lat="47.27746" lon="-2.35204">
        <ele>-34.200000762939</ele>
        <time>2022-06-16T11:09:37.000Z</time>
      </trkpt>
      <trkpt lat="47.27734" lon="-2.35206">
        <ele>-33.799999237061</ele>
        <time>2022-06-16T11:09:40.000Z</time>
      </trkpt>
      <trkpt lat="47.2773" lon="-2.35206">
        <ele>-33.400001525879</ele>
        <time>2022-06-16T11:09:41.000Z</time>
      </trkpt>
      <trkpt lat="47.27726" lon="-2.35208">
        <ele>-33</ele>
        <time>2022-06-16T11:09:42.000Z</time>
      </trkpt>
      <trkpt lat="47.27723" lon="-2.35208">
        <ele>-32.599998474121</ele>
        <time>2022-06-16T11:09:43.000Z</time>
      </trkpt>
      <trkpt lat="47.27719" lon="-2.35208">
        <ele>-32.200000762939</ele>
        <time>2022-06-16T11:09:44.000Z</time>
      </trkpt>
      <trkpt lat="47.27709" lon="-2.35211">
        <ele>-32.200000762939</ele>
        <time>2022-06-16T11:09:47.000Z</time>
      </trkpt>
      <trkpt lat="47.27684" lon="-2.35218">
        <ele>-32.200000762939</ele>
        <time>2022-06-16T11:09:54.000Z</time>
      </trkpt>
      <trkpt lat="47.27674" lon="-2.35215">
        <ele>-32.200000762939</ele>
        <time>2022-06-16T11:09:57.000Z</time>
      </trkpt>
      <trkpt lat="47.27673" lon="-2.35211">
        <ele>-32.200000762939</ele>
        <time>2022-06-16T11:09:58.000Z</time>
      </trkpt>
      <trkpt lat="47.27671" lon="-2.35203">
        <ele>-31.799999237061</ele>
        <time>2022-06-16T11:10:00.000Z</time>
      </trkpt>
      <trkpt lat="47.27671" lon="-2.35198">
        <ele>-31.39999961853</ele>
        <time>2022-06-16T11:10:01.000Z</time>
      </trkpt>
      <trkpt lat="47.27671" lon="-2.35194">
        <ele>-31</ele>
        <time>2022-06-16T11:10:02.000Z</time>
      </trkpt>
      <trkpt lat="47.27671" lon="-2.35189">
        <ele>-30.60000038147</ele>
        <time>2022-06-16T11:10:03.000Z</time>
      </trkpt>
      <trkpt lat="47.27671" lon="-2.35184">
        <ele>-30.200000762939</ele>
        <time>2022-06-16T11:10:04.000Z</time>
      </trkpt>
      <trkpt lat="47.27666" lon="-2.35172">
        <ele>-30.200000762939</ele>
        <time>2022-06-16T11:10:07.000Z</time>
      </trkpt>
      <trkpt lat="47.27664" lon="-2.3517">
        <ele>-30.200000762939</ele>
        <time>2022-06-16T11:10:08.000Z</time>
      </trkpt>
      <trkpt lat="47.27655" lon="-2.35172">
        <ele>-30.200000762939</ele>
        <time>2022-06-16T11:10:11.000Z</time>
      </trkpt>
      <trkpt lat="47.27641" lon="-2.35175">
        <ele>-30.200000762939</ele>
        <time>2022-06-16T11:10:16.000Z</time>
      </trkpt>
      <trkpt lat="47.27637" lon="-2.35174">
        <ele>-29.799999237061</ele>
        <time>2022-06-16T11:10:17.000Z</time>
      </trkpt>
      <trkpt lat="47.27633" lon="-2.35174">
        <ele>-29.39999961853</ele>
        <time>2022-06-16T11:10:18.000Z</time>
      </trkpt>
      <trkpt lat="47.2763" lon="-2.35175">
        <ele>-29</ele>
        <time>2022-06-16T11:10:19.000Z</time>
      </trkpt>
      <trkpt lat="47.27626" lon="-2.35175">
        <ele>-28.60000038147</ele>
        <time>2022-06-16T11:10:20.000Z</time>
      </trkpt>
      <trkpt lat="47.27622" lon="-2.35175">
        <ele>-28.200000762939</ele>
        <time>2022-06-16T11:10:21.000Z</time>
      </trkpt>
      <trkpt lat="47.2761" lon="-2.35164">
        <ele>-28.200000762939</ele>
        <time>2022-06-16T11:10:25.000Z</time>
      </trkpt>
      <trkpt lat="47.27607" lon="-2.35145">
        <ele>-28.200000762939</ele>
        <time>2022-06-16T11:10:29.000Z</time>
      </trkpt>
      <trkpt lat="47.276" lon="-2.35133">
        <ele>-28.200000762939</ele>
        <time>2022-06-16T11:10:33.000Z</time>
      </trkpt>
      <trkpt lat="47.27584" lon="-2.35133">
        <ele>-28.200000762939</ele>
        <time>2022-06-16T11:10:38.000Z</time>
      </trkpt>
      <trkpt lat="47.27563" lon="-2.35134">
        <ele>-28.200000762939</ele>
        <time>2022-06-16T11:10:44.000Z</time>
      </trkpt>
      <trkpt lat="47.27539" lon="-2.35138">
        <ele>-28.200000762939</ele>
        <time>2022-06-16T11:10:50.000Z</time>
      </trkpt>
      <trkpt lat="47.27515" lon="-2.35131">
        <ele>-28.200000762939</ele>
        <time>2022-06-16T11:10:56.000Z</time>
      </trkpt>
      <trkpt lat="47.27501" lon="-2.35122">
        <ele>-28.200000762939</ele>
        <time>2022-06-16T11:11:00.000Z</time>
      </trkpt>
      <trkpt lat="47.275" lon="-2.35118">
        <ele>-28.200000762939</ele>
        <time>2022-06-16T11:11:01.000Z</time>
      </trkpt>
      <trkpt lat="47.27501" lon="-2.35099">
        <ele>-28.200000762939</ele>
        <time>2022-06-16T11:11:04.000Z</time>
      </trkpt>
      <trkpt lat="47.27502" lon="-2.35086">
        <ele>-28.200000762939</ele>
        <time>2022-06-16T11:11:06.000Z</time>
      </trkpt>
      <trkpt lat="47.27503" lon="-2.35039">
        <ele>-28.200000762939</ele>
        <time>2022-06-16T11:11:14.000Z</time>
      </trkpt>
      <trkpt lat="47.27499" lon="-2.35023">
        <ele>-28.200000762939</ele>
        <time>2022-06-16T11:11:17.000Z</time>
      </trkpt>
      <trkpt lat="47.27494" lon="-2.35011">
        <ele>-28.200000762939</ele>
        <time>2022-06-16T11:11:19.000Z</time>
      </trkpt>
      <trkpt lat="47.27478" lon="-2.34958">
        <ele>-28.200000762939</ele>
        <time>2022-06-16T11:11:27.000Z</time>
      </trkpt>
      <trkpt lat="47.27464" lon="-2.34908">
        <ele>-28.200000762939</ele>
        <time>2022-06-16T11:11:34.000Z</time>
      </trkpt>
      <trkpt lat="47.2746" lon="-2.34887">
        <ele>-28.200000762939</ele>
        <time>2022-06-16T11:11:37.000Z</time>
      </trkpt>
      <trkpt lat="47.27459" lon="-2.34873">
        <ele>-28.200000762939</ele>
        <time>2022-06-16T11:11:39.000Z</time>
      </trkpt>
      <trkpt lat="47.2746" lon="-2.3486">
        <ele>-28.200000762939</ele>
        <time>2022-06-16T11:11:41.000Z</time>
      </trkpt>
      <trkpt lat="47.2746" lon="-2.34836">
        <ele>-28.200000762939</ele>
        <time>2022-06-16T11:11:45.000Z</time>
      </trkpt>
      <trkpt lat="47.27457" lon="-2.34786">
        <ele>-28.200000762939</ele>
        <time>2022-06-16T11:11:53.000Z</time>
      </trkpt>
      <trkpt lat="47.27456" lon="-2.34743">
        <ele>-27.60000038147</ele>
        <time>2022-06-16T11:12:00.000Z</time>
      </trkpt>
      <trkpt lat="47.27456" lon="-2.34736">
        <ele>-27.200000762939</ele>
        <time>2022-06-16T11:12:01.000Z</time>
      </trkpt>
      <trkpt lat="47.27457" lon="-2.3473">
        <ele>-26.799999237061</ele>
        <time>2022-06-16T11:12:02.000Z</time>
      </trkpt>
      <trkpt lat="47.27457" lon="-2.34724">
        <ele>-26.39999961853</ele>
        <time>2022-06-16T11:12:03.000Z</time>
      </trkpt>
      <trkpt lat="47.27457" lon="-2.34718">
        <ele>-26</ele>
        <time>2022-06-16T11:12:04.000Z</time>
      </trkpt>
      <trkpt lat="47.27457" lon="-2.34684">
        <ele>-26</ele>
        <time>2022-06-16T11:12:10.000Z</time>
      </trkpt>
      <trkpt lat="47.27454" lon="-2.34645">
        <ele>-26</ele>
        <time>2022-06-16T11:12:16.000Z</time>
      </trkpt>
      <trkpt lat="47.27451" lon="-2.3461">
        <ele>-25.60000038147</ele>
        <time>2022-06-16T11:12:22.000Z</time>
      </trkpt>
      <trkpt lat="47.2745" lon="-2.34604">
        <ele>-25.200000762939</ele>
        <time>2022-06-16T11:12:23.000Z</time>
      </trkpt>
      <trkpt lat="47.2745" lon="-2.34598">
        <ele>-24.799999237061</ele>
        <time>2022-06-16T11:12:24.000Z</time>
      </trkpt>
      <trkpt lat="47.27449" lon="-2.34591">
        <ele>-24.200000762939</ele>
        <time>2022-06-16T11:12:25.000Z</time>
      </trkpt>
      <trkpt lat="47.27448" lon="-2.34585">
        <ele>-23.799999237061</ele>
        <time>2022-06-16T11:12:26.000Z</time>
      </trkpt>
      <trkpt lat="47.27443" lon="-2.34553">
        <ele>-23.799999237061</ele>
        <time>2022-06-16T11:12:31.000Z</time>
      </trkpt>
      <trkpt lat="47.27432" lon="-2.34517">
        <ele>-23.799999237061</ele>
        <time>2022-06-16T11:12:37.000Z</time>
      </trkpt>
      <trkpt lat="47.27428" lon="-2.34495">
        <ele>-23.799999237061</ele>
        <time>2022-06-16T11:12:40.000Z</time>
      </trkpt>
      <trkpt lat="47.27425" lon="-2.34466">
        <ele>-23.799999237061</ele>
        <time>2022-06-16T11:12:44.000Z</time>
      </trkpt>
      <trkpt lat="47.27421" lon="-2.3442">
        <ele>-23.799999237061</ele>
        <time>2022-06-16T11:12:50.000Z</time>
      </trkpt>
      <trkpt lat="47.27416" lon="-2.34351">
        <ele>-23.799999237061</ele>
        <time>2022-06-16T11:12:59.000Z</time>
      </trkpt>
      <trkpt lat="47.27414" lon="-2.34327">
        <ele>-24.200000762939</ele>
        <time>2022-06-16T11:13:02.000Z</time>
      </trkpt>
      <trkpt lat="47.27414" lon="-2.34319">
        <ele>-24.60000038147</ele>
        <time>2022-06-16T11:13:03.000Z</time>
      </trkpt>
      <trkpt lat="47.27415" lon="-2.34311">
        <ele>-25</ele>
        <time>2022-06-16T11:13:04.000Z</time>
      </trkpt>
      <trkpt lat="47.27415" lon="-2.34303">
        <ele>-26</ele>
        <time>2022-06-16T11:13:05.000Z</time>
      </trkpt>
      <trkpt lat="47.27415" lon="-2.34273">
        <ele>-26</ele>
        <time>2022-06-16T11:13:09.000Z</time>
      </trkpt>
      <trkpt lat="47.27415" lon="-2.34251">
        <ele>-26</ele>
        <time>2022-06-16T11:13:12.000Z</time>
      </trkpt>
      <trkpt lat="47.27412" lon="-2.34243">
        <ele>-26</ele>
        <time>2022-06-16T11:13:14.000Z</time>
      </trkpt>
      <trkpt lat="47.27409" lon="-2.34243">
        <ele>-26</ele>
        <time>2022-06-16T11:13:15.000Z</time>
      </trkpt>
      <trkpt lat="47.27404" lon="-2.34239">
        <ele>-26.39999961853</ele>
        <time>2022-06-16T11:13:17.000Z</time>
      </trkpt>
      <trkpt lat="47.27402" lon="-2.34234">
        <ele>-26.799999237061</ele>
        <time>2022-06-16T11:13:18.000Z</time>
      </trkpt>
      <trkpt lat="47.27401" lon="-2.34229">
        <ele>-27.200000762939</ele>
        <time>2022-06-16T11:13:19.000Z</time>
      </trkpt>
      <trkpt lat="47.274" lon="-2.34222">
        <ele>-27.60000038147</ele>
        <time>2022-06-16T11:13:20.000Z</time>
      </trkpt>
      <trkpt lat="47.27399" lon="-2.34216">
        <ele>-28</ele>
        <time>2022-06-16T11:13:21.000Z</time>
      </trkpt>
      <trkpt lat="47.27396" lon="-2.34204">
        <ele>-28</ele>
        <time>2022-06-16T11:13:23.000Z</time>
      </trkpt>
      <trkpt lat="47.27393" lon="-2.34198">
        <ele>-28</ele>
        <time>2022-06-16T11:13:24.000Z</time>
      </trkpt>
      <trkpt lat="47.27378" lon="-2.3418">
        <ele>-28</ele>
        <time>2022-06-16T11:13:28.000Z</time>
      </trkpt>
      <trkpt lat="47.27359" lon="-2.34168">
        <ele>-28</ele>
        <time>2022-06-16T11:13:32.000Z</time>
      </trkpt>
      <trkpt lat="47.27349" lon="-2.34163">
        <ele>-28</ele>
        <time>2022-06-16T11:13:34.000Z</time>
      </trkpt>
      <trkpt lat="47.27323" lon="-2.34146">
        <ele>-28</ele>
        <time>2022-06-16T11:13:40.000Z</time>
      </trkpt>
      <trkpt lat="47.27295" lon="-2.34125">
        <ele>-28</ele>
        <time>2022-06-16T11:13:46.000Z</time>
      </trkpt>
      <trkpt lat="47.27291" lon="-2.34122">
        <ele>-28</ele>
        <time>2022-06-16T11:13:47.000Z</time>
      </trkpt>
      <trkpt lat="47.27268" lon="-2.34116">
        <ele>-28</ele>
        <time>2022-06-16T11:13:52.000Z</time>
      </trkpt>
      <trkpt lat="47.27257" lon="-2.34117">
        <ele>-28</ele>
        <time>2022-06-16T11:13:54.000Z</time>
      </trkpt>
      <trkpt lat="47.27235" lon="-2.34119">
        <ele>-28</ele>
        <time>2022-06-16T11:13:58.000Z</time>
      </trkpt>
      <trkpt lat="47.27189" lon="-2.34126">
        <ele>-28</ele>
        <time>2022-06-16T11:14:06.000Z</time>
      </trkpt>
      <trkpt lat="47.27165" lon="-2.3413">
        <ele>-28.39999961853</ele>
        <time>2022-06-16T11:14:10.000Z</time>
      </trkpt>
      <trkpt lat="47.27158" lon="-2.34131">
        <ele>-28.799999237061</ele>
        <time>2022-06-16T11:14:11.000Z</time>
      </trkpt>
      <trkpt lat="47.27151" lon="-2.34131">
        <ele>-29.200000762939</ele>
        <time>2022-06-16T11:14:12.000Z</time>
      </trkpt>
      <trkpt lat="47.27143" lon="-2.34132">
        <ele>-29.60000038147</ele>
        <time>2022-06-16T11:14:13.000Z</time>
      </trkpt>
      <trkpt lat="47.27135" lon="-2.34133">
        <ele>-30</ele>
        <time>2022-06-16T11:14:14.000Z</time>
      </trkpt>
      <trkpt lat="47.27127" lon="-2.34134">
        <ele>-30.60000038147</ele>
        <time>2022-06-16T11:14:15.000Z</time>
      </trkpt>
      <trkpt lat="47.27119" lon="-2.34135">
        <ele>-31.200000762939</ele>
        <time>2022-06-16T11:14:16.000Z</time>
      </trkpt>
      <trkpt lat="47.27112" lon="-2.34136">
        <ele>-31.799999237061</ele>
        <time>2022-06-16T11:14:17.000Z</time>
      </trkpt>
      <trkpt lat="47.27106" lon="-2.34136">
        <ele>-32.599998474121</ele>
        <time>2022-06-16T11:14:18.000Z</time>
      </trkpt>
      <trkpt lat="47.27102" lon="-2.34136">
        <ele>-34</ele>
        <time>2022-06-16T11:14:19.000Z</time>
      </trkpt>
      <trkpt lat="47.27099" lon="-2.34136">
        <ele>-34.799999237061</ele>
        <time>2022-06-16T11:14:20.000Z</time>
      </trkpt>
      <trkpt lat="47.27096" lon="-2.34135">
        <ele>-35.599998474121</ele>
        <time>2022-06-16T11:14:21.000Z</time>
      </trkpt>
      <trkpt lat="47.27095" lon="-2.34132">
        <ele>-36.200000762939</ele>
        <time>2022-06-16T11:14:22.000Z</time>
      </trkpt>
      <trkpt lat="47.27093" lon="-2.34127">
        <ele>-37</ele>
        <time>2022-06-16T11:14:23.000Z</time>
      </trkpt>
      <trkpt lat="47.27092" lon="-2.34106">
        <ele>-37</ele>
        <time>2022-06-16T11:14:27.000Z</time>
      </trkpt>
      <trkpt lat="47.2709" lon="-2.34103">
        <ele>-37</ele>
        <time>2022-06-16T11:14:28.000Z</time>
      </trkpt>
      <trkpt lat="47.27083" lon="-2.34104">
        <ele>-37</ele>
        <time>2022-06-16T11:14:30.000Z</time>
      </trkpt>
      <trkpt lat="47.27074" lon="-2.34121">
        <ele>-37</ele>
        <time>2022-06-16T11:14:33.000Z</time>
      </trkpt>
      <trkpt lat="47.27071" lon="-2.34127">
        <ele>-37</ele>
        <time>2022-06-16T11:14:34.000Z</time>
      </trkpt>
      <trkpt lat="47.27052" lon="-2.34158">
        <ele>-37</ele>
        <time>2022-06-16T11:14:39.000Z</time>
      </trkpt>
      <trkpt lat="47.27046" lon="-2.3416">
        <ele>-37.400001525879</ele>
        <time>2022-06-16T11:14:41.000Z</time>
      </trkpt>
      <trkpt lat="47.27044" lon="-2.34157">
        <ele>-37.799999237061</ele>
        <time>2022-06-16T11:14:42.000Z</time>
      </trkpt>
      <trkpt lat="47.27041" lon="-2.34153">
        <ele>-38.200000762939</ele>
        <time>2022-06-16T11:14:43.000Z</time>
      </trkpt>
      <trkpt lat="47.27041" lon="-2.34148">
        <ele>-38.599998474121</ele>
        <time>2022-06-16T11:14:44.000Z</time>
      </trkpt>
      <trkpt lat="47.2704" lon="-2.34141">
        <ele>-39</ele>
        <time>2022-06-16T11:14:45.000Z</time>
      </trkpt>
      <trkpt lat="47.27041" lon="-2.34127">
        <ele>-39</ele>
        <time>2022-06-16T11:14:47.000Z</time>
      </trkpt>
      <trkpt lat="47.27042" lon="-2.34104">
        <ele>-39</ele>
        <time>2022-06-16T11:14:50.000Z</time>
      </trkpt>
      <trkpt lat="47.27042" lon="-2.34035">
        <ele>-39</ele>
        <time>2022-06-16T11:14:59.000Z</time>
      </trkpt>
      <trkpt lat="47.27042" lon="-2.34023">
        <ele>-39</ele>
        <time>2022-06-16T11:15:01.000Z</time>
      </trkpt>
      <trkpt lat="47.27035" lon="-2.34014">
        <ele>-39</ele>
        <time>2022-06-16T11:15:03.000Z</time>
      </trkpt>
      <trkpt lat="47.27019" lon="-2.34013">
        <ele>-39</ele>
        <time>2022-06-16T11:15:06.000Z</time>
      </trkpt>
      <trkpt lat="47.27006" lon="-2.34015">
        <ele>-39</ele>
        <time>2022-06-16T11:15:08.000Z</time>
      </trkpt>
      <trkpt lat="47.26983" lon="-2.34018">
        <ele>-39</ele>
        <time>2022-06-16T11:15:12.000Z</time>
      </trkpt>
      <trkpt lat="47.26966" lon="-2.34017">
        <ele>-39</ele>
        <time>2022-06-16T11:15:15.000Z</time>
      </trkpt>
      <trkpt lat="47.26963" lon="-2.34007">
        <ele>-39</ele>
        <time>2022-06-16T11:15:17.000Z</time>
      </trkpt>
      <trkpt lat="47.26965" lon="-2.33985">
        <ele>-39</ele>
        <time>2022-06-16T11:15:20.000Z</time>
      </trkpt>
      <trkpt lat="47.26968" lon="-2.33969">
        <ele>-39</ele>
        <time>2022-06-16T11:15:22.000Z</time>
      </trkpt>
      <trkpt lat="47.26974" lon="-2.3394">
        <ele>-39</ele>
        <time>2022-06-16T11:15:26.000Z</time>
      </trkpt>
      <trkpt lat="47.26991" lon="-2.33878">
        <ele>-39</ele>
        <time>2022-06-16T11:15:35.000Z</time>
      </trkpt>
      <trkpt lat="47.26996" lon="-2.33858">
        <ele>-39</ele>
        <time>2022-06-16T11:15:38.000Z</time>
      </trkpt>
      <trkpt lat="47.26996" lon="-2.33853">
        <ele>-39</ele>
        <time>2022-06-16T11:15:39.000Z</time>
      </trkpt>
      <trkpt lat="47.26992" lon="-2.33844">
        <ele>-38.599998474121</ele>
        <time>2022-06-16T11:15:41.000Z</time>
      </trkpt>
      <trkpt lat="47.26987" lon="-2.33841">
        <ele>-38.200000762939</ele>
        <time>2022-06-16T11:15:42.000Z</time>
      </trkpt>
      <trkpt lat="47.26983" lon="-2.33838">
        <ele>-37.799999237061</ele>
        <time>2022-06-16T11:15:43.000Z</time>
      </trkpt>
      <trkpt lat="47.26978" lon="-2.33835">
        <ele>-37.400001525879</ele>
        <time>2022-06-16T11:15:44.000Z</time>
      </trkpt>
      <trkpt lat="47.26972" lon="-2.33833">
        <ele>-37</ele>
        <time>2022-06-16T11:15:45.000Z</time>
      </trkpt>
      <trkpt lat="47.2696" lon="-2.33826">
        <ele>-37</ele>
        <time>2022-06-16T11:15:47.000Z</time>
      </trkpt>
      <trkpt lat="47.26954" lon="-2.33823">
        <ele>-37.400001525879</ele>
        <time>2022-06-16T11:15:48.000Z</time>
      </trkpt>
      <trkpt lat="47.26948" lon="-2.33819">
        <ele>-37.799999237061</ele>
        <time>2022-06-16T11:15:49.000Z</time>
      </trkpt>
      <trkpt lat="47.26942" lon="-2.33815">
        <ele>-38.200000762939</ele>
        <time>2022-06-16T11:15:50.000Z</time>
      </trkpt>
      <trkpt lat="47.26936" lon="-2.33811">
        <ele>-38.599998474121</ele>
        <time>2022-06-16T11:15:51.000Z</time>
      </trkpt>
      <trkpt lat="47.2693" lon="-2.33806">
        <ele>-39.200000762939</ele>
        <time>2022-06-16T11:15:52.000Z</time>
      </trkpt>
      <trkpt lat="47.26927" lon="-2.33798">
        <ele>-39.200000762939</ele>
        <time>2022-06-16T11:15:53.000Z</time>
      </trkpt>
      <trkpt lat="47.26926" lon="-2.33775">
        <ele>-39.200000762939</ele>
        <time>2022-06-16T11:15:56.000Z</time>
      </trkpt>
      <trkpt lat="47.26929" lon="-2.33762">
        <ele>-39.200000762939</ele>
        <time>2022-06-16T11:15:58.000Z</time>
      </trkpt>
      <trkpt lat="47.26933" lon="-2.33741">
        <ele>-39.200000762939</ele>
        <time>2022-06-16T11:16:01.000Z</time>
      </trkpt>
      <trkpt lat="47.26938" lon="-2.33706">
        <ele>-39.200000762939</ele>
        <time>2022-06-16T11:16:06.000Z</time>
      </trkpt>
      <trkpt lat="47.26935" lon="-2.33693">
        <ele>-39.200000762939</ele>
        <time>2022-06-16T11:16:08.000Z</time>
      </trkpt>
      <trkpt lat="47.26933" lon="-2.33686">
        <ele>-39.200000762939</ele>
        <time>2022-06-16T11:16:09.000Z</time>
      </trkpt>
      <trkpt lat="47.26926" lon="-2.33648">
        <ele>-39.200000762939</ele>
        <time>2022-06-16T11:16:14.000Z</time>
      </trkpt>
      <trkpt lat="47.26913" lon="-2.33596">
        <ele>-39.599998474121</ele>
        <time>2022-06-16T11:16:21.000Z</time>
      </trkpt>
      <trkpt lat="47.26911" lon="-2.33588">
        <ele>-40</ele>
        <time>2022-06-16T11:16:22.000Z</time>
      </trkpt>
      <trkpt lat="47.26908" lon="-2.33582">
        <ele>-40.400001525879</ele>
        <time>2022-06-16T11:16:23.000Z</time>
      </trkpt>
      <trkpt lat="47.26905" lon="-2.33575">
        <ele>-41.200000762939</ele>
        <time>2022-06-16T11:16:24.000Z</time>
      </trkpt>
      <trkpt lat="47.26894" lon="-2.33547">
        <ele>-41.200000762939</ele>
        <time>2022-06-16T11:16:28.000Z</time>
      </trkpt>
      <trkpt lat="47.2689" lon="-2.33541">
        <ele>-41.200000762939</ele>
        <time>2022-06-16T11:16:29.000Z</time>
      </trkpt>
      <trkpt lat="47.26878" lon="-2.33534">
        <ele>-41.599998474121</ele>
        <time>2022-06-16T11:16:31.000Z</time>
      </trkpt>
      <trkpt lat="47.26871" lon="-2.33535">
        <ele>-42.200000762939</ele>
        <time>2022-06-16T11:16:32.000Z</time>
      </trkpt>
      <trkpt lat="47.26864" lon="-2.33537">
        <ele>-42.599998474121</ele>
        <time>2022-06-16T11:16:33.000Z</time>
      </trkpt>
      <trkpt lat="47.26858" lon="-2.33539">
        <ele>-43</ele>
        <time>2022-06-16T11:16:34.000Z</time>
      </trkpt>
      <trkpt lat="47.26851" lon="-2.33541">
        <ele>-43.599998474121</ele>
        <time>2022-06-16T11:16:35.000Z</time>
      </trkpt>
      <trkpt lat="47.26838" lon="-2.33547">
        <ele>-43.599998474121</ele>
        <time>2022-06-16T11:16:37.000Z</time>
      </trkpt>
      <trkpt lat="47.268" lon="-2.3356">
        <ele>-43.599998474121</ele>
        <time>2022-06-16T11:16:43.000Z</time>
      </trkpt>
      <trkpt lat="47.26784" lon="-2.33568">
        <ele>-43.599998474121</ele>
        <time>2022-06-16T11:16:46.000Z</time>
      </trkpt>
      <trkpt lat="47.26781" lon="-2.33572">
        <ele>-44</ele>
        <time>2022-06-16T11:16:47.000Z</time>
      </trkpt>
      <trkpt lat="47.2678" lon="-2.33578">
        <ele>-44.799999237061</ele>
        <time>2022-06-16T11:16:48.000Z</time>
      </trkpt>
      <trkpt lat="47.26779" lon="-2.33584">
        <ele>-45.200000762939</ele>
        <time>2022-06-16T11:16:49.000Z</time>
      </trkpt>
      <trkpt lat="47.26779" lon="-2.3359">
        <ele>-45.599998474121</ele>
        <time>2022-06-16T11:16:50.000Z</time>
      </trkpt>
      <trkpt lat="47.26779" lon="-2.33605">
        <ele>-45.599998474121</ele>
        <time>2022-06-16T11:16:52.000Z</time>
      </trkpt>
      <trkpt lat="47.26779" lon="-2.33634">
        <ele>-45.599998474121</ele>
        <time>2022-06-16T11:16:56.000Z</time>
      </trkpt>
      <trkpt lat="47.26778" lon="-2.3367">
        <ele>-45.599998474121</ele>
        <time>2022-06-16T11:17:01.000Z</time>
      </trkpt>
      <trkpt lat="47.26778" lon="-2.33676">
        <ele>-45.200000762939</ele>
        <time>2022-06-16T11:17:02.000Z</time>
      </trkpt>
      <trkpt lat="47.26778" lon="-2.33682">
        <ele>-44.799999237061</ele>
        <time>2022-06-16T11:17:03.000Z</time>
      </trkpt>
      <trkpt lat="47.26778" lon="-2.33688">
        <ele>-44.400001525879</ele>
        <time>2022-06-16T11:17:04.000Z</time>
      </trkpt>
      <trkpt lat="47.26778" lon="-2.33694">
        <ele>-44</ele>
        <time>2022-06-16T11:17:05.000Z</time>
      </trkpt>
      <trkpt lat="47.26777" lon="-2.33699">
        <ele>-43.599998474121</ele>
        <time>2022-06-16T11:17:06.000Z</time>
      </trkpt>
      <trkpt lat="47.26769" lon="-2.33705">
        <ele>-43.599998474121</ele>
        <time>2022-06-16T11:17:08.000Z</time>
      </trkpt>
      <trkpt lat="47.26754" lon="-2.33703">
        <ele>-43.599998474121</ele>
        <time>2022-06-16T11:17:11.000Z</time>
      </trkpt>
      <trkpt lat="47.26749" lon="-2.33702">
        <ele>-43.599998474121</ele>
        <time>2022-06-16T11:17:12.000Z</time>
      </trkpt>
      <trkpt lat="47.26718" lon="-2.337">
        <ele>-43.599998474121</ele>
        <time>2022-06-16T11:17:18.000Z</time>
      </trkpt>
      <trkpt lat="47.26684" lon="-2.33697">
        <ele>-43.599998474121</ele>
        <time>2022-06-16T11:17:25.000Z</time>
      </trkpt>
      <trkpt lat="47.2666" lon="-2.33699">
        <ele>-43.599998474121</ele>
        <time>2022-06-16T11:17:30.000Z</time>
      </trkpt>
      <trkpt lat="47.26633" lon="-2.337">
        <ele>-43.599998474121</ele>
        <time>2022-06-16T11:17:36.000Z</time>
      </trkpt>
      <trkpt lat="47.26612" lon="-2.33701">
        <ele>-43.599998474121</ele>
        <time>2022-06-16T11:17:42.000Z</time>
      </trkpt>
      <trkpt lat="47.26606" lon="-2.33701">
        <ele>-43.599998474121</ele>
        <time>2022-06-16T11:17:47.000Z</time>
      </trkpt>
      <trkpt lat="47.26593" lon="-2.33696">
        <ele>-43.599998474121</ele>
        <time>2022-06-16T11:17:51.000Z</time>
      </trkpt>
      <trkpt lat="47.26574" lon="-2.3368">
        <ele>-43.599998474121</ele>
        <time>2022-06-16T11:17:56.000Z</time>
      </trkpt>
      <trkpt lat="47.26573" lon="-2.3366">
        <ele>-43.599998474121</ele>
        <time>2022-06-16T11:17:59.000Z</time>
      </trkpt>
      <trkpt lat="47.26573" lon="-2.33652">
        <ele>-43.599998474121</ele>
        <time>2022-06-16T11:18:00.000Z</time>
      </trkpt>
      <trkpt lat="47.26573" lon="-2.33644">
        <ele>-43.599998474121</ele>
        <time>2022-06-16T11:18:01.000Z</time>
      </trkpt>
      <trkpt lat="47.2657" lon="-2.33628">
        <ele>-43.599998474121</ele>
        <time>2022-06-16T11:18:03.000Z</time>
      </trkpt>
      <trkpt lat="47.26561" lon="-2.33558">
        <ele>-43.599998474121</ele>
        <time>2022-06-16T11:18:11.000Z</time>
      </trkpt>
      <trkpt lat="47.26549" lon="-2.33479">
        <ele>-44.200000762939</ele>
        <time>2022-06-16T11:18:20.000Z</time>
      </trkpt>
      <trkpt lat="47.26548" lon="-2.3347">
        <ele>-44.599998474121</ele>
        <time>2022-06-16T11:18:21.000Z</time>
      </trkpt>
      <trkpt lat="47.26546" lon="-2.33461">
        <ele>-45</ele>
        <time>2022-06-16T11:18:22.000Z</time>
      </trkpt>
      <trkpt lat="47.26545" lon="-2.33453">
        <ele>-45.400001525879</ele>
        <time>2022-06-16T11:18:23.000Z</time>
      </trkpt>
      <trkpt lat="47.26544" lon="-2.33445">
        <ele>-45.799999237061</ele>
        <time>2022-06-16T11:18:24.000Z</time>
      </trkpt>
      <trkpt lat="47.26538" lon="-2.33414">
        <ele>-45.799999237061</ele>
        <time>2022-06-16T11:18:28.000Z</time>
      </trkpt>
      <trkpt lat="47.26521" lon="-2.33356">
        <ele>-45.799999237061</ele>
        <time>2022-06-16T11:18:36.000Z</time>
      </trkpt>
      <trkpt lat="47.26503" lon="-2.33336">
        <ele>-45.799999237061</ele>
        <time>2022-06-16T11:18:40.000Z</time>
      </trkpt>
      <trkpt lat="47.26495" lon="-2.33327">
        <ele>-45.799999237061</ele>
        <time>2022-06-16T11:18:42.000Z</time>
      </trkpt>
      <trkpt lat="47.26491" lon="-2.33312">
        <ele>-45.799999237061</ele>
        <time>2022-06-16T11:18:44.000Z</time>
      </trkpt>
      <trkpt lat="47.26492" lon="-2.33289">
        <ele>-45.799999237061</ele>
        <time>2022-06-16T11:18:47.000Z</time>
      </trkpt>
      <trkpt lat="47.26492" lon="-2.33275">
        <ele>-45.799999237061</ele>
        <time>2022-06-16T11:18:49.000Z</time>
      </trkpt>
      <trkpt lat="47.26485" lon="-2.3327">
        <ele>-45.799999237061</ele>
        <time>2022-06-16T11:18:51.000Z</time>
      </trkpt>
      <trkpt lat="47.26466" lon="-2.3327">
        <ele>-45.799999237061</ele>
        <time>2022-06-16T11:18:55.000Z</time>
      </trkpt>
      <trkpt lat="47.26425" lon="-2.33265">
        <ele>-45.799999237061</ele>
        <time>2022-06-16T11:19:03.000Z</time>
      </trkpt>
      <trkpt lat="47.26389" lon="-2.33257">
        <ele>-45.799999237061</ele>
        <time>2022-06-16T11:19:10.000Z</time>
      </trkpt>
      <trkpt lat="47.26385" lon="-2.33252">
        <ele>-45.799999237061</ele>
        <time>2022-06-16T11:19:11.000Z</time>
      </trkpt>
      <trkpt lat="47.26379" lon="-2.33231">
        <ele>-45.799999237061</ele>
        <time>2022-06-16T11:19:14.000Z</time>
      </trkpt>
      <trkpt lat="47.26378" lon="-2.33216">
        <ele>-45.799999237061</ele>
        <time>2022-06-16T11:19:16.000Z</time>
      </trkpt>
      <trkpt lat="47.26377" lon="-2.33185">
        <ele>-45.799999237061</ele>
        <time>2022-06-16T11:19:20.000Z</time>
      </trkpt>
      <trkpt lat="47.26374" lon="-2.33124">
        <ele>-45.799999237061</ele>
        <time>2022-06-16T11:19:28.000Z</time>
      </trkpt>
      <trkpt lat="47.2637" lon="-2.33063">
        <ele>-45.799999237061</ele>
        <time>2022-06-16T11:19:36.000Z</time>
      </trkpt>
      <trkpt lat="47.26367" lon="-2.33002">
        <ele>-45.799999237061</ele>
        <time>2022-06-16T11:19:44.000Z</time>
      </trkpt>
      <trkpt lat="47.26366" lon="-2.32993">
        <ele>-45.799999237061</ele>
        <time>2022-06-16T11:19:45.000Z</time>
      </trkpt>
      <trkpt lat="47.26363" lon="-2.32979">
        <ele>-45.799999237061</ele>
        <time>2022-06-16T11:19:47.000Z</time>
      </trkpt>
      <trkpt lat="47.26355" lon="-2.32969">
        <ele>-45.799999237061</ele>
        <time>2022-06-16T11:19:49.000Z</time>
      </trkpt>
      <trkpt lat="47.26348" lon="-2.32957">
        <ele>-45.799999237061</ele>
        <time>2022-06-16T11:19:51.000Z</time>
      </trkpt>
      <trkpt lat="47.26339" lon="-2.32936">
        <ele>-45.799999237061</ele>
        <time>2022-06-16T11:19:54.000Z</time>
      </trkpt>
      <trkpt lat="47.26324" lon="-2.32886">
        <ele>-45.799999237061</ele>
        <time>2022-06-16T11:20:01.000Z</time>
      </trkpt>
      <trkpt lat="47.26316" lon="-2.32867">
        <ele>-45.799999237061</ele>
        <time>2022-06-16T11:20:04.000Z</time>
      </trkpt>
      <trkpt lat="47.26303" lon="-2.32856">
        <ele>-45.799999237061</ele>
        <time>2022-06-16T11:20:07.000Z</time>
      </trkpt>
      <trkpt lat="47.26298" lon="-2.32853">
        <ele>-45.799999237061</ele>
        <time>2022-06-16T11:20:08.000Z</time>
      </trkpt>
      <trkpt lat="47.26293" lon="-2.3285">
        <ele>-45.799999237061</ele>
        <time>2022-06-16T11:20:09.000Z</time>
      </trkpt>
      <trkpt lat="47.26286" lon="-2.3284">
        <ele>-45.799999237061</ele>
        <time>2022-06-16T11:20:11.000Z</time>
      </trkpt>
      <trkpt lat="47.26284" lon="-2.32834">
        <ele>-45.799999237061</ele>
        <time>2022-06-16T11:20:12.000Z</time>
      </trkpt>
      <trkpt lat="47.26278" lon="-2.32813">
        <ele>-45.799999237061</ele>
        <time>2022-06-16T11:20:15.000Z</time>
      </trkpt>
      <trkpt lat="47.26275" lon="-2.32806">
        <ele>-45.799999237061</ele>
        <time>2022-06-16T11:20:16.000Z</time>
      </trkpt>
      <trkpt lat="47.26273" lon="-2.32799">
        <ele>-45.799999237061</ele>
        <time>2022-06-16T11:20:17.000Z</time>
      </trkpt>
      <trkpt lat="47.2626" lon="-2.32768">
        <ele>-45.799999237061</ele>
        <time>2022-06-16T11:20:22.000Z</time>
      </trkpt>
      <trkpt lat="47.26237" lon="-2.32731">
        <ele>-45.799999237061</ele>
        <time>2022-06-16T11:20:29.000Z</time>
      </trkpt>
      <trkpt lat="47.26211" lon="-2.32692">
        <ele>-45.799999237061</ele>
        <time>2022-06-16T11:20:37.000Z</time>
      </trkpt>
      <trkpt lat="47.26186" lon="-2.32665">
        <ele>-45.799999237061</ele>
        <time>2022-06-16T11:20:43.000Z</time>
      </trkpt>
      <trkpt lat="47.26178" lon="-2.32658">
        <ele>-45.799999237061</ele>
        <time>2022-06-16T11:20:45.000Z</time>
      </trkpt>
      <trkpt lat="47.26155" lon="-2.32644">
        <ele>-45.799999237061</ele>
        <time>2022-06-16T11:20:50.000Z</time>
      </trkpt>
      <trkpt lat="47.26125" lon="-2.32635">
        <ele>-45.799999237061</ele>
        <time>2022-06-16T11:20:56.000Z</time>
      </trkpt>
      <trkpt lat="47.26088" lon="-2.32639">
        <ele>-45.799999237061</ele>
        <time>2022-06-16T11:21:03.000Z</time>
      </trkpt>
      <trkpt lat="47.26044" lon="-2.32646">
        <ele>-45.799999237061</ele>
        <time>2022-06-16T11:21:11.000Z</time>
      </trkpt>
      <trkpt lat="47.25994" lon="-2.32655">
        <ele>-45.799999237061</ele>
        <time>2022-06-16T11:21:20.000Z</time>
      </trkpt>
      <trkpt lat="47.25989" lon="-2.32655">
        <ele>-45.799999237061</ele>
        <time>2022-06-16T11:21:21.000Z</time>
      </trkpt>
      <trkpt lat="47.25968" lon="-2.32654">
        <ele>-45.799999237061</ele>
        <time>2022-06-16T11:21:25.000Z</time>
      </trkpt>
      <trkpt lat="47.2596" lon="-2.32645">
        <ele>-45.799999237061</ele>
        <time>2022-06-16T11:21:28.000Z</time>
      </trkpt>
      <trkpt lat="47.25958" lon="-2.32611">
        <ele>-45.799999237061</ele>
        <time>2022-06-16T11:21:33.000Z</time>
      </trkpt>
      <trkpt lat="47.25957" lon="-2.32604">
        <ele>-45.799999237061</ele>
        <time>2022-06-16T11:21:34.000Z</time>
      </trkpt>
      <trkpt lat="47.25947" lon="-2.32561">
        <ele>-45.799999237061</ele>
        <time>2022-06-16T11:21:40.000Z</time>
      </trkpt>
      <trkpt lat="47.25929" lon="-2.32503">
        <ele>-45.799999237061</ele>
        <time>2022-06-16T11:21:49.000Z</time>
      </trkpt>
      <trkpt lat="47.25918" lon="-2.32475">
        <ele>-45.799999237061</ele>
        <time>2022-06-16T11:21:54.000Z</time>
      </trkpt>
      <trkpt lat="47.25912" lon="-2.32468">
        <ele>-45.799999237061</ele>
        <time>2022-06-16T11:21:56.000Z</time>
      </trkpt>
      <trkpt lat="47.25902" lon="-2.32459">
        <ele>-45.799999237061</ele>
        <time>2022-06-16T11:21:59.000Z</time>
      </trkpt>
      <trkpt lat="47.25902" lon="-2.32454">
        <ele>-45.799999237061</ele>
        <time>2022-06-16T11:22:00.000Z</time>
      </trkpt>
      <trkpt lat="47.25909" lon="-2.32443">
        <ele>-45.799999237061</ele>
        <time>2022-06-16T11:22:03.000Z</time>
      </trkpt>
      <trkpt lat="47.25913" lon="-2.32439">
        <ele>-45.799999237061</ele>
        <time>2022-06-16T11:22:04.000Z</time>
      </trkpt>
      <trkpt lat="47.25933" lon="-2.32415">
        <ele>-45.799999237061</ele>
        <time>2022-06-16T11:22:09.000Z</time>
      </trkpt>
      <trkpt lat="47.25952" lon="-2.3239">
        <ele>-45.799999237061</ele>
        <time>2022-06-16T11:22:14.000Z</time>
      </trkpt>
      <trkpt lat="47.25963" lon="-2.32375">
        <ele>-45.799999237061</ele>
        <time>2022-06-16T11:22:17.000Z</time>
      </trkpt>
      <trkpt lat="47.25994" lon="-2.32336">
        <ele>-45.799999237061</ele>
        <time>2022-06-16T11:22:25.000Z</time>
      </trkpt>
      <trkpt lat="47.26018" lon="-2.32306">
        <ele>-45.799999237061</ele>
        <time>2022-06-16T11:22:31.000Z</time>
      </trkpt>
      <trkpt lat="47.26044" lon="-2.32276">
        <ele>-45.799999237061</ele>
        <time>2022-06-16T11:22:37.000Z</time>
      </trkpt>
      <trkpt lat="47.26052" lon="-2.32266">
        <ele>-45.799999237061</ele>
        <time>2022-06-16T11:22:39.000Z</time>
      </trkpt>
      <trkpt lat="47.26063" lon="-2.32251">
        <ele>-45.799999237061</ele>
        <time>2022-06-16T11:22:42.000Z</time>
      </trkpt>
      <trkpt lat="47.2609" lon="-2.32216">
        <ele>-45.799999237061</ele>
        <time>2022-06-16T11:22:49.000Z</time>
      </trkpt>
      <trkpt lat="47.26101" lon="-2.32198">
        <ele>-45.799999237061</ele>
        <time>2022-06-16T11:22:52.000Z</time>
      </trkpt>
      <trkpt lat="47.26105" lon="-2.32191">
        <ele>-45.799999237061</ele>
        <time>2022-06-16T11:22:53.000Z</time>
      </trkpt>
      <trkpt lat="47.26124" lon="-2.32142">
        <ele>-45.799999237061</ele>
        <time>2022-06-16T11:23:00.000Z</time>
      </trkpt>
      <trkpt lat="47.2614" lon="-2.32092">
        <ele>-45.799999237061</ele>
        <time>2022-06-16T11:23:07.000Z</time>
      </trkpt>
      <trkpt lat="47.26154" lon="-2.3205">
        <ele>-45.799999237061</ele>
        <time>2022-06-16T11:23:13.000Z</time>
      </trkpt>
      <trkpt lat="47.26164" lon="-2.32025">
        <ele>-45.799999237061</ele>
        <time>2022-06-16T11:23:17.000Z</time>
      </trkpt>
      <trkpt lat="47.26171" lon="-2.3202">
        <ele>-45.799999237061</ele>
        <time>2022-06-16T11:23:19.000Z</time>
      </trkpt>
      <trkpt lat="47.26182" lon="-2.32021">
        <ele>-45.799999237061</ele>
        <time>2022-06-16T11:23:22.000Z</time>
      </trkpt>
      <trkpt lat="47.26188" lon="-2.32023">
        <ele>-45.799999237061</ele>
        <time>2022-06-16T11:23:24.000Z</time>
      </trkpt>
      <trkpt lat="47.26196" lon="-2.32022">
        <ele>-45.799999237061</ele>
        <time>2022-06-16T11:23:29.000Z</time>
      </trkpt>
      <trkpt lat="47.26196" lon="-2.32019">
        <ele>-45.799999237061</ele>
        <time>2022-06-16T11:23:30.000Z</time>
      </trkpt>
      <trkpt lat="47.26201" lon="-2.32005">
        <ele>-45.799999237061</ele>
        <time>2022-06-16T11:23:34.000Z</time>
      </trkpt>
      <trkpt lat="47.26213" lon="-2.31992">
        <ele>-45.799999237061</ele>
        <time>2022-06-16T11:23:38.000Z</time>
      </trkpt>
      <trkpt lat="47.26216" lon="-2.31989">
        <ele>-45.799999237061</ele>
        <time>2022-06-16T11:23:39.000Z</time>
      </trkpt>
      <trkpt lat="47.26229" lon="-2.31981">
        <ele>-45.799999237061</ele>
        <time>2022-06-16T11:23:43.000Z</time>
      </trkpt>
      <trkpt lat="47.26232" lon="-2.31978">
        <ele>-45.799999237061</ele>
        <time>2022-06-16T11:23:44.000Z</time>
      </trkpt>
      <trkpt lat="47.26235" lon="-2.3197">
        <ele>-45.799999237061</ele>
        <time>2022-06-16T11:23:46.000Z</time>
      </trkpt>
      <trkpt lat="47.26241" lon="-2.31959">
        <ele>-45.799999237061</ele>
        <time>2022-06-16T11:23:48.000Z</time>
      </trkpt>
      <trkpt lat="47.26246" lon="-2.31949">
        <ele>-45.799999237061</ele>
        <time>2022-06-16T11:23:50.000Z</time>
      </trkpt>
      <trkpt lat="47.26263" lon="-2.31921">
        <ele>-45.799999237061</ele>
        <time>2022-06-16T11:23:56.000Z</time>
      </trkpt>
      <trkpt lat="47.26268" lon="-2.31916">
        <ele>-45.799999237061</ele>
        <time>2022-06-16T11:23:57.000Z</time>
      </trkpt>
      <trkpt lat="47.26284" lon="-2.319">
        <ele>-45.799999237061</ele>
        <time>2022-06-16T11:24:01.000Z</time>
      </trkpt>
      <trkpt lat="47.2629" lon="-2.31889">
        <ele>-45.799999237061</ele>
        <time>2022-06-16T11:24:03.000Z</time>
      </trkpt>
      <trkpt lat="47.26292" lon="-2.31875">
        <ele>-45.799999237061</ele>
        <time>2022-06-16T11:24:05.000Z</time>
      </trkpt>
      <trkpt lat="47.26296" lon="-2.31849">
        <ele>-45.799999237061</ele>
        <time>2022-06-16T11:24:09.000Z</time>
      </trkpt>
      <trkpt lat="47.26296" lon="-2.31842">
        <ele>-45.799999237061</ele>
        <time>2022-06-16T11:24:10.000Z</time>
      </trkpt>
      <trkpt lat="47.26297" lon="-2.31821">
        <ele>-45.799999237061</ele>
        <time>2022-06-16T11:24:13.000Z</time>
      </trkpt>
      <trkpt lat="47.26299" lon="-2.31801">
        <ele>-45.799999237061</ele>
        <time>2022-06-16T11:24:16.000Z</time>
      </trkpt>
      <trkpt lat="47.26299" lon="-2.31787">
        <ele>-45.799999237061</ele>
        <time>2022-06-16T11:24:18.000Z</time>
      </trkpt>
      <trkpt lat="47.26299" lon="-2.31747">
        <ele>-45.799999237061</ele>
        <time>2022-06-16T11:24:23.000Z</time>
      </trkpt>
      <trkpt lat="47.26299" lon="-2.31733">
        <ele>-45.799999237061</ele>
        <time>2022-06-16T11:24:25.000Z</time>
      </trkpt>
      <trkpt lat="47.26304" lon="-2.3172">
        <ele>-45.799999237061</ele>
        <time>2022-06-16T11:24:27.000Z</time>
      </trkpt>
      <trkpt lat="47.26319" lon="-2.31709">
        <ele>-45.799999237061</ele>
        <time>2022-06-16T11:24:31.000Z</time>
      </trkpt>
      <trkpt lat="47.26333" lon="-2.31699">
        <ele>-45.799999237061</ele>
        <time>2022-06-16T11:24:35.000Z</time>
      </trkpt>
      <trkpt lat="47.26333" lon="-2.31694">
        <ele>-45.799999237061</ele>
        <time>2022-06-16T11:24:36.000Z</time>
      </trkpt>
      <trkpt lat="47.26339" lon="-2.31685">
        <ele>-45.799999237061</ele>
        <time>2022-06-16T11:24:39.000Z</time>
      </trkpt>
      <trkpt lat="47.26349" lon="-2.31679">
        <ele>-45.400001525879</ele>
        <time>2022-06-16T11:24:42.000Z</time>
      </trkpt>
      <trkpt lat="47.26352" lon="-2.31677">
        <ele>-45</ele>
        <time>2022-06-16T11:24:43.000Z</time>
      </trkpt>
      <trkpt lat="47.26356" lon="-2.31675">
        <ele>-44.400001525879</ele>
        <time>2022-06-16T11:24:44.000Z</time>
      </trkpt>
      <trkpt lat="47.26359" lon="-2.31674">
        <ele>-44</ele>
        <time>2022-06-16T11:24:45.000Z</time>
      </trkpt>
      <trkpt lat="47.26362" lon="-2.31673">
        <ele>-43.599998474121</ele>
        <time>2022-06-16T11:24:46.000Z</time>
      </trkpt>
      <trkpt lat="47.26377" lon="-2.31668">
        <ele>-43.599998474121</ele>
        <time>2022-06-16T11:24:50.000Z</time>
      </trkpt>
      <trkpt lat="47.26393" lon="-2.3166">
        <ele>-43.599998474121</ele>
        <time>2022-06-16T11:24:55.000Z</time>
      </trkpt>
      <trkpt lat="47.2641" lon="-2.31645">
        <ele>-43.599998474121</ele>
        <time>2022-06-16T11:25:01.000Z</time>
      </trkpt>
      <trkpt lat="47.2641" lon="-2.3164">
        <ele>-43.200000762939</ele>
        <time>2022-06-16T11:25:02.000Z</time>
      </trkpt>
      <trkpt lat="47.26411" lon="-2.31634">
        <ele>-42.799999237061</ele>
        <time>2022-06-16T11:25:03.000Z</time>
      </trkpt>
      <trkpt lat="47.26411" lon="-2.31629">
        <ele>-42.400001525879</ele>
        <time>2022-06-16T11:25:04.000Z</time>
      </trkpt>
      <trkpt lat="47.2641" lon="-2.31623">
        <ele>-42</ele>
        <time>2022-06-16T11:25:05.000Z</time>
      </trkpt>
      <trkpt lat="47.2641" lon="-2.31617">
        <ele>-41.599998474121</ele>
        <time>2022-06-16T11:25:06.000Z</time>
      </trkpt>
      <trkpt lat="47.2641" lon="-2.31589">
        <ele>-41.599998474121</ele>
        <time>2022-06-16T11:25:11.000Z</time>
      </trkpt>
      <trkpt lat="47.2641" lon="-2.31563">
        <ele>-41.599998474121</ele>
        <time>2022-06-16T11:25:16.000Z</time>
      </trkpt>
      <trkpt lat="47.26412" lon="-2.31551">
        <ele>-41.599998474121</ele>
        <time>2022-06-16T11:25:19.000Z</time>
      </trkpt>
      <trkpt lat="47.26415" lon="-2.31552">
        <ele>-41.599998474121</ele>
        <time>2022-06-16T11:25:20.000Z</time>
      </trkpt>
      <trkpt lat="47.26418" lon="-2.31552">
        <ele>-41.599998474121</ele>
        <time>2022-06-16T11:25:23.000Z</time>
      </trkpt>
    </trkseg>
  </trk>
</gpx>